<?xml version="1.0" encoding="UTF-8" standalone="no" ?>
<gpx xmlns="http://www.topografix.com/GPX/1/1" xmlns:xsi="http://www.w3.org/2001/XMLSchema-instance" xsi:schemaLocation="http://www.topografix.com/GPX/1/1 http://www.topografix.com/GPX/1/1/gpx.xsd" version="1.1" creator="VisuGPX - https://www.visugpx.com">
  <metadata>
    <name>Col des Sauts 18/07/2010</name>
    <desc><![CDATA[Cols des Sauts au Mont Veyrier]]></desc>
  </metadata>
  <trk>
    <name><![CDATA[Col des Sauts 18/07/2010_1]]></name>
    <trkseg>
      <trkpt lat="45.91931" lon="6.13823">
        <ele>523</ele>
        <time>2010-07-18 10:38:35Z</time>
      </trkpt>
      <trkpt lat="45.91931" lon="6.13823">
        <ele>523</ele>
        <time>2010-07-18 10:38:39Z</time>
      </trkpt>
      <trkpt lat="45.91931" lon="6.13823">
        <ele>523</ele>
        <time>2010-07-18 10:38:43Z</time>
      </trkpt>
      <trkpt lat="45.91931" lon="6.13823">
        <ele>523</ele>
        <time>2010-07-18 10:38:47Z</time>
      </trkpt>
      <trkpt lat="45.91931" lon="6.13823">
        <ele>523</ele>
        <time>2010-07-18 10:38:51Z</time>
      </trkpt>
      <trkpt lat="45.91931" lon="6.13823">
        <ele>523</ele>
        <time>2010-07-18 10:38:55Z</time>
      </trkpt>
      <trkpt lat="45.91932" lon="6.13816">
        <ele>526</ele>
        <time>2010-07-18 10:38:59Z</time>
      </trkpt>
      <trkpt lat="45.91935" lon="6.13822">
        <ele>526</ele>
        <time>2010-07-18 10:39:03Z</time>
      </trkpt>
      <trkpt lat="45.91937" lon="6.13837">
        <ele>527</ele>
        <time>2010-07-18 10:39:07Z</time>
      </trkpt>
      <trkpt lat="45.91937" lon="6.13851">
        <ele>530</ele>
        <time>2010-07-18 10:39:11Z</time>
      </trkpt>
      <trkpt lat="45.91937" lon="6.13864">
        <ele>532</ele>
        <time>2010-07-18 10:39:15Z</time>
      </trkpt>
      <trkpt lat="45.91935" lon="6.13876">
        <ele>535</ele>
        <time>2010-07-18 10:39:19Z</time>
      </trkpt>
      <trkpt lat="45.91934" lon="6.13887">
        <ele>538</ele>
        <time>2010-07-18 10:39:23Z</time>
      </trkpt>
      <trkpt lat="45.91933" lon="6.139">
        <ele>541</ele>
        <time>2010-07-18 10:39:27Z</time>
      </trkpt>
      <trkpt lat="45.9193" lon="6.13914">
        <ele>543</ele>
        <time>2010-07-18 10:39:31Z</time>
      </trkpt>
      <trkpt lat="45.91928" lon="6.13931">
        <ele>546</ele>
        <time>2010-07-18 10:39:35Z</time>
      </trkpt>
      <trkpt lat="45.91926" lon="6.13944">
        <ele>548</ele>
        <time>2010-07-18 10:39:39Z</time>
      </trkpt>
      <trkpt lat="45.91924" lon="6.1396">
        <ele>552</ele>
        <time>2010-07-18 10:39:43Z</time>
      </trkpt>
      <trkpt lat="45.91922" lon="6.13976">
        <ele>554</ele>
        <time>2010-07-18 10:39:47Z</time>
      </trkpt>
      <trkpt lat="45.91919" lon="6.13989">
        <ele>555</ele>
        <time>2010-07-18 10:39:51Z</time>
      </trkpt>
      <trkpt lat="45.91917" lon="6.14005">
        <ele>556</ele>
        <time>2010-07-18 10:39:55Z</time>
      </trkpt>
      <trkpt lat="45.91915" lon="6.1402">
        <ele>558</ele>
        <time>2010-07-18 10:39:59Z</time>
      </trkpt>
      <trkpt lat="45.91915" lon="6.14039">
        <ele>560</ele>
        <time>2010-07-18 10:40:03Z</time>
      </trkpt>
      <trkpt lat="45.91916" lon="6.14057">
        <ele>561</ele>
        <time>2010-07-18 10:40:07Z</time>
      </trkpt>
      <trkpt lat="45.91918" lon="6.14071">
        <ele>562</ele>
        <time>2010-07-18 10:40:11Z</time>
      </trkpt>
      <trkpt lat="45.91923" lon="6.14089">
        <ele>563</ele>
        <time>2010-07-18 10:40:15Z</time>
      </trkpt>
      <trkpt lat="45.91928" lon="6.14106">
        <ele>563</ele>
        <time>2010-07-18 10:40:19Z</time>
      </trkpt>
      <trkpt lat="45.91932" lon="6.14124">
        <ele>562</ele>
        <time>2010-07-18 10:40:23Z</time>
      </trkpt>
      <trkpt lat="45.91934" lon="6.14136">
        <ele>562</ele>
        <time>2010-07-18 10:40:27Z</time>
      </trkpt>
      <trkpt lat="45.91938" lon="6.14149">
        <ele>564</ele>
        <time>2010-07-18 10:40:31Z</time>
      </trkpt>
      <trkpt lat="45.91944" lon="6.14161">
        <ele>564</ele>
        <time>2010-07-18 10:40:35Z</time>
      </trkpt>
      <trkpt lat="45.91947" lon="6.14176">
        <ele>567</ele>
        <time>2010-07-18 10:40:39Z</time>
      </trkpt>
      <trkpt lat="45.91946" lon="6.1419">
        <ele>569</ele>
        <time>2010-07-18 10:40:43Z</time>
      </trkpt>
      <trkpt lat="45.91943" lon="6.14207">
        <ele>572</ele>
        <time>2010-07-18 10:40:47Z</time>
      </trkpt>
      <trkpt lat="45.9194" lon="6.14221">
        <ele>573</ele>
        <time>2010-07-18 10:40:51Z</time>
      </trkpt>
      <trkpt lat="45.91937" lon="6.14237">
        <ele>575</ele>
        <time>2010-07-18 10:40:55Z</time>
      </trkpt>
      <trkpt lat="45.91935" lon="6.14249">
        <ele>576</ele>
        <time>2010-07-18 10:40:59Z</time>
      </trkpt>
      <trkpt lat="45.91933" lon="6.14257">
        <ele>578</ele>
        <time>2010-07-18 10:41:03Z</time>
      </trkpt>
      <trkpt lat="45.9193" lon="6.14263">
        <ele>579</ele>
        <time>2010-07-18 10:41:07Z</time>
      </trkpt>
      <trkpt lat="45.91928" lon="6.14277">
        <ele>580</ele>
        <time>2010-07-18 10:41:11Z</time>
      </trkpt>
      <trkpt lat="45.91929" lon="6.14292">
        <ele>581</ele>
        <time>2010-07-18 10:41:15Z</time>
      </trkpt>
      <trkpt lat="45.9193" lon="6.14308">
        <ele>582</ele>
        <time>2010-07-18 10:41:19Z</time>
      </trkpt>
      <trkpt lat="45.9193" lon="6.14324">
        <ele>583</ele>
        <time>2010-07-18 10:41:23Z</time>
      </trkpt>
      <trkpt lat="45.9193" lon="6.14336">
        <ele>584</ele>
        <time>2010-07-18 10:41:27Z</time>
      </trkpt>
      <trkpt lat="45.9193" lon="6.1435">
        <ele>585</ele>
        <time>2010-07-18 10:41:31Z</time>
      </trkpt>
      <trkpt lat="45.91932" lon="6.14364">
        <ele>585</ele>
        <time>2010-07-18 10:41:35Z</time>
      </trkpt>
      <trkpt lat="45.91934" lon="6.14379">
        <ele>587</ele>
        <time>2010-07-18 10:41:39Z</time>
      </trkpt>
      <trkpt lat="45.91936" lon="6.14398">
        <ele>586</ele>
        <time>2010-07-18 10:41:43Z</time>
      </trkpt>
      <trkpt lat="45.91937" lon="6.14416">
        <ele>586</ele>
        <time>2010-07-18 10:41:47Z</time>
      </trkpt>
      <trkpt lat="45.91937" lon="6.14432">
        <ele>586</ele>
        <time>2010-07-18 10:41:51Z</time>
      </trkpt>
      <trkpt lat="45.91939" lon="6.14447">
        <ele>583</ele>
        <time>2010-07-18 10:41:55Z</time>
      </trkpt>
      <trkpt lat="45.91941" lon="6.14465">
        <ele>582</ele>
        <time>2010-07-18 10:41:59Z</time>
      </trkpt>
      <trkpt lat="45.91942" lon="6.1448">
        <ele>581</ele>
        <time>2010-07-18 10:42:03Z</time>
      </trkpt>
      <trkpt lat="45.91942" lon="6.14495">
        <ele>583</ele>
        <time>2010-07-18 10:42:07Z</time>
      </trkpt>
      <trkpt lat="45.91944" lon="6.14509">
        <ele>586</ele>
        <time>2010-07-18 10:42:11Z</time>
      </trkpt>
      <trkpt lat="45.91944" lon="6.14514">
        <ele>588</ele>
        <time>2010-07-18 10:42:15Z</time>
      </trkpt>
      <trkpt lat="45.91943" lon="6.14527">
        <ele>590</ele>
        <time>2010-07-18 10:42:19Z</time>
      </trkpt>
      <trkpt lat="45.91944" lon="6.14541">
        <ele>591</ele>
        <time>2010-07-18 10:42:23Z</time>
      </trkpt>
      <trkpt lat="45.91944" lon="6.14556">
        <ele>590</ele>
        <time>2010-07-18 10:42:27Z</time>
      </trkpt>
      <trkpt lat="45.91945" lon="6.1457">
        <ele>589</ele>
        <time>2010-07-18 10:42:31Z</time>
      </trkpt>
      <trkpt lat="45.91948" lon="6.14588">
        <ele>587</ele>
        <time>2010-07-18 10:42:35Z</time>
      </trkpt>
      <trkpt lat="45.91953" lon="6.14603">
        <ele>586</ele>
        <time>2010-07-18 10:42:39Z</time>
      </trkpt>
      <trkpt lat="45.91959" lon="6.14623">
        <ele>582</ele>
        <time>2010-07-18 10:42:43Z</time>
      </trkpt>
      <trkpt lat="45.91967" lon="6.14642">
        <ele>578</ele>
        <time>2010-07-18 10:42:47Z</time>
      </trkpt>
      <trkpt lat="45.91972" lon="6.14655">
        <ele>576</ele>
        <time>2010-07-18 10:42:51Z</time>
      </trkpt>
      <trkpt lat="45.91979" lon="6.14669">
        <ele>574</ele>
        <time>2010-07-18 10:42:55Z</time>
      </trkpt>
      <trkpt lat="45.91986" lon="6.14678">
        <ele>574</ele>
        <time>2010-07-18 10:42:59Z</time>
      </trkpt>
      <trkpt lat="45.91987" lon="6.1468">
        <ele>573</ele>
        <time>2010-07-18 10:43:03Z</time>
      </trkpt>
      <trkpt lat="45.91999" lon="6.14688">
        <ele>574</ele>
        <time>2010-07-18 10:43:07Z</time>
      </trkpt>
      <trkpt lat="45.92006" lon="6.14693">
        <ele>574</ele>
        <time>2010-07-18 10:43:11Z</time>
      </trkpt>
      <trkpt lat="45.92016" lon="6.14704">
        <ele>572</ele>
        <time>2010-07-18 10:43:15Z</time>
      </trkpt>
      <trkpt lat="45.92025" lon="6.14712">
        <ele>571</ele>
        <time>2010-07-18 10:43:19Z</time>
      </trkpt>
      <trkpt lat="45.92036" lon="6.14723">
        <ele>572</ele>
        <time>2010-07-18 10:43:23Z</time>
      </trkpt>
      <trkpt lat="45.92044" lon="6.14735">
        <ele>572</ele>
        <time>2010-07-18 10:43:27Z</time>
      </trkpt>
      <trkpt lat="45.92051" lon="6.14747">
        <ele>572</ele>
        <time>2010-07-18 10:43:31Z</time>
      </trkpt>
      <trkpt lat="45.92059" lon="6.14761">
        <ele>573</ele>
        <time>2010-07-18 10:43:35Z</time>
      </trkpt>
      <trkpt lat="45.92066" lon="6.14772">
        <ele>573</ele>
        <time>2010-07-18 10:43:39Z</time>
      </trkpt>
      <trkpt lat="45.92073" lon="6.14785">
        <ele>574</ele>
        <time>2010-07-18 10:43:43Z</time>
      </trkpt>
      <trkpt lat="45.92081" lon="6.14802">
        <ele>575</ele>
        <time>2010-07-18 10:43:47Z</time>
      </trkpt>
      <trkpt lat="45.92087" lon="6.14818">
        <ele>576</ele>
        <time>2010-07-18 10:43:51Z</time>
      </trkpt>
      <trkpt lat="45.92094" lon="6.14834">
        <ele>577</ele>
        <time>2010-07-18 10:43:55Z</time>
      </trkpt>
      <trkpt lat="45.92099" lon="6.14847">
        <ele>577</ele>
        <time>2010-07-18 10:43:59Z</time>
      </trkpt>
      <trkpt lat="45.92104" lon="6.14861">
        <ele>578</ele>
        <time>2010-07-18 10:44:03Z</time>
      </trkpt>
      <trkpt lat="45.92108" lon="6.14873">
        <ele>578</ele>
        <time>2010-07-18 10:44:07Z</time>
      </trkpt>
      <trkpt lat="45.92112" lon="6.14886">
        <ele>579</ele>
        <time>2010-07-18 10:44:11Z</time>
      </trkpt>
      <trkpt lat="45.92115" lon="6.14897">
        <ele>579</ele>
        <time>2010-07-18 10:44:15Z</time>
      </trkpt>
      <trkpt lat="45.92118" lon="6.1491">
        <ele>580</ele>
        <time>2010-07-18 10:44:19Z</time>
      </trkpt>
      <trkpt lat="45.92122" lon="6.14921">
        <ele>581</ele>
        <time>2010-07-18 10:44:23Z</time>
      </trkpt>
      <trkpt lat="45.9213" lon="6.14931">
        <ele>582</ele>
        <time>2010-07-18 10:44:27Z</time>
      </trkpt>
      <trkpt lat="45.92138" lon="6.14935">
        <ele>582</ele>
        <time>2010-07-18 10:44:31Z</time>
      </trkpt>
      <trkpt lat="45.92146" lon="6.1494">
        <ele>583</ele>
        <time>2010-07-18 10:44:35Z</time>
      </trkpt>
      <trkpt lat="45.92152" lon="6.14947">
        <ele>584</ele>
        <time>2010-07-18 10:44:39Z</time>
      </trkpt>
      <trkpt lat="45.92156" lon="6.1496">
        <ele>586</ele>
        <time>2010-07-18 10:44:43Z</time>
      </trkpt>
      <trkpt lat="45.92158" lon="6.14973">
        <ele>588</ele>
        <time>2010-07-18 10:44:47Z</time>
      </trkpt>
      <trkpt lat="45.9216" lon="6.14989">
        <ele>590</ele>
        <time>2010-07-18 10:44:51Z</time>
      </trkpt>
      <trkpt lat="45.92161" lon="6.15002">
        <ele>590</ele>
        <time>2010-07-18 10:44:55Z</time>
      </trkpt>
      <trkpt lat="45.92162" lon="6.15013">
        <ele>592</ele>
        <time>2010-07-18 10:44:59Z</time>
      </trkpt>
      <trkpt lat="45.92165" lon="6.15032">
        <ele>596</ele>
        <time>2010-07-18 10:45:03Z</time>
      </trkpt>
      <trkpt lat="45.92166" lon="6.15051">
        <ele>597</ele>
        <time>2010-07-18 10:45:07Z</time>
      </trkpt>
      <trkpt lat="45.92166" lon="6.15065">
        <ele>600</ele>
        <time>2010-07-18 10:45:11Z</time>
      </trkpt>
      <trkpt lat="45.92164" lon="6.1508">
        <ele>601</ele>
        <time>2010-07-18 10:45:15Z</time>
      </trkpt>
      <trkpt lat="45.92162" lon="6.15089">
        <ele>602</ele>
        <time>2010-07-18 10:45:19Z</time>
      </trkpt>
      <trkpt lat="45.92162" lon="6.151">
        <ele>603</ele>
        <time>2010-07-18 10:45:23Z</time>
      </trkpt>
      <trkpt lat="45.92162" lon="6.15107">
        <ele>604</ele>
        <time>2010-07-18 10:45:27Z</time>
      </trkpt>
      <trkpt lat="45.92162" lon="6.15119">
        <ele>605</ele>
        <time>2010-07-18 10:45:31Z</time>
      </trkpt>
      <trkpt lat="45.92162" lon="6.15133">
        <ele>605</ele>
        <time>2010-07-18 10:45:35Z</time>
      </trkpt>
      <trkpt lat="45.92159" lon="6.15145">
        <ele>605</ele>
        <time>2010-07-18 10:45:39Z</time>
      </trkpt>
      <trkpt lat="45.92157" lon="6.15161">
        <ele>606</ele>
        <time>2010-07-18 10:45:43Z</time>
      </trkpt>
      <trkpt lat="45.92156" lon="6.15174">
        <ele>607</ele>
        <time>2010-07-18 10:45:47Z</time>
      </trkpt>
      <trkpt lat="45.92156" lon="6.15184">
        <ele>607</ele>
        <time>2010-07-18 10:45:51Z</time>
      </trkpt>
      <trkpt lat="45.92156" lon="6.15196">
        <ele>608</ele>
        <time>2010-07-18 10:45:55Z</time>
      </trkpt>
      <trkpt lat="45.92157" lon="6.15208">
        <ele>608</ele>
        <time>2010-07-18 10:45:59Z</time>
      </trkpt>
      <trkpt lat="45.92159" lon="6.15225">
        <ele>609</ele>
        <time>2010-07-18 10:46:03Z</time>
      </trkpt>
      <trkpt lat="45.9216" lon="6.1524">
        <ele>609</ele>
        <time>2010-07-18 10:46:07Z</time>
      </trkpt>
      <trkpt lat="45.9216" lon="6.15258">
        <ele>609</ele>
        <time>2010-07-18 10:46:11Z</time>
      </trkpt>
      <trkpt lat="45.92158" lon="6.15275">
        <ele>609</ele>
        <time>2010-07-18 10:46:15Z</time>
      </trkpt>
      <trkpt lat="45.92156" lon="6.15294">
        <ele>609</ele>
        <time>2010-07-18 10:46:19Z</time>
      </trkpt>
      <trkpt lat="45.92152" lon="6.15306">
        <ele>609</ele>
        <time>2010-07-18 10:46:23Z</time>
      </trkpt>
      <trkpt lat="45.92149" lon="6.15318">
        <ele>613</ele>
        <time>2010-07-18 10:46:27Z</time>
      </trkpt>
      <trkpt lat="45.92146" lon="6.1533">
        <ele>614</ele>
        <time>2010-07-18 10:46:31Z</time>
      </trkpt>
      <trkpt lat="45.92141" lon="6.15345">
        <ele>613</ele>
        <time>2010-07-18 10:46:35Z</time>
      </trkpt>
      <trkpt lat="45.92135" lon="6.15359">
        <ele>612</ele>
        <time>2010-07-18 10:46:39Z</time>
      </trkpt>
      <trkpt lat="45.92131" lon="6.15369">
        <ele>611</ele>
        <time>2010-07-18 10:46:43Z</time>
      </trkpt>
      <trkpt lat="45.92125" lon="6.15381">
        <ele>607</ele>
        <time>2010-07-18 10:46:47Z</time>
      </trkpt>
      <trkpt lat="45.92116" lon="6.15391">
        <ele>603</ele>
        <time>2010-07-18 10:46:51Z</time>
      </trkpt>
      <trkpt lat="45.9211" lon="6.15398">
        <ele>601</ele>
        <time>2010-07-18 10:46:55Z</time>
      </trkpt>
      <trkpt lat="45.92104" lon="6.15403">
        <ele>598</ele>
        <time>2010-07-18 10:46:59Z</time>
      </trkpt>
      <trkpt lat="45.92097" lon="6.15408">
        <ele>593</ele>
        <time>2010-07-18 10:47:03Z</time>
      </trkpt>
      <trkpt lat="45.92086" lon="6.15414">
        <ele>590</ele>
        <time>2010-07-18 10:47:07Z</time>
      </trkpt>
      <trkpt lat="45.92072" lon="6.1542">
        <ele>589</ele>
        <time>2010-07-18 10:47:11Z</time>
      </trkpt>
      <trkpt lat="45.92062" lon="6.15425">
        <ele>587</ele>
        <time>2010-07-18 10:47:15Z</time>
      </trkpt>
      <trkpt lat="45.92051" lon="6.15434">
        <ele>588</ele>
        <time>2010-07-18 10:47:19Z</time>
      </trkpt>
      <trkpt lat="45.92042" lon="6.15443">
        <ele>589</ele>
        <time>2010-07-18 10:47:23Z</time>
      </trkpt>
      <trkpt lat="45.92031" lon="6.15449">
        <ele>590</ele>
        <time>2010-07-18 10:47:27Z</time>
      </trkpt>
      <trkpt lat="45.9202" lon="6.15454">
        <ele>589</ele>
        <time>2010-07-18 10:47:31Z</time>
      </trkpt>
      <trkpt lat="45.9201" lon="6.15458">
        <ele>589</ele>
        <time>2010-07-18 10:47:35Z</time>
      </trkpt>
      <trkpt lat="45.91999" lon="6.15465">
        <ele>589</ele>
        <time>2010-07-18 10:47:39Z</time>
      </trkpt>
      <trkpt lat="45.91991" lon="6.15473">
        <ele>588</ele>
        <time>2010-07-18 10:47:43Z</time>
      </trkpt>
      <trkpt lat="45.91982" lon="6.15481">
        <ele>587</ele>
        <time>2010-07-18 10:47:47Z</time>
      </trkpt>
      <trkpt lat="45.9197" lon="6.1549">
        <ele>589</ele>
        <time>2010-07-18 10:47:51Z</time>
      </trkpt>
      <trkpt lat="45.91963" lon="6.15498">
        <ele>589</ele>
        <time>2010-07-18 10:47:55Z</time>
      </trkpt>
      <trkpt lat="45.91955" lon="6.15507">
        <ele>591</ele>
        <time>2010-07-18 10:47:59Z</time>
      </trkpt>
      <trkpt lat="45.91949" lon="6.15515">
        <ele>592</ele>
        <time>2010-07-18 10:48:03Z</time>
      </trkpt>
      <trkpt lat="45.91942" lon="6.15527">
        <ele>593</ele>
        <time>2010-07-18 10:48:07Z</time>
      </trkpt>
      <trkpt lat="45.91938" lon="6.15537">
        <ele>595</ele>
        <time>2010-07-18 10:48:11Z</time>
      </trkpt>
      <trkpt lat="45.91935" lon="6.15551">
        <ele>597</ele>
        <time>2010-07-18 10:48:15Z</time>
      </trkpt>
      <trkpt lat="45.91932" lon="6.15561">
        <ele>598</ele>
        <time>2010-07-18 10:48:19Z</time>
      </trkpt>
      <trkpt lat="45.91928" lon="6.15573">
        <ele>599</ele>
        <time>2010-07-18 10:48:23Z</time>
      </trkpt>
      <trkpt lat="45.91924" lon="6.15585">
        <ele>599</ele>
        <time>2010-07-18 10:48:27Z</time>
      </trkpt>
      <trkpt lat="45.91919" lon="6.15603">
        <ele>600</ele>
        <time>2010-07-18 10:48:31Z</time>
      </trkpt>
      <trkpt lat="45.91914" lon="6.15618">
        <ele>601</ele>
        <time>2010-07-18 10:48:35Z</time>
      </trkpt>
      <trkpt lat="45.91908" lon="6.15634">
        <ele>600</ele>
        <time>2010-07-18 10:48:39Z</time>
      </trkpt>
      <trkpt lat="45.91905" lon="6.15646">
        <ele>598</ele>
        <time>2010-07-18 10:48:43Z</time>
      </trkpt>
      <trkpt lat="45.91903" lon="6.1566">
        <ele>597</ele>
        <time>2010-07-18 10:48:47Z</time>
      </trkpt>
      <trkpt lat="45.91903" lon="6.15672">
        <ele>597</ele>
        <time>2010-07-18 10:48:51Z</time>
      </trkpt>
      <trkpt lat="45.91905" lon="6.15685">
        <ele>598</ele>
        <time>2010-07-18 10:48:55Z</time>
      </trkpt>
      <trkpt lat="45.91907" lon="6.15698">
        <ele>598</ele>
        <time>2010-07-18 10:48:59Z</time>
      </trkpt>
      <trkpt lat="45.9191" lon="6.15713">
        <ele>598</ele>
        <time>2010-07-18 10:49:03Z</time>
      </trkpt>
      <trkpt lat="45.91914" lon="6.15728">
        <ele>598</ele>
        <time>2010-07-18 10:49:07Z</time>
      </trkpt>
      <trkpt lat="45.91917" lon="6.15747">
        <ele>598</ele>
        <time>2010-07-18 10:49:11Z</time>
      </trkpt>
      <trkpt lat="45.91919" lon="6.15759">
        <ele>599</ele>
        <time>2010-07-18 10:49:15Z</time>
      </trkpt>
      <trkpt lat="45.91922" lon="6.15775">
        <ele>600</ele>
        <time>2010-07-18 10:49:19Z</time>
      </trkpt>
      <trkpt lat="45.91926" lon="6.1579">
        <ele>598</ele>
        <time>2010-07-18 10:49:23Z</time>
      </trkpt>
      <trkpt lat="45.91931" lon="6.15806">
        <ele>596</ele>
        <time>2010-07-18 10:49:27Z</time>
      </trkpt>
      <trkpt lat="45.91935" lon="6.15819">
        <ele>596</ele>
        <time>2010-07-18 10:49:31Z</time>
      </trkpt>
      <trkpt lat="45.91938" lon="6.15835">
        <ele>597</ele>
        <time>2010-07-18 10:49:35Z</time>
      </trkpt>
      <trkpt lat="45.91941" lon="6.15847">
        <ele>598</ele>
        <time>2010-07-18 10:49:39Z</time>
      </trkpt>
      <trkpt lat="45.91945" lon="6.1586">
        <ele>600</ele>
        <time>2010-07-18 10:49:43Z</time>
      </trkpt>
      <trkpt lat="45.91948" lon="6.1587">
        <ele>600</ele>
        <time>2010-07-18 10:49:47Z</time>
      </trkpt>
      <trkpt lat="45.91953" lon="6.1588">
        <ele>601</ele>
        <time>2010-07-18 10:49:51Z</time>
      </trkpt>
      <trkpt lat="45.91961" lon="6.15886">
        <ele>603</ele>
        <time>2010-07-18 10:49:55Z</time>
      </trkpt>
      <trkpt lat="45.91967" lon="6.15892">
        <ele>604</ele>
        <time>2010-07-18 10:49:59Z</time>
      </trkpt>
      <trkpt lat="45.91971" lon="6.15902">
        <ele>605</ele>
        <time>2010-07-18 10:50:03Z</time>
      </trkpt>
      <trkpt lat="45.91971" lon="6.15914">
        <ele>609</ele>
        <time>2010-07-18 10:50:07Z</time>
      </trkpt>
      <trkpt lat="45.91969" lon="6.1593">
        <ele>611</ele>
        <time>2010-07-18 10:50:11Z</time>
      </trkpt>
      <trkpt lat="45.9197" lon="6.15942">
        <ele>612</ele>
        <time>2010-07-18 10:50:15Z</time>
      </trkpt>
      <trkpt lat="45.91972" lon="6.15958">
        <ele>611</ele>
        <time>2010-07-18 10:50:19Z</time>
      </trkpt>
      <trkpt lat="45.91975" lon="6.15974">
        <ele>609</ele>
        <time>2010-07-18 10:50:23Z</time>
      </trkpt>
      <trkpt lat="45.91979" lon="6.15991">
        <ele>606</ele>
        <time>2010-07-18 10:50:27Z</time>
      </trkpt>
      <trkpt lat="45.91982" lon="6.16003">
        <ele>606</ele>
        <time>2010-07-18 10:50:31Z</time>
      </trkpt>
      <trkpt lat="45.91985" lon="6.16017">
        <ele>606</ele>
        <time>2010-07-18 10:50:35Z</time>
      </trkpt>
      <trkpt lat="45.91989" lon="6.16029">
        <ele>605</ele>
        <time>2010-07-18 10:50:39Z</time>
      </trkpt>
      <trkpt lat="45.91992" lon="6.1604">
        <ele>606</ele>
        <time>2010-07-18 10:50:43Z</time>
      </trkpt>
      <trkpt lat="45.91997" lon="6.16055">
        <ele>608</ele>
        <time>2010-07-18 10:50:47Z</time>
      </trkpt>
      <trkpt lat="45.92" lon="6.16067">
        <ele>610</ele>
        <time>2010-07-18 10:50:51Z</time>
      </trkpt>
      <trkpt lat="45.92001" lon="6.1608">
        <ele>611</ele>
        <time>2010-07-18 10:50:55Z</time>
      </trkpt>
      <trkpt lat="45.92004" lon="6.16095">
        <ele>613</ele>
        <time>2010-07-18 10:50:59Z</time>
      </trkpt>
      <trkpt lat="45.92007" lon="6.16106">
        <ele>613</ele>
        <time>2010-07-18 10:51:03Z</time>
      </trkpt>
      <trkpt lat="45.9201" lon="6.16119">
        <ele>613</ele>
        <time>2010-07-18 10:51:07Z</time>
      </trkpt>
      <trkpt lat="45.92012" lon="6.1613">
        <ele>613</ele>
        <time>2010-07-18 10:51:11Z</time>
      </trkpt>
      <trkpt lat="45.92017" lon="6.16145">
        <ele>614</ele>
        <time>2010-07-18 10:51:15Z</time>
      </trkpt>
      <trkpt lat="45.9202" lon="6.16156">
        <ele>614</ele>
        <time>2010-07-18 10:51:19Z</time>
      </trkpt>
      <trkpt lat="45.92024" lon="6.16169">
        <ele>615</ele>
        <time>2010-07-18 10:51:23Z</time>
      </trkpt>
      <trkpt lat="45.92028" lon="6.16183">
        <ele>616</ele>
        <time>2010-07-18 10:51:27Z</time>
      </trkpt>
      <trkpt lat="45.92032" lon="6.16193">
        <ele>616</ele>
        <time>2010-07-18 10:51:31Z</time>
      </trkpt>
      <trkpt lat="45.92034" lon="6.16204">
        <ele>617</ele>
        <time>2010-07-18 10:51:35Z</time>
      </trkpt>
      <trkpt lat="45.92038" lon="6.16217">
        <ele>618</ele>
        <time>2010-07-18 10:51:39Z</time>
      </trkpt>
      <trkpt lat="45.92041" lon="6.16228">
        <ele>619</ele>
        <time>2010-07-18 10:51:43Z</time>
      </trkpt>
      <trkpt lat="45.92045" lon="6.16242">
        <ele>619</ele>
        <time>2010-07-18 10:51:47Z</time>
      </trkpt>
      <trkpt lat="45.92048" lon="6.16254">
        <ele>619</ele>
        <time>2010-07-18 10:51:51Z</time>
      </trkpt>
      <trkpt lat="45.9205" lon="6.16265">
        <ele>619</ele>
        <time>2010-07-18 10:51:55Z</time>
      </trkpt>
      <trkpt lat="45.92054" lon="6.16277">
        <ele>619</ele>
        <time>2010-07-18 10:51:59Z</time>
      </trkpt>
      <trkpt lat="45.92056" lon="6.16287">
        <ele>620</ele>
        <time>2010-07-18 10:52:03Z</time>
      </trkpt>
      <trkpt lat="45.92058" lon="6.16297">
        <ele>621</ele>
        <time>2010-07-18 10:52:07Z</time>
      </trkpt>
      <trkpt lat="45.92061" lon="6.1631">
        <ele>621</ele>
        <time>2010-07-18 10:52:11Z</time>
      </trkpt>
      <trkpt lat="45.92065" lon="6.16325">
        <ele>621</ele>
        <time>2010-07-18 10:52:15Z</time>
      </trkpt>
      <trkpt lat="45.92067" lon="6.16337">
        <ele>621</ele>
        <time>2010-07-18 10:52:19Z</time>
      </trkpt>
      <trkpt lat="45.92069" lon="6.16348">
        <ele>621</ele>
        <time>2010-07-18 10:52:23Z</time>
      </trkpt>
      <trkpt lat="45.92072" lon="6.1636">
        <ele>621</ele>
        <time>2010-07-18 10:52:27Z</time>
      </trkpt>
      <trkpt lat="45.92074" lon="6.1637">
        <ele>621</ele>
        <time>2010-07-18 10:52:31Z</time>
      </trkpt>
      <trkpt lat="45.92077" lon="6.1638">
        <ele>622</ele>
        <time>2010-07-18 10:52:35Z</time>
      </trkpt>
      <trkpt lat="45.9208" lon="6.16393">
        <ele>623</ele>
        <time>2010-07-18 10:52:39Z</time>
      </trkpt>
      <trkpt lat="45.92084" lon="6.16405">
        <ele>624</ele>
        <time>2010-07-18 10:52:43Z</time>
      </trkpt>
      <trkpt lat="45.92088" lon="6.16421">
        <ele>624</ele>
        <time>2010-07-18 10:52:47Z</time>
      </trkpt>
      <trkpt lat="45.92091" lon="6.16432">
        <ele>624</ele>
        <time>2010-07-18 10:52:51Z</time>
      </trkpt>
      <trkpt lat="45.92094" lon="6.16445">
        <ele>625</ele>
        <time>2010-07-18 10:52:55Z</time>
      </trkpt>
      <trkpt lat="45.92097" lon="6.16455">
        <ele>625</ele>
        <time>2010-07-18 10:52:59Z</time>
      </trkpt>
      <trkpt lat="45.921" lon="6.16466">
        <ele>626</ele>
        <time>2010-07-18 10:53:03Z</time>
      </trkpt>
      <trkpt lat="45.92105" lon="6.16481">
        <ele>626</ele>
        <time>2010-07-18 10:53:07Z</time>
      </trkpt>
      <trkpt lat="45.92109" lon="6.16495">
        <ele>627</ele>
        <time>2010-07-18 10:53:11Z</time>
      </trkpt>
      <trkpt lat="45.92114" lon="6.16509">
        <ele>627</ele>
        <time>2010-07-18 10:53:15Z</time>
      </trkpt>
      <trkpt lat="45.92118" lon="6.16521">
        <ele>628</ele>
        <time>2010-07-18 10:53:19Z</time>
      </trkpt>
      <trkpt lat="45.92122" lon="6.16533">
        <ele>631</ele>
        <time>2010-07-18 10:53:23Z</time>
      </trkpt>
      <trkpt lat="45.92123" lon="6.16548">
        <ele>631</ele>
        <time>2010-07-18 10:53:27Z</time>
      </trkpt>
      <trkpt lat="45.92123" lon="6.16563">
        <ele>633</ele>
        <time>2010-07-18 10:53:31Z</time>
      </trkpt>
      <trkpt lat="45.92122" lon="6.16581">
        <ele>636</ele>
        <time>2010-07-18 10:53:35Z</time>
      </trkpt>
      <trkpt lat="45.92119" lon="6.16595">
        <ele>637</ele>
        <time>2010-07-18 10:53:39Z</time>
      </trkpt>
      <trkpt lat="45.92115" lon="6.16611">
        <ele>637</ele>
        <time>2010-07-18 10:53:43Z</time>
      </trkpt>
      <trkpt lat="45.9211" lon="6.16623">
        <ele>637</ele>
        <time>2010-07-18 10:53:47Z</time>
      </trkpt>
      <trkpt lat="45.92106" lon="6.16634">
        <ele>637</ele>
        <time>2010-07-18 10:53:51Z</time>
      </trkpt>
      <trkpt lat="45.92101" lon="6.16647">
        <ele>637</ele>
        <time>2010-07-18 10:53:55Z</time>
      </trkpt>
      <trkpt lat="45.92096" lon="6.16657">
        <ele>637</ele>
        <time>2010-07-18 10:53:59Z</time>
      </trkpt>
      <trkpt lat="45.9209" lon="6.16668">
        <ele>636</ele>
        <time>2010-07-18 10:54:03Z</time>
      </trkpt>
      <trkpt lat="45.92085" lon="6.16677">
        <ele>636</ele>
        <time>2010-07-18 10:54:07Z</time>
      </trkpt>
      <trkpt lat="45.92074" lon="6.16679">
        <ele>636</ele>
        <time>2010-07-18 10:54:11Z</time>
      </trkpt>
      <trkpt lat="45.92062" lon="6.16673">
        <ele>635</ele>
        <time>2010-07-18 10:54:15Z</time>
      </trkpt>
      <trkpt lat="45.92051" lon="6.16664">
        <ele>634</ele>
        <time>2010-07-18 10:54:19Z</time>
      </trkpt>
      <trkpt lat="45.9204" lon="6.16653">
        <ele>634</ele>
        <time>2010-07-18 10:54:23Z</time>
      </trkpt>
      <trkpt lat="45.92034" lon="6.16647">
        <ele>633</ele>
        <time>2010-07-18 10:54:27Z</time>
      </trkpt>
      <trkpt lat="45.9203" lon="6.16641">
        <ele>632</ele>
        <time>2010-07-18 10:54:31Z</time>
      </trkpt>
      <trkpt lat="45.92022" lon="6.16632">
        <ele>632</ele>
        <time>2010-07-18 10:54:35Z</time>
      </trkpt>
      <trkpt lat="45.92014" lon="6.16622">
        <ele>632</ele>
        <time>2010-07-18 10:54:39Z</time>
      </trkpt>
      <trkpt lat="45.92003" lon="6.16609">
        <ele>631</ele>
        <time>2010-07-18 10:54:43Z</time>
      </trkpt>
      <trkpt lat="45.91993" lon="6.16599">
        <ele>630</ele>
        <time>2010-07-18 10:54:47Z</time>
      </trkpt>
      <trkpt lat="45.91985" lon="6.16589">
        <ele>630</ele>
        <time>2010-07-18 10:54:51Z</time>
      </trkpt>
      <trkpt lat="45.91977" lon="6.16578">
        <ele>629</ele>
        <time>2010-07-18 10:54:55Z</time>
      </trkpt>
      <trkpt lat="45.9197" lon="6.16568">
        <ele>629</ele>
        <time>2010-07-18 10:54:59Z</time>
      </trkpt>
      <trkpt lat="45.91962" lon="6.16557">
        <ele>629</ele>
        <time>2010-07-18 10:55:03Z</time>
      </trkpt>
      <trkpt lat="45.91955" lon="6.16547">
        <ele>629</ele>
        <time>2010-07-18 10:55:07Z</time>
      </trkpt>
      <trkpt lat="45.91948" lon="6.16535">
        <ele>630</ele>
        <time>2010-07-18 10:55:11Z</time>
      </trkpt>
      <trkpt lat="45.9194" lon="6.16523">
        <ele>630</ele>
        <time>2010-07-18 10:55:15Z</time>
      </trkpt>
      <trkpt lat="45.91929" lon="6.16511">
        <ele>628</ele>
        <time>2010-07-18 10:55:19Z</time>
      </trkpt>
      <trkpt lat="45.91922" lon="6.16502">
        <ele>627</ele>
        <time>2010-07-18 10:55:23Z</time>
      </trkpt>
      <trkpt lat="45.91914" lon="6.16493">
        <ele>626</ele>
        <time>2010-07-18 10:55:27Z</time>
      </trkpt>
      <trkpt lat="45.91904" lon="6.16483">
        <ele>625</ele>
        <time>2010-07-18 10:55:31Z</time>
      </trkpt>
      <trkpt lat="45.91896" lon="6.16476">
        <ele>624</ele>
        <time>2010-07-18 10:55:35Z</time>
      </trkpt>
      <trkpt lat="45.91888" lon="6.16471">
        <ele>623</ele>
        <time>2010-07-18 10:55:39Z</time>
      </trkpt>
      <trkpt lat="45.91878" lon="6.16466">
        <ele>622</ele>
        <time>2010-07-18 10:55:43Z</time>
      </trkpt>
      <trkpt lat="45.9187" lon="6.16462">
        <ele>622</ele>
        <time>2010-07-18 10:55:47Z</time>
      </trkpt>
      <trkpt lat="45.91861" lon="6.16458">
        <ele>622</ele>
        <time>2010-07-18 10:55:51Z</time>
      </trkpt>
      <trkpt lat="45.91851" lon="6.16453">
        <ele>621</ele>
        <time>2010-07-18 10:55:55Z</time>
      </trkpt>
      <trkpt lat="45.91842" lon="6.16449">
        <ele>620</ele>
        <time>2010-07-18 10:55:59Z</time>
      </trkpt>
      <trkpt lat="45.91833" lon="6.16443">
        <ele>620</ele>
        <time>2010-07-18 10:56:03Z</time>
      </trkpt>
      <trkpt lat="45.91827" lon="6.1644">
        <ele>620</ele>
        <time>2010-07-18 10:56:07Z</time>
      </trkpt>
      <trkpt lat="45.91821" lon="6.16435">
        <ele>622</ele>
        <time>2010-07-18 10:56:11Z</time>
      </trkpt>
      <trkpt lat="45.91815" lon="6.16432">
        <ele>622</ele>
        <time>2010-07-18 10:56:15Z</time>
      </trkpt>
      <trkpt lat="45.9181" lon="6.16429">
        <ele>622</ele>
        <time>2010-07-18 10:56:19Z</time>
      </trkpt>
      <trkpt lat="45.91805" lon="6.16426">
        <ele>622</ele>
        <time>2010-07-18 10:56:23Z</time>
      </trkpt>
      <trkpt lat="45.91797" lon="6.16423">
        <ele>621</ele>
        <time>2010-07-18 10:56:27Z</time>
      </trkpt>
      <trkpt lat="45.91789" lon="6.1642">
        <ele>621</ele>
        <time>2010-07-18 10:56:31Z</time>
      </trkpt>
      <trkpt lat="45.91782" lon="6.16417">
        <ele>621</ele>
        <time>2010-07-18 10:56:35Z</time>
      </trkpt>
      <trkpt lat="45.91773" lon="6.16413">
        <ele>621</ele>
        <time>2010-07-18 10:56:39Z</time>
      </trkpt>
      <trkpt lat="45.91765" lon="6.16407">
        <ele>619</ele>
        <time>2010-07-18 10:56:43Z</time>
      </trkpt>
      <trkpt lat="45.91758" lon="6.16405">
        <ele>617</ele>
        <time>2010-07-18 10:56:47Z</time>
      </trkpt>
      <trkpt lat="45.9175" lon="6.16401">
        <ele>615</ele>
        <time>2010-07-18 10:56:51Z</time>
      </trkpt>
      <trkpt lat="45.91741" lon="6.16394">
        <ele>614</ele>
        <time>2010-07-18 10:56:55Z</time>
      </trkpt>
      <trkpt lat="45.91732" lon="6.16388">
        <ele>612</ele>
        <time>2010-07-18 10:56:59Z</time>
      </trkpt>
      <trkpt lat="45.91726" lon="6.16384">
        <ele>611</ele>
        <time>2010-07-18 10:57:03Z</time>
      </trkpt>
      <trkpt lat="45.91719" lon="6.16381">
        <ele>611</ele>
        <time>2010-07-18 10:57:07Z</time>
      </trkpt>
      <trkpt lat="45.9171" lon="6.16377">
        <ele>611</ele>
        <time>2010-07-18 10:57:11Z</time>
      </trkpt>
      <trkpt lat="45.917" lon="6.16373">
        <ele>609</ele>
        <time>2010-07-18 10:57:15Z</time>
      </trkpt>
      <trkpt lat="45.91689" lon="6.16369">
        <ele>607</ele>
        <time>2010-07-18 10:57:19Z</time>
      </trkpt>
      <trkpt lat="45.91674" lon="6.16366">
        <ele>606</ele>
        <time>2010-07-18 10:57:23Z</time>
      </trkpt>
      <trkpt lat="45.91664" lon="6.16363">
        <ele>604</ele>
        <time>2010-07-18 10:57:27Z</time>
      </trkpt>
      <trkpt lat="45.91652" lon="6.16359">
        <ele>603</ele>
        <time>2010-07-18 10:57:31Z</time>
      </trkpt>
      <trkpt lat="45.91643" lon="6.16354">
        <ele>602</ele>
        <time>2010-07-18 10:57:35Z</time>
      </trkpt>
      <trkpt lat="45.91633" lon="6.1635">
        <ele>600</ele>
        <time>2010-07-18 10:57:39Z</time>
      </trkpt>
      <trkpt lat="45.91625" lon="6.16346">
        <ele>598</ele>
        <time>2010-07-18 10:57:43Z</time>
      </trkpt>
      <trkpt lat="45.91613" lon="6.16339">
        <ele>595</ele>
        <time>2010-07-18 10:57:47Z</time>
      </trkpt>
      <trkpt lat="45.91602" lon="6.16332">
        <ele>593</ele>
        <time>2010-07-18 10:57:51Z</time>
      </trkpt>
      <trkpt lat="45.91587" lon="6.16323">
        <ele>591</ele>
        <time>2010-07-18 10:57:55Z</time>
      </trkpt>
      <trkpt lat="45.91576" lon="6.16318">
        <ele>589</ele>
        <time>2010-07-18 10:57:59Z</time>
      </trkpt>
      <trkpt lat="45.91564" lon="6.16314">
        <ele>588</ele>
        <time>2010-07-18 10:58:03Z</time>
      </trkpt>
      <trkpt lat="45.91556" lon="6.16311">
        <ele>588</ele>
        <time>2010-07-18 10:58:07Z</time>
      </trkpt>
      <trkpt lat="45.91546" lon="6.16308">
        <ele>588</ele>
        <time>2010-07-18 10:58:11Z</time>
      </trkpt>
      <trkpt lat="45.91538" lon="6.16307">
        <ele>586</ele>
        <time>2010-07-18 10:58:15Z</time>
      </trkpt>
      <trkpt lat="45.91527" lon="6.16308">
        <ele>585</ele>
        <time>2010-07-18 10:58:19Z</time>
      </trkpt>
      <trkpt lat="45.91518" lon="6.1631">
        <ele>585</ele>
        <time>2010-07-18 10:58:23Z</time>
      </trkpt>
      <trkpt lat="45.91509" lon="6.16311">
        <ele>583</ele>
        <time>2010-07-18 10:58:27Z</time>
      </trkpt>
      <trkpt lat="45.91499" lon="6.16312">
        <ele>583</ele>
        <time>2010-07-18 10:58:31Z</time>
      </trkpt>
      <trkpt lat="45.91491" lon="6.16312">
        <ele>584</ele>
        <time>2010-07-18 10:58:35Z</time>
      </trkpt>
      <trkpt lat="45.91482" lon="6.16313">
        <ele>583</ele>
        <time>2010-07-18 10:58:39Z</time>
      </trkpt>
      <trkpt lat="45.91473" lon="6.16313">
        <ele>584</ele>
        <time>2010-07-18 10:58:43Z</time>
      </trkpt>
      <trkpt lat="45.91463" lon="6.16313">
        <ele>583</ele>
        <time>2010-07-18 10:58:47Z</time>
      </trkpt>
      <trkpt lat="45.91454" lon="6.16312">
        <ele>584</ele>
        <time>2010-07-18 10:58:51Z</time>
      </trkpt>
      <trkpt lat="45.91442" lon="6.16312">
        <ele>584</ele>
        <time>2010-07-18 10:58:55Z</time>
      </trkpt>
      <trkpt lat="45.91431" lon="6.16311">
        <ele>584</ele>
        <time>2010-07-18 10:58:59Z</time>
      </trkpt>
      <trkpt lat="45.91417" lon="6.1631">
        <ele>584</ele>
        <time>2010-07-18 10:59:03Z</time>
      </trkpt>
      <trkpt lat="45.91405" lon="6.1631">
        <ele>583</ele>
        <time>2010-07-18 10:59:07Z</time>
      </trkpt>
      <trkpt lat="45.91392" lon="6.16309">
        <ele>583</ele>
        <time>2010-07-18 10:59:11Z</time>
      </trkpt>
      <trkpt lat="45.91382" lon="6.16308">
        <ele>582</ele>
        <time>2010-07-18 10:59:15Z</time>
      </trkpt>
      <trkpt lat="45.91369" lon="6.16304">
        <ele>580</ele>
        <time>2010-07-18 10:59:19Z</time>
      </trkpt>
      <trkpt lat="45.91359" lon="6.16305">
        <ele>580</ele>
        <time>2010-07-18 10:59:23Z</time>
      </trkpt>
      <trkpt lat="45.91348" lon="6.16311">
        <ele>580</ele>
        <time>2010-07-18 10:59:27Z</time>
      </trkpt>
      <trkpt lat="45.91342" lon="6.16316">
        <ele>579</ele>
        <time>2010-07-18 10:59:31Z</time>
      </trkpt>
      <trkpt lat="45.91336" lon="6.16323">
        <ele>581</ele>
        <time>2010-07-18 10:59:35Z</time>
      </trkpt>
      <trkpt lat="45.91331" lon="6.16329">
        <ele>582</ele>
        <time>2010-07-18 10:59:39Z</time>
      </trkpt>
      <trkpt lat="45.91325" lon="6.16335">
        <ele>584</ele>
        <time>2010-07-18 10:59:43Z</time>
      </trkpt>
      <trkpt lat="45.9132" lon="6.16342">
        <ele>586</ele>
        <time>2010-07-18 10:59:47Z</time>
      </trkpt>
      <trkpt lat="45.91314" lon="6.1635">
        <ele>589</ele>
        <time>2010-07-18 10:59:51Z</time>
      </trkpt>
      <trkpt lat="45.9131" lon="6.16355">
        <ele>590</ele>
        <time>2010-07-18 10:59:55Z</time>
      </trkpt>
      <trkpt lat="45.91304" lon="6.16362">
        <ele>592</ele>
        <time>2010-07-18 10:59:59Z</time>
      </trkpt>
      <trkpt lat="45.91302" lon="6.1637">
        <ele>596</ele>
        <time>2010-07-18 11:00:03Z</time>
      </trkpt>
      <trkpt lat="45.91301" lon="6.16375">
        <ele>596</ele>
        <time>2010-07-18 11:00:07Z</time>
      </trkpt>
      <trkpt lat="45.91299" lon="6.16385">
        <ele>595</ele>
        <time>2010-07-18 11:00:11Z</time>
      </trkpt>
      <trkpt lat="45.91297" lon="6.16391">
        <ele>594</ele>
        <time>2010-07-18 11:00:15Z</time>
      </trkpt>
      <trkpt lat="45.91295" lon="6.16397">
        <ele>595</ele>
        <time>2010-07-18 11:00:19Z</time>
      </trkpt>
      <trkpt lat="45.91294" lon="6.16406">
        <ele>597</ele>
        <time>2010-07-18 11:00:23Z</time>
      </trkpt>
      <trkpt lat="45.91293" lon="6.16412">
        <ele>598</ele>
        <time>2010-07-18 11:00:27Z</time>
      </trkpt>
      <trkpt lat="45.91292" lon="6.16421">
        <ele>601</ele>
        <time>2010-07-18 11:00:31Z</time>
      </trkpt>
      <trkpt lat="45.91291" lon="6.16427">
        <ele>602</ele>
        <time>2010-07-18 11:00:35Z</time>
      </trkpt>
      <trkpt lat="45.91291" lon="6.16432">
        <ele>601</ele>
        <time>2010-07-18 11:00:39Z</time>
      </trkpt>
      <trkpt lat="45.91291" lon="6.16438">
        <ele>604</ele>
        <time>2010-07-18 11:00:43Z</time>
      </trkpt>
      <trkpt lat="45.91292" lon="6.16447">
        <ele>606</ele>
        <time>2010-07-18 11:00:47Z</time>
      </trkpt>
      <trkpt lat="45.91293" lon="6.16454">
        <ele>608</ele>
        <time>2010-07-18 11:00:51Z</time>
      </trkpt>
      <trkpt lat="45.91293" lon="6.1646">
        <ele>608</ele>
        <time>2010-07-18 11:00:55Z</time>
      </trkpt>
      <trkpt lat="45.91293" lon="6.16466">
        <ele>609</ele>
        <time>2010-07-18 11:00:59Z</time>
      </trkpt>
      <trkpt lat="45.91291" lon="6.16472">
        <ele>609</ele>
        <time>2010-07-18 11:01:03Z</time>
      </trkpt>
      <trkpt lat="45.91289" lon="6.16478">
        <ele>611</ele>
        <time>2010-07-18 11:01:07Z</time>
      </trkpt>
      <trkpt lat="45.91288" lon="6.16483">
        <ele>611</ele>
        <time>2010-07-18 11:01:11Z</time>
      </trkpt>
      <trkpt lat="45.91286" lon="6.16489">
        <ele>612</ele>
        <time>2010-07-18 11:01:15Z</time>
      </trkpt>
      <trkpt lat="45.91285" lon="6.16495">
        <ele>613</ele>
        <time>2010-07-18 11:01:19Z</time>
      </trkpt>
      <trkpt lat="45.91284" lon="6.165">
        <ele>613</ele>
        <time>2010-07-18 11:01:23Z</time>
      </trkpt>
      <trkpt lat="45.91283" lon="6.16502">
        <ele>615</ele>
        <time>2010-07-18 11:01:27Z</time>
      </trkpt>
      <trkpt lat="45.91283" lon="6.16505">
        <ele>615</ele>
        <time>2010-07-18 11:01:31Z</time>
      </trkpt>
      <trkpt lat="45.91283" lon="6.1651">
        <ele>616</ele>
        <time>2010-07-18 11:01:35Z</time>
      </trkpt>
      <trkpt lat="45.91283" lon="6.16514">
        <ele>617</ele>
        <time>2010-07-18 11:01:39Z</time>
      </trkpt>
      <trkpt lat="45.91283" lon="6.16521">
        <ele>619</ele>
        <time>2010-07-18 11:01:43Z</time>
      </trkpt>
      <trkpt lat="45.91283" lon="6.16526">
        <ele>621</ele>
        <time>2010-07-18 11:01:47Z</time>
      </trkpt>
      <trkpt lat="45.91283" lon="6.16533">
        <ele>624</ele>
        <time>2010-07-18 11:01:51Z</time>
      </trkpt>
      <trkpt lat="45.91283" lon="6.16539">
        <ele>624</ele>
        <time>2010-07-18 11:01:55Z</time>
      </trkpt>
      <trkpt lat="45.91283" lon="6.16543">
        <ele>624</ele>
        <time>2010-07-18 11:01:59Z</time>
      </trkpt>
      <trkpt lat="45.91282" lon="6.16548">
        <ele>624</ele>
        <time>2010-07-18 11:02:03Z</time>
      </trkpt>
      <trkpt lat="45.91282" lon="6.16551">
        <ele>624</ele>
        <time>2010-07-18 11:02:07Z</time>
      </trkpt>
      <trkpt lat="45.91281" lon="6.16558">
        <ele>627</ele>
        <time>2010-07-18 11:02:11Z</time>
      </trkpt>
      <trkpt lat="45.9128" lon="6.16563">
        <ele>628</ele>
        <time>2010-07-18 11:02:15Z</time>
      </trkpt>
      <trkpt lat="45.91276" lon="6.16568">
        <ele>627</ele>
        <time>2010-07-18 11:02:19Z</time>
      </trkpt>
      <trkpt lat="45.91274" lon="6.16571">
        <ele>627</ele>
        <time>2010-07-18 11:02:23Z</time>
      </trkpt>
      <trkpt lat="45.91271" lon="6.16576">
        <ele>628</ele>
        <time>2010-07-18 11:02:27Z</time>
      </trkpt>
      <trkpt lat="45.91269" lon="6.16579">
        <ele>629</ele>
        <time>2010-07-18 11:02:31Z</time>
      </trkpt>
      <trkpt lat="45.91267" lon="6.16584">
        <ele>629</ele>
        <time>2010-07-18 11:02:35Z</time>
      </trkpt>
      <trkpt lat="45.91265" lon="6.16588">
        <ele>630</ele>
        <time>2010-07-18 11:02:39Z</time>
      </trkpt>
      <trkpt lat="45.91263" lon="6.16591">
        <ele>631</ele>
        <time>2010-07-18 11:02:43Z</time>
      </trkpt>
      <trkpt lat="45.91261" lon="6.16596">
        <ele>632</ele>
        <time>2010-07-18 11:02:47Z</time>
      </trkpt>
      <trkpt lat="45.91259" lon="6.16601">
        <ele>635</ele>
        <time>2010-07-18 11:02:51Z</time>
      </trkpt>
      <trkpt lat="45.91257" lon="6.16605">
        <ele>636</ele>
        <time>2010-07-18 11:02:55Z</time>
      </trkpt>
      <trkpt lat="45.91255" lon="6.16608">
        <ele>636</ele>
        <time>2010-07-18 11:02:59Z</time>
      </trkpt>
      <trkpt lat="45.9125" lon="6.16612">
        <ele>637</ele>
        <time>2010-07-18 11:03:03Z</time>
      </trkpt>
      <trkpt lat="45.91243" lon="6.16616">
        <ele>637</ele>
        <time>2010-07-18 11:03:07Z</time>
      </trkpt>
      <trkpt lat="45.91238" lon="6.1662">
        <ele>639</ele>
        <time>2010-07-18 11:03:11Z</time>
      </trkpt>
      <trkpt lat="45.91234" lon="6.16623">
        <ele>641</ele>
        <time>2010-07-18 11:03:15Z</time>
      </trkpt>
      <trkpt lat="45.91232" lon="6.16625">
        <ele>642</ele>
        <time>2010-07-18 11:03:19Z</time>
      </trkpt>
      <trkpt lat="45.91224" lon="6.16628">
        <ele>644</ele>
        <time>2010-07-18 11:03:23Z</time>
      </trkpt>
      <trkpt lat="45.91213" lon="6.16631">
        <ele>647</ele>
        <time>2010-07-18 11:03:27Z</time>
      </trkpt>
      <trkpt lat="45.91207" lon="6.16632">
        <ele>649</ele>
        <time>2010-07-18 11:03:31Z</time>
      </trkpt>
      <trkpt lat="45.91197" lon="6.16634">
        <ele>653</ele>
        <time>2010-07-18 11:03:35Z</time>
      </trkpt>
      <trkpt lat="45.91193" lon="6.16635">
        <ele>654</ele>
        <time>2010-07-18 11:03:39Z</time>
      </trkpt>
      <trkpt lat="45.91187" lon="6.16634">
        <ele>655</ele>
        <time>2010-07-18 11:03:43Z</time>
      </trkpt>
      <trkpt lat="45.91183" lon="6.16634">
        <ele>658</ele>
        <time>2010-07-18 11:03:47Z</time>
      </trkpt>
      <trkpt lat="45.91178" lon="6.16634">
        <ele>660</ele>
        <time>2010-07-18 11:03:51Z</time>
      </trkpt>
      <trkpt lat="45.9117" lon="6.16634">
        <ele>662</ele>
        <time>2010-07-18 11:03:55Z</time>
      </trkpt>
      <trkpt lat="45.91159" lon="6.16634">
        <ele>666</ele>
        <time>2010-07-18 11:03:59Z</time>
      </trkpt>
      <trkpt lat="45.91151" lon="6.16635">
        <ele>669</ele>
        <time>2010-07-18 11:04:03Z</time>
      </trkpt>
      <trkpt lat="45.91142" lon="6.16636">
        <ele>669</ele>
        <time>2010-07-18 11:04:07Z</time>
      </trkpt>
      <trkpt lat="45.9114" lon="6.16636">
        <ele>669</ele>
        <time>2010-07-18 11:04:11Z</time>
      </trkpt>
      <trkpt lat="45.91128" lon="6.16644">
        <ele>668</ele>
        <time>2010-07-18 11:04:15Z</time>
      </trkpt>
      <trkpt lat="45.91124" lon="6.16647">
        <ele>668</ele>
        <time>2010-07-18 11:04:19Z</time>
      </trkpt>
      <trkpt lat="45.91122" lon="6.1665">
        <ele>665</ele>
        <time>2010-07-18 11:04:23Z</time>
      </trkpt>
      <trkpt lat="45.91121" lon="6.16653">
        <ele>665</ele>
        <time>2010-07-18 11:04:27Z</time>
      </trkpt>
      <trkpt lat="45.91121" lon="6.16657">
        <ele>666</ele>
        <time>2010-07-18 11:04:31Z</time>
      </trkpt>
      <trkpt lat="45.91121" lon="6.16663">
        <ele>666</ele>
        <time>2010-07-18 11:04:35Z</time>
      </trkpt>
      <trkpt lat="45.9112" lon="6.16668">
        <ele>664</ele>
        <time>2010-07-18 11:04:39Z</time>
      </trkpt>
      <trkpt lat="45.9112" lon="6.16671">
        <ele>664</ele>
        <time>2010-07-18 11:04:43Z</time>
      </trkpt>
      <trkpt lat="45.91119" lon="6.16673">
        <ele>667</ele>
        <time>2010-07-18 11:04:47Z</time>
      </trkpt>
      <trkpt lat="45.91118" lon="6.16675">
        <ele>669</ele>
        <time>2010-07-18 11:04:51Z</time>
      </trkpt>
      <trkpt lat="45.91117" lon="6.16676">
        <ele>671</ele>
        <time>2010-07-18 11:04:55Z</time>
      </trkpt>
      <trkpt lat="45.91116" lon="6.16679">
        <ele>674</ele>
        <time>2010-07-18 11:04:59Z</time>
      </trkpt>
      <trkpt lat="45.91117" lon="6.16681">
        <ele>675</ele>
        <time>2010-07-18 11:05:03Z</time>
      </trkpt>
      <trkpt lat="45.91118" lon="6.16682">
        <ele>676</ele>
        <time>2010-07-18 11:05:07Z</time>
      </trkpt>
      <trkpt lat="45.91118" lon="6.16682">
        <ele>676</ele>
        <time>2010-07-18 11:05:11Z</time>
      </trkpt>
      <trkpt lat="45.91119" lon="6.16685">
        <ele>677</ele>
        <time>2010-07-18 11:05:15Z</time>
      </trkpt>
      <trkpt lat="45.91121" lon="6.16686">
        <ele>677</ele>
        <time>2010-07-18 11:05:19Z</time>
      </trkpt>
      <trkpt lat="45.91122" lon="6.16687">
        <ele>678</ele>
        <time>2010-07-18 11:05:23Z</time>
      </trkpt>
      <trkpt lat="45.91125" lon="6.16687">
        <ele>680</ele>
        <time>2010-07-18 11:05:27Z</time>
      </trkpt>
      <trkpt lat="45.91127" lon="6.16688">
        <ele>681</ele>
        <time>2010-07-18 11:05:31Z</time>
      </trkpt>
      <trkpt lat="45.9113" lon="6.1669">
        <ele>684</ele>
        <time>2010-07-18 11:05:35Z</time>
      </trkpt>
      <trkpt lat="45.91133" lon="6.16691">
        <ele>684</ele>
        <time>2010-07-18 11:05:39Z</time>
      </trkpt>
      <trkpt lat="45.91137" lon="6.16694">
        <ele>686</ele>
        <time>2010-07-18 11:05:43Z</time>
      </trkpt>
      <trkpt lat="45.91142" lon="6.16698">
        <ele>685</ele>
        <time>2010-07-18 11:05:47Z</time>
      </trkpt>
      <trkpt lat="45.91145" lon="6.16701">
        <ele>687</ele>
        <time>2010-07-18 11:05:51Z</time>
      </trkpt>
      <trkpt lat="45.91149" lon="6.16704">
        <ele>687</ele>
        <time>2010-07-18 11:05:55Z</time>
      </trkpt>
      <trkpt lat="45.91152" lon="6.16706">
        <ele>688</ele>
        <time>2010-07-18 11:05:59Z</time>
      </trkpt>
      <trkpt lat="45.91156" lon="6.1671">
        <ele>686</ele>
        <time>2010-07-18 11:06:03Z</time>
      </trkpt>
      <trkpt lat="45.91159" lon="6.16714">
        <ele>687</ele>
        <time>2010-07-18 11:06:07Z</time>
      </trkpt>
      <trkpt lat="45.91161" lon="6.16716">
        <ele>687</ele>
        <time>2010-07-18 11:06:11Z</time>
      </trkpt>
      <trkpt lat="45.91165" lon="6.16718">
        <ele>690</ele>
        <time>2010-07-18 11:06:15Z</time>
      </trkpt>
      <trkpt lat="45.91168" lon="6.1672">
        <ele>690</ele>
        <time>2010-07-18 11:06:19Z</time>
      </trkpt>
      <trkpt lat="45.91171" lon="6.16723">
        <ele>692</ele>
        <time>2010-07-18 11:06:23Z</time>
      </trkpt>
      <trkpt lat="45.91174" lon="6.16726">
        <ele>693</ele>
        <time>2010-07-18 11:06:27Z</time>
      </trkpt>
      <trkpt lat="45.91177" lon="6.16728">
        <ele>693</ele>
        <time>2010-07-18 11:06:31Z</time>
      </trkpt>
      <trkpt lat="45.9118" lon="6.16731">
        <ele>695</ele>
        <time>2010-07-18 11:06:35Z</time>
      </trkpt>
      <trkpt lat="45.91184" lon="6.16734">
        <ele>694</ele>
        <time>2010-07-18 11:06:39Z</time>
      </trkpt>
      <trkpt lat="45.91187" lon="6.16735">
        <ele>695</ele>
        <time>2010-07-18 11:06:43Z</time>
      </trkpt>
      <trkpt lat="45.91191" lon="6.16737">
        <ele>694</ele>
        <time>2010-07-18 11:06:47Z</time>
      </trkpt>
      <trkpt lat="45.91193" lon="6.16737">
        <ele>694</ele>
        <time>2010-07-18 11:06:51Z</time>
      </trkpt>
      <trkpt lat="45.91195" lon="6.16738">
        <ele>695</ele>
        <time>2010-07-18 11:06:55Z</time>
      </trkpt>
      <trkpt lat="45.912" lon="6.16739">
        <ele>695</ele>
        <time>2010-07-18 11:06:59Z</time>
      </trkpt>
      <trkpt lat="45.91204" lon="6.1674">
        <ele>694</ele>
        <time>2010-07-18 11:07:03Z</time>
      </trkpt>
      <trkpt lat="45.91208" lon="6.16741">
        <ele>696</ele>
        <time>2010-07-18 11:07:07Z</time>
      </trkpt>
      <trkpt lat="45.91209" lon="6.16741">
        <ele>696</ele>
        <time>2010-07-18 11:07:11Z</time>
      </trkpt>
      <trkpt lat="45.91219" lon="6.16746">
        <ele>697</ele>
        <time>2010-07-18 11:07:15Z</time>
      </trkpt>
      <trkpt lat="45.91225" lon="6.1675">
        <ele>696</ele>
        <time>2010-07-18 11:07:19Z</time>
      </trkpt>
      <trkpt lat="45.9123" lon="6.16754">
        <ele>697</ele>
        <time>2010-07-18 11:07:23Z</time>
      </trkpt>
      <trkpt lat="45.91234" lon="6.16758">
        <ele>700</ele>
        <time>2010-07-18 11:07:27Z</time>
      </trkpt>
      <trkpt lat="45.91238" lon="6.16762">
        <ele>700</ele>
        <time>2010-07-18 11:07:31Z</time>
      </trkpt>
      <trkpt lat="45.91241" lon="6.16765">
        <ele>700</ele>
        <time>2010-07-18 11:07:35Z</time>
      </trkpt>
      <trkpt lat="45.91243" lon="6.16767">
        <ele>702</ele>
        <time>2010-07-18 11:07:39Z</time>
      </trkpt>
      <trkpt lat="45.91245" lon="6.1677">
        <ele>703</ele>
        <time>2010-07-18 11:07:43Z</time>
      </trkpt>
      <trkpt lat="45.91247" lon="6.16771">
        <ele>704</ele>
        <time>2010-07-18 11:07:47Z</time>
      </trkpt>
      <trkpt lat="45.9125" lon="6.16774">
        <ele>706</ele>
        <time>2010-07-18 11:07:51Z</time>
      </trkpt>
      <trkpt lat="45.91253" lon="6.16776">
        <ele>709</ele>
        <time>2010-07-18 11:07:55Z</time>
      </trkpt>
      <trkpt lat="45.91257" lon="6.16779">
        <ele>709</ele>
        <time>2010-07-18 11:07:59Z</time>
      </trkpt>
      <trkpt lat="45.9126" lon="6.16782">
        <ele>710</ele>
        <time>2010-07-18 11:08:03Z</time>
      </trkpt>
      <trkpt lat="45.91263" lon="6.16787">
        <ele>712</ele>
        <time>2010-07-18 11:08:07Z</time>
      </trkpt>
      <trkpt lat="45.91264" lon="6.16789">
        <ele>713</ele>
        <time>2010-07-18 11:08:11Z</time>
      </trkpt>
      <trkpt lat="45.91266" lon="6.16792">
        <ele>712</ele>
        <time>2010-07-18 11:08:15Z</time>
      </trkpt>
      <trkpt lat="45.91268" lon="6.168">
        <ele>712</ele>
        <time>2010-07-18 11:08:19Z</time>
      </trkpt>
      <trkpt lat="45.91271" lon="6.1681">
        <ele>713</ele>
        <time>2010-07-18 11:08:23Z</time>
      </trkpt>
      <trkpt lat="45.91273" lon="6.16817">
        <ele>713</ele>
        <time>2010-07-18 11:08:27Z</time>
      </trkpt>
      <trkpt lat="45.91277" lon="6.16824">
        <ele>714</ele>
        <time>2010-07-18 11:08:31Z</time>
      </trkpt>
      <trkpt lat="45.9128" lon="6.16831">
        <ele>715</ele>
        <time>2010-07-18 11:08:35Z</time>
      </trkpt>
      <trkpt lat="45.91283" lon="6.16836">
        <ele>716</ele>
        <time>2010-07-18 11:08:39Z</time>
      </trkpt>
      <trkpt lat="45.91284" lon="6.1684">
        <ele>717</ele>
        <time>2010-07-18 11:08:43Z</time>
      </trkpt>
      <trkpt lat="45.91285" lon="6.16843">
        <ele>718</ele>
        <time>2010-07-18 11:08:47Z</time>
      </trkpt>
      <trkpt lat="45.91285" lon="6.16846">
        <ele>717</ele>
        <time>2010-07-18 11:08:51Z</time>
      </trkpt>
      <trkpt lat="45.91286" lon="6.1685">
        <ele>717</ele>
        <time>2010-07-18 11:08:55Z</time>
      </trkpt>
      <trkpt lat="45.91287" lon="6.16854">
        <ele>716</ele>
        <time>2010-07-18 11:08:59Z</time>
      </trkpt>
      <trkpt lat="45.91286" lon="6.16858">
        <ele>716</ele>
        <time>2010-07-18 11:09:03Z</time>
      </trkpt>
      <trkpt lat="45.91286" lon="6.16861">
        <ele>716</ele>
        <time>2010-07-18 11:09:07Z</time>
      </trkpt>
      <trkpt lat="45.91286" lon="6.16864">
        <ele>715</ele>
        <time>2010-07-18 11:09:11Z</time>
      </trkpt>
      <trkpt lat="45.91285" lon="6.1687">
        <ele>717</ele>
        <time>2010-07-18 11:09:15Z</time>
      </trkpt>
      <trkpt lat="45.91284" lon="6.16875">
        <ele>718</ele>
        <time>2010-07-18 11:09:19Z</time>
      </trkpt>
      <trkpt lat="45.91283" lon="6.16881">
        <ele>719</ele>
        <time>2010-07-18 11:09:23Z</time>
      </trkpt>
      <trkpt lat="45.91282" lon="6.16884">
        <ele>719</ele>
        <time>2010-07-18 11:09:27Z</time>
      </trkpt>
      <trkpt lat="45.91281" lon="6.16888">
        <ele>721</ele>
        <time>2010-07-18 11:09:31Z</time>
      </trkpt>
      <trkpt lat="45.9128" lon="6.16892">
        <ele>724</ele>
        <time>2010-07-18 11:09:35Z</time>
      </trkpt>
      <trkpt lat="45.9128" lon="6.16897">
        <ele>726</ele>
        <time>2010-07-18 11:09:39Z</time>
      </trkpt>
      <trkpt lat="45.9128" lon="6.169">
        <ele>727</ele>
        <time>2010-07-18 11:09:43Z</time>
      </trkpt>
      <trkpt lat="45.9128" lon="6.16901">
        <ele>728</ele>
        <time>2010-07-18 11:09:47Z</time>
      </trkpt>
      <trkpt lat="45.9128" lon="6.16902">
        <ele>730</ele>
        <time>2010-07-18 11:09:51Z</time>
      </trkpt>
      <trkpt lat="45.91282" lon="6.16904">
        <ele>731</ele>
        <time>2010-07-18 11:09:55Z</time>
      </trkpt>
      <trkpt lat="45.91283" lon="6.16905">
        <ele>732</ele>
        <time>2010-07-18 11:09:59Z</time>
      </trkpt>
      <trkpt lat="45.91283" lon="6.16907">
        <ele>733</ele>
        <time>2010-07-18 11:10:03Z</time>
      </trkpt>
      <trkpt lat="45.91284" lon="6.16907">
        <ele>732</ele>
        <time>2010-07-18 11:10:07Z</time>
      </trkpt>
      <trkpt lat="45.91284" lon="6.16907">
        <ele>731</ele>
        <time>2010-07-18 11:10:11Z</time>
      </trkpt>
      <trkpt lat="45.91284" lon="6.16908">
        <ele>734</ele>
        <time>2010-07-18 11:10:15Z</time>
      </trkpt>
      <trkpt lat="45.91284" lon="6.16908">
        <ele>734</ele>
        <time>2010-07-18 11:10:19Z</time>
      </trkpt>
      <trkpt lat="45.91288" lon="6.1691">
        <ele>736</ele>
        <time>2010-07-18 11:10:23Z</time>
      </trkpt>
      <trkpt lat="45.91295" lon="6.1691">
        <ele>737</ele>
        <time>2010-07-18 11:10:27Z</time>
      </trkpt>
      <trkpt lat="45.91301" lon="6.16911">
        <ele>739</ele>
        <time>2010-07-18 11:10:31Z</time>
      </trkpt>
      <trkpt lat="45.91309" lon="6.16914">
        <ele>741</ele>
        <time>2010-07-18 11:10:35Z</time>
      </trkpt>
      <trkpt lat="45.91314" lon="6.16917">
        <ele>742</ele>
        <time>2010-07-18 11:10:39Z</time>
      </trkpt>
      <trkpt lat="45.91322" lon="6.1692">
        <ele>745</ele>
        <time>2010-07-18 11:10:43Z</time>
      </trkpt>
      <trkpt lat="45.91328" lon="6.16925">
        <ele>745</ele>
        <time>2010-07-18 11:10:47Z</time>
      </trkpt>
      <trkpt lat="45.91333" lon="6.16929">
        <ele>746</ele>
        <time>2010-07-18 11:10:51Z</time>
      </trkpt>
      <trkpt lat="45.91338" lon="6.16933">
        <ele>748</ele>
        <time>2010-07-18 11:10:55Z</time>
      </trkpt>
      <trkpt lat="45.91345" lon="6.16939">
        <ele>750</ele>
        <time>2010-07-18 11:10:59Z</time>
      </trkpt>
      <trkpt lat="45.9135" lon="6.16942">
        <ele>750</ele>
        <time>2010-07-18 11:11:03Z</time>
      </trkpt>
      <trkpt lat="45.91357" lon="6.16948">
        <ele>751</ele>
        <time>2010-07-18 11:11:07Z</time>
      </trkpt>
      <trkpt lat="45.91363" lon="6.16955">
        <ele>752</ele>
        <time>2010-07-18 11:11:11Z</time>
      </trkpt>
      <trkpt lat="45.91363" lon="6.16955">
        <ele>752</ele>
        <time>2010-07-18 11:11:15Z</time>
      </trkpt>
      <trkpt lat="45.91372" lon="6.16964">
        <ele>754</ele>
        <time>2010-07-18 11:11:19Z</time>
      </trkpt>
      <trkpt lat="45.91383" lon="6.16974">
        <ele>756</ele>
        <time>2010-07-18 11:11:23Z</time>
      </trkpt>
      <trkpt lat="45.91394" lon="6.16982">
        <ele>757</ele>
        <time>2010-07-18 11:11:27Z</time>
      </trkpt>
      <trkpt lat="45.91402" lon="6.16986">
        <ele>758</ele>
        <time>2010-07-18 11:11:31Z</time>
      </trkpt>
      <trkpt lat="45.9141" lon="6.16989">
        <ele>759</ele>
        <time>2010-07-18 11:11:35Z</time>
      </trkpt>
      <trkpt lat="45.91418" lon="6.16992">
        <ele>759</ele>
        <time>2010-07-18 11:11:39Z</time>
      </trkpt>
      <trkpt lat="45.91422" lon="6.16996">
        <ele>758</ele>
        <time>2010-07-18 11:11:43Z</time>
      </trkpt>
      <trkpt lat="45.91431" lon="6.17003">
        <ele>758</ele>
        <time>2010-07-18 11:11:47Z</time>
      </trkpt>
      <trkpt lat="45.91445" lon="6.1701">
        <ele>756</ele>
        <time>2010-07-18 11:11:51Z</time>
      </trkpt>
      <trkpt lat="45.91458" lon="6.17017">
        <ele>755</ele>
        <time>2010-07-18 11:11:55Z</time>
      </trkpt>
      <trkpt lat="45.91468" lon="6.17023">
        <ele>754</ele>
        <time>2010-07-18 11:11:59Z</time>
      </trkpt>
      <trkpt lat="45.91477" lon="6.17029">
        <ele>753</ele>
        <time>2010-07-18 11:12:03Z</time>
      </trkpt>
      <trkpt lat="45.91483" lon="6.17033">
        <ele>752</ele>
        <time>2010-07-18 11:12:07Z</time>
      </trkpt>
      <trkpt lat="45.9149" lon="6.17041">
        <ele>751</ele>
        <time>2010-07-18 11:12:11Z</time>
      </trkpt>
      <trkpt lat="45.9149" lon="6.17041">
        <ele>751</ele>
        <time>2010-07-18 11:12:15Z</time>
      </trkpt>
      <trkpt lat="45.91501" lon="6.17056">
        <ele>748</ele>
        <time>2010-07-18 11:12:19Z</time>
      </trkpt>
      <trkpt lat="45.91504" lon="6.17061">
        <ele>748</ele>
        <time>2010-07-18 11:12:23Z</time>
      </trkpt>
      <trkpt lat="45.91509" lon="6.17069">
        <ele>748</ele>
        <time>2010-07-18 11:12:27Z</time>
      </trkpt>
      <trkpt lat="45.91512" lon="6.17074">
        <ele>748</ele>
        <time>2010-07-18 11:12:31Z</time>
      </trkpt>
      <trkpt lat="45.91516" lon="6.17081">
        <ele>747</ele>
        <time>2010-07-18 11:12:35Z</time>
      </trkpt>
      <trkpt lat="45.91518" lon="6.17086">
        <ele>747</ele>
        <time>2010-07-18 11:12:39Z</time>
      </trkpt>
      <trkpt lat="45.91521" lon="6.17093">
        <ele>747</ele>
        <time>2010-07-18 11:12:43Z</time>
      </trkpt>
      <trkpt lat="45.91521" lon="6.17094">
        <ele>747</ele>
        <time>2010-07-18 11:12:47Z</time>
      </trkpt>
      <trkpt lat="45.91525" lon="6.17104">
        <ele>747</ele>
        <time>2010-07-18 11:12:51Z</time>
      </trkpt>
      <trkpt lat="45.91526" lon="6.17109">
        <ele>748</ele>
        <time>2010-07-18 11:12:55Z</time>
      </trkpt>
      <trkpt lat="45.91528" lon="6.17114">
        <ele>749</ele>
        <time>2010-07-18 11:12:59Z</time>
      </trkpt>
      <trkpt lat="45.9153" lon="6.17119">
        <ele>749</ele>
        <time>2010-07-18 11:13:03Z</time>
      </trkpt>
      <trkpt lat="45.91532" lon="6.17126">
        <ele>750</ele>
        <time>2010-07-18 11:13:07Z</time>
      </trkpt>
      <trkpt lat="45.91534" lon="6.17135">
        <ele>750</ele>
        <time>2010-07-18 11:13:11Z</time>
      </trkpt>
      <trkpt lat="45.91538" lon="6.17142">
        <ele>750</ele>
        <time>2010-07-18 11:13:15Z</time>
      </trkpt>
      <trkpt lat="45.91541" lon="6.1715">
        <ele>748</ele>
        <time>2010-07-18 11:13:19Z</time>
      </trkpt>
      <trkpt lat="45.91544" lon="6.17158">
        <ele>748</ele>
        <time>2010-07-18 11:13:23Z</time>
      </trkpt>
      <trkpt lat="45.91546" lon="6.17165">
        <ele>748</ele>
        <time>2010-07-18 11:13:27Z</time>
      </trkpt>
      <trkpt lat="45.91548" lon="6.17174">
        <ele>750</ele>
        <time>2010-07-18 11:13:31Z</time>
      </trkpt>
      <trkpt lat="45.91549" lon="6.17183">
        <ele>750</ele>
        <time>2010-07-18 11:13:35Z</time>
      </trkpt>
      <trkpt lat="45.91549" lon="6.17189">
        <ele>748</ele>
        <time>2010-07-18 11:13:39Z</time>
      </trkpt>
      <trkpt lat="45.91547" lon="6.17195">
        <ele>749</ele>
        <time>2010-07-18 11:13:43Z</time>
      </trkpt>
      <trkpt lat="45.91543" lon="6.17199">
        <ele>750</ele>
        <time>2010-07-18 11:13:47Z</time>
      </trkpt>
      <trkpt lat="45.91539" lon="6.172">
        <ele>751</ele>
        <time>2010-07-18 11:13:51Z</time>
      </trkpt>
      <trkpt lat="45.91536" lon="6.172">
        <ele>751</ele>
        <time>2010-07-18 11:13:55Z</time>
      </trkpt>
      <trkpt lat="45.91534" lon="6.172">
        <ele>753</ele>
        <time>2010-07-18 11:13:59Z</time>
      </trkpt>
      <trkpt lat="45.9153" lon="6.17199">
        <ele>754</ele>
        <time>2010-07-18 11:14:03Z</time>
      </trkpt>
      <trkpt lat="45.91527" lon="6.17197">
        <ele>755</ele>
        <time>2010-07-18 11:14:07Z</time>
      </trkpt>
      <trkpt lat="45.91525" lon="6.17195">
        <ele>756</ele>
        <time>2010-07-18 11:14:11Z</time>
      </trkpt>
      <trkpt lat="45.91523" lon="6.17194">
        <ele>757</ele>
        <time>2010-07-18 11:14:15Z</time>
      </trkpt>
      <trkpt lat="45.91521" lon="6.17192">
        <ele>759</ele>
        <time>2010-07-18 11:14:19Z</time>
      </trkpt>
      <trkpt lat="45.91518" lon="6.17189">
        <ele>760</ele>
        <time>2010-07-18 11:14:23Z</time>
      </trkpt>
      <trkpt lat="45.91514" lon="6.17183">
        <ele>761</ele>
        <time>2010-07-18 11:14:27Z</time>
      </trkpt>
      <trkpt lat="45.91511" lon="6.1718">
        <ele>763</ele>
        <time>2010-07-18 11:14:31Z</time>
      </trkpt>
      <trkpt lat="45.91509" lon="6.17176">
        <ele>763</ele>
        <time>2010-07-18 11:14:35Z</time>
      </trkpt>
      <trkpt lat="45.91505" lon="6.17173">
        <ele>766</ele>
        <time>2010-07-18 11:14:39Z</time>
      </trkpt>
      <trkpt lat="45.91501" lon="6.17168">
        <ele>769</ele>
        <time>2010-07-18 11:14:43Z</time>
      </trkpt>
      <trkpt lat="45.91496" lon="6.17164">
        <ele>768</ele>
        <time>2010-07-18 11:14:47Z</time>
      </trkpt>
      <trkpt lat="45.91493" lon="6.17162">
        <ele>768</ele>
        <time>2010-07-18 11:14:51Z</time>
      </trkpt>
      <trkpt lat="45.91488" lon="6.17159">
        <ele>768</ele>
        <time>2010-07-18 11:14:55Z</time>
      </trkpt>
      <trkpt lat="45.91483" lon="6.17157">
        <ele>769</ele>
        <time>2010-07-18 11:14:59Z</time>
      </trkpt>
      <trkpt lat="45.91478" lon="6.17155">
        <ele>769</ele>
        <time>2010-07-18 11:15:03Z</time>
      </trkpt>
      <trkpt lat="45.91475" lon="6.17154">
        <ele>768</ele>
        <time>2010-07-18 11:15:07Z</time>
      </trkpt>
      <trkpt lat="45.91473" lon="6.17153">
        <ele>764</ele>
        <time>2010-07-18 11:15:11Z</time>
      </trkpt>
      <trkpt lat="45.91473" lon="6.17152">
        <ele>764</ele>
        <time>2010-07-18 11:15:15Z</time>
      </trkpt>
      <trkpt lat="45.91473" lon="6.17153">
        <ele>763</ele>
        <time>2010-07-18 11:15:19Z</time>
      </trkpt>
      <trkpt lat="45.91474" lon="6.17155">
        <ele>764</ele>
        <time>2010-07-18 11:15:23Z</time>
      </trkpt>
      <trkpt lat="45.91476" lon="6.17157">
        <ele>766</ele>
        <time>2010-07-18 11:15:27Z</time>
      </trkpt>
      <trkpt lat="45.91478" lon="6.17159">
        <ele>767</ele>
        <time>2010-07-18 11:15:31Z</time>
      </trkpt>
      <trkpt lat="45.91482" lon="6.17161">
        <ele>768</ele>
        <time>2010-07-18 11:15:35Z</time>
      </trkpt>
      <trkpt lat="45.91484" lon="6.17163">
        <ele>770</ele>
        <time>2010-07-18 11:15:39Z</time>
      </trkpt>
      <trkpt lat="45.91488" lon="6.17166">
        <ele>772</ele>
        <time>2010-07-18 11:15:43Z</time>
      </trkpt>
      <trkpt lat="45.91491" lon="6.1717">
        <ele>774</ele>
        <time>2010-07-18 11:15:47Z</time>
      </trkpt>
      <trkpt lat="45.91493" lon="6.17172">
        <ele>776</ele>
        <time>2010-07-18 11:15:51Z</time>
      </trkpt>
      <trkpt lat="45.91497" lon="6.17182">
        <ele>776</ele>
        <time>2010-07-18 11:15:55Z</time>
      </trkpt>
      <trkpt lat="45.91497" lon="6.17188">
        <ele>776</ele>
        <time>2010-07-18 11:15:59Z</time>
      </trkpt>
      <trkpt lat="45.91497" lon="6.17194">
        <ele>775</ele>
        <time>2010-07-18 11:16:03Z</time>
      </trkpt>
      <trkpt lat="45.91496" lon="6.17199">
        <ele>774</ele>
        <time>2010-07-18 11:16:07Z</time>
      </trkpt>
      <trkpt lat="45.91494" lon="6.172">
        <ele>775</ele>
        <time>2010-07-18 11:16:11Z</time>
      </trkpt>
      <trkpt lat="45.91493" lon="6.172">
        <ele>775</ele>
        <time>2010-07-18 11:16:15Z</time>
      </trkpt>
      <trkpt lat="45.91493" lon="6.17201">
        <ele>775</ele>
        <time>2010-07-18 11:16:19Z</time>
      </trkpt>
      <trkpt lat="45.91493" lon="6.17203">
        <ele>775</ele>
        <time>2010-07-18 11:16:23Z</time>
      </trkpt>
      <trkpt lat="45.91492" lon="6.17206">
        <ele>775</ele>
        <time>2010-07-18 11:16:27Z</time>
      </trkpt>
      <trkpt lat="45.91493" lon="6.1721">
        <ele>775</ele>
        <time>2010-07-18 11:16:31Z</time>
      </trkpt>
      <trkpt lat="45.91493" lon="6.17213">
        <ele>778</ele>
        <time>2010-07-18 11:16:35Z</time>
      </trkpt>
      <trkpt lat="45.91494" lon="6.17214">
        <ele>780</ele>
        <time>2010-07-18 11:16:39Z</time>
      </trkpt>
      <trkpt lat="45.91495" lon="6.17216">
        <ele>781</ele>
        <time>2010-07-18 11:16:43Z</time>
      </trkpt>
      <trkpt lat="45.91496" lon="6.17219">
        <ele>784</ele>
        <time>2010-07-18 11:16:47Z</time>
      </trkpt>
      <trkpt lat="45.91497" lon="6.17223">
        <ele>787</ele>
        <time>2010-07-18 11:16:51Z</time>
      </trkpt>
      <trkpt lat="45.91499" lon="6.17228">
        <ele>787</ele>
        <time>2010-07-18 11:16:55Z</time>
      </trkpt>
      <trkpt lat="45.91502" lon="6.17232">
        <ele>788</ele>
        <time>2010-07-18 11:16:59Z</time>
      </trkpt>
      <trkpt lat="45.91503" lon="6.17235">
        <ele>788</ele>
        <time>2010-07-18 11:17:03Z</time>
      </trkpt>
      <trkpt lat="45.91504" lon="6.17239">
        <ele>790</ele>
        <time>2010-07-18 11:17:07Z</time>
      </trkpt>
      <trkpt lat="45.91506" lon="6.17242">
        <ele>790</ele>
        <time>2010-07-18 11:17:11Z</time>
      </trkpt>
      <trkpt lat="45.91507" lon="6.17245">
        <ele>790</ele>
        <time>2010-07-18 11:17:15Z</time>
      </trkpt>
      <trkpt lat="45.91507" lon="6.17249">
        <ele>792</ele>
        <time>2010-07-18 11:17:19Z</time>
      </trkpt>
      <trkpt lat="45.91509" lon="6.17254">
        <ele>793</ele>
        <time>2010-07-18 11:17:23Z</time>
      </trkpt>
      <trkpt lat="45.9151" lon="6.1726">
        <ele>793</ele>
        <time>2010-07-18 11:17:27Z</time>
      </trkpt>
      <trkpt lat="45.91512" lon="6.17265">
        <ele>794</ele>
        <time>2010-07-18 11:17:31Z</time>
      </trkpt>
      <trkpt lat="45.91515" lon="6.17269">
        <ele>795</ele>
        <time>2010-07-18 11:17:35Z</time>
      </trkpt>
      <trkpt lat="45.91518" lon="6.17274">
        <ele>797</ele>
        <time>2010-07-18 11:17:39Z</time>
      </trkpt>
      <trkpt lat="45.9152" lon="6.17278">
        <ele>797</ele>
        <time>2010-07-18 11:17:43Z</time>
      </trkpt>
      <trkpt lat="45.91524" lon="6.17281">
        <ele>798</ele>
        <time>2010-07-18 11:17:47Z</time>
      </trkpt>
      <trkpt lat="45.91528" lon="6.17284">
        <ele>799</ele>
        <time>2010-07-18 11:17:51Z</time>
      </trkpt>
      <trkpt lat="45.91532" lon="6.17287">
        <ele>799</ele>
        <time>2010-07-18 11:17:55Z</time>
      </trkpt>
      <trkpt lat="45.91536" lon="6.17289">
        <ele>800</ele>
        <time>2010-07-18 11:17:59Z</time>
      </trkpt>
      <trkpt lat="45.91541" lon="6.17293">
        <ele>800</ele>
        <time>2010-07-18 11:18:03Z</time>
      </trkpt>
      <trkpt lat="45.91546" lon="6.17298">
        <ele>803</ele>
        <time>2010-07-18 11:18:07Z</time>
      </trkpt>
      <trkpt lat="45.91551" lon="6.17303">
        <ele>806</ele>
        <time>2010-07-18 11:18:11Z</time>
      </trkpt>
      <trkpt lat="45.91555" lon="6.17306">
        <ele>807</ele>
        <time>2010-07-18 11:18:15Z</time>
      </trkpt>
      <trkpt lat="45.91565" lon="6.17314">
        <ele>808</ele>
        <time>2010-07-18 11:18:19Z</time>
      </trkpt>
      <trkpt lat="45.91571" lon="6.17323">
        <ele>809</ele>
        <time>2010-07-18 11:18:23Z</time>
      </trkpt>
      <trkpt lat="45.91577" lon="6.17334">
        <ele>807</ele>
        <time>2010-07-18 11:18:27Z</time>
      </trkpt>
      <trkpt lat="45.91582" lon="6.17341">
        <ele>806</ele>
        <time>2010-07-18 11:18:31Z</time>
      </trkpt>
      <trkpt lat="45.91587" lon="6.17347">
        <ele>806</ele>
        <time>2010-07-18 11:18:35Z</time>
      </trkpt>
      <trkpt lat="45.91592" lon="6.17356">
        <ele>806</ele>
        <time>2010-07-18 11:18:39Z</time>
      </trkpt>
      <trkpt lat="45.91597" lon="6.17365">
        <ele>806</ele>
        <time>2010-07-18 11:18:43Z</time>
      </trkpt>
      <trkpt lat="45.91601" lon="6.17374">
        <ele>806</ele>
        <time>2010-07-18 11:18:47Z</time>
      </trkpt>
      <trkpt lat="45.91606" lon="6.17384">
        <ele>806</ele>
        <time>2010-07-18 11:18:51Z</time>
      </trkpt>
      <trkpt lat="45.91609" lon="6.17394">
        <ele>805</ele>
        <time>2010-07-18 11:18:55Z</time>
      </trkpt>
      <trkpt lat="45.91611" lon="6.17403">
        <ele>803</ele>
        <time>2010-07-18 11:18:59Z</time>
      </trkpt>
      <trkpt lat="45.91614" lon="6.17413">
        <ele>802</ele>
        <time>2010-07-18 11:19:03Z</time>
      </trkpt>
      <trkpt lat="45.91616" lon="6.17421">
        <ele>801</ele>
        <time>2010-07-18 11:19:07Z</time>
      </trkpt>
      <trkpt lat="45.91617" lon="6.17428">
        <ele>798</ele>
        <time>2010-07-18 11:19:11Z</time>
      </trkpt>
      <trkpt lat="45.91618" lon="6.17434">
        <ele>798</ele>
        <time>2010-07-18 11:19:15Z</time>
      </trkpt>
      <trkpt lat="45.91619" lon="6.17445">
        <ele>797</ele>
        <time>2010-07-18 11:19:19Z</time>
      </trkpt>
      <trkpt lat="45.91619" lon="6.17452">
        <ele>797</ele>
        <time>2010-07-18 11:19:23Z</time>
      </trkpt>
      <trkpt lat="45.91619" lon="6.17461">
        <ele>796</ele>
        <time>2010-07-18 11:19:27Z</time>
      </trkpt>
      <trkpt lat="45.91619" lon="6.17467">
        <ele>796</ele>
        <time>2010-07-18 11:19:31Z</time>
      </trkpt>
      <trkpt lat="45.91618" lon="6.17474">
        <ele>795</ele>
        <time>2010-07-18 11:19:35Z</time>
      </trkpt>
      <trkpt lat="45.91618" lon="6.17479">
        <ele>796</ele>
        <time>2010-07-18 11:19:39Z</time>
      </trkpt>
      <trkpt lat="45.91617" lon="6.17487">
        <ele>797</ele>
        <time>2010-07-18 11:19:43Z</time>
      </trkpt>
      <trkpt lat="45.91616" lon="6.17495">
        <ele>797</ele>
        <time>2010-07-18 11:19:47Z</time>
      </trkpt>
      <trkpt lat="45.91615" lon="6.17502">
        <ele>796</ele>
        <time>2010-07-18 11:19:51Z</time>
      </trkpt>
      <trkpt lat="45.91613" lon="6.17508">
        <ele>796</ele>
        <time>2010-07-18 11:19:55Z</time>
      </trkpt>
      <trkpt lat="45.91611" lon="6.17513">
        <ele>797</ele>
        <time>2010-07-18 11:19:59Z</time>
      </trkpt>
      <trkpt lat="45.91609" lon="6.17517">
        <ele>796</ele>
        <time>2010-07-18 11:20:03Z</time>
      </trkpt>
      <trkpt lat="45.91608" lon="6.17522">
        <ele>796</ele>
        <time>2010-07-18 11:20:07Z</time>
      </trkpt>
      <trkpt lat="45.91607" lon="6.17525">
        <ele>797</ele>
        <time>2010-07-18 11:20:11Z</time>
      </trkpt>
      <trkpt lat="45.91606" lon="6.17533">
        <ele>798</ele>
        <time>2010-07-18 11:20:15Z</time>
      </trkpt>
      <trkpt lat="45.91607" lon="6.17537">
        <ele>801</ele>
        <time>2010-07-18 11:20:19Z</time>
      </trkpt>
      <trkpt lat="45.91606" lon="6.17541">
        <ele>802</ele>
        <time>2010-07-18 11:20:23Z</time>
      </trkpt>
      <trkpt lat="45.91606" lon="6.17549">
        <ele>804</ele>
        <time>2010-07-18 11:20:27Z</time>
      </trkpt>
      <trkpt lat="45.91605" lon="6.17559">
        <ele>805</ele>
        <time>2010-07-18 11:20:31Z</time>
      </trkpt>
      <trkpt lat="45.91603" lon="6.17564">
        <ele>805</ele>
        <time>2010-07-18 11:20:35Z</time>
      </trkpt>
      <trkpt lat="45.91599" lon="6.17574">
        <ele>806</ele>
        <time>2010-07-18 11:20:39Z</time>
      </trkpt>
      <trkpt lat="45.91597" lon="6.17581">
        <ele>806</ele>
        <time>2010-07-18 11:20:43Z</time>
      </trkpt>
      <trkpt lat="45.91596" lon="6.17587">
        <ele>807</ele>
        <time>2010-07-18 11:20:47Z</time>
      </trkpt>
      <trkpt lat="45.91595" lon="6.17591">
        <ele>806</ele>
        <time>2010-07-18 11:20:51Z</time>
      </trkpt>
      <trkpt lat="45.91594" lon="6.17597">
        <ele>808</ele>
        <time>2010-07-18 11:20:55Z</time>
      </trkpt>
      <trkpt lat="45.91594" lon="6.17603">
        <ele>807</ele>
        <time>2010-07-18 11:20:59Z</time>
      </trkpt>
      <trkpt lat="45.91593" lon="6.1761">
        <ele>809</ele>
        <time>2010-07-18 11:21:03Z</time>
      </trkpt>
      <trkpt lat="45.91592" lon="6.17614">
        <ele>811</ele>
        <time>2010-07-18 11:21:07Z</time>
      </trkpt>
      <trkpt lat="45.91591" lon="6.17619">
        <ele>812</ele>
        <time>2010-07-18 11:21:11Z</time>
      </trkpt>
      <trkpt lat="45.91589" lon="6.17623">
        <ele>813</ele>
        <time>2010-07-18 11:21:15Z</time>
      </trkpt>
      <trkpt lat="45.91588" lon="6.1763">
        <ele>815</ele>
        <time>2010-07-18 11:21:19Z</time>
      </trkpt>
      <trkpt lat="45.91586" lon="6.17636">
        <ele>817</ele>
        <time>2010-07-18 11:21:23Z</time>
      </trkpt>
      <trkpt lat="45.91584" lon="6.17639">
        <ele>816</ele>
        <time>2010-07-18 11:21:27Z</time>
      </trkpt>
      <trkpt lat="45.9158" lon="6.17645">
        <ele>816</ele>
        <time>2010-07-18 11:21:31Z</time>
      </trkpt>
      <trkpt lat="45.91578" lon="6.1765">
        <ele>817</ele>
        <time>2010-07-18 11:21:35Z</time>
      </trkpt>
      <trkpt lat="45.91575" lon="6.17655">
        <ele>818</ele>
        <time>2010-07-18 11:21:39Z</time>
      </trkpt>
      <trkpt lat="45.91575" lon="6.17655">
        <ele>818</ele>
        <time>2010-07-18 11:21:43Z</time>
      </trkpt>
      <trkpt lat="45.91567" lon="6.17663">
        <ele>818</ele>
        <time>2010-07-18 11:21:47Z</time>
      </trkpt>
      <trkpt lat="45.91565" lon="6.17665">
        <ele>818</ele>
        <time>2010-07-18 11:21:51Z</time>
      </trkpt>
      <trkpt lat="45.91561" lon="6.17669">
        <ele>819</ele>
        <time>2010-07-18 11:21:55Z</time>
      </trkpt>
      <trkpt lat="45.91559" lon="6.17673">
        <ele>821</ele>
        <time>2010-07-18 11:21:59Z</time>
      </trkpt>
      <trkpt lat="45.91557" lon="6.17677">
        <ele>821</ele>
        <time>2010-07-18 11:22:03Z</time>
      </trkpt>
      <trkpt lat="45.91554" lon="6.17689">
        <ele>825</ele>
        <time>2010-07-18 11:22:07Z</time>
      </trkpt>
      <trkpt lat="45.91552" lon="6.17702">
        <ele>827</ele>
        <time>2010-07-18 11:22:11Z</time>
      </trkpt>
      <trkpt lat="45.91551" lon="6.17709">
        <ele>828</ele>
        <time>2010-07-18 11:22:15Z</time>
      </trkpt>
      <trkpt lat="45.91551" lon="6.17709">
        <ele>828</ele>
        <time>2010-07-18 11:22:19Z</time>
      </trkpt>
      <trkpt lat="45.91548" lon="6.17742">
        <ele>830</ele>
        <time>2010-07-18 11:22:23Z</time>
      </trkpt>
      <trkpt lat="45.91546" lon="6.17754">
        <ele>831</ele>
        <time>2010-07-18 11:22:27Z</time>
      </trkpt>
      <trkpt lat="45.91545" lon="6.17761">
        <ele>831</ele>
        <time>2010-07-18 11:22:31Z</time>
      </trkpt>
      <trkpt lat="45.91542" lon="6.1777">
        <ele>831</ele>
        <time>2010-07-18 11:22:35Z</time>
      </trkpt>
      <trkpt lat="45.91539" lon="6.17777">
        <ele>833</ele>
        <time>2010-07-18 11:22:39Z</time>
      </trkpt>
      <trkpt lat="45.91538" lon="6.17782">
        <ele>835</ele>
        <time>2010-07-18 11:22:43Z</time>
      </trkpt>
      <trkpt lat="45.91536" lon="6.17787">
        <ele>836</ele>
        <time>2010-07-18 11:22:47Z</time>
      </trkpt>
      <trkpt lat="45.91535" lon="6.17794">
        <ele>838</ele>
        <time>2010-07-18 11:22:51Z</time>
      </trkpt>
      <trkpt lat="45.91534" lon="6.17799">
        <ele>838</ele>
        <time>2010-07-18 11:22:55Z</time>
      </trkpt>
      <trkpt lat="45.91534" lon="6.17807">
        <ele>840</ele>
        <time>2010-07-18 11:22:59Z</time>
      </trkpt>
      <trkpt lat="45.91533" lon="6.17814">
        <ele>840</ele>
        <time>2010-07-18 11:23:03Z</time>
      </trkpt>
      <trkpt lat="45.91532" lon="6.17823">
        <ele>842</ele>
        <time>2010-07-18 11:23:07Z</time>
      </trkpt>
      <trkpt lat="45.91531" lon="6.17827">
        <ele>843</ele>
        <time>2010-07-18 11:23:11Z</time>
      </trkpt>
      <trkpt lat="45.91529" lon="6.17844">
        <ele>845</ele>
        <time>2010-07-18 11:23:15Z</time>
      </trkpt>
      <trkpt lat="45.91529" lon="6.17847">
        <ele>845</ele>
        <time>2010-07-18 11:23:19Z</time>
      </trkpt>
      <trkpt lat="45.91528" lon="6.17867">
        <ele>844</ele>
        <time>2010-07-18 11:23:23Z</time>
      </trkpt>
      <trkpt lat="45.91527" lon="6.17874">
        <ele>843</ele>
        <time>2010-07-18 11:23:27Z</time>
      </trkpt>
      <trkpt lat="45.91526" lon="6.1788">
        <ele>844</ele>
        <time>2010-07-18 11:23:31Z</time>
      </trkpt>
      <trkpt lat="45.91525" lon="6.17885">
        <ele>844</ele>
        <time>2010-07-18 11:23:35Z</time>
      </trkpt>
      <trkpt lat="45.91525" lon="6.17893">
        <ele>845</ele>
        <time>2010-07-18 11:23:39Z</time>
      </trkpt>
      <trkpt lat="45.91526" lon="6.17899">
        <ele>845</ele>
        <time>2010-07-18 11:23:43Z</time>
      </trkpt>
      <trkpt lat="45.91525" lon="6.17905">
        <ele>843</ele>
        <time>2010-07-18 11:23:47Z</time>
      </trkpt>
      <trkpt lat="45.91524" lon="6.17913">
        <ele>842</ele>
        <time>2010-07-18 11:23:51Z</time>
      </trkpt>
      <trkpt lat="45.91523" lon="6.1792">
        <ele>841</ele>
        <time>2010-07-18 11:23:55Z</time>
      </trkpt>
      <trkpt lat="45.91522" lon="6.17931">
        <ele>841</ele>
        <time>2010-07-18 11:23:59Z</time>
      </trkpt>
      <trkpt lat="45.9152" lon="6.17939">
        <ele>840</ele>
        <time>2010-07-18 11:24:03Z</time>
      </trkpt>
      <trkpt lat="45.91517" lon="6.17953">
        <ele>840</ele>
        <time>2010-07-18 11:24:07Z</time>
      </trkpt>
      <trkpt lat="45.91512" lon="6.17962">
        <ele>841</ele>
        <time>2010-07-18 11:24:11Z</time>
      </trkpt>
      <trkpt lat="45.91507" lon="6.17975">
        <ele>842</ele>
        <time>2010-07-18 11:24:15Z</time>
      </trkpt>
      <trkpt lat="45.91507" lon="6.17975">
        <ele>842</ele>
        <time>2010-07-18 11:24:19Z</time>
      </trkpt>
      <trkpt lat="45.91501" lon="6.17994">
        <ele>842</ele>
        <time>2010-07-18 11:24:23Z</time>
      </trkpt>
      <trkpt lat="45.91496" lon="6.18002">
        <ele>842</ele>
        <time>2010-07-18 11:24:27Z</time>
      </trkpt>
      <trkpt lat="45.91493" lon="6.18007">
        <ele>843</ele>
        <time>2010-07-18 11:24:31Z</time>
      </trkpt>
      <trkpt lat="45.91488" lon="6.18015">
        <ele>849</ele>
        <time>2010-07-18 11:24:35Z</time>
      </trkpt>
      <trkpt lat="45.91481" lon="6.1802">
        <ele>850</ele>
        <time>2010-07-18 11:24:39Z</time>
      </trkpt>
      <trkpt lat="45.91474" lon="6.18025">
        <ele>850</ele>
        <time>2010-07-18 11:24:43Z</time>
      </trkpt>
      <trkpt lat="45.91464" lon="6.18029">
        <ele>850</ele>
        <time>2010-07-18 11:24:47Z</time>
      </trkpt>
      <trkpt lat="45.91458" lon="6.18032">
        <ele>850</ele>
        <time>2010-07-18 11:24:51Z</time>
      </trkpt>
      <trkpt lat="45.91451" lon="6.18036">
        <ele>848</ele>
        <time>2010-07-18 11:24:55Z</time>
      </trkpt>
      <trkpt lat="45.91446" lon="6.18042">
        <ele>848</ele>
        <time>2010-07-18 11:24:59Z</time>
      </trkpt>
      <trkpt lat="45.91442" lon="6.18049">
        <ele>849</ele>
        <time>2010-07-18 11:25:03Z</time>
      </trkpt>
      <trkpt lat="45.91442" lon="6.18049">
        <ele>849</ele>
        <time>2010-07-18 11:25:07Z</time>
      </trkpt>
      <trkpt lat="45.91431" lon="6.18061">
        <ele>850</ele>
        <time>2010-07-18 11:25:11Z</time>
      </trkpt>
      <trkpt lat="45.91431" lon="6.18061">
        <ele>850</ele>
        <time>2010-07-18 11:25:15Z</time>
      </trkpt>
      <trkpt lat="45.91423" lon="6.18074">
        <ele>848</ele>
        <time>2010-07-18 11:25:19Z</time>
      </trkpt>
      <trkpt lat="45.91423" lon="6.18074">
        <ele>848</ele>
        <time>2010-07-18 11:25:23Z</time>
      </trkpt>
      <trkpt lat="45.91423" lon="6.18074">
        <ele>848</ele>
        <time>2010-07-18 11:25:27Z</time>
      </trkpt>
      <trkpt lat="45.91407" lon="6.18089">
        <ele>851</ele>
        <time>2010-07-18 11:25:31Z</time>
      </trkpt>
      <trkpt lat="45.91397" lon="6.18091">
        <ele>852</ele>
        <time>2010-07-18 11:25:35Z</time>
      </trkpt>
      <trkpt lat="45.91388" lon="6.1809">
        <ele>854</ele>
        <time>2010-07-18 11:25:39Z</time>
      </trkpt>
      <trkpt lat="45.91377" lon="6.18086">
        <ele>856</ele>
        <time>2010-07-18 11:25:43Z</time>
      </trkpt>
      <trkpt lat="45.9137" lon="6.18081">
        <ele>857</ele>
        <time>2010-07-18 11:25:47Z</time>
      </trkpt>
      <trkpt lat="45.91368" lon="6.18074">
        <ele>859</ele>
        <time>2010-07-18 11:25:51Z</time>
      </trkpt>
      <trkpt lat="45.91368" lon="6.18067">
        <ele>864</ele>
        <time>2010-07-18 11:25:55Z</time>
      </trkpt>
      <trkpt lat="45.9137" lon="6.18061">
        <ele>868</ele>
        <time>2010-07-18 11:25:59Z</time>
      </trkpt>
      <trkpt lat="45.91372" lon="6.18056">
        <ele>871</ele>
        <time>2010-07-18 11:26:03Z</time>
      </trkpt>
      <trkpt lat="45.91377" lon="6.18048">
        <ele>875</ele>
        <time>2010-07-18 11:26:07Z</time>
      </trkpt>
      <trkpt lat="45.91379" lon="6.18044">
        <ele>876</ele>
        <time>2010-07-18 11:26:11Z</time>
      </trkpt>
      <trkpt lat="45.9139" lon="6.18031">
        <ele>879</ele>
        <time>2010-07-18 11:26:15Z</time>
      </trkpt>
      <trkpt lat="45.9139" lon="6.18031">
        <ele>879</ele>
        <time>2010-07-18 11:26:19Z</time>
      </trkpt>
      <trkpt lat="45.91404" lon="6.18021">
        <ele>881</ele>
        <time>2010-07-18 11:26:23Z</time>
      </trkpt>
      <trkpt lat="45.9141" lon="6.18018">
        <ele>883</ele>
        <time>2010-07-18 11:26:27Z</time>
      </trkpt>
      <trkpt lat="45.91414" lon="6.18015">
        <ele>884</ele>
        <time>2010-07-18 11:26:31Z</time>
      </trkpt>
      <trkpt lat="45.91416" lon="6.18011">
        <ele>885</ele>
        <time>2010-07-18 11:26:35Z</time>
      </trkpt>
      <trkpt lat="45.91419" lon="6.18004">
        <ele>885</ele>
        <time>2010-07-18 11:26:39Z</time>
      </trkpt>
      <trkpt lat="45.91422" lon="6.17997">
        <ele>883</ele>
        <time>2010-07-18 11:26:43Z</time>
      </trkpt>
      <trkpt lat="45.91425" lon="6.1799">
        <ele>881</ele>
        <time>2010-07-18 11:26:47Z</time>
      </trkpt>
      <trkpt lat="45.91425" lon="6.1799">
        <ele>881</ele>
        <time>2010-07-18 11:26:51Z</time>
      </trkpt>
      <trkpt lat="45.91429" lon="6.17979">
        <ele>879</ele>
        <time>2010-07-18 11:26:55Z</time>
      </trkpt>
      <trkpt lat="45.91431" lon="6.17975">
        <ele>877</ele>
        <time>2010-07-18 11:26:59Z</time>
      </trkpt>
      <trkpt lat="45.91434" lon="6.17968">
        <ele>875</ele>
        <time>2010-07-18 11:27:03Z</time>
      </trkpt>
      <trkpt lat="45.91436" lon="6.17962">
        <ele>873</ele>
        <time>2010-07-18 11:27:07Z</time>
      </trkpt>
      <trkpt lat="45.91436" lon="6.17962">
        <ele>873</ele>
        <time>2010-07-18 11:27:11Z</time>
      </trkpt>
      <trkpt lat="45.91436" lon="6.17962">
        <ele>873</ele>
        <time>2010-07-18 11:27:15Z</time>
      </trkpt>
      <trkpt lat="45.91441" lon="6.17951">
        <ele>870</ele>
        <time>2010-07-18 11:27:19Z</time>
      </trkpt>
      <trkpt lat="45.91441" lon="6.17944">
        <ele>871</ele>
        <time>2010-07-18 11:27:23Z</time>
      </trkpt>
      <trkpt lat="45.91442" lon="6.17941">
        <ele>872</ele>
        <time>2010-07-18 11:27:27Z</time>
      </trkpt>
      <trkpt lat="45.91445" lon="6.17933">
        <ele>874</ele>
        <time>2010-07-18 11:27:31Z</time>
      </trkpt>
      <trkpt lat="45.91446" lon="6.17928">
        <ele>875</ele>
        <time>2010-07-18 11:27:35Z</time>
      </trkpt>
      <trkpt lat="45.91447" lon="6.17922">
        <ele>877</ele>
        <time>2010-07-18 11:27:39Z</time>
      </trkpt>
      <trkpt lat="45.91448" lon="6.17918">
        <ele>877</ele>
        <time>2010-07-18 11:27:43Z</time>
      </trkpt>
      <trkpt lat="45.91448" lon="6.17917">
        <ele>877</ele>
        <time>2010-07-18 11:27:47Z</time>
      </trkpt>
      <trkpt lat="45.91447" lon="6.1791">
        <ele>882</ele>
        <time>2010-07-18 11:27:51Z</time>
      </trkpt>
      <trkpt lat="45.91446" lon="6.17908">
        <ele>885</ele>
        <time>2010-07-18 11:27:55Z</time>
      </trkpt>
      <trkpt lat="45.91442" lon="6.17906">
        <ele>887</ele>
        <time>2010-07-18 11:27:59Z</time>
      </trkpt>
      <trkpt lat="45.91439" lon="6.17906">
        <ele>886</ele>
        <time>2010-07-18 11:28:03Z</time>
      </trkpt>
      <trkpt lat="45.91439" lon="6.17906">
        <ele>886</ele>
        <time>2010-07-18 11:28:07Z</time>
      </trkpt>
      <trkpt lat="45.91439" lon="6.17906">
        <ele>886</ele>
        <time>2010-07-18 11:28:11Z</time>
      </trkpt>
      <trkpt lat="45.91439" lon="6.17906">
        <ele>886</ele>
        <time>2010-07-18 11:28:15Z</time>
      </trkpt>
      <trkpt lat="45.91439" lon="6.17906">
        <ele>886</ele>
        <time>2010-07-18 11:28:19Z</time>
      </trkpt>
      <trkpt lat="45.91431" lon="6.17907">
        <ele>887</ele>
        <time>2010-07-18 11:28:23Z</time>
      </trkpt>
      <trkpt lat="45.91431" lon="6.17907">
        <ele>887</ele>
        <time>2010-07-18 11:28:27Z</time>
      </trkpt>
      <trkpt lat="45.91431" lon="6.17907">
        <ele>887</ele>
        <time>2010-07-18 11:28:31Z</time>
      </trkpt>
      <trkpt lat="45.91431" lon="6.17907">
        <ele>887</ele>
        <time>2010-07-18 11:28:35Z</time>
      </trkpt>
      <trkpt lat="45.91431" lon="6.17907">
        <ele>887</ele>
        <time>2010-07-18 11:28:39Z</time>
      </trkpt>
      <trkpt lat="45.91432" lon="6.17903">
        <ele>885</ele>
        <time>2010-07-18 11:28:43Z</time>
      </trkpt>
      <trkpt lat="45.91432" lon="6.17903">
        <ele>885</ele>
        <time>2010-07-18 11:28:47Z</time>
      </trkpt>
      <trkpt lat="45.9143" lon="6.17904">
        <ele>880</ele>
        <time>2010-07-18 11:28:51Z</time>
      </trkpt>
      <trkpt lat="45.91429" lon="6.17904">
        <ele>880</ele>
        <time>2010-07-18 11:28:55Z</time>
      </trkpt>
      <trkpt lat="45.91425" lon="6.17907">
        <ele>878</ele>
        <time>2010-07-18 11:28:59Z</time>
      </trkpt>
      <trkpt lat="45.91422" lon="6.1791">
        <ele>879</ele>
        <time>2010-07-18 11:29:03Z</time>
      </trkpt>
      <trkpt lat="45.91419" lon="6.17914">
        <ele>881</ele>
        <time>2010-07-18 11:29:07Z</time>
      </trkpt>
      <trkpt lat="45.91417" lon="6.17918">
        <ele>882</ele>
        <time>2010-07-18 11:29:11Z</time>
      </trkpt>
      <trkpt lat="45.91416" lon="6.17922">
        <ele>881</ele>
        <time>2010-07-18 11:29:15Z</time>
      </trkpt>
      <trkpt lat="45.91413" lon="6.17928">
        <ele>880</ele>
        <time>2010-07-18 11:29:19Z</time>
      </trkpt>
      <trkpt lat="45.91409" lon="6.17932">
        <ele>881</ele>
        <time>2010-07-18 11:29:23Z</time>
      </trkpt>
      <trkpt lat="45.91406" lon="6.17933">
        <ele>882</ele>
        <time>2010-07-18 11:29:27Z</time>
      </trkpt>
      <trkpt lat="45.91406" lon="6.17933">
        <ele>882</ele>
        <time>2010-07-18 11:29:31Z</time>
      </trkpt>
      <trkpt lat="45.91398" lon="6.17934">
        <ele>885</ele>
        <time>2010-07-18 11:29:35Z</time>
      </trkpt>
      <trkpt lat="45.91398" lon="6.17934">
        <ele>885</ele>
        <time>2010-07-18 11:29:39Z</time>
      </trkpt>
      <trkpt lat="45.91387" lon="6.17934">
        <ele>887</ele>
        <time>2010-07-18 11:29:43Z</time>
      </trkpt>
      <trkpt lat="45.91378" lon="6.17933">
        <ele>889</ele>
        <time>2010-07-18 11:29:47Z</time>
      </trkpt>
      <trkpt lat="45.91368" lon="6.17933">
        <ele>890</ele>
        <time>2010-07-18 11:29:51Z</time>
      </trkpt>
      <trkpt lat="45.91368" lon="6.17933">
        <ele>890</ele>
        <time>2010-07-18 11:29:55Z</time>
      </trkpt>
      <trkpt lat="45.91368" lon="6.17933">
        <ele>890</ele>
        <time>2010-07-18 11:29:59Z</time>
      </trkpt>
      <trkpt lat="45.91368" lon="6.17933">
        <ele>890</ele>
        <time>2010-07-18 11:30:03Z</time>
      </trkpt>
      <trkpt lat="45.91346" lon="6.17931">
        <ele>894</ele>
        <time>2010-07-18 11:30:07Z</time>
      </trkpt>
      <trkpt lat="45.91334" lon="6.17931">
        <ele>895</ele>
        <time>2010-07-18 11:30:11Z</time>
      </trkpt>
      <trkpt lat="45.91324" lon="6.17931">
        <ele>895</ele>
        <time>2010-07-18 11:30:15Z</time>
      </trkpt>
      <trkpt lat="45.91316" lon="6.17928">
        <ele>897</ele>
        <time>2010-07-18 11:30:19Z</time>
      </trkpt>
      <trkpt lat="45.91316" lon="6.17928">
        <ele>897</ele>
        <time>2010-07-18 11:30:23Z</time>
      </trkpt>
      <trkpt lat="45.91311" lon="6.17926">
        <ele>900</ele>
        <time>2010-07-18 11:30:27Z</time>
      </trkpt>
      <trkpt lat="45.91309" lon="6.17925">
        <ele>900</ele>
        <time>2010-07-18 11:30:31Z</time>
      </trkpt>
      <trkpt lat="45.91309" lon="6.17925">
        <ele>900</ele>
        <time>2010-07-18 11:30:35Z</time>
      </trkpt>
      <trkpt lat="45.91298" lon="6.17915">
        <ele>902</ele>
        <time>2010-07-18 11:30:39Z</time>
      </trkpt>
      <trkpt lat="45.91291" lon="6.17904">
        <ele>903</ele>
        <time>2010-07-18 11:30:43Z</time>
      </trkpt>
      <trkpt lat="45.91288" lon="6.179">
        <ele>904</ele>
        <time>2010-07-18 11:30:47Z</time>
      </trkpt>
      <trkpt lat="45.91287" lon="6.179">
        <ele>905</ele>
        <time>2010-07-18 11:30:51Z</time>
      </trkpt>
      <trkpt lat="45.91287" lon="6.179">
        <ele>905</ele>
        <time>2010-07-18 11:30:55Z</time>
      </trkpt>
      <trkpt lat="45.91277" lon="6.17895">
        <ele>908</ele>
        <time>2010-07-18 11:30:59Z</time>
      </trkpt>
      <trkpt lat="45.91275" lon="6.17893">
        <ele>908</ele>
        <time>2010-07-18 11:31:03Z</time>
      </trkpt>
      <trkpt lat="45.91275" lon="6.17893">
        <ele>908</ele>
        <time>2010-07-18 11:31:07Z</time>
      </trkpt>
      <trkpt lat="45.91262" lon="6.17888">
        <ele>912</ele>
        <time>2010-07-18 11:31:11Z</time>
      </trkpt>
      <trkpt lat="45.9126" lon="6.17887">
        <ele>913</ele>
        <time>2010-07-18 11:31:15Z</time>
      </trkpt>
      <trkpt lat="45.9126" lon="6.17887">
        <ele>913</ele>
        <time>2010-07-18 11:31:19Z</time>
      </trkpt>
      <trkpt lat="45.91247" lon="6.1788">
        <ele>918</ele>
        <time>2010-07-18 11:31:23Z</time>
      </trkpt>
      <trkpt lat="45.91239" lon="6.17871">
        <ele>920</ele>
        <time>2010-07-18 11:31:27Z</time>
      </trkpt>
      <trkpt lat="45.91232" lon="6.17863">
        <ele>924</ele>
        <time>2010-07-18 11:31:31Z</time>
      </trkpt>
      <trkpt lat="45.91232" lon="6.17863">
        <ele>924</ele>
        <time>2010-07-18 11:31:35Z</time>
      </trkpt>
      <trkpt lat="45.91222" lon="6.17855">
        <ele>926</ele>
        <time>2010-07-18 11:31:39Z</time>
      </trkpt>
      <trkpt lat="45.91222" lon="6.17855">
        <ele>926</ele>
        <time>2010-07-18 11:31:43Z</time>
      </trkpt>
      <trkpt lat="45.91222" lon="6.17855">
        <ele>926</ele>
        <time>2010-07-18 11:31:47Z</time>
      </trkpt>
      <trkpt lat="45.912" lon="6.17843">
        <ele>928</ele>
        <time>2010-07-18 11:31:51Z</time>
      </trkpt>
      <trkpt lat="45.912" lon="6.17843">
        <ele>928</ele>
        <time>2010-07-18 11:31:55Z</time>
      </trkpt>
      <trkpt lat="45.912" lon="6.17843">
        <ele>928</ele>
        <time>2010-07-18 11:31:59Z</time>
      </trkpt>
      <trkpt lat="45.912" lon="6.17843">
        <ele>928</ele>
        <time>2010-07-18 11:32:03Z</time>
      </trkpt>
      <trkpt lat="45.91188" lon="6.17827">
        <ele>934</ele>
        <time>2010-07-18 11:32:07Z</time>
      </trkpt>
      <trkpt lat="45.91185" lon="6.17823">
        <ele>936</ele>
        <time>2010-07-18 11:32:11Z</time>
      </trkpt>
      <trkpt lat="45.91182" lon="6.17821">
        <ele>937</ele>
        <time>2010-07-18 11:32:15Z</time>
      </trkpt>
      <trkpt lat="45.9118" lon="6.17819">
        <ele>937</ele>
        <time>2010-07-18 11:32:19Z</time>
      </trkpt>
      <trkpt lat="45.9118" lon="6.17819">
        <ele>937</ele>
        <time>2010-07-18 11:32:23Z</time>
      </trkpt>
      <trkpt lat="45.91168" lon="6.1781">
        <ele>942</ele>
        <time>2010-07-18 11:32:27Z</time>
      </trkpt>
      <trkpt lat="45.91164" lon="6.17804">
        <ele>943</ele>
        <time>2010-07-18 11:32:31Z</time>
      </trkpt>
      <trkpt lat="45.91164" lon="6.17804">
        <ele>943</ele>
        <time>2010-07-18 11:32:35Z</time>
      </trkpt>
      <trkpt lat="45.91154" lon="6.17794">
        <ele>946</ele>
        <time>2010-07-18 11:32:39Z</time>
      </trkpt>
      <trkpt lat="45.91154" lon="6.17794">
        <ele>946</ele>
        <time>2010-07-18 11:32:43Z</time>
      </trkpt>
      <trkpt lat="45.91147" lon="6.17784">
        <ele>950</ele>
        <time>2010-07-18 11:32:47Z</time>
      </trkpt>
      <trkpt lat="45.91147" lon="6.17784">
        <ele>950</ele>
        <time>2010-07-18 11:32:51Z</time>
      </trkpt>
      <trkpt lat="45.91147" lon="6.17784">
        <ele>950</ele>
        <time>2010-07-18 11:32:55Z</time>
      </trkpt>
      <trkpt lat="45.91122" lon="6.17759">
        <ele>957</ele>
        <time>2010-07-18 11:32:59Z</time>
      </trkpt>
      <trkpt lat="45.91122" lon="6.17759">
        <ele>957</ele>
        <time>2010-07-18 11:33:03Z</time>
      </trkpt>
      <trkpt lat="45.91122" lon="6.17759">
        <ele>957</ele>
        <time>2010-07-18 11:33:07Z</time>
      </trkpt>
      <trkpt lat="45.91122" lon="6.17759">
        <ele>957</ele>
        <time>2010-07-18 11:33:11Z</time>
      </trkpt>
      <trkpt lat="45.91112" lon="6.1772">
        <ele>961</ele>
        <time>2010-07-18 11:33:15Z</time>
      </trkpt>
      <trkpt lat="45.91112" lon="6.1772">
        <ele>961</ele>
        <time>2010-07-18 11:33:19Z</time>
      </trkpt>
      <trkpt lat="45.91107" lon="6.17677">
        <ele>958</ele>
        <time>2010-07-18 11:33:23Z</time>
      </trkpt>
      <trkpt lat="45.91107" lon="6.17677">
        <ele>958</ele>
        <time>2010-07-18 11:33:27Z</time>
      </trkpt>
      <trkpt lat="45.91099" lon="6.1766">
        <ele>957</ele>
        <time>2010-07-18 11:33:31Z</time>
      </trkpt>
      <trkpt lat="45.91099" lon="6.1766">
        <ele>957</ele>
        <time>2010-07-18 11:33:35Z</time>
      </trkpt>
      <trkpt lat="45.91086" lon="6.1764">
        <ele>955</ele>
        <time>2010-07-18 11:33:39Z</time>
      </trkpt>
      <trkpt lat="45.91086" lon="6.1764">
        <ele>955</ele>
        <time>2010-07-18 11:33:43Z</time>
      </trkpt>
      <trkpt lat="45.91071" lon="6.17624">
        <ele>954</ele>
        <time>2010-07-18 11:33:47Z</time>
      </trkpt>
      <trkpt lat="45.91062" lon="6.1762">
        <ele>953</ele>
        <time>2010-07-18 11:33:51Z</time>
      </trkpt>
      <trkpt lat="45.91062" lon="6.1762">
        <ele>953</ele>
        <time>2010-07-18 11:33:55Z</time>
      </trkpt>
      <trkpt lat="45.91062" lon="6.1762">
        <ele>953</ele>
        <time>2010-07-18 11:33:59Z</time>
      </trkpt>
      <trkpt lat="45.91062" lon="6.1762">
        <ele>953</ele>
        <time>2010-07-18 11:34:03Z</time>
      </trkpt>
      <trkpt lat="45.91053" lon="6.1761">
        <ele>958</ele>
        <time>2010-07-18 11:34:07Z</time>
      </trkpt>
      <trkpt lat="45.91053" lon="6.1761">
        <ele>958</ele>
        <time>2010-07-18 11:34:11Z</time>
      </trkpt>
      <trkpt lat="45.91053" lon="6.1761">
        <ele>958</ele>
        <time>2010-07-18 11:34:15Z</time>
      </trkpt>
      <trkpt lat="45.91047" lon="6.17597">
        <ele>959</ele>
        <time>2010-07-18 11:34:19Z</time>
      </trkpt>
      <trkpt lat="45.91047" lon="6.17597">
        <ele>959</ele>
        <time>2010-07-18 11:34:23Z</time>
      </trkpt>
      <trkpt lat="45.91039" lon="6.17591">
        <ele>960</ele>
        <time>2010-07-18 11:34:27Z</time>
      </trkpt>
      <trkpt lat="45.91039" lon="6.17591">
        <ele>960</ele>
        <time>2010-07-18 11:34:31Z</time>
      </trkpt>
      <trkpt lat="45.91026" lon="6.17586">
        <ele>959</ele>
        <time>2010-07-18 11:34:35Z</time>
      </trkpt>
      <trkpt lat="45.91018" lon="6.17581">
        <ele>960</ele>
        <time>2010-07-18 11:34:39Z</time>
      </trkpt>
      <trkpt lat="45.91018" lon="6.17581">
        <ele>960</ele>
        <time>2010-07-18 11:34:43Z</time>
      </trkpt>
      <trkpt lat="45.91018" lon="6.17581">
        <ele>960</ele>
        <time>2010-07-18 11:34:47Z</time>
      </trkpt>
      <trkpt lat="45.91018" lon="6.17581">
        <ele>960</ele>
        <time>2010-07-18 11:34:51Z</time>
      </trkpt>
      <trkpt lat="45.9101" lon="6.17574">
        <ele>963</ele>
        <time>2010-07-18 11:34:55Z</time>
      </trkpt>
      <trkpt lat="45.9101" lon="6.17574">
        <ele>963</ele>
        <time>2010-07-18 11:34:59Z</time>
      </trkpt>
      <trkpt lat="45.9101" lon="6.17574">
        <ele>963</ele>
        <time>2010-07-18 11:35:03Z</time>
      </trkpt>
      <trkpt lat="45.91007" lon="6.1756">
        <ele>966</ele>
        <time>2010-07-18 11:35:07Z</time>
      </trkpt>
      <trkpt lat="45.91007" lon="6.1756">
        <ele>966</ele>
        <time>2010-07-18 11:35:11Z</time>
      </trkpt>
      <trkpt lat="45.9101" lon="6.17546">
        <ele>968</ele>
        <time>2010-07-18 11:35:15Z</time>
      </trkpt>
      <trkpt lat="45.9101" lon="6.17546">
        <ele>968</ele>
        <time>2010-07-18 11:35:19Z</time>
      </trkpt>
      <trkpt lat="45.91013" lon="6.17532">
        <ele>969</ele>
        <time>2010-07-18 11:35:23Z</time>
      </trkpt>
      <trkpt lat="45.91013" lon="6.17532">
        <ele>969</ele>
        <time>2010-07-18 11:35:27Z</time>
      </trkpt>
      <trkpt lat="45.91013" lon="6.17532">
        <ele>969</ele>
        <time>2010-07-18 11:35:31Z</time>
      </trkpt>
      <trkpt lat="45.91018" lon="6.1752">
        <ele>970</ele>
        <time>2010-07-18 11:35:35Z</time>
      </trkpt>
      <trkpt lat="45.91018" lon="6.1752">
        <ele>970</ele>
        <time>2010-07-18 11:35:39Z</time>
      </trkpt>
      <trkpt lat="45.91018" lon="6.1752">
        <ele>970</ele>
        <time>2010-07-18 11:35:43Z</time>
      </trkpt>
      <trkpt lat="45.91018" lon="6.17507">
        <ele>972</ele>
        <time>2010-07-18 11:35:47Z</time>
      </trkpt>
      <trkpt lat="45.91018" lon="6.17507">
        <ele>972</ele>
        <time>2010-07-18 11:35:51Z</time>
      </trkpt>
      <trkpt lat="45.91018" lon="6.17507">
        <ele>972</ele>
        <time>2010-07-18 11:35:55Z</time>
      </trkpt>
      <trkpt lat="45.91018" lon="6.17507">
        <ele>972</ele>
        <time>2010-07-18 11:35:59Z</time>
      </trkpt>
      <trkpt lat="45.91019" lon="6.17493">
        <ele>974</ele>
        <time>2010-07-18 11:36:03Z</time>
      </trkpt>
      <trkpt lat="45.91019" lon="6.17493">
        <ele>974</ele>
        <time>2010-07-18 11:36:07Z</time>
      </trkpt>
      <trkpt lat="45.91019" lon="6.17493">
        <ele>974</ele>
        <time>2010-07-18 11:36:11Z</time>
      </trkpt>
      <trkpt lat="45.91019" lon="6.17493">
        <ele>974</ele>
        <time>2010-07-18 11:36:15Z</time>
      </trkpt>
      <trkpt lat="45.91019" lon="6.17493">
        <ele>974</ele>
        <time>2010-07-18 11:36:19Z</time>
      </trkpt>
      <trkpt lat="45.91019" lon="6.17493">
        <ele>974</ele>
        <time>2010-07-18 11:36:23Z</time>
      </trkpt>
      <trkpt lat="45.91019" lon="6.17493">
        <ele>974</ele>
        <time>2010-07-18 11:36:27Z</time>
      </trkpt>
      <trkpt lat="45.91019" lon="6.17493">
        <ele>974</ele>
        <time>2010-07-18 11:36:31Z</time>
      </trkpt>
      <trkpt lat="45.91019" lon="6.17493">
        <ele>974</ele>
        <time>2010-07-18 11:36:35Z</time>
      </trkpt>
      <trkpt lat="45.91" lon="6.17462">
        <ele>977</ele>
        <time>2010-07-18 11:36:39Z</time>
      </trkpt>
      <trkpt lat="45.90989" lon="6.17455">
        <ele>979</ele>
        <time>2010-07-18 11:36:43Z</time>
      </trkpt>
      <trkpt lat="45.90978" lon="6.17449">
        <ele>981</ele>
        <time>2010-07-18 11:36:47Z</time>
      </trkpt>
      <trkpt lat="45.90967" lon="6.17443">
        <ele>983</ele>
        <time>2010-07-18 11:36:51Z</time>
      </trkpt>
      <trkpt lat="45.90961" lon="6.1744">
        <ele>984</ele>
        <time>2010-07-18 11:36:55Z</time>
      </trkpt>
      <trkpt lat="45.9096" lon="6.17439">
        <ele>984</ele>
        <time>2010-07-18 11:36:59Z</time>
      </trkpt>
      <trkpt lat="45.9096" lon="6.17439">
        <ele>984</ele>
        <time>2010-07-18 11:37:03Z</time>
      </trkpt>
      <trkpt lat="45.90952" lon="6.1743">
        <ele>989</ele>
        <time>2010-07-18 11:37:07Z</time>
      </trkpt>
      <trkpt lat="45.90952" lon="6.1743">
        <ele>989</ele>
        <time>2010-07-18 11:37:11Z</time>
      </trkpt>
      <trkpt lat="45.90943" lon="6.17424">
        <ele>993</ele>
        <time>2010-07-18 11:37:15Z</time>
      </trkpt>
      <trkpt lat="45.90942" lon="6.17424">
        <ele>993</ele>
        <time>2010-07-18 11:37:19Z</time>
      </trkpt>
      <trkpt lat="45.90942" lon="6.17424">
        <ele>993</ele>
        <time>2010-07-18 11:37:23Z</time>
      </trkpt>
      <trkpt lat="45.90942" lon="6.17424">
        <ele>993</ele>
        <time>2010-07-18 11:37:27Z</time>
      </trkpt>
      <trkpt lat="45.90934" lon="6.17416">
        <ele>998</ele>
        <time>2010-07-18 11:37:31Z</time>
      </trkpt>
      <trkpt lat="45.90934" lon="6.17416">
        <ele>998</ele>
        <time>2010-07-18 11:37:35Z</time>
      </trkpt>
      <trkpt lat="45.90922" lon="6.17403">
        <ele>1003</ele>
        <time>2010-07-18 11:37:39Z</time>
      </trkpt>
      <trkpt lat="45.90922" lon="6.17403">
        <ele>1003</ele>
        <time>2010-07-18 11:37:43Z</time>
      </trkpt>
      <trkpt lat="45.90914" lon="6.17395">
        <ele>1007</ele>
        <time>2010-07-18 11:37:47Z</time>
      </trkpt>
      <trkpt lat="45.90914" lon="6.17395">
        <ele>1007</ele>
        <time>2010-07-18 11:37:51Z</time>
      </trkpt>
      <trkpt lat="45.90908" lon="6.17385">
        <ele>1010</ele>
        <time>2010-07-18 11:37:55Z</time>
      </trkpt>
      <trkpt lat="45.90908" lon="6.17385">
        <ele>1010</ele>
        <time>2010-07-18 11:37:59Z</time>
      </trkpt>
      <trkpt lat="45.909" lon="6.17376">
        <ele>1013</ele>
        <time>2010-07-18 11:38:03Z</time>
      </trkpt>
      <trkpt lat="45.909" lon="6.17376">
        <ele>1013</ele>
        <time>2010-07-18 11:38:07Z</time>
      </trkpt>
      <trkpt lat="45.90893" lon="6.17366">
        <ele>1013</ele>
        <time>2010-07-18 11:38:11Z</time>
      </trkpt>
      <trkpt lat="45.90893" lon="6.17366">
        <ele>1013</ele>
        <time>2010-07-18 11:38:15Z</time>
      </trkpt>
      <trkpt lat="45.90893" lon="6.17366">
        <ele>1013</ele>
        <time>2010-07-18 11:38:19Z</time>
      </trkpt>
      <trkpt lat="45.90893" lon="6.17366">
        <ele>1013</ele>
        <time>2010-07-18 11:38:23Z</time>
      </trkpt>
      <trkpt lat="45.90893" lon="6.17366">
        <ele>1013</ele>
        <time>2010-07-18 11:38:27Z</time>
      </trkpt>
      <trkpt lat="45.90875" lon="6.17349">
        <ele>1019</ele>
        <time>2010-07-18 11:38:31Z</time>
      </trkpt>
      <trkpt lat="45.90869" lon="6.17337">
        <ele>1023</ele>
        <time>2010-07-18 11:38:35Z</time>
      </trkpt>
      <trkpt lat="45.90869" lon="6.17337">
        <ele>1023</ele>
        <time>2010-07-18 11:38:39Z</time>
      </trkpt>
      <trkpt lat="45.90869" lon="6.17337">
        <ele>1023</ele>
        <time>2010-07-18 11:38:43Z</time>
      </trkpt>
      <trkpt lat="45.90864" lon="6.17327">
        <ele>1025</ele>
        <time>2010-07-18 11:38:47Z</time>
      </trkpt>
      <trkpt lat="45.90864" lon="6.17327">
        <ele>1025</ele>
        <time>2010-07-18 11:38:51Z</time>
      </trkpt>
      <trkpt lat="45.90864" lon="6.17327">
        <ele>1025</ele>
        <time>2010-07-18 11:38:55Z</time>
      </trkpt>
      <trkpt lat="45.90864" lon="6.17327">
        <ele>1025</ele>
        <time>2010-07-18 11:38:59Z</time>
      </trkpt>
      <trkpt lat="45.90847" lon="6.17295">
        <ele>1032</ele>
        <time>2010-07-18 11:39:03Z</time>
      </trkpt>
      <trkpt lat="45.90847" lon="6.17295">
        <ele>1032</ele>
        <time>2010-07-18 11:39:07Z</time>
      </trkpt>
      <trkpt lat="45.90847" lon="6.17295">
        <ele>1032</ele>
        <time>2010-07-18 11:39:11Z</time>
      </trkpt>
      <trkpt lat="45.90847" lon="6.17295">
        <ele>1032</ele>
        <time>2010-07-18 11:39:15Z</time>
      </trkpt>
      <trkpt lat="45.90841" lon="6.17258">
        <ele>1013</ele>
        <time>2010-07-18 11:39:19Z</time>
      </trkpt>
      <trkpt lat="45.90841" lon="6.17258">
        <ele>1013</ele>
        <time>2010-07-18 11:39:23Z</time>
      </trkpt>
      <trkpt lat="45.90841" lon="6.17258">
        <ele>1013</ele>
        <time>2010-07-18 11:39:27Z</time>
      </trkpt>
      <trkpt lat="45.90841" lon="6.17258">
        <ele>1013</ele>
        <time>2010-07-18 11:39:31Z</time>
      </trkpt>
      <trkpt lat="45.90841" lon="6.17258">
        <ele>1013</ele>
        <time>2010-07-18 11:39:35Z</time>
      </trkpt>
      <trkpt lat="45.90841" lon="6.17258">
        <ele>1013</ele>
        <time>2010-07-18 11:39:39Z</time>
      </trkpt>
      <trkpt lat="45.90841" lon="6.17258">
        <ele>1013</ele>
        <time>2010-07-18 11:39:43Z</time>
      </trkpt>
      <trkpt lat="45.90841" lon="6.17258">
        <ele>1013</ele>
        <time>2010-07-18 11:39:47Z</time>
      </trkpt>
      <trkpt lat="45.90841" lon="6.17258">
        <ele>1013</ele>
        <time>2010-07-18 11:39:51Z</time>
      </trkpt>
      <trkpt lat="45.90841" lon="6.17258">
        <ele>1013</ele>
        <time>2010-07-18 11:39:55Z</time>
      </trkpt>
      <trkpt lat="45.90841" lon="6.17258">
        <ele>1013</ele>
        <time>2010-07-18 11:39:59Z</time>
      </trkpt>
      <trkpt lat="45.90824" lon="6.17255">
        <ele>1005</ele>
        <time>2010-07-18 11:40:03Z</time>
      </trkpt>
      <trkpt lat="45.90824" lon="6.17255">
        <ele>1005</ele>
        <time>2010-07-18 11:40:07Z</time>
      </trkpt>
      <trkpt lat="45.90824" lon="6.17255">
        <ele>1005</ele>
        <time>2010-07-18 11:40:11Z</time>
      </trkpt>
      <trkpt lat="45.90815" lon="6.17255">
        <ele>1008</ele>
        <time>2010-07-18 11:40:15Z</time>
      </trkpt>
      <trkpt lat="45.90813" lon="6.17254">
        <ele>1009</ele>
        <time>2010-07-18 11:40:19Z</time>
      </trkpt>
      <trkpt lat="45.90808" lon="6.1725">
        <ele>1011</ele>
        <time>2010-07-18 11:40:23Z</time>
      </trkpt>
      <trkpt lat="45.90808" lon="6.1725">
        <ele>1011</ele>
        <time>2010-07-18 11:40:27Z</time>
      </trkpt>
      <trkpt lat="45.90808" lon="6.1725">
        <ele>1011</ele>
        <time>2010-07-18 11:40:31Z</time>
      </trkpt>
      <trkpt lat="45.90808" lon="6.1725">
        <ele>1011</ele>
        <time>2010-07-18 11:40:35Z</time>
      </trkpt>
      <trkpt lat="45.90797" lon="6.17234">
        <ele>1013</ele>
        <time>2010-07-18 11:40:39Z</time>
      </trkpt>
      <trkpt lat="45.90786" lon="6.17226">
        <ele>1014</ele>
        <time>2010-07-18 11:40:43Z</time>
      </trkpt>
      <trkpt lat="45.90782" lon="6.17224">
        <ele>1014</ele>
        <time>2010-07-18 11:40:47Z</time>
      </trkpt>
      <trkpt lat="45.90776" lon="6.1722">
        <ele>1014</ele>
        <time>2010-07-18 11:40:51Z</time>
      </trkpt>
      <trkpt lat="45.90772" lon="6.17217">
        <ele>1014</ele>
        <time>2010-07-18 11:40:55Z</time>
      </trkpt>
      <trkpt lat="45.90767" lon="6.17216">
        <ele>1009</ele>
        <time>2010-07-18 11:40:59Z</time>
      </trkpt>
      <trkpt lat="45.90767" lon="6.17215">
        <ele>1008</ele>
        <time>2010-07-18 11:41:03Z</time>
      </trkpt>
      <trkpt lat="45.90763" lon="6.17212">
        <ele>1006</ele>
        <time>2010-07-18 11:41:07Z</time>
      </trkpt>
      <trkpt lat="45.90762" lon="6.17213">
        <ele>1005</ele>
        <time>2010-07-18 11:41:11Z</time>
      </trkpt>
      <trkpt lat="45.90761" lon="6.17216">
        <ele>1003</ele>
        <time>2010-07-18 11:41:15Z</time>
      </trkpt>
      <trkpt lat="45.9076" lon="6.17218">
        <ele>1004</ele>
        <time>2010-07-18 11:41:19Z</time>
      </trkpt>
      <trkpt lat="45.9076" lon="6.1722">
        <ele>1003</ele>
        <time>2010-07-18 11:41:23Z</time>
      </trkpt>
      <trkpt lat="45.90762" lon="6.17226">
        <ele>1004</ele>
        <time>2010-07-18 11:41:27Z</time>
      </trkpt>
      <trkpt lat="45.90764" lon="6.17231">
        <ele>1005</ele>
        <time>2010-07-18 11:41:31Z</time>
      </trkpt>
      <trkpt lat="45.90766" lon="6.17235">
        <ele>1006</ele>
        <time>2010-07-18 11:41:35Z</time>
      </trkpt>
      <trkpt lat="45.90768" lon="6.17239">
        <ele>1005</ele>
        <time>2010-07-18 11:41:39Z</time>
      </trkpt>
      <trkpt lat="45.90769" lon="6.17242">
        <ele>1008</ele>
        <time>2010-07-18 11:41:43Z</time>
      </trkpt>
      <trkpt lat="45.90771" lon="6.17247">
        <ele>1009</ele>
        <time>2010-07-18 11:41:47Z</time>
      </trkpt>
      <trkpt lat="45.90773" lon="6.17254">
        <ele>1009</ele>
        <time>2010-07-18 11:41:51Z</time>
      </trkpt>
      <trkpt lat="45.90775" lon="6.17262">
        <ele>1009</ele>
        <time>2010-07-18 11:41:55Z</time>
      </trkpt>
      <trkpt lat="45.90777" lon="6.17269">
        <ele>1010</ele>
        <time>2010-07-18 11:41:59Z</time>
      </trkpt>
      <trkpt lat="45.9078" lon="6.17276">
        <ele>1010</ele>
        <time>2010-07-18 11:42:03Z</time>
      </trkpt>
      <trkpt lat="45.90781" lon="6.17281">
        <ele>1011</ele>
        <time>2010-07-18 11:42:07Z</time>
      </trkpt>
      <trkpt lat="45.90783" lon="6.17289">
        <ele>1010</ele>
        <time>2010-07-18 11:42:11Z</time>
      </trkpt>
      <trkpt lat="45.90784" lon="6.17299">
        <ele>1008</ele>
        <time>2010-07-18 11:42:15Z</time>
      </trkpt>
      <trkpt lat="45.90785" lon="6.17308">
        <ele>1007</ele>
        <time>2010-07-18 11:42:19Z</time>
      </trkpt>
      <trkpt lat="45.90785" lon="6.17315">
        <ele>1007</ele>
        <time>2010-07-18 11:42:23Z</time>
      </trkpt>
      <trkpt lat="45.90785" lon="6.17315">
        <ele>1007</ele>
        <time>2010-07-18 11:42:27Z</time>
      </trkpt>
      <trkpt lat="45.90781" lon="6.1732">
        <ele>1008</ele>
        <time>2010-07-18 11:42:31Z</time>
      </trkpt>
      <trkpt lat="45.9078" lon="6.17321">
        <ele>1009</ele>
        <time>2010-07-18 11:42:35Z</time>
      </trkpt>
      <trkpt lat="45.90779" lon="6.17329">
        <ele>1011</ele>
        <time>2010-07-18 11:42:39Z</time>
      </trkpt>
      <trkpt lat="45.90779" lon="6.17336">
        <ele>1012</ele>
        <time>2010-07-18 11:42:43Z</time>
      </trkpt>
      <trkpt lat="45.9078" lon="6.17347">
        <ele>1012</ele>
        <time>2010-07-18 11:42:47Z</time>
      </trkpt>
      <trkpt lat="45.9078" lon="6.17356">
        <ele>1012</ele>
        <time>2010-07-18 11:42:51Z</time>
      </trkpt>
      <trkpt lat="45.9078" lon="6.17363">
        <ele>1012</ele>
        <time>2010-07-18 11:42:55Z</time>
      </trkpt>
      <trkpt lat="45.9078" lon="6.17367">
        <ele>1013</ele>
        <time>2010-07-18 11:42:59Z</time>
      </trkpt>
      <trkpt lat="45.90778" lon="6.17369">
        <ele>1012</ele>
        <time>2010-07-18 11:43:03Z</time>
      </trkpt>
      <trkpt lat="45.90778" lon="6.17369">
        <ele>1012</ele>
        <time>2010-07-18 11:43:07Z</time>
      </trkpt>
      <trkpt lat="45.90777" lon="6.1737">
        <ele>1015</ele>
        <time>2010-07-18 11:43:11Z</time>
      </trkpt>
      <trkpt lat="45.90776" lon="6.17372">
        <ele>1015</ele>
        <time>2010-07-18 11:43:15Z</time>
      </trkpt>
      <trkpt lat="45.90775" lon="6.17373">
        <ele>1015</ele>
        <time>2010-07-18 11:43:19Z</time>
      </trkpt>
      <trkpt lat="45.90773" lon="6.17372">
        <ele>1016</ele>
        <time>2010-07-18 11:43:23Z</time>
      </trkpt>
      <trkpt lat="45.90773" lon="6.17372">
        <ele>1016</ele>
        <time>2010-07-18 11:43:27Z</time>
      </trkpt>
      <trkpt lat="45.90772" lon="6.17371">
        <ele>1019</ele>
        <time>2010-07-18 11:43:31Z</time>
      </trkpt>
      <trkpt lat="45.90771" lon="6.17369">
        <ele>1021</ele>
        <time>2010-07-18 11:43:35Z</time>
      </trkpt>
      <trkpt lat="45.90771" lon="6.17369">
        <ele>1021</ele>
        <time>2010-07-18 11:43:39Z</time>
      </trkpt>
      <trkpt lat="45.90765" lon="6.17367">
        <ele>1027</ele>
        <time>2010-07-18 11:43:43Z</time>
      </trkpt>
      <trkpt lat="45.90762" lon="6.17368">
        <ele>1029</ele>
        <time>2010-07-18 11:43:47Z</time>
      </trkpt>
      <trkpt lat="45.90758" lon="6.1737">
        <ele>1030</ele>
        <time>2010-07-18 11:43:51Z</time>
      </trkpt>
      <trkpt lat="45.90754" lon="6.17373">
        <ele>1030</ele>
        <time>2010-07-18 11:43:55Z</time>
      </trkpt>
      <trkpt lat="45.90752" lon="6.17379">
        <ele>1032</ele>
        <time>2010-07-18 11:43:59Z</time>
      </trkpt>
      <trkpt lat="45.90749" lon="6.17383">
        <ele>1033</ele>
        <time>2010-07-18 11:44:03Z</time>
      </trkpt>
      <trkpt lat="45.90748" lon="6.17388">
        <ele>1035</ele>
        <time>2010-07-18 11:44:07Z</time>
      </trkpt>
      <trkpt lat="45.90747" lon="6.17391">
        <ele>1035</ele>
        <time>2010-07-18 11:44:11Z</time>
      </trkpt>
      <trkpt lat="45.90748" lon="6.17395">
        <ele>1034</ele>
        <time>2010-07-18 11:44:15Z</time>
      </trkpt>
      <trkpt lat="45.90747" lon="6.17397">
        <ele>1035</ele>
        <time>2010-07-18 11:44:19Z</time>
      </trkpt>
      <trkpt lat="45.90746" lon="6.17398">
        <ele>1035</ele>
        <time>2010-07-18 11:44:23Z</time>
      </trkpt>
      <trkpt lat="45.90746" lon="6.17398">
        <ele>1035</ele>
        <time>2010-07-18 11:44:27Z</time>
      </trkpt>
      <trkpt lat="45.90743" lon="6.17397">
        <ele>1039</ele>
        <time>2010-07-18 11:44:31Z</time>
      </trkpt>
      <trkpt lat="45.90742" lon="6.17396">
        <ele>1040</ele>
        <time>2010-07-18 11:44:35Z</time>
      </trkpt>
      <trkpt lat="45.90738" lon="6.17393">
        <ele>1044</ele>
        <time>2010-07-18 11:44:39Z</time>
      </trkpt>
      <trkpt lat="45.90735" lon="6.1739">
        <ele>1046</ele>
        <time>2010-07-18 11:44:43Z</time>
      </trkpt>
      <trkpt lat="45.90732" lon="6.17388">
        <ele>1048</ele>
        <time>2010-07-18 11:44:47Z</time>
      </trkpt>
      <trkpt lat="45.90728" lon="6.17386">
        <ele>1050</ele>
        <time>2010-07-18 11:44:51Z</time>
      </trkpt>
      <trkpt lat="45.90726" lon="6.17384">
        <ele>1052</ele>
        <time>2010-07-18 11:44:55Z</time>
      </trkpt>
      <trkpt lat="45.90722" lon="6.17381">
        <ele>1055</ele>
        <time>2010-07-18 11:44:59Z</time>
      </trkpt>
      <trkpt lat="45.90717" lon="6.17378">
        <ele>1060</ele>
        <time>2010-07-18 11:45:03Z</time>
      </trkpt>
      <trkpt lat="45.90713" lon="6.17375">
        <ele>1062</ele>
        <time>2010-07-18 11:45:07Z</time>
      </trkpt>
      <trkpt lat="45.9071" lon="6.17372">
        <ele>1062</ele>
        <time>2010-07-18 11:45:11Z</time>
      </trkpt>
      <trkpt lat="45.90707" lon="6.17367">
        <ele>1063</ele>
        <time>2010-07-18 11:45:15Z</time>
      </trkpt>
      <trkpt lat="45.90704" lon="6.17362">
        <ele>1064</ele>
        <time>2010-07-18 11:45:19Z</time>
      </trkpt>
      <trkpt lat="45.90699" lon="6.17356">
        <ele>1066</ele>
        <time>2010-07-18 11:45:23Z</time>
      </trkpt>
      <trkpt lat="45.90695" lon="6.17351">
        <ele>1067</ele>
        <time>2010-07-18 11:45:27Z</time>
      </trkpt>
      <trkpt lat="45.90692" lon="6.17347">
        <ele>1068</ele>
        <time>2010-07-18 11:45:31Z</time>
      </trkpt>
      <trkpt lat="45.90686" lon="6.17336">
        <ele>1067</ele>
        <time>2010-07-18 11:45:35Z</time>
      </trkpt>
      <trkpt lat="45.9068" lon="6.17324">
        <ele>1067</ele>
        <time>2010-07-18 11:45:39Z</time>
      </trkpt>
      <trkpt lat="45.90678" lon="6.17317">
        <ele>1067</ele>
        <time>2010-07-18 11:45:43Z</time>
      </trkpt>
      <trkpt lat="45.90675" lon="6.17308">
        <ele>1066</ele>
        <time>2010-07-18 11:45:47Z</time>
      </trkpt>
      <trkpt lat="45.90673" lon="6.17297">
        <ele>1066</ele>
        <time>2010-07-18 11:45:51Z</time>
      </trkpt>
      <trkpt lat="45.90668" lon="6.1729">
        <ele>1064</ele>
        <time>2010-07-18 11:45:55Z</time>
      </trkpt>
      <trkpt lat="45.90667" lon="6.17288">
        <ele>1063</ele>
        <time>2010-07-18 11:45:59Z</time>
      </trkpt>
      <trkpt lat="45.90664" lon="6.17282">
        <ele>1062</ele>
        <time>2010-07-18 11:46:03Z</time>
      </trkpt>
      <trkpt lat="45.90661" lon="6.17279">
        <ele>1060</ele>
        <time>2010-07-18 11:46:07Z</time>
      </trkpt>
      <trkpt lat="45.90659" lon="6.1728">
        <ele>1058</ele>
        <time>2010-07-18 11:46:11Z</time>
      </trkpt>
      <trkpt lat="45.90657" lon="6.17282">
        <ele>1058</ele>
        <time>2010-07-18 11:46:15Z</time>
      </trkpt>
      <trkpt lat="45.90652" lon="6.17286">
        <ele>1059</ele>
        <time>2010-07-18 11:46:19Z</time>
      </trkpt>
      <trkpt lat="45.90646" lon="6.1729">
        <ele>1061</ele>
        <time>2010-07-18 11:46:23Z</time>
      </trkpt>
      <trkpt lat="45.90641" lon="6.17292">
        <ele>1063</ele>
        <time>2010-07-18 11:46:27Z</time>
      </trkpt>
      <trkpt lat="45.90641" lon="6.17292">
        <ele>1063</ele>
        <time>2010-07-18 11:46:31Z</time>
      </trkpt>
      <trkpt lat="45.90633" lon="6.17291">
        <ele>1067</ele>
        <time>2010-07-18 11:46:35Z</time>
      </trkpt>
      <trkpt lat="45.90626" lon="6.17286">
        <ele>1071</ele>
        <time>2010-07-18 11:46:39Z</time>
      </trkpt>
      <trkpt lat="45.90622" lon="6.17282">
        <ele>1073</ele>
        <time>2010-07-18 11:46:43Z</time>
      </trkpt>
      <trkpt lat="45.90619" lon="6.17278">
        <ele>1076</ele>
        <time>2010-07-18 11:46:47Z</time>
      </trkpt>
      <trkpt lat="45.90617" lon="6.17274">
        <ele>1078</ele>
        <time>2010-07-18 11:46:51Z</time>
      </trkpt>
      <trkpt lat="45.90616" lon="6.17271">
        <ele>1078</ele>
        <time>2010-07-18 11:46:55Z</time>
      </trkpt>
      <trkpt lat="45.90614" lon="6.17268">
        <ele>1079</ele>
        <time>2010-07-18 11:46:59Z</time>
      </trkpt>
      <trkpt lat="45.90606" lon="6.17261">
        <ele>1081</ele>
        <time>2010-07-18 11:47:03Z</time>
      </trkpt>
      <trkpt lat="45.906" lon="6.17257">
        <ele>1081</ele>
        <time>2010-07-18 11:47:07Z</time>
      </trkpt>
      <trkpt lat="45.90595" lon="6.17254">
        <ele>1079</ele>
        <time>2010-07-18 11:47:11Z</time>
      </trkpt>
      <trkpt lat="45.90588" lon="6.17249">
        <ele>1074</ele>
        <time>2010-07-18 11:47:15Z</time>
      </trkpt>
      <trkpt lat="45.9058" lon="6.17244">
        <ele>1071</ele>
        <time>2010-07-18 11:47:19Z</time>
      </trkpt>
      <trkpt lat="45.90576" lon="6.17242">
        <ele>1070</ele>
        <time>2010-07-18 11:47:23Z</time>
      </trkpt>
      <trkpt lat="45.90573" lon="6.1724">
        <ele>1069</ele>
        <time>2010-07-18 11:47:27Z</time>
      </trkpt>
      <trkpt lat="45.90569" lon="6.17239">
        <ele>1069</ele>
        <time>2010-07-18 11:47:31Z</time>
      </trkpt>
      <trkpt lat="45.90563" lon="6.17239">
        <ele>1070</ele>
        <time>2010-07-18 11:47:35Z</time>
      </trkpt>
      <trkpt lat="45.90556" lon="6.17242">
        <ele>1069</ele>
        <time>2010-07-18 11:47:39Z</time>
      </trkpt>
      <trkpt lat="45.90553" lon="6.17247">
        <ele>1067</ele>
        <time>2010-07-18 11:47:43Z</time>
      </trkpt>
      <trkpt lat="45.90551" lon="6.1725">
        <ele>1066</ele>
        <time>2010-07-18 11:47:47Z</time>
      </trkpt>
      <trkpt lat="45.9055" lon="6.17252">
        <ele>1067</ele>
        <time>2010-07-18 11:47:51Z</time>
      </trkpt>
      <trkpt lat="45.90551" lon="6.17254">
        <ele>1067</ele>
        <time>2010-07-18 11:47:55Z</time>
      </trkpt>
      <trkpt lat="45.90554" lon="6.17257">
        <ele>1069</ele>
        <time>2010-07-18 11:47:59Z</time>
      </trkpt>
      <trkpt lat="45.90556" lon="6.17259">
        <ele>1069</ele>
        <time>2010-07-18 11:48:03Z</time>
      </trkpt>
      <trkpt lat="45.90558" lon="6.17261">
        <ele>1070</ele>
        <time>2010-07-18 11:48:07Z</time>
      </trkpt>
      <trkpt lat="45.9056" lon="6.17265">
        <ele>1071</ele>
        <time>2010-07-18 11:48:11Z</time>
      </trkpt>
      <trkpt lat="45.9056" lon="6.17267">
        <ele>1072</ele>
        <time>2010-07-18 11:48:15Z</time>
      </trkpt>
      <trkpt lat="45.90559" lon="6.17267">
        <ele>1073</ele>
        <time>2010-07-18 11:48:19Z</time>
      </trkpt>
      <trkpt lat="45.90556" lon="6.17266">
        <ele>1074</ele>
        <time>2010-07-18 11:48:23Z</time>
      </trkpt>
      <trkpt lat="45.90555" lon="6.17267">
        <ele>1075</ele>
        <time>2010-07-18 11:48:27Z</time>
      </trkpt>
      <trkpt lat="45.90553" lon="6.1727">
        <ele>1077</ele>
        <time>2010-07-18 11:48:31Z</time>
      </trkpt>
      <trkpt lat="45.90552" lon="6.17273">
        <ele>1078</ele>
        <time>2010-07-18 11:48:35Z</time>
      </trkpt>
      <trkpt lat="45.90551" lon="6.17275">
        <ele>1078</ele>
        <time>2010-07-18 11:48:39Z</time>
      </trkpt>
      <trkpt lat="45.90553" lon="6.17277">
        <ele>1079</ele>
        <time>2010-07-18 11:48:43Z</time>
      </trkpt>
      <trkpt lat="45.90554" lon="6.1728">
        <ele>1078</ele>
        <time>2010-07-18 11:48:47Z</time>
      </trkpt>
      <trkpt lat="45.90555" lon="6.17283">
        <ele>1078</ele>
        <time>2010-07-18 11:48:51Z</time>
      </trkpt>
      <trkpt lat="45.90555" lon="6.17285">
        <ele>1079</ele>
        <time>2010-07-18 11:48:55Z</time>
      </trkpt>
      <trkpt lat="45.90554" lon="6.17286">
        <ele>1081</ele>
        <time>2010-07-18 11:48:59Z</time>
      </trkpt>
      <trkpt lat="45.90553" lon="6.17286">
        <ele>1082</ele>
        <time>2010-07-18 11:49:03Z</time>
      </trkpt>
      <trkpt lat="45.90551" lon="6.17284">
        <ele>1083</ele>
        <time>2010-07-18 11:49:07Z</time>
      </trkpt>
      <trkpt lat="45.9055" lon="6.17287">
        <ele>1085</ele>
        <time>2010-07-18 11:49:11Z</time>
      </trkpt>
      <trkpt lat="45.90549" lon="6.17292">
        <ele>1087</ele>
        <time>2010-07-18 11:49:15Z</time>
      </trkpt>
      <trkpt lat="45.90549" lon="6.17296">
        <ele>1088</ele>
        <time>2010-07-18 11:49:19Z</time>
      </trkpt>
      <trkpt lat="45.90549" lon="6.173">
        <ele>1090</ele>
        <time>2010-07-18 11:49:23Z</time>
      </trkpt>
      <trkpt lat="45.9055" lon="6.17303">
        <ele>1092</ele>
        <time>2010-07-18 11:49:27Z</time>
      </trkpt>
      <trkpt lat="45.90551" lon="6.17306">
        <ele>1093</ele>
        <time>2010-07-18 11:49:31Z</time>
      </trkpt>
      <trkpt lat="45.90553" lon="6.1731">
        <ele>1093</ele>
        <time>2010-07-18 11:49:35Z</time>
      </trkpt>
      <trkpt lat="45.90554" lon="6.17313">
        <ele>1094</ele>
        <time>2010-07-18 11:49:39Z</time>
      </trkpt>
      <trkpt lat="45.90556" lon="6.17318">
        <ele>1095</ele>
        <time>2010-07-18 11:49:43Z</time>
      </trkpt>
      <trkpt lat="45.90555" lon="6.17319">
        <ele>1096</ele>
        <time>2010-07-18 11:49:47Z</time>
      </trkpt>
      <trkpt lat="45.90555" lon="6.17322">
        <ele>1098</ele>
        <time>2010-07-18 11:49:51Z</time>
      </trkpt>
      <trkpt lat="45.90554" lon="6.17324">
        <ele>1099</ele>
        <time>2010-07-18 11:49:55Z</time>
      </trkpt>
      <trkpt lat="45.90554" lon="6.17327">
        <ele>1100</ele>
        <time>2010-07-18 11:49:59Z</time>
      </trkpt>
      <trkpt lat="45.90554" lon="6.17329">
        <ele>1102</ele>
        <time>2010-07-18 11:50:03Z</time>
      </trkpt>
      <trkpt lat="45.90555" lon="6.17331">
        <ele>1104</ele>
        <time>2010-07-18 11:50:07Z</time>
      </trkpt>
      <trkpt lat="45.90557" lon="6.17333">
        <ele>1106</ele>
        <time>2010-07-18 11:50:11Z</time>
      </trkpt>
      <trkpt lat="45.90559" lon="6.17336">
        <ele>1108</ele>
        <time>2010-07-18 11:50:15Z</time>
      </trkpt>
      <trkpt lat="45.9056" lon="6.17338">
        <ele>1109</ele>
        <time>2010-07-18 11:50:19Z</time>
      </trkpt>
      <trkpt lat="45.90561" lon="6.17341">
        <ele>1111</ele>
        <time>2010-07-18 11:50:23Z</time>
      </trkpt>
      <trkpt lat="45.90563" lon="6.17345">
        <ele>1113</ele>
        <time>2010-07-18 11:50:27Z</time>
      </trkpt>
      <trkpt lat="45.90565" lon="6.17349">
        <ele>1115</ele>
        <time>2010-07-18 11:50:31Z</time>
      </trkpt>
      <trkpt lat="45.90566" lon="6.17355">
        <ele>1116</ele>
        <time>2010-07-18 11:50:35Z</time>
      </trkpt>
      <trkpt lat="45.90567" lon="6.1736">
        <ele>1117</ele>
        <time>2010-07-18 11:50:39Z</time>
      </trkpt>
      <trkpt lat="45.90569" lon="6.17364">
        <ele>1118</ele>
        <time>2010-07-18 11:50:43Z</time>
      </trkpt>
      <trkpt lat="45.9057" lon="6.17369">
        <ele>1119</ele>
        <time>2010-07-18 11:50:47Z</time>
      </trkpt>
      <trkpt lat="45.90572" lon="6.17374">
        <ele>1120</ele>
        <time>2010-07-18 11:50:51Z</time>
      </trkpt>
      <trkpt lat="45.90573" lon="6.17379">
        <ele>1122</ele>
        <time>2010-07-18 11:50:55Z</time>
      </trkpt>
      <trkpt lat="45.90573" lon="6.17384">
        <ele>1124</ele>
        <time>2010-07-18 11:50:59Z</time>
      </trkpt>
      <trkpt lat="45.90572" lon="6.17392">
        <ele>1123</ele>
        <time>2010-07-18 11:51:03Z</time>
      </trkpt>
      <trkpt lat="45.90571" lon="6.17398">
        <ele>1122</ele>
        <time>2010-07-18 11:51:07Z</time>
      </trkpt>
      <trkpt lat="45.90569" lon="6.17403">
        <ele>1122</ele>
        <time>2010-07-18 11:51:11Z</time>
      </trkpt>
      <trkpt lat="45.90567" lon="6.17406">
        <ele>1124</ele>
        <time>2010-07-18 11:51:15Z</time>
      </trkpt>
      <trkpt lat="45.90565" lon="6.17406">
        <ele>1127</ele>
        <time>2010-07-18 11:51:19Z</time>
      </trkpt>
      <trkpt lat="45.90561" lon="6.17407">
        <ele>1128</ele>
        <time>2010-07-18 11:51:23Z</time>
      </trkpt>
      <trkpt lat="45.90559" lon="6.17407">
        <ele>1129</ele>
        <time>2010-07-18 11:51:27Z</time>
      </trkpt>
      <trkpt lat="45.90556" lon="6.17406">
        <ele>1132</ele>
        <time>2010-07-18 11:51:31Z</time>
      </trkpt>
      <trkpt lat="45.90552" lon="6.17406">
        <ele>1136</ele>
        <time>2010-07-18 11:51:35Z</time>
      </trkpt>
      <trkpt lat="45.90549" lon="6.17404">
        <ele>1139</ele>
        <time>2010-07-18 11:51:39Z</time>
      </trkpt>
      <trkpt lat="45.90546" lon="6.17403">
        <ele>1143</ele>
        <time>2010-07-18 11:51:43Z</time>
      </trkpt>
      <trkpt lat="45.90543" lon="6.17402">
        <ele>1145</ele>
        <time>2010-07-18 11:51:47Z</time>
      </trkpt>
      <trkpt lat="45.9054" lon="6.17402">
        <ele>1144</ele>
        <time>2010-07-18 11:51:51Z</time>
      </trkpt>
      <trkpt lat="45.90539" lon="6.17402">
        <ele>1145</ele>
        <time>2010-07-18 11:51:55Z</time>
      </trkpt>
      <trkpt lat="45.90538" lon="6.174">
        <ele>1146</ele>
        <time>2010-07-18 11:51:59Z</time>
      </trkpt>
      <trkpt lat="45.90538" lon="6.17401">
        <ele>1147</ele>
        <time>2010-07-18 11:52:03Z</time>
      </trkpt>
      <trkpt lat="45.90537" lon="6.17404">
        <ele>1148</ele>
        <time>2010-07-18 11:52:07Z</time>
      </trkpt>
      <trkpt lat="45.90536" lon="6.17409">
        <ele>1149</ele>
        <time>2010-07-18 11:52:11Z</time>
      </trkpt>
      <trkpt lat="45.90534" lon="6.17415">
        <ele>1150</ele>
        <time>2010-07-18 11:52:15Z</time>
      </trkpt>
      <trkpt lat="45.90533" lon="6.17421">
        <ele>1151</ele>
        <time>2010-07-18 11:52:19Z</time>
      </trkpt>
      <trkpt lat="45.90533" lon="6.17426">
        <ele>1152</ele>
        <time>2010-07-18 11:52:23Z</time>
      </trkpt>
      <trkpt lat="45.90532" lon="6.17433">
        <ele>1151</ele>
        <time>2010-07-18 11:52:27Z</time>
      </trkpt>
      <trkpt lat="45.90531" lon="6.17437">
        <ele>1152</ele>
        <time>2010-07-18 11:52:31Z</time>
      </trkpt>
      <trkpt lat="45.90531" lon="6.17442">
        <ele>1153</ele>
        <time>2010-07-18 11:52:35Z</time>
      </trkpt>
      <trkpt lat="45.90534" lon="6.17448">
        <ele>1155</ele>
        <time>2010-07-18 11:52:39Z</time>
      </trkpt>
      <trkpt lat="45.90535" lon="6.17453">
        <ele>1155</ele>
        <time>2010-07-18 11:52:43Z</time>
      </trkpt>
      <trkpt lat="45.90535" lon="6.17459">
        <ele>1156</ele>
        <time>2010-07-18 11:52:47Z</time>
      </trkpt>
      <trkpt lat="45.90536" lon="6.17464">
        <ele>1158</ele>
        <time>2010-07-18 11:52:51Z</time>
      </trkpt>
      <trkpt lat="45.90536" lon="6.17471">
        <ele>1159</ele>
        <time>2010-07-18 11:52:55Z</time>
      </trkpt>
      <trkpt lat="45.90536" lon="6.17475">
        <ele>1158</ele>
        <time>2010-07-18 11:52:59Z</time>
      </trkpt>
      <trkpt lat="45.90536" lon="6.17479">
        <ele>1159</ele>
        <time>2010-07-18 11:53:03Z</time>
      </trkpt>
      <trkpt lat="45.90534" lon="6.17483">
        <ele>1160</ele>
        <time>2010-07-18 11:53:07Z</time>
      </trkpt>
      <trkpt lat="45.90533" lon="6.17487">
        <ele>1162</ele>
        <time>2010-07-18 11:53:11Z</time>
      </trkpt>
      <trkpt lat="45.90531" lon="6.17491">
        <ele>1163</ele>
        <time>2010-07-18 11:53:15Z</time>
      </trkpt>
      <trkpt lat="45.90529" lon="6.17493">
        <ele>1162</ele>
        <time>2010-07-18 11:53:19Z</time>
      </trkpt>
      <trkpt lat="45.90527" lon="6.17493">
        <ele>1163</ele>
        <time>2010-07-18 11:53:23Z</time>
      </trkpt>
      <trkpt lat="45.90525" lon="6.17493">
        <ele>1164</ele>
        <time>2010-07-18 11:53:27Z</time>
      </trkpt>
      <trkpt lat="45.90524" lon="6.17493">
        <ele>1166</ele>
        <time>2010-07-18 11:53:31Z</time>
      </trkpt>
      <trkpt lat="45.90522" lon="6.17494">
        <ele>1168</ele>
        <time>2010-07-18 11:53:35Z</time>
      </trkpt>
      <trkpt lat="45.9052" lon="6.17495">
        <ele>1170</ele>
        <time>2010-07-18 11:53:39Z</time>
      </trkpt>
      <trkpt lat="45.90518" lon="6.17495">
        <ele>1169</ele>
        <time>2010-07-18 11:53:43Z</time>
      </trkpt>
      <trkpt lat="45.90516" lon="6.17494">
        <ele>1169</ele>
        <time>2010-07-18 11:53:47Z</time>
      </trkpt>
      <trkpt lat="45.90515" lon="6.17493">
        <ele>1171</ele>
        <time>2010-07-18 11:53:51Z</time>
      </trkpt>
      <trkpt lat="45.90514" lon="6.17492">
        <ele>1173</ele>
        <time>2010-07-18 11:53:55Z</time>
      </trkpt>
      <trkpt lat="45.90513" lon="6.1749">
        <ele>1175</ele>
        <time>2010-07-18 11:53:59Z</time>
      </trkpt>
      <trkpt lat="45.90512" lon="6.17488">
        <ele>1177</ele>
        <time>2010-07-18 11:54:03Z</time>
      </trkpt>
      <trkpt lat="45.90511" lon="6.17487">
        <ele>1177</ele>
        <time>2010-07-18 11:54:07Z</time>
      </trkpt>
      <trkpt lat="45.9051" lon="6.17483">
        <ele>1180</ele>
        <time>2010-07-18 11:54:11Z</time>
      </trkpt>
      <trkpt lat="45.90509" lon="6.1748">
        <ele>1182</ele>
        <time>2010-07-18 11:54:15Z</time>
      </trkpt>
      <trkpt lat="45.90507" lon="6.17475">
        <ele>1185</ele>
        <time>2010-07-18 11:54:19Z</time>
      </trkpt>
      <trkpt lat="45.90505" lon="6.17472">
        <ele>1187</ele>
        <time>2010-07-18 11:54:23Z</time>
      </trkpt>
      <trkpt lat="45.90503" lon="6.17469">
        <ele>1188</ele>
        <time>2010-07-18 11:54:27Z</time>
      </trkpt>
      <trkpt lat="45.90502" lon="6.17467">
        <ele>1189</ele>
        <time>2010-07-18 11:54:31Z</time>
      </trkpt>
      <trkpt lat="45.90498" lon="6.17462">
        <ele>1194</ele>
        <time>2010-07-18 11:54:35Z</time>
      </trkpt>
      <trkpt lat="45.90495" lon="6.17458">
        <ele>1197</ele>
        <time>2010-07-18 11:54:39Z</time>
      </trkpt>
      <trkpt lat="45.90492" lon="6.17456">
        <ele>1198</ele>
        <time>2010-07-18 11:54:43Z</time>
      </trkpt>
      <trkpt lat="45.9049" lon="6.17453">
        <ele>1200</ele>
        <time>2010-07-18 11:54:47Z</time>
      </trkpt>
      <trkpt lat="45.90487" lon="6.17451">
        <ele>1201</ele>
        <time>2010-07-18 11:54:51Z</time>
      </trkpt>
      <trkpt lat="45.90482" lon="6.17448">
        <ele>1202</ele>
        <time>2010-07-18 11:54:55Z</time>
      </trkpt>
      <trkpt lat="45.90479" lon="6.17446">
        <ele>1202</ele>
        <time>2010-07-18 11:54:59Z</time>
      </trkpt>
      <trkpt lat="45.90474" lon="6.17444">
        <ele>1202</ele>
        <time>2010-07-18 11:55:03Z</time>
      </trkpt>
      <trkpt lat="45.9047" lon="6.17442">
        <ele>1202</ele>
        <time>2010-07-18 11:55:07Z</time>
      </trkpt>
      <trkpt lat="45.90467" lon="6.1744">
        <ele>1201</ele>
        <time>2010-07-18 11:55:11Z</time>
      </trkpt>
      <trkpt lat="45.90465" lon="6.17436">
        <ele>1202</ele>
        <time>2010-07-18 11:55:15Z</time>
      </trkpt>
      <trkpt lat="45.90464" lon="6.17433">
        <ele>1203</ele>
        <time>2010-07-18 11:55:19Z</time>
      </trkpt>
      <trkpt lat="45.90462" lon="6.17429">
        <ele>1207</ele>
        <time>2010-07-18 11:55:23Z</time>
      </trkpt>
      <trkpt lat="45.90459" lon="6.17426">
        <ele>1208</ele>
        <time>2010-07-18 11:55:27Z</time>
      </trkpt>
      <trkpt lat="45.90455" lon="6.17425">
        <ele>1210</ele>
        <time>2010-07-18 11:55:31Z</time>
      </trkpt>
      <trkpt lat="45.90451" lon="6.17424">
        <ele>1211</ele>
        <time>2010-07-18 11:55:35Z</time>
      </trkpt>
      <trkpt lat="45.90445" lon="6.17423">
        <ele>1211</ele>
        <time>2010-07-18 11:55:39Z</time>
      </trkpt>
      <trkpt lat="45.90445" lon="6.17423">
        <ele>1211</ele>
        <time>2010-07-18 11:55:43Z</time>
      </trkpt>
      <trkpt lat="45.90439" lon="6.17424">
        <ele>1209</ele>
        <time>2010-07-18 11:55:47Z</time>
      </trkpt>
      <trkpt lat="45.90437" lon="6.17425">
        <ele>1212</ele>
        <time>2010-07-18 11:55:51Z</time>
      </trkpt>
      <trkpt lat="45.90434" lon="6.17425">
        <ele>1214</ele>
        <time>2010-07-18 11:55:55Z</time>
      </trkpt>
      <trkpt lat="45.90432" lon="6.17425">
        <ele>1216</ele>
        <time>2010-07-18 11:55:59Z</time>
      </trkpt>
      <trkpt lat="45.9043" lon="6.17423">
        <ele>1219</ele>
        <time>2010-07-18 11:56:03Z</time>
      </trkpt>
      <trkpt lat="45.90428" lon="6.17421">
        <ele>1219</ele>
        <time>2010-07-18 11:56:07Z</time>
      </trkpt>
      <trkpt lat="45.90426" lon="6.17419">
        <ele>1220</ele>
        <time>2010-07-18 11:56:11Z</time>
      </trkpt>
      <trkpt lat="45.90423" lon="6.17416">
        <ele>1220</ele>
        <time>2010-07-18 11:56:15Z</time>
      </trkpt>
      <trkpt lat="45.90421" lon="6.17414">
        <ele>1219</ele>
        <time>2010-07-18 11:56:19Z</time>
      </trkpt>
      <trkpt lat="45.90417" lon="6.17412">
        <ele>1221</ele>
        <time>2010-07-18 11:56:23Z</time>
      </trkpt>
      <trkpt lat="45.90413" lon="6.1741">
        <ele>1220</ele>
        <time>2010-07-18 11:56:27Z</time>
      </trkpt>
      <trkpt lat="45.90409" lon="6.17409">
        <ele>1220</ele>
        <time>2010-07-18 11:56:31Z</time>
      </trkpt>
      <trkpt lat="45.90409" lon="6.17409">
        <ele>1220</ele>
        <time>2010-07-18 11:56:35Z</time>
      </trkpt>
      <trkpt lat="45.904" lon="6.17405">
        <ele>1220</ele>
        <time>2010-07-18 11:56:39Z</time>
      </trkpt>
      <trkpt lat="45.90396" lon="6.17404">
        <ele>1221</ele>
        <time>2010-07-18 11:56:43Z</time>
      </trkpt>
      <trkpt lat="45.90392" lon="6.17404">
        <ele>1221</ele>
        <time>2010-07-18 11:56:47Z</time>
      </trkpt>
      <trkpt lat="45.90389" lon="6.17408">
        <ele>1219</ele>
        <time>2010-07-18 11:56:51Z</time>
      </trkpt>
      <trkpt lat="45.90387" lon="6.17412">
        <ele>1218</ele>
        <time>2010-07-18 11:56:55Z</time>
      </trkpt>
      <trkpt lat="45.90385" lon="6.17415">
        <ele>1217</ele>
        <time>2010-07-18 11:56:59Z</time>
      </trkpt>
      <trkpt lat="45.90384" lon="6.17418">
        <ele>1217</ele>
        <time>2010-07-18 11:57:03Z</time>
      </trkpt>
      <trkpt lat="45.90383" lon="6.17419">
        <ele>1218</ele>
        <time>2010-07-18 11:57:07Z</time>
      </trkpt>
      <trkpt lat="45.90382" lon="6.1742">
        <ele>1219</ele>
        <time>2010-07-18 11:57:11Z</time>
      </trkpt>
      <trkpt lat="45.90381" lon="6.17419">
        <ele>1222</ele>
        <time>2010-07-18 11:57:15Z</time>
      </trkpt>
      <trkpt lat="45.90377" lon="6.17416">
        <ele>1224</ele>
        <time>2010-07-18 11:57:19Z</time>
      </trkpt>
      <trkpt lat="45.90375" lon="6.17414">
        <ele>1225</ele>
        <time>2010-07-18 11:57:23Z</time>
      </trkpt>
      <trkpt lat="45.90373" lon="6.17412">
        <ele>1225</ele>
        <time>2010-07-18 11:57:27Z</time>
      </trkpt>
      <trkpt lat="45.90368" lon="6.17409">
        <ele>1225</ele>
        <time>2010-07-18 11:57:31Z</time>
      </trkpt>
      <trkpt lat="45.90361" lon="6.17407">
        <ele>1226</ele>
        <time>2010-07-18 11:57:35Z</time>
      </trkpt>
      <trkpt lat="45.90355" lon="6.17407">
        <ele>1226</ele>
        <time>2010-07-18 11:57:39Z</time>
      </trkpt>
      <trkpt lat="45.90352" lon="6.17407">
        <ele>1226</ele>
        <time>2010-07-18 11:57:43Z</time>
      </trkpt>
      <trkpt lat="45.90347" lon="6.1741">
        <ele>1227</ele>
        <time>2010-07-18 11:57:47Z</time>
      </trkpt>
      <trkpt lat="45.90342" lon="6.17415">
        <ele>1227</ele>
        <time>2010-07-18 11:57:51Z</time>
      </trkpt>
      <trkpt lat="45.90338" lon="6.1742">
        <ele>1228</ele>
        <time>2010-07-18 11:57:55Z</time>
      </trkpt>
      <trkpt lat="45.90334" lon="6.17424">
        <ele>1227</ele>
        <time>2010-07-18 11:57:59Z</time>
      </trkpt>
      <trkpt lat="45.90331" lon="6.17426">
        <ele>1228</ele>
        <time>2010-07-18 11:58:03Z</time>
      </trkpt>
      <trkpt lat="45.9033" lon="6.17428">
        <ele>1228</ele>
        <time>2010-07-18 11:58:07Z</time>
      </trkpt>
      <trkpt lat="45.90328" lon="6.17429">
        <ele>1224</ele>
        <time>2010-07-18 11:58:11Z</time>
      </trkpt>
      <trkpt lat="45.90328" lon="6.17429">
        <ele>1224</ele>
        <time>2010-07-18 11:58:15Z</time>
      </trkpt>
      <trkpt lat="45.90322" lon="6.17436">
        <ele>1220</ele>
        <time>2010-07-18 11:58:50Z</time>
      </trkpt>
      <trkpt lat="45.90321" lon="6.17436">
        <ele>1219</ele>
        <time>2010-07-18 11:58:54Z</time>
      </trkpt>
      <trkpt lat="45.90321" lon="6.17436">
        <ele>1219</ele>
        <time>2010-07-18 11:58:58Z</time>
      </trkpt>
      <trkpt lat="45.90321" lon="6.17436">
        <ele>1219</ele>
        <time>2010-07-18 11:59:02Z</time>
      </trkpt>
      <trkpt lat="45.90322" lon="6.17436">
        <ele>1218</ele>
        <time>2010-07-18 11:59:06Z</time>
      </trkpt>
      <trkpt lat="45.90322" lon="6.17436">
        <ele>1218</ele>
        <time>2010-07-18 11:59:10Z</time>
      </trkpt>
      <trkpt lat="45.90323" lon="6.17436">
        <ele>1221</ele>
        <time>2010-07-18 11:59:14Z</time>
      </trkpt>
      <trkpt lat="45.90324" lon="6.17436">
        <ele>1223</ele>
        <time>2010-07-18 11:59:18Z</time>
      </trkpt>
      <trkpt lat="45.90323" lon="6.17435">
        <ele>1225</ele>
        <time>2010-07-18 11:59:22Z</time>
      </trkpt>
      <trkpt lat="45.90323" lon="6.17436">
        <ele>1223</ele>
        <time>2010-07-18 11:59:26Z</time>
      </trkpt>
      <trkpt lat="45.90323" lon="6.17437">
        <ele>1224</ele>
        <time>2010-07-18 11:59:30Z</time>
      </trkpt>
      <trkpt lat="45.90323" lon="6.17439">
        <ele>1224</ele>
        <time>2010-07-18 11:59:34Z</time>
      </trkpt>
      <trkpt lat="45.90324" lon="6.17441">
        <ele>1224</ele>
        <time>2010-07-18 11:59:38Z</time>
      </trkpt>
      <trkpt lat="45.90327" lon="6.17446">
        <ele>1225</ele>
        <time>2010-07-18 11:59:42Z</time>
      </trkpt>
      <trkpt lat="45.90328" lon="6.17453">
        <ele>1226</ele>
        <time>2010-07-18 11:59:46Z</time>
      </trkpt>
      <trkpt lat="45.9033" lon="6.1746">
        <ele>1226</ele>
        <time>2010-07-18 11:59:50Z</time>
      </trkpt>
      <trkpt lat="45.90332" lon="6.17469">
        <ele>1226</ele>
        <time>2010-07-18 11:59:54Z</time>
      </trkpt>
      <trkpt lat="45.90334" lon="6.17476">
        <ele>1228</ele>
        <time>2010-07-18 11:59:58Z</time>
      </trkpt>
      <trkpt lat="45.90336" lon="6.17481">
        <ele>1229</ele>
        <time>2010-07-18 12:00:02Z</time>
      </trkpt>
      <trkpt lat="45.90336" lon="6.17482">
        <ele>1230</ele>
        <time>2010-07-18 12:00:06Z</time>
      </trkpt>
      <trkpt lat="45.90336" lon="6.17482">
        <ele>1230</ele>
        <time>2010-07-18 12:00:10Z</time>
      </trkpt>
      <trkpt lat="45.90335" lon="6.17487">
        <ele>1232</ele>
        <time>2010-07-18 12:00:14Z</time>
      </trkpt>
      <trkpt lat="45.90334" lon="6.17491">
        <ele>1232</ele>
        <time>2010-07-18 12:00:18Z</time>
      </trkpt>
      <trkpt lat="45.90332" lon="6.17497">
        <ele>1231</ele>
        <time>2010-07-18 12:00:22Z</time>
      </trkpt>
      <trkpt lat="45.9033" lon="6.17502">
        <ele>1231</ele>
        <time>2010-07-18 12:00:26Z</time>
      </trkpt>
      <trkpt lat="45.90327" lon="6.17507">
        <ele>1231</ele>
        <time>2010-07-18 12:00:30Z</time>
      </trkpt>
      <trkpt lat="45.90324" lon="6.1751">
        <ele>1231</ele>
        <time>2010-07-18 12:00:34Z</time>
      </trkpt>
      <trkpt lat="45.90319" lon="6.17513">
        <ele>1232</ele>
        <time>2010-07-18 12:00:38Z</time>
      </trkpt>
      <trkpt lat="45.90314" lon="6.17514">
        <ele>1234</ele>
        <time>2010-07-18 12:00:42Z</time>
      </trkpt>
      <trkpt lat="45.9031" lon="6.17513">
        <ele>1236</ele>
        <time>2010-07-18 12:00:46Z</time>
      </trkpt>
      <trkpt lat="45.90308" lon="6.17509">
        <ele>1237</ele>
        <time>2010-07-18 12:00:50Z</time>
      </trkpt>
      <trkpt lat="45.90307" lon="6.17508">
        <ele>1238</ele>
        <time>2010-07-18 12:00:54Z</time>
      </trkpt>
      <trkpt lat="45.90305" lon="6.17499">
        <ele>1240</ele>
        <time>2010-07-18 12:00:58Z</time>
      </trkpt>
      <trkpt lat="45.90303" lon="6.17491">
        <ele>1242</ele>
        <time>2010-07-18 12:01:02Z</time>
      </trkpt>
      <trkpt lat="45.90303" lon="6.17484">
        <ele>1243</ele>
        <time>2010-07-18 12:01:06Z</time>
      </trkpt>
      <trkpt lat="45.90303" lon="6.17482">
        <ele>1243</ele>
        <time>2010-07-18 12:01:10Z</time>
      </trkpt>
      <trkpt lat="45.90303" lon="6.17478">
        <ele>1244</ele>
        <time>2010-07-18 12:01:14Z</time>
      </trkpt>
      <trkpt lat="45.90301" lon="6.17473">
        <ele>1242</ele>
        <time>2010-07-18 12:01:18Z</time>
      </trkpt>
      <trkpt lat="45.903" lon="6.17471">
        <ele>1239</ele>
        <time>2010-07-18 12:01:22Z</time>
      </trkpt>
      <trkpt lat="45.90298" lon="6.17471">
        <ele>1237</ele>
        <time>2010-07-18 12:01:26Z</time>
      </trkpt>
      <trkpt lat="45.90296" lon="6.1747">
        <ele>1235</ele>
        <time>2010-07-18 12:01:30Z</time>
      </trkpt>
      <trkpt lat="45.90294" lon="6.1747">
        <ele>1233</ele>
        <time>2010-07-18 12:01:34Z</time>
      </trkpt>
      <trkpt lat="45.90291" lon="6.1747">
        <ele>1232</ele>
        <time>2010-07-18 12:01:38Z</time>
      </trkpt>
      <trkpt lat="45.90289" lon="6.1747">
        <ele>1230</ele>
        <time>2010-07-18 12:01:42Z</time>
      </trkpt>
      <trkpt lat="45.90286" lon="6.17471">
        <ele>1228</ele>
        <time>2010-07-18 12:01:46Z</time>
      </trkpt>
      <trkpt lat="45.90284" lon="6.17472">
        <ele>1226</ele>
        <time>2010-07-18 12:01:50Z</time>
      </trkpt>
      <trkpt lat="45.90281" lon="6.17474">
        <ele>1223</ele>
        <time>2010-07-18 12:01:54Z</time>
      </trkpt>
      <trkpt lat="45.90278" lon="6.17479">
        <ele>1220</ele>
        <time>2010-07-18 12:01:58Z</time>
      </trkpt>
      <trkpt lat="45.90276" lon="6.17481">
        <ele>1219</ele>
        <time>2010-07-18 12:02:02Z</time>
      </trkpt>
      <trkpt lat="45.90275" lon="6.17481">
        <ele>1220</ele>
        <time>2010-07-18 12:02:06Z</time>
      </trkpt>
      <trkpt lat="45.90273" lon="6.17482">
        <ele>1218</ele>
        <time>2010-07-18 12:02:10Z</time>
      </trkpt>
      <trkpt lat="45.90271" lon="6.17484">
        <ele>1219</ele>
        <time>2010-07-18 12:02:14Z</time>
      </trkpt>
      <trkpt lat="45.90268" lon="6.17485">
        <ele>1220</ele>
        <time>2010-07-18 12:02:18Z</time>
      </trkpt>
      <trkpt lat="45.90265" lon="6.17487">
        <ele>1220</ele>
        <time>2010-07-18 12:02:22Z</time>
      </trkpt>
      <trkpt lat="45.90262" lon="6.17491">
        <ele>1221</ele>
        <time>2010-07-18 12:02:26Z</time>
      </trkpt>
      <trkpt lat="45.90258" lon="6.17495">
        <ele>1221</ele>
        <time>2010-07-18 12:02:30Z</time>
      </trkpt>
      <trkpt lat="45.90254" lon="6.17501">
        <ele>1222</ele>
        <time>2010-07-18 12:02:34Z</time>
      </trkpt>
      <trkpt lat="45.90251" lon="6.17507">
        <ele>1223</ele>
        <time>2010-07-18 12:02:38Z</time>
      </trkpt>
      <trkpt lat="45.90249" lon="6.17512">
        <ele>1223</ele>
        <time>2010-07-18 12:02:42Z</time>
      </trkpt>
      <trkpt lat="45.90244" lon="6.17515">
        <ele>1224</ele>
        <time>2010-07-18 12:02:46Z</time>
      </trkpt>
      <trkpt lat="45.90241" lon="6.17517">
        <ele>1225</ele>
        <time>2010-07-18 12:02:50Z</time>
      </trkpt>
      <trkpt lat="45.90236" lon="6.17518">
        <ele>1225</ele>
        <time>2010-07-18 12:02:54Z</time>
      </trkpt>
      <trkpt lat="45.90233" lon="6.17519">
        <ele>1225</ele>
        <time>2010-07-18 12:02:58Z</time>
      </trkpt>
      <trkpt lat="45.90229" lon="6.1752">
        <ele>1224</ele>
        <time>2010-07-18 12:03:02Z</time>
      </trkpt>
      <trkpt lat="45.90223" lon="6.1752">
        <ele>1224</ele>
        <time>2010-07-18 12:03:06Z</time>
      </trkpt>
      <trkpt lat="45.90221" lon="6.17521">
        <ele>1224</ele>
        <time>2010-07-18 12:03:10Z</time>
      </trkpt>
      <trkpt lat="45.90221" lon="6.17521">
        <ele>1224</ele>
        <time>2010-07-18 12:03:14Z</time>
      </trkpt>
      <trkpt lat="45.90221" lon="6.17521">
        <ele>1224</ele>
        <time>2010-07-18 12:03:18Z</time>
      </trkpt>
      <trkpt lat="45.90211" lon="6.17521">
        <ele>1226</ele>
        <time>2010-07-18 12:03:22Z</time>
      </trkpt>
      <trkpt lat="45.90208" lon="6.17521">
        <ele>1225</ele>
        <time>2010-07-18 12:03:26Z</time>
      </trkpt>
      <trkpt lat="45.90205" lon="6.17521">
        <ele>1224</ele>
        <time>2010-07-18 12:03:30Z</time>
      </trkpt>
      <trkpt lat="45.90203" lon="6.17522">
        <ele>1223</ele>
        <time>2010-07-18 12:03:34Z</time>
      </trkpt>
      <trkpt lat="45.90199" lon="6.17523">
        <ele>1223</ele>
        <time>2010-07-18 12:03:38Z</time>
      </trkpt>
      <trkpt lat="45.90195" lon="6.17523">
        <ele>1224</ele>
        <time>2010-07-18 12:03:42Z</time>
      </trkpt>
      <trkpt lat="45.90191" lon="6.17524">
        <ele>1225</ele>
        <time>2010-07-18 12:03:46Z</time>
      </trkpt>
      <trkpt lat="45.90189" lon="6.17525">
        <ele>1225</ele>
        <time>2010-07-18 12:03:50Z</time>
      </trkpt>
      <trkpt lat="45.90189" lon="6.17525">
        <ele>1225</ele>
        <time>2010-07-18 12:03:54Z</time>
      </trkpt>
      <trkpt lat="45.90189" lon="6.17525">
        <ele>1225</ele>
        <time>2010-07-18 12:03:58Z</time>
      </trkpt>
      <trkpt lat="45.90173" lon="6.17529">
        <ele>1226</ele>
        <time>2010-07-18 12:04:02Z</time>
      </trkpt>
      <trkpt lat="45.90173" lon="6.17529">
        <ele>1226</ele>
        <time>2010-07-18 12:04:06Z</time>
      </trkpt>
      <trkpt lat="45.90157" lon="6.17534">
        <ele>1225</ele>
        <time>2010-07-18 12:04:10Z</time>
      </trkpt>
      <trkpt lat="45.90147" lon="6.17538">
        <ele>1225</ele>
        <time>2010-07-18 12:04:14Z</time>
      </trkpt>
      <trkpt lat="45.90129" lon="6.17542">
        <ele>1225</ele>
        <time>2010-07-18 12:04:18Z</time>
      </trkpt>
      <trkpt lat="45.90127" lon="6.17543">
        <ele>1225</ele>
        <time>2010-07-18 12:04:22Z</time>
      </trkpt>
      <trkpt lat="45.90112" lon="6.17544">
        <ele>1225</ele>
        <time>2010-07-18 12:04:26Z</time>
      </trkpt>
      <trkpt lat="45.90106" lon="6.17545">
        <ele>1225</ele>
        <time>2010-07-18 12:04:30Z</time>
      </trkpt>
      <trkpt lat="45.90102" lon="6.17545">
        <ele>1225</ele>
        <time>2010-07-18 12:04:34Z</time>
      </trkpt>
      <trkpt lat="45.90095" lon="6.17547">
        <ele>1224</ele>
        <time>2010-07-18 12:04:38Z</time>
      </trkpt>
      <trkpt lat="45.9009" lon="6.1755">
        <ele>1224</ele>
        <time>2010-07-18 12:04:42Z</time>
      </trkpt>
      <trkpt lat="45.90083" lon="6.17554">
        <ele>1225</ele>
        <time>2010-07-18 12:04:46Z</time>
      </trkpt>
      <trkpt lat="45.90078" lon="6.1756">
        <ele>1225</ele>
        <time>2010-07-18 12:04:50Z</time>
      </trkpt>
      <trkpt lat="45.90075" lon="6.17567">
        <ele>1217</ele>
        <time>2010-07-18 12:04:54Z</time>
      </trkpt>
      <trkpt lat="45.90072" lon="6.17571">
        <ele>1211</ele>
        <time>2010-07-18 12:04:58Z</time>
      </trkpt>
      <trkpt lat="45.90071" lon="6.17572">
        <ele>1210</ele>
        <time>2010-07-18 12:05:02Z</time>
      </trkpt>
      <trkpt lat="45.9007" lon="6.17584">
        <ele>1197</ele>
        <time>2010-07-18 12:05:06Z</time>
      </trkpt>
      <trkpt lat="45.9008" lon="6.17619">
        <ele>1174</ele>
        <time>2010-07-18 12:05:10Z</time>
      </trkpt>
      <trkpt lat="45.90086" lon="6.17635">
        <ele>1162</ele>
        <time>2010-07-18 12:05:14Z</time>
      </trkpt>
      <trkpt lat="45.9009" lon="6.17645">
        <ele>1148</ele>
        <time>2010-07-18 12:05:18Z</time>
      </trkpt>
      <trkpt lat="45.90092" lon="6.1765">
        <ele>1139</ele>
        <time>2010-07-18 12:05:22Z</time>
      </trkpt>
      <trkpt lat="45.90093" lon="6.17653">
        <ele>1134</ele>
        <time>2010-07-18 12:05:26Z</time>
      </trkpt>
      <trkpt lat="45.90093" lon="6.17654">
        <ele>1132</ele>
        <time>2010-07-18 12:05:30Z</time>
      </trkpt>
      <trkpt lat="45.90092" lon="6.17655">
        <ele>1133</ele>
        <time>2010-07-18 12:05:34Z</time>
      </trkpt>
      <trkpt lat="45.90091" lon="6.17655">
        <ele>1134</ele>
        <time>2010-07-18 12:05:38Z</time>
      </trkpt>
      <trkpt lat="45.90091" lon="6.17655">
        <ele>1135</ele>
        <time>2010-07-18 12:05:42Z</time>
      </trkpt>
      <trkpt lat="45.90091" lon="6.17654">
        <ele>1136</ele>
        <time>2010-07-18 12:05:46Z</time>
      </trkpt>
      <trkpt lat="45.90091" lon="6.17654">
        <ele>1135</ele>
        <time>2010-07-18 12:05:50Z</time>
      </trkpt>
      <trkpt lat="45.90091" lon="6.17654">
        <ele>1135</ele>
        <time>2010-07-18 12:05:54Z</time>
      </trkpt>
      <trkpt lat="45.90091" lon="6.17654">
        <ele>1133</ele>
        <time>2010-07-18 12:05:58Z</time>
      </trkpt>
      <trkpt lat="45.90091" lon="6.17654">
        <ele>1134</ele>
        <time>2010-07-18 12:06:02Z</time>
      </trkpt>
      <trkpt lat="45.90089" lon="6.17653">
        <ele>1134</ele>
        <time>2010-07-18 12:06:06Z</time>
      </trkpt>
      <trkpt lat="45.90089" lon="6.17651">
        <ele>1135</ele>
        <time>2010-07-18 12:06:10Z</time>
      </trkpt>
      <trkpt lat="45.90087" lon="6.17647">
        <ele>1136</ele>
        <time>2010-07-18 12:06:14Z</time>
      </trkpt>
      <trkpt lat="45.90087" lon="6.17647">
        <ele>1136</ele>
        <time>2010-07-18 12:06:18Z</time>
      </trkpt>
      <trkpt lat="45.90083" lon="6.17633">
        <ele>1139</ele>
        <time>2010-07-18 12:06:22Z</time>
      </trkpt>
      <trkpt lat="45.90082" lon="6.17624">
        <ele>1139</ele>
        <time>2010-07-18 12:06:26Z</time>
      </trkpt>
      <trkpt lat="45.90082" lon="6.17608">
        <ele>1138</ele>
        <time>2010-07-18 12:06:30Z</time>
      </trkpt>
      <trkpt lat="45.90084" lon="6.17595">
        <ele>1139</ele>
        <time>2010-07-18 12:06:34Z</time>
      </trkpt>
      <trkpt lat="45.90085" lon="6.17586">
        <ele>1139</ele>
        <time>2010-07-18 12:06:38Z</time>
      </trkpt>
      <trkpt lat="45.90087" lon="6.17574">
        <ele>1140</ele>
        <time>2010-07-18 12:06:42Z</time>
      </trkpt>
      <trkpt lat="45.90091" lon="6.17559">
        <ele>1142</ele>
        <time>2010-07-18 12:06:46Z</time>
      </trkpt>
      <trkpt lat="45.90093" lon="6.1755">
        <ele>1142</ele>
        <time>2010-07-18 12:06:50Z</time>
      </trkpt>
      <trkpt lat="45.90093" lon="6.17549">
        <ele>1141</ele>
        <time>2010-07-18 12:06:54Z</time>
      </trkpt>
      <trkpt lat="45.90094" lon="6.17541">
        <ele>1136</ele>
        <time>2010-07-18 12:06:58Z</time>
      </trkpt>
      <trkpt lat="45.90094" lon="6.17537">
        <ele>1131</ele>
        <time>2010-07-18 12:07:02Z</time>
      </trkpt>
      <trkpt lat="45.90094" lon="6.17534">
        <ele>1124</ele>
        <time>2010-07-18 12:07:06Z</time>
      </trkpt>
      <trkpt lat="45.90093" lon="6.17532">
        <ele>1122</ele>
        <time>2010-07-18 12:07:10Z</time>
      </trkpt>
      <trkpt lat="45.90091" lon="6.17532">
        <ele>1120</ele>
        <time>2010-07-18 12:07:14Z</time>
      </trkpt>
      <trkpt lat="45.9009" lon="6.17531">
        <ele>1118</ele>
        <time>2010-07-18 12:07:18Z</time>
      </trkpt>
      <trkpt lat="45.90089" lon="6.1753">
        <ele>1116</ele>
        <time>2010-07-18 12:07:22Z</time>
      </trkpt>
      <trkpt lat="45.90088" lon="6.17529">
        <ele>1116</ele>
        <time>2010-07-18 12:07:26Z</time>
      </trkpt>
      <trkpt lat="45.90088" lon="6.17528">
        <ele>1119</ele>
        <time>2010-07-18 12:07:30Z</time>
      </trkpt>
      <trkpt lat="45.90088" lon="6.17526">
        <ele>1120</ele>
        <time>2010-07-18 12:07:34Z</time>
      </trkpt>
      <trkpt lat="45.90088" lon="6.1752">
        <ele>1123</ele>
        <time>2010-07-18 12:07:38Z</time>
      </trkpt>
      <trkpt lat="45.90088" lon="6.17511">
        <ele>1125</ele>
        <time>2010-07-18 12:07:42Z</time>
      </trkpt>
      <trkpt lat="45.90088" lon="6.17494">
        <ele>1127</ele>
        <time>2010-07-18 12:07:46Z</time>
      </trkpt>
      <trkpt lat="45.90089" lon="6.17482">
        <ele>1128</ele>
        <time>2010-07-18 12:07:50Z</time>
      </trkpt>
      <trkpt lat="45.90089" lon="6.17479">
        <ele>1128</ele>
        <time>2010-07-18 12:07:54Z</time>
      </trkpt>
      <trkpt lat="45.90089" lon="6.1747">
        <ele>1127</ele>
        <time>2010-07-18 12:07:58Z</time>
      </trkpt>
      <trkpt lat="45.90093" lon="6.17445">
        <ele>1116</ele>
        <time>2010-07-18 12:08:02Z</time>
      </trkpt>
      <trkpt lat="45.90096" lon="6.17428">
        <ele>1109</ele>
        <time>2010-07-18 12:08:06Z</time>
      </trkpt>
      <trkpt lat="45.90099" lon="6.17417">
        <ele>1107</ele>
        <time>2010-07-18 12:08:10Z</time>
      </trkpt>
      <trkpt lat="45.90101" lon="6.17406">
        <ele>1105</ele>
        <time>2010-07-18 12:08:14Z</time>
      </trkpt>
      <trkpt lat="45.90102" lon="6.174">
        <ele>1104</ele>
        <time>2010-07-18 12:08:18Z</time>
      </trkpt>
      <trkpt lat="45.90104" lon="6.17392">
        <ele>1102</ele>
        <time>2010-07-18 12:08:22Z</time>
      </trkpt>
      <trkpt lat="45.90105" lon="6.17387">
        <ele>1100</ele>
        <time>2010-07-18 12:08:26Z</time>
      </trkpt>
      <trkpt lat="45.90106" lon="6.17384">
        <ele>1099</ele>
        <time>2010-07-18 12:08:30Z</time>
      </trkpt>
      <trkpt lat="45.90106" lon="6.17384">
        <ele>1099</ele>
        <time>2010-07-18 12:08:34Z</time>
      </trkpt>
      <trkpt lat="45.90106" lon="6.17384">
        <ele>1099</ele>
        <time>2010-07-18 12:08:38Z</time>
      </trkpt>
      <trkpt lat="45.90106" lon="6.17384">
        <ele>1099</ele>
        <time>2010-07-18 12:08:42Z</time>
      </trkpt>
      <trkpt lat="45.90109" lon="6.17378">
        <ele>1089</ele>
        <time>2010-07-18 12:08:46Z</time>
      </trkpt>
      <trkpt lat="45.9011" lon="6.17377">
        <ele>1087</ele>
        <time>2010-07-18 12:08:50Z</time>
      </trkpt>
      <trkpt lat="45.9011" lon="6.17377">
        <ele>1086</ele>
        <time>2010-07-18 12:08:54Z</time>
      </trkpt>
      <trkpt lat="45.90113" lon="6.17375">
        <ele>1082</ele>
        <time>2010-07-18 12:08:58Z</time>
      </trkpt>
      <trkpt lat="45.90113" lon="6.17374">
        <ele>1081</ele>
        <time>2010-07-18 12:09:02Z</time>
      </trkpt>
      <trkpt lat="45.90115" lon="6.17371">
        <ele>1079</ele>
        <time>2010-07-18 12:09:06Z</time>
      </trkpt>
      <trkpt lat="45.90117" lon="6.17369">
        <ele>1076</ele>
        <time>2010-07-18 12:09:10Z</time>
      </trkpt>
      <trkpt lat="45.90117" lon="6.17368">
        <ele>1076</ele>
        <time>2010-07-18 12:09:14Z</time>
      </trkpt>
      <trkpt lat="45.90117" lon="6.17368">
        <ele>1076</ele>
        <time>2010-07-18 12:09:18Z</time>
      </trkpt>
      <trkpt lat="45.90119" lon="6.17367">
        <ele>1072</ele>
        <time>2010-07-18 12:09:22Z</time>
      </trkpt>
      <trkpt lat="45.90119" lon="6.17367">
        <ele>1072</ele>
        <time>2010-07-18 12:09:26Z</time>
      </trkpt>
      <trkpt lat="45.9012" lon="6.17367">
        <ele>1071</ele>
        <time>2010-07-18 12:09:30Z</time>
      </trkpt>
      <trkpt lat="45.9012" lon="6.17367">
        <ele>1069</ele>
        <time>2010-07-18 12:09:34Z</time>
      </trkpt>
      <trkpt lat="45.9012" lon="6.17367">
        <ele>1069</ele>
        <time>2010-07-18 12:09:38Z</time>
      </trkpt>
      <trkpt lat="45.9012" lon="6.17367">
        <ele>1069</ele>
        <time>2010-07-18 12:09:42Z</time>
      </trkpt>
      <trkpt lat="45.9012" lon="6.17366">
        <ele>1069</ele>
        <time>2010-07-18 12:09:46Z</time>
      </trkpt>
      <trkpt lat="45.9012" lon="6.17365">
        <ele>1068</ele>
        <time>2010-07-18 12:09:50Z</time>
      </trkpt>
      <trkpt lat="45.90119" lon="6.17366">
        <ele>1066</ele>
        <time>2010-07-18 12:09:54Z</time>
      </trkpt>
      <trkpt lat="45.90116" lon="6.17366">
        <ele>1064</ele>
        <time>2010-07-18 12:09:58Z</time>
      </trkpt>
      <trkpt lat="45.90112" lon="6.17366">
        <ele>1064</ele>
        <time>2010-07-18 12:10:02Z</time>
      </trkpt>
      <trkpt lat="45.90111" lon="6.17365">
        <ele>1065</ele>
        <time>2010-07-18 12:10:06Z</time>
      </trkpt>
      <trkpt lat="45.9011" lon="6.1736">
        <ele>1067</ele>
        <time>2010-07-18 12:10:10Z</time>
      </trkpt>
      <trkpt lat="45.90111" lon="6.17356">
        <ele>1067</ele>
        <time>2010-07-18 12:10:14Z</time>
      </trkpt>
      <trkpt lat="45.90111" lon="6.17351">
        <ele>1064</ele>
        <time>2010-07-18 12:10:18Z</time>
      </trkpt>
      <trkpt lat="45.90111" lon="6.17347">
        <ele>1064</ele>
        <time>2010-07-18 12:10:22Z</time>
      </trkpt>
      <trkpt lat="45.90111" lon="6.17344">
        <ele>1064</ele>
        <time>2010-07-18 12:10:26Z</time>
      </trkpt>
      <trkpt lat="45.90111" lon="6.17339">
        <ele>1063</ele>
        <time>2010-07-18 12:10:30Z</time>
      </trkpt>
      <trkpt lat="45.90111" lon="6.17333">
        <ele>1062</ele>
        <time>2010-07-18 12:10:34Z</time>
      </trkpt>
      <trkpt lat="45.9011" lon="6.17328">
        <ele>1060</ele>
        <time>2010-07-18 12:10:38Z</time>
      </trkpt>
      <trkpt lat="45.90108" lon="6.17323">
        <ele>1058</ele>
        <time>2010-07-18 12:10:42Z</time>
      </trkpt>
      <trkpt lat="45.90107" lon="6.17322">
        <ele>1057</ele>
        <time>2010-07-18 12:10:46Z</time>
      </trkpt>
      <trkpt lat="45.90104" lon="6.1732">
        <ele>1054</ele>
        <time>2010-07-18 12:10:50Z</time>
      </trkpt>
      <trkpt lat="45.90098" lon="6.17321">
        <ele>1050</ele>
        <time>2010-07-18 12:10:54Z</time>
      </trkpt>
      <trkpt lat="45.90088" lon="6.17326">
        <ele>1045</ele>
        <time>2010-07-18 12:10:58Z</time>
      </trkpt>
      <trkpt lat="45.90082" lon="6.17331">
        <ele>1041</ele>
        <time>2010-07-18 12:11:02Z</time>
      </trkpt>
      <trkpt lat="45.90073" lon="6.17338">
        <ele>1040</ele>
        <time>2010-07-18 12:11:06Z</time>
      </trkpt>
      <trkpt lat="45.90066" lon="6.17341">
        <ele>1041</ele>
        <time>2010-07-18 12:11:10Z</time>
      </trkpt>
      <trkpt lat="45.90061" lon="6.1734">
        <ele>1040</ele>
        <time>2010-07-18 12:11:14Z</time>
      </trkpt>
      <trkpt lat="45.90056" lon="6.17341">
        <ele>1038</ele>
        <time>2010-07-18 12:11:18Z</time>
      </trkpt>
      <trkpt lat="45.90053" lon="6.17341">
        <ele>1036</ele>
        <time>2010-07-18 12:11:22Z</time>
      </trkpt>
      <trkpt lat="45.90044" lon="6.17346">
        <ele>1031</ele>
        <time>2010-07-18 12:11:26Z</time>
      </trkpt>
      <trkpt lat="45.90042" lon="6.17348">
        <ele>1030</ele>
        <time>2010-07-18 12:11:30Z</time>
      </trkpt>
      <trkpt lat="45.90033" lon="6.1736">
        <ele>1026</ele>
        <time>2010-07-18 12:11:34Z</time>
      </trkpt>
      <trkpt lat="45.90031" lon="6.17362">
        <ele>1026</ele>
        <time>2010-07-18 12:11:38Z</time>
      </trkpt>
      <trkpt lat="45.90027" lon="6.17366">
        <ele>1025</ele>
        <time>2010-07-18 12:11:42Z</time>
      </trkpt>
      <trkpt lat="45.90024" lon="6.17368">
        <ele>1024</ele>
        <time>2010-07-18 12:11:46Z</time>
      </trkpt>
      <trkpt lat="45.90019" lon="6.17371">
        <ele>1022</ele>
        <time>2010-07-18 12:11:50Z</time>
      </trkpt>
      <trkpt lat="45.90017" lon="6.17372">
        <ele>1021</ele>
        <time>2010-07-18 12:11:54Z</time>
      </trkpt>
      <trkpt lat="45.90017" lon="6.17372">
        <ele>1021</ele>
        <time>2010-07-18 12:11:58Z</time>
      </trkpt>
      <trkpt lat="45.90012" lon="6.17373">
        <ele>1022</ele>
        <time>2010-07-18 12:12:02Z</time>
      </trkpt>
      <trkpt lat="45.90007" lon="6.17373">
        <ele>1022</ele>
        <time>2010-07-18 12:12:06Z</time>
      </trkpt>
      <trkpt lat="45.90002" lon="6.17373">
        <ele>1021</ele>
        <time>2010-07-18 12:12:10Z</time>
      </trkpt>
      <trkpt lat="45.89995" lon="6.17374">
        <ele>1020</ele>
        <time>2010-07-18 12:12:14Z</time>
      </trkpt>
      <trkpt lat="45.89987" lon="6.17375">
        <ele>1018</ele>
        <time>2010-07-18 12:12:18Z</time>
      </trkpt>
      <trkpt lat="45.8998" lon="6.17378">
        <ele>1015</ele>
        <time>2010-07-18 12:12:22Z</time>
      </trkpt>
      <trkpt lat="45.89967" lon="6.17383">
        <ele>1010</ele>
        <time>2010-07-18 12:12:26Z</time>
      </trkpt>
      <trkpt lat="45.89959" lon="6.17384">
        <ele>1007</ele>
        <time>2010-07-18 12:12:30Z</time>
      </trkpt>
      <trkpt lat="45.89949" lon="6.17385">
        <ele>999</ele>
        <time>2010-07-18 12:12:34Z</time>
      </trkpt>
      <trkpt lat="45.89943" lon="6.17386">
        <ele>997</ele>
        <time>2010-07-18 12:12:38Z</time>
      </trkpt>
      <trkpt lat="45.89941" lon="6.17386">
        <ele>996</ele>
        <time>2010-07-18 12:12:42Z</time>
      </trkpt>
      <trkpt lat="45.89931" lon="6.17386">
        <ele>994</ele>
        <time>2010-07-18 12:12:46Z</time>
      </trkpt>
      <trkpt lat="45.89927" lon="6.17384">
        <ele>992</ele>
        <time>2010-07-18 12:12:50Z</time>
      </trkpt>
      <trkpt lat="45.89919" lon="6.17385">
        <ele>990</ele>
        <time>2010-07-18 12:12:54Z</time>
      </trkpt>
      <trkpt lat="45.89897" lon="6.17386">
        <ele>985</ele>
        <time>2010-07-18 12:12:58Z</time>
      </trkpt>
      <trkpt lat="45.89883" lon="6.17386">
        <ele>982</ele>
        <time>2010-07-18 12:13:02Z</time>
      </trkpt>
      <trkpt lat="45.89866" lon="6.17388">
        <ele>975</ele>
        <time>2010-07-18 12:13:06Z</time>
      </trkpt>
      <trkpt lat="45.89853" lon="6.17392">
        <ele>972</ele>
        <time>2010-07-18 12:13:10Z</time>
      </trkpt>
      <trkpt lat="45.89853" lon="6.17392">
        <ele>972</ele>
        <time>2010-07-18 12:13:14Z</time>
      </trkpt>
      <trkpt lat="45.89835" lon="6.17406">
        <ele>966</ele>
        <time>2010-07-18 12:13:18Z</time>
      </trkpt>
      <trkpt lat="45.8983" lon="6.17412">
        <ele>966</ele>
        <time>2010-07-18 12:13:22Z</time>
      </trkpt>
      <trkpt lat="45.89825" lon="6.17422">
        <ele>966</ele>
        <time>2010-07-18 12:13:26Z</time>
      </trkpt>
      <trkpt lat="45.89822" lon="6.17429">
        <ele>966</ele>
        <time>2010-07-18 12:13:30Z</time>
      </trkpt>
      <trkpt lat="45.89816" lon="6.17442">
        <ele>967</ele>
        <time>2010-07-18 12:13:34Z</time>
      </trkpt>
      <trkpt lat="45.89814" lon="6.17451">
        <ele>966</ele>
        <time>2010-07-18 12:13:38Z</time>
      </trkpt>
      <trkpt lat="45.89811" lon="6.1746">
        <ele>967</ele>
        <time>2010-07-18 12:13:42Z</time>
      </trkpt>
      <trkpt lat="45.89811" lon="6.17462">
        <ele>967</ele>
        <time>2010-07-18 12:13:46Z</time>
      </trkpt>
      <trkpt lat="45.89808" lon="6.17475">
        <ele>967</ele>
        <time>2010-07-18 12:13:50Z</time>
      </trkpt>
      <trkpt lat="45.89807" lon="6.17486">
        <ele>967</ele>
        <time>2010-07-18 12:13:54Z</time>
      </trkpt>
      <trkpt lat="45.89807" lon="6.17486">
        <ele>967</ele>
        <time>2010-07-18 12:13:58Z</time>
      </trkpt>
      <trkpt lat="45.89807" lon="6.17486">
        <ele>967</ele>
        <time>2010-07-18 12:14:02Z</time>
      </trkpt>
      <trkpt lat="45.89807" lon="6.17508">
        <ele>966</ele>
        <time>2010-07-18 12:14:06Z</time>
      </trkpt>
      <trkpt lat="45.89808" lon="6.17518">
        <ele>966</ele>
        <time>2010-07-18 12:14:10Z</time>
      </trkpt>
      <trkpt lat="45.89808" lon="6.17518">
        <ele>966</ele>
        <time>2010-07-18 12:14:14Z</time>
      </trkpt>
      <trkpt lat="45.89808" lon="6.17537">
        <ele>966</ele>
        <time>2010-07-18 12:14:18Z</time>
      </trkpt>
      <trkpt lat="45.89808" lon="6.17546">
        <ele>966</ele>
        <time>2010-07-18 12:14:22Z</time>
      </trkpt>
      <trkpt lat="45.89807" lon="6.17553">
        <ele>966</ele>
        <time>2010-07-18 12:14:26Z</time>
      </trkpt>
      <trkpt lat="45.89807" lon="6.17553">
        <ele>966</ele>
        <time>2010-07-18 12:14:30Z</time>
      </trkpt>
      <trkpt lat="45.89805" lon="6.1757">
        <ele>967</ele>
        <time>2010-07-18 12:14:34Z</time>
      </trkpt>
      <trkpt lat="45.89803" lon="6.17578">
        <ele>966</ele>
        <time>2010-07-18 12:14:38Z</time>
      </trkpt>
      <trkpt lat="45.89801" lon="6.17586">
        <ele>964</ele>
        <time>2010-07-18 12:14:42Z</time>
      </trkpt>
      <trkpt lat="45.89801" lon="6.17597">
        <ele>961</ele>
        <time>2010-07-18 12:14:46Z</time>
      </trkpt>
      <trkpt lat="45.89801" lon="6.17599">
        <ele>961</ele>
        <time>2010-07-18 12:14:50Z</time>
      </trkpt>
      <trkpt lat="45.89803" lon="6.17616">
        <ele>958</ele>
        <time>2010-07-18 12:14:54Z</time>
      </trkpt>
      <trkpt lat="45.89803" lon="6.17616">
        <ele>958</ele>
        <time>2010-07-18 12:14:58Z</time>
      </trkpt>
      <trkpt lat="45.89806" lon="6.17637">
        <ele>957</ele>
        <time>2010-07-18 12:15:02Z</time>
      </trkpt>
      <trkpt lat="45.89806" lon="6.17649">
        <ele>956</ele>
        <time>2010-07-18 12:15:06Z</time>
      </trkpt>
      <trkpt lat="45.89806" lon="6.17651">
        <ele>955</ele>
        <time>2010-07-18 12:15:10Z</time>
      </trkpt>
      <trkpt lat="45.89806" lon="6.17651">
        <ele>955</ele>
        <time>2010-07-18 12:15:14Z</time>
      </trkpt>
      <trkpt lat="45.89805" lon="6.17665">
        <ele>953</ele>
        <time>2010-07-18 12:15:18Z</time>
      </trkpt>
      <trkpt lat="45.89804" lon="6.1767">
        <ele>953</ele>
        <time>2010-07-18 12:15:22Z</time>
      </trkpt>
      <trkpt lat="45.89804" lon="6.17676">
        <ele>951</ele>
        <time>2010-07-18 12:15:26Z</time>
      </trkpt>
      <trkpt lat="45.89803" lon="6.17681">
        <ele>950</ele>
        <time>2010-07-18 12:15:30Z</time>
      </trkpt>
      <trkpt lat="45.89802" lon="6.17684">
        <ele>948</ele>
        <time>2010-07-18 12:15:34Z</time>
      </trkpt>
      <trkpt lat="45.898" lon="6.17689">
        <ele>943</ele>
        <time>2010-07-18 12:15:38Z</time>
      </trkpt>
      <trkpt lat="45.898" lon="6.1769">
        <ele>942</ele>
        <time>2010-07-18 12:15:42Z</time>
      </trkpt>
      <trkpt lat="45.89796" lon="6.17697">
        <ele>938</ele>
        <time>2010-07-18 12:15:46Z</time>
      </trkpt>
      <trkpt lat="45.89795" lon="6.17699">
        <ele>936</ele>
        <time>2010-07-18 12:15:50Z</time>
      </trkpt>
      <trkpt lat="45.89795" lon="6.17702">
        <ele>935</ele>
        <time>2010-07-18 12:15:54Z</time>
      </trkpt>
      <trkpt lat="45.89795" lon="6.17702">
        <ele>935</ele>
        <time>2010-07-18 12:15:58Z</time>
      </trkpt>
      <trkpt lat="45.89789" lon="6.17723">
        <ele>929</ele>
        <time>2010-07-18 12:16:02Z</time>
      </trkpt>
      <trkpt lat="45.89786" lon="6.17725">
        <ele>929</ele>
        <time>2010-07-18 12:16:06Z</time>
      </trkpt>
      <trkpt lat="45.8978" lon="6.17723">
        <ele>927</ele>
        <time>2010-07-18 12:16:10Z</time>
      </trkpt>
      <trkpt lat="45.89774" lon="6.17714">
        <ele>926</ele>
        <time>2010-07-18 12:16:14Z</time>
      </trkpt>
      <trkpt lat="45.8977" lon="6.17709">
        <ele>925</ele>
        <time>2010-07-18 12:16:18Z</time>
      </trkpt>
      <trkpt lat="45.89759" lon="6.177">
        <ele>917</ele>
        <time>2010-07-18 12:16:22Z</time>
      </trkpt>
      <trkpt lat="45.89758" lon="6.17699">
        <ele>916</ele>
        <time>2010-07-18 12:16:26Z</time>
      </trkpt>
      <trkpt lat="45.89747" lon="6.17692">
        <ele>908</ele>
        <time>2010-07-18 12:16:30Z</time>
      </trkpt>
      <trkpt lat="45.89739" lon="6.17688">
        <ele>903</ele>
        <time>2010-07-18 12:16:34Z</time>
      </trkpt>
      <trkpt lat="45.89734" lon="6.17686">
        <ele>901</ele>
        <time>2010-07-18 12:16:38Z</time>
      </trkpt>
      <trkpt lat="45.89729" lon="6.17684">
        <ele>898</ele>
        <time>2010-07-18 12:16:42Z</time>
      </trkpt>
      <trkpt lat="45.89721" lon="6.17683">
        <ele>896</ele>
        <time>2010-07-18 12:16:46Z</time>
      </trkpt>
      <trkpt lat="45.89717" lon="6.17681">
        <ele>894</ele>
        <time>2010-07-18 12:16:50Z</time>
      </trkpt>
      <trkpt lat="45.89709" lon="6.17681">
        <ele>888</ele>
        <time>2010-07-18 12:16:54Z</time>
      </trkpt>
      <trkpt lat="45.89705" lon="6.17682">
        <ele>885</ele>
        <time>2010-07-18 12:16:58Z</time>
      </trkpt>
      <trkpt lat="45.89685" lon="6.17688">
        <ele>879</ele>
        <time>2010-07-18 12:17:02Z</time>
      </trkpt>
      <trkpt lat="45.89673" lon="6.17696">
        <ele>877</ele>
        <time>2010-07-18 12:17:06Z</time>
      </trkpt>
      <trkpt lat="45.8966" lon="6.17707">
        <ele>874</ele>
        <time>2010-07-18 12:17:10Z</time>
      </trkpt>
      <trkpt lat="45.8965" lon="6.17715">
        <ele>872</ele>
        <time>2010-07-18 12:17:14Z</time>
      </trkpt>
      <trkpt lat="45.89643" lon="6.17721">
        <ele>870</ele>
        <time>2010-07-18 12:17:18Z</time>
      </trkpt>
      <trkpt lat="45.89634" lon="6.17726">
        <ele>869</ele>
        <time>2010-07-18 12:17:22Z</time>
      </trkpt>
      <trkpt lat="45.89626" lon="6.17731">
        <ele>868</ele>
        <time>2010-07-18 12:17:26Z</time>
      </trkpt>
      <trkpt lat="45.89618" lon="6.17737">
        <ele>867</ele>
        <time>2010-07-18 12:17:30Z</time>
      </trkpt>
      <trkpt lat="45.89613" lon="6.17741">
        <ele>867</ele>
        <time>2010-07-18 12:17:34Z</time>
      </trkpt>
      <trkpt lat="45.89612" lon="6.17742">
        <ele>867</ele>
        <time>2010-07-18 12:17:38Z</time>
      </trkpt>
      <trkpt lat="45.89604" lon="6.17749">
        <ele>868</ele>
        <time>2010-07-18 12:17:42Z</time>
      </trkpt>
      <trkpt lat="45.89599" lon="6.17757">
        <ele>867</ele>
        <time>2010-07-18 12:17:46Z</time>
      </trkpt>
      <trkpt lat="45.89595" lon="6.17764">
        <ele>865</ele>
        <time>2010-07-18 12:17:50Z</time>
      </trkpt>
      <trkpt lat="45.89591" lon="6.17772">
        <ele>864</ele>
        <time>2010-07-18 12:17:54Z</time>
      </trkpt>
      <trkpt lat="45.89591" lon="6.17773">
        <ele>864</ele>
        <time>2010-07-18 12:17:58Z</time>
      </trkpt>
      <trkpt lat="45.89585" lon="6.17781">
        <ele>862</ele>
        <time>2010-07-18 12:18:02Z</time>
      </trkpt>
      <trkpt lat="45.89581" lon="6.17788">
        <ele>860</ele>
        <time>2010-07-18 12:18:06Z</time>
      </trkpt>
      <trkpt lat="45.89579" lon="6.17793">
        <ele>858</ele>
        <time>2010-07-18 12:18:10Z</time>
      </trkpt>
      <trkpt lat="45.89571" lon="6.17804">
        <ele>855</ele>
        <time>2010-07-18 12:18:14Z</time>
      </trkpt>
      <trkpt lat="45.8957" lon="6.17808">
        <ele>854</ele>
        <time>2010-07-18 12:18:18Z</time>
      </trkpt>
      <trkpt lat="45.89566" lon="6.17814">
        <ele>850</ele>
        <time>2010-07-18 12:18:22Z</time>
      </trkpt>
      <trkpt lat="45.89563" lon="6.17819">
        <ele>846</ele>
        <time>2010-07-18 12:18:26Z</time>
      </trkpt>
      <trkpt lat="45.89562" lon="6.17824">
        <ele>845</ele>
        <time>2010-07-18 12:18:30Z</time>
      </trkpt>
      <trkpt lat="45.89562" lon="6.17824">
        <ele>845</ele>
        <time>2010-07-18 12:18:34Z</time>
      </trkpt>
      <trkpt lat="45.89558" lon="6.17832">
        <ele>844</ele>
        <time>2010-07-18 12:18:38Z</time>
      </trkpt>
      <trkpt lat="45.89553" lon="6.17836">
        <ele>845</ele>
        <time>2010-07-18 12:18:42Z</time>
      </trkpt>
      <trkpt lat="45.89543" lon="6.17837">
        <ele>844</ele>
        <time>2010-07-18 12:18:46Z</time>
      </trkpt>
      <trkpt lat="45.89543" lon="6.17837">
        <ele>844</ele>
        <time>2010-07-18 12:18:50Z</time>
      </trkpt>
      <trkpt lat="45.89531" lon="6.17835">
        <ele>843</ele>
        <time>2010-07-18 12:18:54Z</time>
      </trkpt>
      <trkpt lat="45.89531" lon="6.17835">
        <ele>843</ele>
        <time>2010-07-18 12:18:58Z</time>
      </trkpt>
      <trkpt lat="45.89531" lon="6.17835">
        <ele>843</ele>
        <time>2010-07-18 12:19:02Z</time>
      </trkpt>
      <trkpt lat="45.89507" lon="6.17818">
        <ele>839</ele>
        <time>2010-07-18 12:19:06Z</time>
      </trkpt>
      <trkpt lat="45.89507" lon="6.17818">
        <ele>839</ele>
        <time>2010-07-18 12:19:10Z</time>
      </trkpt>
      <trkpt lat="45.89481" lon="6.17798">
        <ele>834</ele>
        <time>2010-07-18 12:19:14Z</time>
      </trkpt>
      <trkpt lat="45.89469" lon="6.17791">
        <ele>833</ele>
        <time>2010-07-18 12:19:18Z</time>
      </trkpt>
      <trkpt lat="45.89457" lon="6.17781">
        <ele>831</ele>
        <time>2010-07-18 12:19:22Z</time>
      </trkpt>
      <trkpt lat="45.89448" lon="6.17774">
        <ele>828</ele>
        <time>2010-07-18 12:19:26Z</time>
      </trkpt>
      <trkpt lat="45.89444" lon="6.17769">
        <ele>821</ele>
        <time>2010-07-18 12:19:30Z</time>
      </trkpt>
      <trkpt lat="45.8944" lon="6.17766">
        <ele>814</ele>
        <time>2010-07-18 12:19:34Z</time>
      </trkpt>
      <trkpt lat="45.89438" lon="6.17763">
        <ele>810</ele>
        <time>2010-07-18 12:19:38Z</time>
      </trkpt>
      <trkpt lat="45.89435" lon="6.17762">
        <ele>809</ele>
        <time>2010-07-18 12:19:42Z</time>
      </trkpt>
      <trkpt lat="45.89434" lon="6.17762">
        <ele>806</ele>
        <time>2010-07-18 12:19:46Z</time>
      </trkpt>
      <trkpt lat="45.89431" lon="6.17761">
        <ele>801</ele>
        <time>2010-07-18 12:19:50Z</time>
      </trkpt>
      <trkpt lat="45.8943" lon="6.17761">
        <ele>799</ele>
        <time>2010-07-18 12:19:54Z</time>
      </trkpt>
      <trkpt lat="45.89432" lon="6.17759">
        <ele>801</ele>
        <time>2010-07-18 12:19:58Z</time>
      </trkpt>
      <trkpt lat="45.89436" lon="6.17757">
        <ele>802</ele>
        <time>2010-07-18 12:20:02Z</time>
      </trkpt>
      <trkpt lat="45.89436" lon="6.17757">
        <ele>802</ele>
        <time>2010-07-18 12:20:06Z</time>
      </trkpt>
      <trkpt lat="45.89441" lon="6.17756">
        <ele>803</ele>
        <time>2010-07-18 12:20:10Z</time>
      </trkpt>
      <trkpt lat="45.89444" lon="6.17755">
        <ele>804</ele>
        <time>2010-07-18 12:20:14Z</time>
      </trkpt>
      <trkpt lat="45.89447" lon="6.17755">
        <ele>805</ele>
        <time>2010-07-18 12:20:18Z</time>
      </trkpt>
      <trkpt lat="45.89447" lon="6.17755">
        <ele>805</ele>
        <time>2010-07-18 12:20:22Z</time>
      </trkpt>
      <trkpt lat="45.89447" lon="6.17755">
        <ele>805</ele>
        <time>2010-07-18 12:20:26Z</time>
      </trkpt>
      <trkpt lat="45.89447" lon="6.17755">
        <ele>805</ele>
        <time>2010-07-18 12:20:30Z</time>
      </trkpt>
      <trkpt lat="45.89457" lon="6.1776">
        <ele>808</ele>
        <time>2010-07-18 12:20:34Z</time>
      </trkpt>
      <trkpt lat="45.89459" lon="6.17757">
        <ele>811</ele>
        <time>2010-07-18 12:20:38Z</time>
      </trkpt>
      <trkpt lat="45.89459" lon="6.1775">
        <ele>812</ele>
        <time>2010-07-18 12:20:42Z</time>
      </trkpt>
      <trkpt lat="45.8946" lon="6.17745">
        <ele>813</ele>
        <time>2010-07-18 12:20:46Z</time>
      </trkpt>
      <trkpt lat="45.8946" lon="6.17744">
        <ele>813</ele>
        <time>2010-07-18 12:20:50Z</time>
      </trkpt>
      <trkpt lat="45.8946" lon="6.1774">
        <ele>813</ele>
        <time>2010-07-18 12:20:54Z</time>
      </trkpt>
      <trkpt lat="45.8946" lon="6.1774">
        <ele>813</ele>
        <time>2010-07-18 12:20:58Z</time>
      </trkpt>
      <trkpt lat="45.8946" lon="6.1774">
        <ele>813</ele>
        <time>2010-07-18 12:21:02Z</time>
      </trkpt>
      <trkpt lat="45.89462" lon="6.17721">
        <ele>809</ele>
        <time>2010-07-18 12:21:06Z</time>
      </trkpt>
      <trkpt lat="45.89462" lon="6.17714">
        <ele>807</ele>
        <time>2010-07-18 12:21:10Z</time>
      </trkpt>
      <trkpt lat="45.89463" lon="6.17705">
        <ele>806</ele>
        <time>2010-07-18 12:21:14Z</time>
      </trkpt>
      <trkpt lat="45.89465" lon="6.17692">
        <ele>803</ele>
        <time>2010-07-18 12:21:18Z</time>
      </trkpt>
      <trkpt lat="45.89467" lon="6.17673">
        <ele>800</ele>
        <time>2010-07-18 12:21:22Z</time>
      </trkpt>
      <trkpt lat="45.89469" lon="6.17653">
        <ele>796</ele>
        <time>2010-07-18 12:21:26Z</time>
      </trkpt>
      <trkpt lat="45.8947" lon="6.17635">
        <ele>793</ele>
        <time>2010-07-18 12:21:30Z</time>
      </trkpt>
      <trkpt lat="45.89472" lon="6.17623">
        <ele>792</ele>
        <time>2010-07-18 12:21:34Z</time>
      </trkpt>
      <trkpt lat="45.89475" lon="6.17611">
        <ele>791</ele>
        <time>2010-07-18 12:21:38Z</time>
      </trkpt>
      <trkpt lat="45.89476" lon="6.1761">
        <ele>790</ele>
        <time>2010-07-18 12:21:42Z</time>
      </trkpt>
      <trkpt lat="45.89481" lon="6.17598">
        <ele>788</ele>
        <time>2010-07-18 12:21:46Z</time>
      </trkpt>
      <trkpt lat="45.89486" lon="6.17592">
        <ele>787</ele>
        <time>2010-07-18 12:21:50Z</time>
      </trkpt>
      <trkpt lat="45.8949" lon="6.17586">
        <ele>786</ele>
        <time>2010-07-18 12:21:54Z</time>
      </trkpt>
      <trkpt lat="45.89494" lon="6.1758">
        <ele>785</ele>
        <time>2010-07-18 12:21:58Z</time>
      </trkpt>
      <trkpt lat="45.89499" lon="6.17574">
        <ele>785</ele>
        <time>2010-07-18 12:22:02Z</time>
      </trkpt>
      <trkpt lat="45.89506" lon="6.17567">
        <ele>785</ele>
        <time>2010-07-18 12:22:06Z</time>
      </trkpt>
      <trkpt lat="45.8951" lon="6.17562">
        <ele>785</ele>
        <time>2010-07-18 12:22:10Z</time>
      </trkpt>
      <trkpt lat="45.89516" lon="6.17559">
        <ele>784</ele>
        <time>2010-07-18 12:22:14Z</time>
      </trkpt>
      <trkpt lat="45.89521" lon="6.17556">
        <ele>783</ele>
        <time>2010-07-18 12:22:18Z</time>
      </trkpt>
      <trkpt lat="45.89527" lon="6.17554">
        <ele>783</ele>
        <time>2010-07-18 12:22:22Z</time>
      </trkpt>
      <trkpt lat="45.89531" lon="6.17553">
        <ele>785</ele>
        <time>2010-07-18 12:22:26Z</time>
      </trkpt>
      <trkpt lat="45.89536" lon="6.17552">
        <ele>786</ele>
        <time>2010-07-18 12:22:30Z</time>
      </trkpt>
      <trkpt lat="45.89541" lon="6.1755">
        <ele>789</ele>
        <time>2010-07-18 12:22:34Z</time>
      </trkpt>
      <trkpt lat="45.89544" lon="6.17549">
        <ele>790</ele>
        <time>2010-07-18 12:22:38Z</time>
      </trkpt>
      <trkpt lat="45.89548" lon="6.17547">
        <ele>791</ele>
        <time>2010-07-18 12:22:42Z</time>
      </trkpt>
      <trkpt lat="45.89552" lon="6.17544">
        <ele>792</ele>
        <time>2010-07-18 12:22:46Z</time>
      </trkpt>
      <trkpt lat="45.89556" lon="6.17542">
        <ele>794</ele>
        <time>2010-07-18 12:22:50Z</time>
      </trkpt>
      <trkpt lat="45.89561" lon="6.1754">
        <ele>795</ele>
        <time>2010-07-18 12:22:54Z</time>
      </trkpt>
      <trkpt lat="45.89564" lon="6.17539">
        <ele>796</ele>
        <time>2010-07-18 12:22:58Z</time>
      </trkpt>
      <trkpt lat="45.89568" lon="6.17539">
        <ele>798</ele>
        <time>2010-07-18 12:23:02Z</time>
      </trkpt>
      <trkpt lat="45.89571" lon="6.17539">
        <ele>801</ele>
        <time>2010-07-18 12:23:06Z</time>
      </trkpt>
      <trkpt lat="45.89574" lon="6.17539">
        <ele>802</ele>
        <time>2010-07-18 12:23:10Z</time>
      </trkpt>
      <trkpt lat="45.89578" lon="6.17539">
        <ele>805</ele>
        <time>2010-07-18 12:23:14Z</time>
      </trkpt>
      <trkpt lat="45.89582" lon="6.17538">
        <ele>808</ele>
        <time>2010-07-18 12:23:18Z</time>
      </trkpt>
      <trkpt lat="45.89586" lon="6.17536">
        <ele>810</ele>
        <time>2010-07-18 12:23:22Z</time>
      </trkpt>
      <trkpt lat="45.89591" lon="6.17533">
        <ele>813</ele>
        <time>2010-07-18 12:23:26Z</time>
      </trkpt>
      <trkpt lat="45.89594" lon="6.17532">
        <ele>814</ele>
        <time>2010-07-18 12:23:30Z</time>
      </trkpt>
      <trkpt lat="45.89598" lon="6.1753">
        <ele>814</ele>
        <time>2010-07-18 12:23:34Z</time>
      </trkpt>
      <trkpt lat="45.89601" lon="6.17531">
        <ele>814</ele>
        <time>2010-07-18 12:23:38Z</time>
      </trkpt>
      <trkpt lat="45.89601" lon="6.17531">
        <ele>814</ele>
        <time>2010-07-18 12:23:42Z</time>
      </trkpt>
      <trkpt lat="45.89604" lon="6.17534">
        <ele>814</ele>
        <time>2010-07-18 12:23:46Z</time>
      </trkpt>
      <trkpt lat="45.89607" lon="6.17535">
        <ele>814</ele>
        <time>2010-07-18 12:23:50Z</time>
      </trkpt>
      <trkpt lat="45.89608" lon="6.17536">
        <ele>816</ele>
        <time>2010-07-18 12:23:54Z</time>
      </trkpt>
      <trkpt lat="45.89609" lon="6.17536">
        <ele>816</ele>
        <time>2010-07-18 12:23:58Z</time>
      </trkpt>
      <trkpt lat="45.89609" lon="6.17536">
        <ele>816</ele>
        <time>2010-07-18 12:24:02Z</time>
      </trkpt>
      <trkpt lat="45.8961" lon="6.17538">
        <ele>815</ele>
        <time>2010-07-18 12:24:06Z</time>
      </trkpt>
      <trkpt lat="45.89612" lon="6.1754">
        <ele>815</ele>
        <time>2010-07-18 12:24:10Z</time>
      </trkpt>
      <trkpt lat="45.89612" lon="6.1754">
        <ele>815</ele>
        <time>2010-07-18 12:24:14Z</time>
      </trkpt>
      <trkpt lat="45.89612" lon="6.1754">
        <ele>815</ele>
        <time>2010-07-18 12:24:18Z</time>
      </trkpt>
      <trkpt lat="45.89612" lon="6.1754">
        <ele>815</ele>
        <time>2010-07-18 12:24:22Z</time>
      </trkpt>
      <trkpt lat="45.89612" lon="6.1754">
        <ele>815</ele>
        <time>2010-07-18 12:24:26Z</time>
      </trkpt>
      <trkpt lat="45.89617" lon="6.1753">
        <ele>817</ele>
        <time>2010-07-18 12:24:30Z</time>
      </trkpt>
      <trkpt lat="45.89617" lon="6.17528">
        <ele>817</ele>
        <time>2010-07-18 12:24:34Z</time>
      </trkpt>
      <trkpt lat="45.89617" lon="6.17528">
        <ele>817</ele>
        <time>2010-07-18 12:24:38Z</time>
      </trkpt>
      <trkpt lat="45.89618" lon="6.17518">
        <ele>816</ele>
        <time>2010-07-18 12:24:42Z</time>
      </trkpt>
      <trkpt lat="45.89618" lon="6.17508">
        <ele>815</ele>
        <time>2010-07-18 12:24:46Z</time>
      </trkpt>
      <trkpt lat="45.89618" lon="6.17508">
        <ele>815</ele>
        <time>2010-07-18 12:24:50Z</time>
      </trkpt>
      <trkpt lat="45.89614" lon="6.17502">
        <ele>812</ele>
        <time>2010-07-18 12:24:54Z</time>
      </trkpt>
      <trkpt lat="45.89608" lon="6.17498">
        <ele>809</ele>
        <time>2010-07-18 12:24:58Z</time>
      </trkpt>
      <trkpt lat="45.89608" lon="6.17498">
        <ele>809</ele>
        <time>2010-07-18 12:25:02Z</time>
      </trkpt>
      <trkpt lat="45.89599" lon="6.17491">
        <ele>810</ele>
        <time>2010-07-18 12:25:06Z</time>
      </trkpt>
      <trkpt lat="45.89595" lon="6.17487">
        <ele>809</ele>
        <time>2010-07-18 12:25:10Z</time>
      </trkpt>
      <trkpt lat="45.89592" lon="6.17484">
        <ele>809</ele>
        <time>2010-07-18 12:25:14Z</time>
      </trkpt>
      <trkpt lat="45.89588" lon="6.17479">
        <ele>809</ele>
        <time>2010-07-18 12:25:18Z</time>
      </trkpt>
      <trkpt lat="45.89582" lon="6.17473">
        <ele>811</ele>
        <time>2010-07-18 12:25:22Z</time>
      </trkpt>
      <trkpt lat="45.89577" lon="6.17467">
        <ele>812</ele>
        <time>2010-07-18 12:25:26Z</time>
      </trkpt>
      <trkpt lat="45.89574" lon="6.17461">
        <ele>813</ele>
        <time>2010-07-18 12:25:30Z</time>
      </trkpt>
      <trkpt lat="45.89573" lon="6.17459">
        <ele>812</ele>
        <time>2010-07-18 12:25:34Z</time>
      </trkpt>
      <trkpt lat="45.8957" lon="6.17452">
        <ele>812</ele>
        <time>2010-07-18 12:25:38Z</time>
      </trkpt>
      <trkpt lat="45.89566" lon="6.17442">
        <ele>807</ele>
        <time>2010-07-18 12:25:42Z</time>
      </trkpt>
      <trkpt lat="45.89563" lon="6.17427">
        <ele>804</ele>
        <time>2010-07-18 12:25:46Z</time>
      </trkpt>
      <trkpt lat="45.8956" lon="6.17414">
        <ele>804</ele>
        <time>2010-07-18 12:25:50Z</time>
      </trkpt>
      <trkpt lat="45.89557" lon="6.17402">
        <ele>802</ele>
        <time>2010-07-18 12:25:54Z</time>
      </trkpt>
      <trkpt lat="45.89555" lon="6.17383">
        <ele>799</ele>
        <time>2010-07-18 12:25:58Z</time>
      </trkpt>
      <trkpt lat="45.89554" lon="6.17371">
        <ele>799</ele>
        <time>2010-07-18 12:26:02Z</time>
      </trkpt>
      <trkpt lat="45.89555" lon="6.17357">
        <ele>800</ele>
        <time>2010-07-18 12:26:06Z</time>
      </trkpt>
      <trkpt lat="45.89555" lon="6.17355">
        <ele>800</ele>
        <time>2010-07-18 12:26:10Z</time>
      </trkpt>
      <trkpt lat="45.89558" lon="6.1733">
        <ele>797</ele>
        <time>2010-07-18 12:26:14Z</time>
      </trkpt>
      <trkpt lat="45.8956" lon="6.17314">
        <ele>798</ele>
        <time>2010-07-18 12:26:18Z</time>
      </trkpt>
      <trkpt lat="45.89562" lon="6.17299">
        <ele>799</ele>
        <time>2010-07-18 12:26:22Z</time>
      </trkpt>
      <trkpt lat="45.89563" lon="6.17287">
        <ele>800</ele>
        <time>2010-07-18 12:26:26Z</time>
      </trkpt>
      <trkpt lat="45.89563" lon="6.17277">
        <ele>802</ele>
        <time>2010-07-18 12:26:30Z</time>
      </trkpt>
      <trkpt lat="45.89564" lon="6.17272">
        <ele>804</ele>
        <time>2010-07-18 12:26:34Z</time>
      </trkpt>
      <trkpt lat="45.89565" lon="6.17264">
        <ele>806</ele>
        <time>2010-07-18 12:26:38Z</time>
      </trkpt>
      <trkpt lat="45.89566" lon="6.1726">
        <ele>807</ele>
        <time>2010-07-18 12:26:42Z</time>
      </trkpt>
      <trkpt lat="45.89568" lon="6.17248">
        <ele>806</ele>
        <time>2010-07-18 12:26:46Z</time>
      </trkpt>
      <trkpt lat="45.89577" lon="6.1723">
        <ele>808</ele>
        <time>2010-07-18 12:26:50Z</time>
      </trkpt>
      <trkpt lat="45.89587" lon="6.17216">
        <ele>810</ele>
        <time>2010-07-18 12:26:54Z</time>
      </trkpt>
      <trkpt lat="45.89594" lon="6.17204">
        <ele>811</ele>
        <time>2010-07-18 12:26:58Z</time>
      </trkpt>
      <trkpt lat="45.89599" lon="6.17195">
        <ele>812</ele>
        <time>2010-07-18 12:27:02Z</time>
      </trkpt>
      <trkpt lat="45.89605" lon="6.17184">
        <ele>811</ele>
        <time>2010-07-18 12:27:06Z</time>
      </trkpt>
      <trkpt lat="45.8961" lon="6.17177">
        <ele>813</ele>
        <time>2010-07-18 12:27:10Z</time>
      </trkpt>
      <trkpt lat="45.89613" lon="6.1717">
        <ele>815</ele>
        <time>2010-07-18 12:27:14Z</time>
      </trkpt>
      <trkpt lat="45.89617" lon="6.17165">
        <ele>816</ele>
        <time>2010-07-18 12:27:18Z</time>
      </trkpt>
      <trkpt lat="45.89622" lon="6.17158">
        <ele>819</ele>
        <time>2010-07-18 12:27:22Z</time>
      </trkpt>
      <trkpt lat="45.89626" lon="6.17153">
        <ele>824</ele>
        <time>2010-07-18 12:27:26Z</time>
      </trkpt>
      <trkpt lat="45.89629" lon="6.17146">
        <ele>829</ele>
        <time>2010-07-18 12:27:30Z</time>
      </trkpt>
      <trkpt lat="45.89633" lon="6.17138">
        <ele>832</ele>
        <time>2010-07-18 12:27:34Z</time>
      </trkpt>
      <trkpt lat="45.89639" lon="6.17126">
        <ele>836</ele>
        <time>2010-07-18 12:27:38Z</time>
      </trkpt>
      <trkpt lat="45.89643" lon="6.17118">
        <ele>839</ele>
        <time>2010-07-18 12:27:42Z</time>
      </trkpt>
      <trkpt lat="45.89646" lon="6.17111">
        <ele>840</ele>
        <time>2010-07-18 12:27:46Z</time>
      </trkpt>
      <trkpt lat="45.89653" lon="6.17099">
        <ele>844</ele>
        <time>2010-07-18 12:27:50Z</time>
      </trkpt>
      <trkpt lat="45.89662" lon="6.17082">
        <ele>850</ele>
        <time>2010-07-18 12:27:54Z</time>
      </trkpt>
      <trkpt lat="45.89668" lon="6.17074">
        <ele>851</ele>
        <time>2010-07-18 12:27:58Z</time>
      </trkpt>
      <trkpt lat="45.89676" lon="6.17065">
        <ele>853</ele>
        <time>2010-07-18 12:28:02Z</time>
      </trkpt>
      <trkpt lat="45.89683" lon="6.17057">
        <ele>853</ele>
        <time>2010-07-18 12:28:06Z</time>
      </trkpt>
      <trkpt lat="45.8969" lon="6.17049">
        <ele>853</ele>
        <time>2010-07-18 12:28:10Z</time>
      </trkpt>
      <trkpt lat="45.89696" lon="6.17044">
        <ele>851</ele>
        <time>2010-07-18 12:28:14Z</time>
      </trkpt>
      <trkpt lat="45.89704" lon="6.17036">
        <ele>845</ele>
        <time>2010-07-18 12:28:18Z</time>
      </trkpt>
      <trkpt lat="45.89711" lon="6.17029">
        <ele>842</ele>
        <time>2010-07-18 12:28:22Z</time>
      </trkpt>
      <trkpt lat="45.89715" lon="6.17026">
        <ele>842</ele>
        <time>2010-07-18 12:28:26Z</time>
      </trkpt>
      <trkpt lat="45.89727" lon="6.17017">
        <ele>840</ele>
        <time>2010-07-18 12:28:30Z</time>
      </trkpt>
      <trkpt lat="45.89737" lon="6.17012">
        <ele>840</ele>
        <time>2010-07-18 12:28:34Z</time>
      </trkpt>
      <trkpt lat="45.89744" lon="6.1701">
        <ele>837</ele>
        <time>2010-07-18 12:28:38Z</time>
      </trkpt>
      <trkpt lat="45.89748" lon="6.1701">
        <ele>835</ele>
        <time>2010-07-18 12:28:42Z</time>
      </trkpt>
      <trkpt lat="45.89759" lon="6.17009">
        <ele>832</ele>
        <time>2010-07-18 12:28:46Z</time>
      </trkpt>
      <trkpt lat="45.89772" lon="6.17009">
        <ele>830</ele>
        <time>2010-07-18 12:28:50Z</time>
      </trkpt>
      <trkpt lat="45.89779" lon="6.17006">
        <ele>831</ele>
        <time>2010-07-18 12:28:54Z</time>
      </trkpt>
      <trkpt lat="45.89782" lon="6.17002">
        <ele>832</ele>
        <time>2010-07-18 12:28:58Z</time>
      </trkpt>
      <trkpt lat="45.89786" lon="6.16994">
        <ele>832</ele>
        <time>2010-07-18 12:29:02Z</time>
      </trkpt>
      <trkpt lat="45.89788" lon="6.1699">
        <ele>832</ele>
        <time>2010-07-18 12:29:06Z</time>
      </trkpt>
      <trkpt lat="45.89795" lon="6.1698">
        <ele>828</ele>
        <time>2010-07-18 12:29:10Z</time>
      </trkpt>
      <trkpt lat="45.89795" lon="6.1698">
        <ele>828</ele>
        <time>2010-07-18 12:29:14Z</time>
      </trkpt>
      <trkpt lat="45.89795" lon="6.1698">
        <ele>828</ele>
        <time>2010-07-18 12:29:18Z</time>
      </trkpt>
      <trkpt lat="45.89795" lon="6.1698">
        <ele>828</ele>
        <time>2010-07-18 12:29:22Z</time>
      </trkpt>
      <trkpt lat="45.89811" lon="6.1695">
        <ele>826</ele>
        <time>2010-07-18 12:29:26Z</time>
      </trkpt>
      <trkpt lat="45.89811" lon="6.1695">
        <ele>826</ele>
        <time>2010-07-18 12:29:30Z</time>
      </trkpt>
      <trkpt lat="45.89811" lon="6.16939">
        <ele>822</ele>
        <time>2010-07-18 12:29:34Z</time>
      </trkpt>
      <trkpt lat="45.89809" lon="6.16928">
        <ele>815</ele>
        <time>2010-07-18 12:29:38Z</time>
      </trkpt>
      <trkpt lat="45.89809" lon="6.16911">
        <ele>803</ele>
        <time>2010-07-18 12:29:42Z</time>
      </trkpt>
      <trkpt lat="45.89808" lon="6.16901">
        <ele>796</ele>
        <time>2010-07-18 12:29:46Z</time>
      </trkpt>
      <trkpt lat="45.89807" lon="6.16889">
        <ele>790</ele>
        <time>2010-07-18 12:29:50Z</time>
      </trkpt>
      <trkpt lat="45.89808" lon="6.16876">
        <ele>788</ele>
        <time>2010-07-18 12:29:54Z</time>
      </trkpt>
      <trkpt lat="45.8981" lon="6.16861">
        <ele>788</ele>
        <time>2010-07-18 12:29:58Z</time>
      </trkpt>
      <trkpt lat="45.89811" lon="6.16852">
        <ele>788</ele>
        <time>2010-07-18 12:30:02Z</time>
      </trkpt>
      <trkpt lat="45.89817" lon="6.16834">
        <ele>790</ele>
        <time>2010-07-18 12:30:06Z</time>
      </trkpt>
      <trkpt lat="45.8982" lon="6.16826">
        <ele>790</ele>
        <time>2010-07-18 12:30:10Z</time>
      </trkpt>
      <trkpt lat="45.89825" lon="6.16812">
        <ele>790</ele>
        <time>2010-07-18 12:30:14Z</time>
      </trkpt>
      <trkpt lat="45.89829" lon="6.16806">
        <ele>790</ele>
        <time>2010-07-18 12:30:18Z</time>
      </trkpt>
      <trkpt lat="45.89832" lon="6.16798">
        <ele>792</ele>
        <time>2010-07-18 12:30:22Z</time>
      </trkpt>
      <trkpt lat="45.89835" lon="6.16792">
        <ele>793</ele>
        <time>2010-07-18 12:30:26Z</time>
      </trkpt>
      <trkpt lat="45.89838" lon="6.16784">
        <ele>796</ele>
        <time>2010-07-18 12:30:30Z</time>
      </trkpt>
      <trkpt lat="45.8984" lon="6.16779">
        <ele>799</ele>
        <time>2010-07-18 12:30:34Z</time>
      </trkpt>
      <trkpt lat="45.89842" lon="6.16768">
        <ele>801</ele>
        <time>2010-07-18 12:30:38Z</time>
      </trkpt>
      <trkpt lat="45.89843" lon="6.16766">
        <ele>802</ele>
        <time>2010-07-18 12:30:42Z</time>
      </trkpt>
      <trkpt lat="45.89847" lon="6.16746">
        <ele>805</ele>
        <time>2010-07-18 12:30:46Z</time>
      </trkpt>
      <trkpt lat="45.89851" lon="6.16732">
        <ele>807</ele>
        <time>2010-07-18 12:30:50Z</time>
      </trkpt>
      <trkpt lat="45.89855" lon="6.16723">
        <ele>808</ele>
        <time>2010-07-18 12:30:54Z</time>
      </trkpt>
      <trkpt lat="45.8986" lon="6.16713">
        <ele>810</ele>
        <time>2010-07-18 12:30:58Z</time>
      </trkpt>
      <trkpt lat="45.89864" lon="6.16707">
        <ele>811</ele>
        <time>2010-07-18 12:31:02Z</time>
      </trkpt>
      <trkpt lat="45.89864" lon="6.16707">
        <ele>811</ele>
        <time>2010-07-18 12:31:06Z</time>
      </trkpt>
      <trkpt lat="45.89878" lon="6.16681">
        <ele>813</ele>
        <time>2010-07-18 12:31:10Z</time>
      </trkpt>
      <trkpt lat="45.89882" lon="6.16674">
        <ele>812</ele>
        <time>2010-07-18 12:31:14Z</time>
      </trkpt>
      <trkpt lat="45.8989" lon="6.16663">
        <ele>805</ele>
        <time>2010-07-18 12:31:18Z</time>
      </trkpt>
      <trkpt lat="45.89899" lon="6.16648">
        <ele>798</ele>
        <time>2010-07-18 12:31:22Z</time>
      </trkpt>
      <trkpt lat="45.89908" lon="6.16632">
        <ele>793</ele>
        <time>2010-07-18 12:31:26Z</time>
      </trkpt>
      <trkpt lat="45.89912" lon="6.16624">
        <ele>790</ele>
        <time>2010-07-18 12:31:30Z</time>
      </trkpt>
      <trkpt lat="45.89915" lon="6.16616">
        <ele>787</ele>
        <time>2010-07-18 12:31:34Z</time>
      </trkpt>
      <trkpt lat="45.89916" lon="6.16611">
        <ele>787</ele>
        <time>2010-07-18 12:31:38Z</time>
      </trkpt>
      <trkpt lat="45.8992" lon="6.16601">
        <ele>785</ele>
        <time>2010-07-18 12:31:42Z</time>
      </trkpt>
      <trkpt lat="45.89921" lon="6.16598">
        <ele>784</ele>
        <time>2010-07-18 12:31:46Z</time>
      </trkpt>
      <trkpt lat="45.89922" lon="6.16596">
        <ele>779</ele>
        <time>2010-07-18 12:31:50Z</time>
      </trkpt>
      <trkpt lat="45.89925" lon="6.16591">
        <ele>774</ele>
        <time>2010-07-18 12:31:54Z</time>
      </trkpt>
      <trkpt lat="45.89927" lon="6.16588">
        <ele>771</ele>
        <time>2010-07-18 12:31:58Z</time>
      </trkpt>
      <trkpt lat="45.8993" lon="6.16581">
        <ele>769</ele>
        <time>2010-07-18 12:32:02Z</time>
      </trkpt>
      <trkpt lat="45.89932" lon="6.16574">
        <ele>765</ele>
        <time>2010-07-18 12:32:06Z</time>
      </trkpt>
      <trkpt lat="45.89933" lon="6.16573">
        <ele>763</ele>
        <time>2010-07-18 12:32:10Z</time>
      </trkpt>
      <trkpt lat="45.89937" lon="6.1657">
        <ele>759</ele>
        <time>2010-07-18 12:32:14Z</time>
      </trkpt>
      <trkpt lat="45.8994" lon="6.16567">
        <ele>758</ele>
        <time>2010-07-18 12:32:18Z</time>
      </trkpt>
      <trkpt lat="45.89942" lon="6.16564">
        <ele>756</ele>
        <time>2010-07-18 12:32:22Z</time>
      </trkpt>
      <trkpt lat="45.89943" lon="6.16561">
        <ele>753</ele>
        <time>2010-07-18 12:32:26Z</time>
      </trkpt>
      <trkpt lat="45.89944" lon="6.1656">
        <ele>754</ele>
        <time>2010-07-18 12:32:30Z</time>
      </trkpt>
      <trkpt lat="45.89944" lon="6.1656">
        <ele>754</ele>
        <time>2010-07-18 12:32:34Z</time>
      </trkpt>
      <trkpt lat="45.89944" lon="6.1656">
        <ele>754</ele>
        <time>2010-07-18 12:32:38Z</time>
      </trkpt>
      <trkpt lat="45.89949" lon="6.16549">
        <ele>751</ele>
        <time>2010-07-18 12:32:42Z</time>
      </trkpt>
      <trkpt lat="45.8995" lon="6.16545">
        <ele>750</ele>
        <time>2010-07-18 12:32:46Z</time>
      </trkpt>
      <trkpt lat="45.89951" lon="6.16541">
        <ele>749</ele>
        <time>2010-07-18 12:32:50Z</time>
      </trkpt>
      <trkpt lat="45.89951" lon="6.16538">
        <ele>747</ele>
        <time>2010-07-18 12:32:54Z</time>
      </trkpt>
      <trkpt lat="45.8995" lon="6.16536">
        <ele>746</ele>
        <time>2010-07-18 12:32:58Z</time>
      </trkpt>
      <trkpt lat="45.89949" lon="6.16533">
        <ele>743</ele>
        <time>2010-07-18 12:33:02Z</time>
      </trkpt>
      <trkpt lat="45.89949" lon="6.16533">
        <ele>743</ele>
        <time>2010-07-18 12:33:06Z</time>
      </trkpt>
      <trkpt lat="45.89946" lon="6.16521">
        <ele>735</ele>
        <time>2010-07-18 12:33:10Z</time>
      </trkpt>
      <trkpt lat="45.89946" lon="6.16521">
        <ele>735</ele>
        <time>2010-07-18 12:33:14Z</time>
      </trkpt>
      <trkpt lat="45.89944" lon="6.16518">
        <ele>729</ele>
        <time>2010-07-18 12:33:18Z</time>
      </trkpt>
      <trkpt lat="45.89938" lon="6.1651">
        <ele>712</ele>
        <time>2010-07-18 12:34:36Z</time>
      </trkpt>
      <trkpt lat="45.89938" lon="6.1651">
        <ele>712</ele>
        <time>2010-07-18 12:34:40Z</time>
      </trkpt>
      <trkpt lat="45.89938" lon="6.16512">
        <ele>711</ele>
        <time>2010-07-18 12:34:44Z</time>
      </trkpt>
      <trkpt lat="45.89938" lon="6.16512">
        <ele>711</ele>
        <time>2010-07-18 12:34:48Z</time>
      </trkpt>
      <trkpt lat="45.89937" lon="6.16513">
        <ele>708</ele>
        <time>2010-07-18 12:34:52Z</time>
      </trkpt>
      <trkpt lat="45.89938" lon="6.16513">
        <ele>708</ele>
        <time>2010-07-18 12:34:56Z</time>
      </trkpt>
      <trkpt lat="45.8994" lon="6.16514">
        <ele>710</ele>
        <time>2010-07-18 12:35:00Z</time>
      </trkpt>
      <trkpt lat="45.89945" lon="6.16516">
        <ele>710</ele>
        <time>2010-07-18 12:35:04Z</time>
      </trkpt>
      <trkpt lat="45.89949" lon="6.16518">
        <ele>711</ele>
        <time>2010-07-18 12:35:08Z</time>
      </trkpt>
      <trkpt lat="45.89955" lon="6.1652">
        <ele>710</ele>
        <time>2010-07-18 12:35:12Z</time>
      </trkpt>
      <trkpt lat="45.89957" lon="6.1652">
        <ele>712</ele>
        <time>2010-07-18 12:35:16Z</time>
      </trkpt>
      <trkpt lat="45.89957" lon="6.1652">
        <ele>712</ele>
        <time>2010-07-18 12:35:20Z</time>
      </trkpt>
      <trkpt lat="45.89961" lon="6.16517">
        <ele>722</ele>
        <time>2010-07-18 12:35:43Z</time>
      </trkpt>
      <trkpt lat="45.89961" lon="6.16517">
        <ele>722</ele>
        <time>2010-07-18 12:35:47Z</time>
      </trkpt>
      <trkpt lat="45.89961" lon="6.16517">
        <ele>722</ele>
        <time>2010-07-18 12:35:51Z</time>
      </trkpt>
      <trkpt lat="45.89961" lon="6.16518">
        <ele>724</ele>
        <time>2010-07-18 12:35:55Z</time>
      </trkpt>
      <trkpt lat="45.89961" lon="6.16518">
        <ele>725</ele>
        <time>2010-07-18 12:35:59Z</time>
      </trkpt>
      <trkpt lat="45.89961" lon="6.16521">
        <ele>724</ele>
        <time>2010-07-18 12:36:03Z</time>
      </trkpt>
      <trkpt lat="45.8996" lon="6.16524">
        <ele>723</ele>
        <time>2010-07-18 12:36:07Z</time>
      </trkpt>
      <trkpt lat="45.89959" lon="6.16525">
        <ele>721</ele>
        <time>2010-07-18 12:36:11Z</time>
      </trkpt>
      <trkpt lat="45.89959" lon="6.16525">
        <ele>721</ele>
        <time>2010-07-18 12:36:15Z</time>
      </trkpt>
      <trkpt lat="45.89958" lon="6.16526">
        <ele>716</ele>
        <time>2010-07-18 12:36:19Z</time>
      </trkpt>
      <trkpt lat="45.89958" lon="6.16527">
        <ele>717</ele>
        <time>2010-07-18 12:36:23Z</time>
      </trkpt>
      <trkpt lat="45.89961" lon="6.16526">
        <ele>718</ele>
        <time>2010-07-18 12:36:27Z</time>
      </trkpt>
      <trkpt lat="45.89964" lon="6.16525">
        <ele>720</ele>
        <time>2010-07-18 12:36:31Z</time>
      </trkpt>
      <trkpt lat="45.89969" lon="6.16526">
        <ele>721</ele>
        <time>2010-07-18 12:36:35Z</time>
      </trkpt>
      <trkpt lat="45.89973" lon="6.16527">
        <ele>723</ele>
        <time>2010-07-18 12:36:39Z</time>
      </trkpt>
      <trkpt lat="45.89977" lon="6.16527">
        <ele>723</ele>
        <time>2010-07-18 12:36:43Z</time>
      </trkpt>
      <trkpt lat="45.8998" lon="6.16528">
        <ele>725</ele>
        <time>2010-07-18 12:36:47Z</time>
      </trkpt>
      <trkpt lat="45.89983" lon="6.16528">
        <ele>726</ele>
        <time>2010-07-18 12:36:51Z</time>
      </trkpt>
      <trkpt lat="45.89987" lon="6.16528">
        <ele>727</ele>
        <time>2010-07-18 12:36:55Z</time>
      </trkpt>
      <trkpt lat="45.89991" lon="6.16528">
        <ele>729</ele>
        <time>2010-07-18 12:36:59Z</time>
      </trkpt>
      <trkpt lat="45.89995" lon="6.16528">
        <ele>731</ele>
        <time>2010-07-18 12:37:03Z</time>
      </trkpt>
      <trkpt lat="45.89998" lon="6.16528">
        <ele>733</ele>
        <time>2010-07-18 12:37:07Z</time>
      </trkpt>
      <trkpt lat="45.90002" lon="6.16528">
        <ele>734</ele>
        <time>2010-07-18 12:37:11Z</time>
      </trkpt>
      <trkpt lat="45.90006" lon="6.16528">
        <ele>736</ele>
        <time>2010-07-18 12:37:15Z</time>
      </trkpt>
      <trkpt lat="45.90009" lon="6.16528">
        <ele>738</ele>
        <time>2010-07-18 12:37:19Z</time>
      </trkpt>
      <trkpt lat="45.90013" lon="6.16531">
        <ele>739</ele>
        <time>2010-07-18 12:37:23Z</time>
      </trkpt>
      <trkpt lat="45.90017" lon="6.16534">
        <ele>740</ele>
        <time>2010-07-18 12:37:27Z</time>
      </trkpt>
      <trkpt lat="45.90022" lon="6.16537">
        <ele>742</ele>
        <time>2010-07-18 12:37:31Z</time>
      </trkpt>
      <trkpt lat="45.90028" lon="6.16541">
        <ele>743</ele>
        <time>2010-07-18 12:37:35Z</time>
      </trkpt>
      <trkpt lat="45.90032" lon="6.16547">
        <ele>746</ele>
        <time>2010-07-18 12:37:39Z</time>
      </trkpt>
      <trkpt lat="45.90036" lon="6.16552">
        <ele>748</ele>
        <time>2010-07-18 12:37:43Z</time>
      </trkpt>
      <trkpt lat="45.9004" lon="6.16555">
        <ele>748</ele>
        <time>2010-07-18 12:37:47Z</time>
      </trkpt>
      <trkpt lat="45.90044" lon="6.16559">
        <ele>751</ele>
        <time>2010-07-18 12:37:51Z</time>
      </trkpt>
      <trkpt lat="45.9005" lon="6.16563">
        <ele>754</ele>
        <time>2010-07-18 12:37:55Z</time>
      </trkpt>
      <trkpt lat="45.90053" lon="6.16568">
        <ele>754</ele>
        <time>2010-07-18 12:37:59Z</time>
      </trkpt>
      <trkpt lat="45.90058" lon="6.16574">
        <ele>753</ele>
        <time>2010-07-18 12:38:03Z</time>
      </trkpt>
      <trkpt lat="45.90058" lon="6.16574">
        <ele>753</ele>
        <time>2010-07-18 12:38:07Z</time>
      </trkpt>
      <trkpt lat="45.90065" lon="6.1658">
        <ele>754</ele>
        <time>2010-07-18 12:38:11Z</time>
      </trkpt>
      <trkpt lat="45.90071" lon="6.16585">
        <ele>754</ele>
        <time>2010-07-18 12:38:15Z</time>
      </trkpt>
      <trkpt lat="45.90071" lon="6.16585">
        <ele>754</ele>
        <time>2010-07-18 12:38:19Z</time>
      </trkpt>
      <trkpt lat="45.90088" lon="6.16598">
        <ele>757</ele>
        <time>2010-07-18 12:38:23Z</time>
      </trkpt>
      <trkpt lat="45.90095" lon="6.16601">
        <ele>761</ele>
        <time>2010-07-18 12:38:27Z</time>
      </trkpt>
      <trkpt lat="45.90103" lon="6.16604">
        <ele>763</ele>
        <time>2010-07-18 12:38:31Z</time>
      </trkpt>
      <trkpt lat="45.90106" lon="6.16608">
        <ele>765</ele>
        <time>2010-07-18 12:38:35Z</time>
      </trkpt>
      <trkpt lat="45.90109" lon="6.16609">
        <ele>766</ele>
        <time>2010-07-18 12:38:39Z</time>
      </trkpt>
      <trkpt lat="45.90111" lon="6.16609">
        <ele>768</ele>
        <time>2010-07-18 12:38:43Z</time>
      </trkpt>
      <trkpt lat="45.90118" lon="6.16611">
        <ele>769</ele>
        <time>2010-07-18 12:38:47Z</time>
      </trkpt>
      <trkpt lat="45.90124" lon="6.16613">
        <ele>770</ele>
        <time>2010-07-18 12:38:51Z</time>
      </trkpt>
      <trkpt lat="45.90127" lon="6.16616">
        <ele>770</ele>
        <time>2010-07-18 12:38:55Z</time>
      </trkpt>
      <trkpt lat="45.90132" lon="6.16618">
        <ele>774</ele>
        <time>2010-07-18 12:38:59Z</time>
      </trkpt>
      <trkpt lat="45.90136" lon="6.1662">
        <ele>775</ele>
        <time>2010-07-18 12:39:03Z</time>
      </trkpt>
      <trkpt lat="45.90138" lon="6.16625">
        <ele>777</ele>
        <time>2010-07-18 12:39:07Z</time>
      </trkpt>
      <trkpt lat="45.90141" lon="6.16631">
        <ele>778</ele>
        <time>2010-07-18 12:39:11Z</time>
      </trkpt>
      <trkpt lat="45.90145" lon="6.16633">
        <ele>779</ele>
        <time>2010-07-18 12:39:15Z</time>
      </trkpt>
      <trkpt lat="45.90151" lon="6.16636">
        <ele>780</ele>
        <time>2010-07-18 12:39:19Z</time>
      </trkpt>
      <trkpt lat="45.90156" lon="6.16639">
        <ele>781</ele>
        <time>2010-07-18 12:39:23Z</time>
      </trkpt>
      <trkpt lat="45.90162" lon="6.16643">
        <ele>782</ele>
        <time>2010-07-18 12:39:27Z</time>
      </trkpt>
      <trkpt lat="45.90166" lon="6.16647">
        <ele>783</ele>
        <time>2010-07-18 12:39:31Z</time>
      </trkpt>
      <trkpt lat="45.9017" lon="6.16649">
        <ele>783</ele>
        <time>2010-07-18 12:39:35Z</time>
      </trkpt>
      <trkpt lat="45.90173" lon="6.1665">
        <ele>783</ele>
        <time>2010-07-18 12:39:39Z</time>
      </trkpt>
      <trkpt lat="45.90174" lon="6.16651">
        <ele>784</ele>
        <time>2010-07-18 12:39:43Z</time>
      </trkpt>
      <trkpt lat="45.90174" lon="6.16651">
        <ele>784</ele>
        <time>2010-07-18 12:39:47Z</time>
      </trkpt>
      <trkpt lat="45.90177" lon="6.16652">
        <ele>789</ele>
        <time>2010-07-18 12:39:51Z</time>
      </trkpt>
      <trkpt lat="45.90179" lon="6.16653">
        <ele>791</ele>
        <time>2010-07-18 12:39:55Z</time>
      </trkpt>
      <trkpt lat="45.90183" lon="6.16654">
        <ele>794</ele>
        <time>2010-07-18 12:39:59Z</time>
      </trkpt>
      <trkpt lat="45.90187" lon="6.16655">
        <ele>796</ele>
        <time>2010-07-18 12:40:03Z</time>
      </trkpt>
      <trkpt lat="45.90191" lon="6.16657">
        <ele>798</ele>
        <time>2010-07-18 12:40:07Z</time>
      </trkpt>
      <trkpt lat="45.90196" lon="6.16659">
        <ele>801</ele>
        <time>2010-07-18 12:40:11Z</time>
      </trkpt>
      <trkpt lat="45.902" lon="6.16661">
        <ele>802</ele>
        <time>2010-07-18 12:40:15Z</time>
      </trkpt>
      <trkpt lat="45.90204" lon="6.16663">
        <ele>802</ele>
        <time>2010-07-18 12:40:19Z</time>
      </trkpt>
      <trkpt lat="45.90208" lon="6.16665">
        <ele>803</ele>
        <time>2010-07-18 12:40:23Z</time>
      </trkpt>
      <trkpt lat="45.90215" lon="6.16668">
        <ele>804</ele>
        <time>2010-07-18 12:40:27Z</time>
      </trkpt>
      <trkpt lat="45.90221" lon="6.16671">
        <ele>805</ele>
        <time>2010-07-18 12:40:31Z</time>
      </trkpt>
      <trkpt lat="45.90226" lon="6.16674">
        <ele>806</ele>
        <time>2010-07-18 12:40:35Z</time>
      </trkpt>
      <trkpt lat="45.90231" lon="6.16674">
        <ele>806</ele>
        <time>2010-07-18 12:40:39Z</time>
      </trkpt>
      <trkpt lat="45.90235" lon="6.16674">
        <ele>810</ele>
        <time>2010-07-18 12:40:43Z</time>
      </trkpt>
      <trkpt lat="45.90238" lon="6.16674">
        <ele>813</ele>
        <time>2010-07-18 12:40:47Z</time>
      </trkpt>
      <trkpt lat="45.90242" lon="6.16676">
        <ele>814</ele>
        <time>2010-07-18 12:40:51Z</time>
      </trkpt>
      <trkpt lat="45.90247" lon="6.16679">
        <ele>815</ele>
        <time>2010-07-18 12:40:55Z</time>
      </trkpt>
      <trkpt lat="45.90253" lon="6.16683">
        <ele>814</ele>
        <time>2010-07-18 12:40:59Z</time>
      </trkpt>
      <trkpt lat="45.90258" lon="6.16687">
        <ele>814</ele>
        <time>2010-07-18 12:41:03Z</time>
      </trkpt>
      <trkpt lat="45.90264" lon="6.1669">
        <ele>814</ele>
        <time>2010-07-18 12:41:07Z</time>
      </trkpt>
      <trkpt lat="45.90268" lon="6.16694">
        <ele>814</ele>
        <time>2010-07-18 12:41:11Z</time>
      </trkpt>
      <trkpt lat="45.90272" lon="6.16701">
        <ele>815</ele>
        <time>2010-07-18 12:41:15Z</time>
      </trkpt>
      <trkpt lat="45.90276" lon="6.16707">
        <ele>816</ele>
        <time>2010-07-18 12:41:19Z</time>
      </trkpt>
      <trkpt lat="45.9028" lon="6.16714">
        <ele>816</ele>
        <time>2010-07-18 12:41:23Z</time>
      </trkpt>
      <trkpt lat="45.90286" lon="6.1672">
        <ele>816</ele>
        <time>2010-07-18 12:41:27Z</time>
      </trkpt>
      <trkpt lat="45.90292" lon="6.16722">
        <ele>817</ele>
        <time>2010-07-18 12:41:31Z</time>
      </trkpt>
      <trkpt lat="45.90302" lon="6.16722">
        <ele>818</ele>
        <time>2010-07-18 12:41:35Z</time>
      </trkpt>
      <trkpt lat="45.90311" lon="6.16722">
        <ele>820</ele>
        <time>2010-07-18 12:41:39Z</time>
      </trkpt>
      <trkpt lat="45.90318" lon="6.1672">
        <ele>822</ele>
        <time>2010-07-18 12:41:43Z</time>
      </trkpt>
      <trkpt lat="45.90325" lon="6.16718">
        <ele>823</ele>
        <time>2010-07-18 12:41:47Z</time>
      </trkpt>
      <trkpt lat="45.90332" lon="6.16718">
        <ele>825</ele>
        <time>2010-07-18 12:41:51Z</time>
      </trkpt>
      <trkpt lat="45.90341" lon="6.1672">
        <ele>827</ele>
        <time>2010-07-18 12:41:55Z</time>
      </trkpt>
      <trkpt lat="45.90349" lon="6.16722">
        <ele>827</ele>
        <time>2010-07-18 12:41:59Z</time>
      </trkpt>
      <trkpt lat="45.90358" lon="6.16726">
        <ele>826</ele>
        <time>2010-07-18 12:42:03Z</time>
      </trkpt>
      <trkpt lat="45.90366" lon="6.1673">
        <ele>825</ele>
        <time>2010-07-18 12:42:07Z</time>
      </trkpt>
      <trkpt lat="45.90374" lon="6.16735">
        <ele>825</ele>
        <time>2010-07-18 12:42:11Z</time>
      </trkpt>
      <trkpt lat="45.90381" lon="6.16738">
        <ele>824</ele>
        <time>2010-07-18 12:42:15Z</time>
      </trkpt>
      <trkpt lat="45.90388" lon="6.16739">
        <ele>823</ele>
        <time>2010-07-18 12:42:19Z</time>
      </trkpt>
      <trkpt lat="45.90395" lon="6.1674">
        <ele>825</ele>
        <time>2010-07-18 12:42:23Z</time>
      </trkpt>
      <trkpt lat="45.90401" lon="6.16742">
        <ele>826</ele>
        <time>2010-07-18 12:42:27Z</time>
      </trkpt>
      <trkpt lat="45.90409" lon="6.16745">
        <ele>827</ele>
        <time>2010-07-18 12:42:31Z</time>
      </trkpt>
      <trkpt lat="45.90416" lon="6.16747">
        <ele>829</ele>
        <time>2010-07-18 12:42:35Z</time>
      </trkpt>
      <trkpt lat="45.90426" lon="6.16749">
        <ele>831</ele>
        <time>2010-07-18 12:42:39Z</time>
      </trkpt>
      <trkpt lat="45.90434" lon="6.1675">
        <ele>833</ele>
        <time>2010-07-18 12:42:43Z</time>
      </trkpt>
      <trkpt lat="45.90443" lon="6.16752">
        <ele>836</ele>
        <time>2010-07-18 12:42:47Z</time>
      </trkpt>
      <trkpt lat="45.90453" lon="6.16756">
        <ele>837</ele>
        <time>2010-07-18 12:42:51Z</time>
      </trkpt>
      <trkpt lat="45.9046" lon="6.16759">
        <ele>838</ele>
        <time>2010-07-18 12:42:55Z</time>
      </trkpt>
      <trkpt lat="45.90468" lon="6.16763">
        <ele>838</ele>
        <time>2010-07-18 12:42:59Z</time>
      </trkpt>
      <trkpt lat="45.90473" lon="6.16766">
        <ele>838</ele>
        <time>2010-07-18 12:43:03Z</time>
      </trkpt>
      <trkpt lat="45.90478" lon="6.16768">
        <ele>838</ele>
        <time>2010-07-18 12:43:07Z</time>
      </trkpt>
      <trkpt lat="45.90482" lon="6.1677">
        <ele>838</ele>
        <time>2010-07-18 12:43:11Z</time>
      </trkpt>
      <trkpt lat="45.90486" lon="6.16772">
        <ele>837</ele>
        <time>2010-07-18 12:43:15Z</time>
      </trkpt>
      <trkpt lat="45.90491" lon="6.16773">
        <ele>837</ele>
        <time>2010-07-18 12:43:19Z</time>
      </trkpt>
      <trkpt lat="45.90495" lon="6.16774">
        <ele>838</ele>
        <time>2010-07-18 12:43:23Z</time>
      </trkpt>
      <trkpt lat="45.905" lon="6.16776">
        <ele>839</ele>
        <time>2010-07-18 12:43:27Z</time>
      </trkpt>
      <trkpt lat="45.90503" lon="6.16777">
        <ele>839</ele>
        <time>2010-07-18 12:43:31Z</time>
      </trkpt>
      <trkpt lat="45.90507" lon="6.16779">
        <ele>840</ele>
        <time>2010-07-18 12:43:35Z</time>
      </trkpt>
      <trkpt lat="45.90511" lon="6.16782">
        <ele>839</ele>
        <time>2010-07-18 12:43:39Z</time>
      </trkpt>
      <trkpt lat="45.90515" lon="6.16784">
        <ele>838</ele>
        <time>2010-07-18 12:43:43Z</time>
      </trkpt>
      <trkpt lat="45.90517" lon="6.16788">
        <ele>839</ele>
        <time>2010-07-18 12:43:47Z</time>
      </trkpt>
      <trkpt lat="45.90518" lon="6.16792">
        <ele>840</ele>
        <time>2010-07-18 12:43:51Z</time>
      </trkpt>
      <trkpt lat="45.90521" lon="6.16793">
        <ele>839</ele>
        <time>2010-07-18 12:43:55Z</time>
      </trkpt>
      <trkpt lat="45.90527" lon="6.16795">
        <ele>842</ele>
        <time>2010-07-18 12:43:59Z</time>
      </trkpt>
      <trkpt lat="45.90533" lon="6.16796">
        <ele>843</ele>
        <time>2010-07-18 12:44:03Z</time>
      </trkpt>
      <trkpt lat="45.90538" lon="6.16795">
        <ele>846</ele>
        <time>2010-07-18 12:44:07Z</time>
      </trkpt>
      <trkpt lat="45.90545" lon="6.16795">
        <ele>847</ele>
        <time>2010-07-18 12:44:11Z</time>
      </trkpt>
      <trkpt lat="45.90548" lon="6.16795">
        <ele>848</ele>
        <time>2010-07-18 12:44:15Z</time>
      </trkpt>
      <trkpt lat="45.90554" lon="6.16797">
        <ele>847</ele>
        <time>2010-07-18 12:44:19Z</time>
      </trkpt>
      <trkpt lat="45.9056" lon="6.16799">
        <ele>846</ele>
        <time>2010-07-18 12:44:23Z</time>
      </trkpt>
      <trkpt lat="45.90564" lon="6.16802">
        <ele>846</ele>
        <time>2010-07-18 12:44:27Z</time>
      </trkpt>
      <trkpt lat="45.90569" lon="6.16805">
        <ele>848</ele>
        <time>2010-07-18 12:44:31Z</time>
      </trkpt>
      <trkpt lat="45.90575" lon="6.16808">
        <ele>850</ele>
        <time>2010-07-18 12:44:35Z</time>
      </trkpt>
      <trkpt lat="45.90579" lon="6.1681">
        <ele>851</ele>
        <time>2010-07-18 12:44:39Z</time>
      </trkpt>
      <trkpt lat="45.90585" lon="6.16812">
        <ele>853</ele>
        <time>2010-07-18 12:44:43Z</time>
      </trkpt>
      <trkpt lat="45.90589" lon="6.16812">
        <ele>855</ele>
        <time>2010-07-18 12:44:47Z</time>
      </trkpt>
      <trkpt lat="45.90594" lon="6.1681">
        <ele>857</ele>
        <time>2010-07-18 12:44:51Z</time>
      </trkpt>
      <trkpt lat="45.90599" lon="6.16808">
        <ele>859</ele>
        <time>2010-07-18 12:44:55Z</time>
      </trkpt>
      <trkpt lat="45.90603" lon="6.16807">
        <ele>860</ele>
        <time>2010-07-18 12:44:59Z</time>
      </trkpt>
      <trkpt lat="45.90608" lon="6.16806">
        <ele>860</ele>
        <time>2010-07-18 12:45:03Z</time>
      </trkpt>
      <trkpt lat="45.90609" lon="6.16805">
        <ele>860</ele>
        <time>2010-07-18 12:45:07Z</time>
      </trkpt>
      <trkpt lat="45.9061" lon="6.16804">
        <ele>860</ele>
        <time>2010-07-18 12:45:11Z</time>
      </trkpt>
      <trkpt lat="45.90612" lon="6.16801">
        <ele>859</ele>
        <time>2010-07-18 12:45:15Z</time>
      </trkpt>
      <trkpt lat="45.90614" lon="6.16799">
        <ele>856</ele>
        <time>2010-07-18 12:45:19Z</time>
      </trkpt>
      <trkpt lat="45.90622" lon="6.1679">
        <ele>854</ele>
        <time>2010-07-18 12:46:53Z</time>
      </trkpt>
      <trkpt lat="45.90622" lon="6.1679">
        <ele>854</ele>
        <time>2010-07-18 12:46:56Z</time>
      </trkpt>
      <trkpt lat="45.90635" lon="6.16779">
        <ele>852</ele>
        <time>2010-07-18 12:47:00Z</time>
      </trkpt>
      <trkpt lat="45.90639" lon="6.16783">
        <ele>849</ele>
        <time>2010-07-18 12:47:04Z</time>
      </trkpt>
      <trkpt lat="45.90644" lon="6.16788">
        <ele>846</ele>
        <time>2010-07-18 12:47:08Z</time>
      </trkpt>
      <trkpt lat="45.90648" lon="6.16791">
        <ele>843</ele>
        <time>2010-07-18 12:47:12Z</time>
      </trkpt>
      <trkpt lat="45.90653" lon="6.16794">
        <ele>840</ele>
        <time>2010-07-18 12:47:16Z</time>
      </trkpt>
      <trkpt lat="45.90657" lon="6.16796">
        <ele>840</ele>
        <time>2010-07-18 12:47:20Z</time>
      </trkpt>
      <trkpt lat="45.90661" lon="6.16798">
        <ele>839</ele>
        <time>2010-07-18 12:47:24Z</time>
      </trkpt>
      <trkpt lat="45.90665" lon="6.16799">
        <ele>839</ele>
        <time>2010-07-18 12:47:28Z</time>
      </trkpt>
      <trkpt lat="45.90669" lon="6.16799">
        <ele>840</ele>
        <time>2010-07-18 12:47:32Z</time>
      </trkpt>
      <trkpt lat="45.90673" lon="6.16799">
        <ele>842</ele>
        <time>2010-07-18 12:47:36Z</time>
      </trkpt>
      <trkpt lat="45.90677" lon="6.16797">
        <ele>843</ele>
        <time>2010-07-18 12:47:40Z</time>
      </trkpt>
      <trkpt lat="45.90681" lon="6.16795">
        <ele>844</ele>
        <time>2010-07-18 12:47:44Z</time>
      </trkpt>
      <trkpt lat="45.90682" lon="6.16795">
        <ele>845</ele>
        <time>2010-07-18 12:47:48Z</time>
      </trkpt>
      <trkpt lat="45.90682" lon="6.16795">
        <ele>845</ele>
        <time>2010-07-18 12:47:52Z</time>
      </trkpt>
      <trkpt lat="45.90684" lon="6.16792">
        <ele>845</ele>
        <time>2010-07-18 12:47:56Z</time>
      </trkpt>
      <trkpt lat="45.90685" lon="6.1679">
        <ele>844</ele>
        <time>2010-07-18 12:48:00Z</time>
      </trkpt>
      <trkpt lat="45.90687" lon="6.1679">
        <ele>844</ele>
        <time>2010-07-18 12:48:04Z</time>
      </trkpt>
      <trkpt lat="45.90687" lon="6.1679">
        <ele>844</ele>
        <time>2010-07-18 12:48:08Z</time>
      </trkpt>
      <trkpt lat="45.90687" lon="6.16792">
        <ele>845</ele>
        <time>2010-07-18 12:48:12Z</time>
      </trkpt>
      <trkpt lat="45.90688" lon="6.16796">
        <ele>848</ele>
        <time>2010-07-18 12:48:16Z</time>
      </trkpt>
      <trkpt lat="45.90688" lon="6.16798">
        <ele>849</ele>
        <time>2010-07-18 12:48:20Z</time>
      </trkpt>
      <trkpt lat="45.9069" lon="6.16804">
        <ele>850</ele>
        <time>2010-07-18 12:48:24Z</time>
      </trkpt>
      <trkpt lat="45.90692" lon="6.16805">
        <ele>850</ele>
        <time>2010-07-18 12:48:28Z</time>
      </trkpt>
      <trkpt lat="45.90693" lon="6.16804">
        <ele>850</ele>
        <time>2010-07-18 12:48:32Z</time>
      </trkpt>
      <trkpt lat="45.90693" lon="6.16799">
        <ele>851</ele>
        <time>2010-07-18 12:48:36Z</time>
      </trkpt>
      <trkpt lat="45.90693" lon="6.16793">
        <ele>852</ele>
        <time>2010-07-18 12:48:40Z</time>
      </trkpt>
      <trkpt lat="45.90694" lon="6.16787">
        <ele>853</ele>
        <time>2010-07-18 12:48:44Z</time>
      </trkpt>
      <trkpt lat="45.90696" lon="6.16778">
        <ele>852</ele>
        <time>2010-07-18 12:48:48Z</time>
      </trkpt>
      <trkpt lat="45.90699" lon="6.16769">
        <ele>852</ele>
        <time>2010-07-18 12:48:52Z</time>
      </trkpt>
      <trkpt lat="45.90702" lon="6.16763">
        <ele>854</ele>
        <time>2010-07-18 12:48:56Z</time>
      </trkpt>
      <trkpt lat="45.90707" lon="6.16756">
        <ele>854</ele>
        <time>2010-07-18 12:49:00Z</time>
      </trkpt>
      <trkpt lat="45.90709" lon="6.16754">
        <ele>855</ele>
        <time>2010-07-18 12:49:04Z</time>
      </trkpt>
      <trkpt lat="45.90713" lon="6.16745">
        <ele>854</ele>
        <time>2010-07-18 12:49:08Z</time>
      </trkpt>
      <trkpt lat="45.90713" lon="6.16745">
        <ele>854</ele>
        <time>2010-07-18 12:49:12Z</time>
      </trkpt>
      <trkpt lat="45.90713" lon="6.16745">
        <ele>854</ele>
        <time>2010-07-18 12:49:16Z</time>
      </trkpt>
      <trkpt lat="45.90736" lon="6.16735">
        <ele>851</ele>
        <time>2010-07-18 12:49:20Z</time>
      </trkpt>
      <trkpt lat="45.90747" lon="6.16737">
        <ele>849</ele>
        <time>2010-07-18 12:49:24Z</time>
      </trkpt>
      <trkpt lat="45.90756" lon="6.1674">
        <ele>847</ele>
        <time>2010-07-18 12:49:28Z</time>
      </trkpt>
      <trkpt lat="45.90766" lon="6.16744">
        <ele>846</ele>
        <time>2010-07-18 12:49:32Z</time>
      </trkpt>
      <trkpt lat="45.90775" lon="6.16748">
        <ele>845</ele>
        <time>2010-07-18 12:49:36Z</time>
      </trkpt>
      <trkpt lat="45.90778" lon="6.1675">
        <ele>845</ele>
        <time>2010-07-18 12:49:40Z</time>
      </trkpt>
      <trkpt lat="45.90786" lon="6.16759">
        <ele>843</ele>
        <time>2010-07-18 12:49:44Z</time>
      </trkpt>
      <trkpt lat="45.90793" lon="6.16766">
        <ele>842</ele>
        <time>2010-07-18 12:49:48Z</time>
      </trkpt>
      <trkpt lat="45.90795" lon="6.16774">
        <ele>842</ele>
        <time>2010-07-18 12:49:52Z</time>
      </trkpt>
      <trkpt lat="45.90801" lon="6.16783">
        <ele>843</ele>
        <time>2010-07-18 12:49:56Z</time>
      </trkpt>
      <trkpt lat="45.90811" lon="6.1679">
        <ele>842</ele>
        <time>2010-07-18 12:50:00Z</time>
      </trkpt>
      <trkpt lat="45.90823" lon="6.16794">
        <ele>843</ele>
        <time>2010-07-18 12:50:04Z</time>
      </trkpt>
      <trkpt lat="45.90836" lon="6.16798">
        <ele>843</ele>
        <time>2010-07-18 12:50:08Z</time>
      </trkpt>
      <trkpt lat="45.90846" lon="6.168">
        <ele>843</ele>
        <time>2010-07-18 12:50:12Z</time>
      </trkpt>
      <trkpt lat="45.90855" lon="6.16804">
        <ele>843</ele>
        <time>2010-07-18 12:50:16Z</time>
      </trkpt>
      <trkpt lat="45.90863" lon="6.16807">
        <ele>843</ele>
        <time>2010-07-18 12:50:20Z</time>
      </trkpt>
      <trkpt lat="45.90869" lon="6.1681">
        <ele>843</ele>
        <time>2010-07-18 12:50:24Z</time>
      </trkpt>
      <trkpt lat="45.90876" lon="6.16813">
        <ele>844</ele>
        <time>2010-07-18 12:50:28Z</time>
      </trkpt>
      <trkpt lat="45.9088" lon="6.16815">
        <ele>845</ele>
        <time>2010-07-18 12:50:32Z</time>
      </trkpt>
      <trkpt lat="45.90886" lon="6.16819">
        <ele>844</ele>
        <time>2010-07-18 12:50:36Z</time>
      </trkpt>
      <trkpt lat="45.9089" lon="6.16824">
        <ele>845</ele>
        <time>2010-07-18 12:50:40Z</time>
      </trkpt>
      <trkpt lat="45.90895" lon="6.16829">
        <ele>846</ele>
        <time>2010-07-18 12:50:44Z</time>
      </trkpt>
      <trkpt lat="45.90897" lon="6.16832">
        <ele>846</ele>
        <time>2010-07-18 12:50:48Z</time>
      </trkpt>
      <trkpt lat="45.90901" lon="6.16835">
        <ele>845</ele>
        <time>2010-07-18 12:50:52Z</time>
      </trkpt>
      <trkpt lat="45.90904" lon="6.16838">
        <ele>846</ele>
        <time>2010-07-18 12:50:56Z</time>
      </trkpt>
      <trkpt lat="45.90908" lon="6.16841">
        <ele>847</ele>
        <time>2010-07-18 12:51:00Z</time>
      </trkpt>
      <trkpt lat="45.90912" lon="6.16844">
        <ele>846</ele>
        <time>2010-07-18 12:51:04Z</time>
      </trkpt>
      <trkpt lat="45.90915" lon="6.16846">
        <ele>847</ele>
        <time>2010-07-18 12:51:08Z</time>
      </trkpt>
      <trkpt lat="45.90918" lon="6.1685">
        <ele>848</ele>
        <time>2010-07-18 12:51:12Z</time>
      </trkpt>
      <trkpt lat="45.90921" lon="6.16854">
        <ele>849</ele>
        <time>2010-07-18 12:51:16Z</time>
      </trkpt>
      <trkpt lat="45.90923" lon="6.16859">
        <ele>850</ele>
        <time>2010-07-18 12:51:20Z</time>
      </trkpt>
      <trkpt lat="45.90925" lon="6.16863">
        <ele>850</ele>
        <time>2010-07-18 12:51:24Z</time>
      </trkpt>
      <trkpt lat="45.90926" lon="6.16867">
        <ele>852</ele>
        <time>2010-07-18 12:51:28Z</time>
      </trkpt>
      <trkpt lat="45.90926" lon="6.1687">
        <ele>852</ele>
        <time>2010-07-18 12:51:32Z</time>
      </trkpt>
      <trkpt lat="45.90926" lon="6.16871">
        <ele>852</ele>
        <time>2010-07-18 12:51:36Z</time>
      </trkpt>
      <trkpt lat="45.90926" lon="6.16874">
        <ele>852</ele>
        <time>2010-07-18 12:51:40Z</time>
      </trkpt>
      <trkpt lat="45.90926" lon="6.16877">
        <ele>853</ele>
        <time>2010-07-18 12:51:44Z</time>
      </trkpt>
      <trkpt lat="45.90926" lon="6.16881">
        <ele>854</ele>
        <time>2010-07-18 12:51:48Z</time>
      </trkpt>
      <trkpt lat="45.90926" lon="6.16884">
        <ele>855</ele>
        <time>2010-07-18 12:51:52Z</time>
      </trkpt>
      <trkpt lat="45.90929" lon="6.16888">
        <ele>856</ele>
        <time>2010-07-18 12:51:56Z</time>
      </trkpt>
      <trkpt lat="45.9093" lon="6.1689">
        <ele>857</ele>
        <time>2010-07-18 12:52:00Z</time>
      </trkpt>
      <trkpt lat="45.90931" lon="6.16892">
        <ele>859</ele>
        <time>2010-07-18 12:52:04Z</time>
      </trkpt>
      <trkpt lat="45.90932" lon="6.16893">
        <ele>861</ele>
        <time>2010-07-18 12:52:08Z</time>
      </trkpt>
      <trkpt lat="45.90937" lon="6.16893">
        <ele>862</ele>
        <time>2010-07-18 12:52:12Z</time>
      </trkpt>
      <trkpt lat="45.90941" lon="6.16894">
        <ele>864</ele>
        <time>2010-07-18 12:52:16Z</time>
      </trkpt>
      <trkpt lat="45.90945" lon="6.16897">
        <ele>866</ele>
        <time>2010-07-18 12:52:20Z</time>
      </trkpt>
      <trkpt lat="45.90949" lon="6.16901">
        <ele>866</ele>
        <time>2010-07-18 12:52:24Z</time>
      </trkpt>
      <trkpt lat="45.90953" lon="6.16906">
        <ele>867</ele>
        <time>2010-07-18 12:52:28Z</time>
      </trkpt>
      <trkpt lat="45.90957" lon="6.1691">
        <ele>868</ele>
        <time>2010-07-18 12:52:32Z</time>
      </trkpt>
      <trkpt lat="45.90963" lon="6.16915">
        <ele>869</ele>
        <time>2010-07-18 12:52:36Z</time>
      </trkpt>
      <trkpt lat="45.90968" lon="6.1692">
        <ele>870</ele>
        <time>2010-07-18 12:52:40Z</time>
      </trkpt>
      <trkpt lat="45.90974" lon="6.16925">
        <ele>870</ele>
        <time>2010-07-18 12:52:44Z</time>
      </trkpt>
      <trkpt lat="45.90979" lon="6.1693">
        <ele>870</ele>
        <time>2010-07-18 12:52:48Z</time>
      </trkpt>
      <trkpt lat="45.90983" lon="6.16934">
        <ele>871</ele>
        <time>2010-07-18 12:52:52Z</time>
      </trkpt>
      <trkpt lat="45.90987" lon="6.1694">
        <ele>872</ele>
        <time>2010-07-18 12:52:56Z</time>
      </trkpt>
      <trkpt lat="45.9099" lon="6.16943">
        <ele>873</ele>
        <time>2010-07-18 12:53:00Z</time>
      </trkpt>
      <trkpt lat="45.90995" lon="6.16946">
        <ele>875</ele>
        <time>2010-07-18 12:53:04Z</time>
      </trkpt>
      <trkpt lat="45.90999" lon="6.16948">
        <ele>876</ele>
        <time>2010-07-18 12:53:08Z</time>
      </trkpt>
      <trkpt lat="45.91003" lon="6.16949">
        <ele>878</ele>
        <time>2010-07-18 12:53:12Z</time>
      </trkpt>
      <trkpt lat="45.91007" lon="6.16951">
        <ele>879</ele>
        <time>2010-07-18 12:53:16Z</time>
      </trkpt>
      <trkpt lat="45.9101" lon="6.16953">
        <ele>881</ele>
        <time>2010-07-18 12:53:20Z</time>
      </trkpt>
      <trkpt lat="45.91012" lon="6.16956">
        <ele>883</ele>
        <time>2010-07-18 12:53:24Z</time>
      </trkpt>
      <trkpt lat="45.91015" lon="6.16959">
        <ele>884</ele>
        <time>2010-07-18 12:53:28Z</time>
      </trkpt>
      <trkpt lat="45.91019" lon="6.16963">
        <ele>887</ele>
        <time>2010-07-18 12:53:32Z</time>
      </trkpt>
      <trkpt lat="45.91024" lon="6.16967">
        <ele>889</ele>
        <time>2010-07-18 12:53:36Z</time>
      </trkpt>
      <trkpt lat="45.91032" lon="6.16974">
        <ele>889</ele>
        <time>2010-07-18 12:53:40Z</time>
      </trkpt>
      <trkpt lat="45.9104" lon="6.16979">
        <ele>889</ele>
        <time>2010-07-18 12:53:44Z</time>
      </trkpt>
      <trkpt lat="45.91051" lon="6.16987">
        <ele>891</ele>
        <time>2010-07-18 12:53:48Z</time>
      </trkpt>
      <trkpt lat="45.91062" lon="6.16993">
        <ele>893</ele>
        <time>2010-07-18 12:53:52Z</time>
      </trkpt>
      <trkpt lat="45.91071" lon="6.16999">
        <ele>894</ele>
        <time>2010-07-18 12:53:56Z</time>
      </trkpt>
      <trkpt lat="45.91079" lon="6.17007">
        <ele>895</ele>
        <time>2010-07-18 12:54:00Z</time>
      </trkpt>
      <trkpt lat="45.91087" lon="6.17016">
        <ele>894</ele>
        <time>2010-07-18 12:54:04Z</time>
      </trkpt>
      <trkpt lat="45.91095" lon="6.17026">
        <ele>894</ele>
        <time>2010-07-18 12:54:08Z</time>
      </trkpt>
      <trkpt lat="45.91102" lon="6.17035">
        <ele>894</ele>
        <time>2010-07-18 12:54:12Z</time>
      </trkpt>
      <trkpt lat="45.91108" lon="6.17044">
        <ele>894</ele>
        <time>2010-07-18 12:54:16Z</time>
      </trkpt>
      <trkpt lat="45.91114" lon="6.17052">
        <ele>893</ele>
        <time>2010-07-18 12:54:20Z</time>
      </trkpt>
      <trkpt lat="45.91119" lon="6.17057">
        <ele>893</ele>
        <time>2010-07-18 12:54:24Z</time>
      </trkpt>
      <trkpt lat="45.91124" lon="6.17064">
        <ele>893</ele>
        <time>2010-07-18 12:54:28Z</time>
      </trkpt>
      <trkpt lat="45.91127" lon="6.1707">
        <ele>892</ele>
        <time>2010-07-18 12:54:32Z</time>
      </trkpt>
      <trkpt lat="45.9113" lon="6.17077">
        <ele>892</ele>
        <time>2010-07-18 12:54:36Z</time>
      </trkpt>
      <trkpt lat="45.91132" lon="6.17083">
        <ele>892</ele>
        <time>2010-07-18 12:54:40Z</time>
      </trkpt>
      <trkpt lat="45.91132" lon="6.17087">
        <ele>892</ele>
        <time>2010-07-18 12:54:44Z</time>
      </trkpt>
      <trkpt lat="45.91134" lon="6.17095">
        <ele>892</ele>
        <time>2010-07-18 12:54:48Z</time>
      </trkpt>
      <trkpt lat="45.91134" lon="6.17103">
        <ele>891</ele>
        <time>2010-07-18 12:54:52Z</time>
      </trkpt>
      <trkpt lat="45.91134" lon="6.17116">
        <ele>891</ele>
        <time>2010-07-18 12:54:56Z</time>
      </trkpt>
      <trkpt lat="45.91134" lon="6.17125">
        <ele>891</ele>
        <time>2010-07-18 12:55:00Z</time>
      </trkpt>
      <trkpt lat="45.91134" lon="6.17133">
        <ele>891</ele>
        <time>2010-07-18 12:55:04Z</time>
      </trkpt>
      <trkpt lat="45.91134" lon="6.17141">
        <ele>892</ele>
        <time>2010-07-18 12:55:08Z</time>
      </trkpt>
      <trkpt lat="45.91134" lon="6.17148">
        <ele>893</ele>
        <time>2010-07-18 12:55:12Z</time>
      </trkpt>
      <trkpt lat="45.91133" lon="6.17155">
        <ele>894</ele>
        <time>2010-07-18 12:55:16Z</time>
      </trkpt>
      <trkpt lat="45.91131" lon="6.17161">
        <ele>894</ele>
        <time>2010-07-18 12:55:20Z</time>
      </trkpt>
      <trkpt lat="45.9113" lon="6.17169">
        <ele>895</ele>
        <time>2010-07-18 12:55:24Z</time>
      </trkpt>
      <trkpt lat="45.9113" lon="6.17179">
        <ele>895</ele>
        <time>2010-07-18 12:55:28Z</time>
      </trkpt>
      <trkpt lat="45.9113" lon="6.17188">
        <ele>895</ele>
        <time>2010-07-18 12:55:32Z</time>
      </trkpt>
      <trkpt lat="45.91129" lon="6.17196">
        <ele>895</ele>
        <time>2010-07-18 12:55:36Z</time>
      </trkpt>
      <trkpt lat="45.91126" lon="6.17204">
        <ele>895</ele>
        <time>2010-07-18 12:55:40Z</time>
      </trkpt>
      <trkpt lat="45.91124" lon="6.17207">
        <ele>895</ele>
        <time>2010-07-18 12:55:44Z</time>
      </trkpt>
      <trkpt lat="45.91122" lon="6.17213">
        <ele>897</ele>
        <time>2010-07-18 12:55:48Z</time>
      </trkpt>
      <trkpt lat="45.91121" lon="6.17217">
        <ele>897</ele>
        <time>2010-07-18 12:55:52Z</time>
      </trkpt>
      <trkpt lat="45.91119" lon="6.17222">
        <ele>898</ele>
        <time>2010-07-18 12:55:56Z</time>
      </trkpt>
      <trkpt lat="45.91118" lon="6.1723">
        <ele>898</ele>
        <time>2010-07-18 12:56:00Z</time>
      </trkpt>
      <trkpt lat="45.91117" lon="6.1724">
        <ele>900</ele>
        <time>2010-07-18 12:56:04Z</time>
      </trkpt>
      <trkpt lat="45.91117" lon="6.17246">
        <ele>900</ele>
        <time>2010-07-18 12:56:08Z</time>
      </trkpt>
      <trkpt lat="45.91117" lon="6.17251">
        <ele>901</ele>
        <time>2010-07-18 12:56:12Z</time>
      </trkpt>
      <trkpt lat="45.91117" lon="6.17256">
        <ele>903</ele>
        <time>2010-07-18 12:56:16Z</time>
      </trkpt>
      <trkpt lat="45.91117" lon="6.17261">
        <ele>904</ele>
        <time>2010-07-18 12:56:20Z</time>
      </trkpt>
      <trkpt lat="45.91117" lon="6.17268">
        <ele>905</ele>
        <time>2010-07-18 12:56:24Z</time>
      </trkpt>
      <trkpt lat="45.91116" lon="6.17277">
        <ele>906</ele>
        <time>2010-07-18 12:56:28Z</time>
      </trkpt>
      <trkpt lat="45.91116" lon="6.17285">
        <ele>907</ele>
        <time>2010-07-18 12:56:32Z</time>
      </trkpt>
      <trkpt lat="45.91116" lon="6.17294">
        <ele>909</ele>
        <time>2010-07-18 12:56:36Z</time>
      </trkpt>
      <trkpt lat="45.91116" lon="6.17303">
        <ele>909</ele>
        <time>2010-07-18 12:56:40Z</time>
      </trkpt>
      <trkpt lat="45.91116" lon="6.17311">
        <ele>910</ele>
        <time>2010-07-18 12:56:44Z</time>
      </trkpt>
      <trkpt lat="45.91118" lon="6.17321">
        <ele>910</ele>
        <time>2010-07-18 12:56:48Z</time>
      </trkpt>
      <trkpt lat="45.91118" lon="6.17329">
        <ele>911</ele>
        <time>2010-07-18 12:56:52Z</time>
      </trkpt>
      <trkpt lat="45.9112" lon="6.17335">
        <ele>911</ele>
        <time>2010-07-18 12:56:56Z</time>
      </trkpt>
      <trkpt lat="45.91122" lon="6.17346">
        <ele>912</ele>
        <time>2010-07-18 12:57:00Z</time>
      </trkpt>
      <trkpt lat="45.91123" lon="6.17352">
        <ele>912</ele>
        <time>2010-07-18 12:57:04Z</time>
      </trkpt>
      <trkpt lat="45.91123" lon="6.17357">
        <ele>914</ele>
        <time>2010-07-18 12:57:08Z</time>
      </trkpt>
      <trkpt lat="45.91124" lon="6.17361">
        <ele>915</ele>
        <time>2010-07-18 12:57:12Z</time>
      </trkpt>
      <trkpt lat="45.91124" lon="6.17366">
        <ele>916</ele>
        <time>2010-07-18 12:57:16Z</time>
      </trkpt>
      <trkpt lat="45.91124" lon="6.17368">
        <ele>919</ele>
        <time>2010-07-18 12:57:20Z</time>
      </trkpt>
      <trkpt lat="45.91126" lon="6.17366">
        <ele>922</ele>
        <time>2010-07-18 12:57:24Z</time>
      </trkpt>
      <trkpt lat="45.91128" lon="6.17363">
        <ele>924</ele>
        <time>2010-07-18 12:57:28Z</time>
      </trkpt>
      <trkpt lat="45.91129" lon="6.17362">
        <ele>926</ele>
        <time>2010-07-18 12:57:32Z</time>
      </trkpt>
      <trkpt lat="45.91129" lon="6.17362">
        <ele>926</ele>
        <time>2010-07-18 12:57:36Z</time>
      </trkpt>
      <trkpt lat="45.91137" lon="6.17347">
        <ele>931</ele>
        <time>2010-07-18 12:57:40Z</time>
      </trkpt>
      <trkpt lat="45.91137" lon="6.17347">
        <ele>931</ele>
        <time>2010-07-18 12:57:44Z</time>
      </trkpt>
      <trkpt lat="45.91137" lon="6.17347">
        <ele>931</ele>
        <time>2010-07-18 12:57:48Z</time>
      </trkpt>
      <trkpt lat="45.91152" lon="6.17325">
        <ele>933</ele>
        <time>2010-07-18 12:57:52Z</time>
      </trkpt>
      <trkpt lat="45.9116" lon="6.17315">
        <ele>934</ele>
        <time>2010-07-18 12:57:56Z</time>
      </trkpt>
      <trkpt lat="45.9116" lon="6.17315">
        <ele>934</ele>
        <time>2010-07-18 12:58:00Z</time>
      </trkpt>
      <trkpt lat="45.91175" lon="6.17297">
        <ele>935</ele>
        <time>2010-07-18 12:58:04Z</time>
      </trkpt>
      <trkpt lat="45.91175" lon="6.17297">
        <ele>935</ele>
        <time>2010-07-18 12:58:08Z</time>
      </trkpt>
      <trkpt lat="45.91191" lon="6.17273">
        <ele>936</ele>
        <time>2010-07-18 12:58:12Z</time>
      </trkpt>
      <trkpt lat="45.91191" lon="6.17273">
        <ele>936</ele>
        <time>2010-07-18 12:58:16Z</time>
      </trkpt>
      <trkpt lat="45.91211" lon="6.17253">
        <ele>933</ele>
        <time>2010-07-18 12:58:20Z</time>
      </trkpt>
      <trkpt lat="45.91221" lon="6.17246">
        <ele>931</ele>
        <time>2010-07-18 12:58:24Z</time>
      </trkpt>
      <trkpt lat="45.91222" lon="6.17245">
        <ele>931</ele>
        <time>2010-07-18 12:58:28Z</time>
      </trkpt>
      <trkpt lat="45.91236" lon="6.17231">
        <ele>930</ele>
        <time>2010-07-18 12:58:32Z</time>
      </trkpt>
      <trkpt lat="45.91243" lon="6.17226">
        <ele>930</ele>
        <time>2010-07-18 12:58:36Z</time>
      </trkpt>
      <trkpt lat="45.91252" lon="6.17223">
        <ele>929</ele>
        <time>2010-07-18 12:58:40Z</time>
      </trkpt>
      <trkpt lat="45.91263" lon="6.17221">
        <ele>928</ele>
        <time>2010-07-18 12:58:44Z</time>
      </trkpt>
      <trkpt lat="45.91272" lon="6.17221">
        <ele>928</ele>
        <time>2010-07-18 12:58:48Z</time>
      </trkpt>
      <trkpt lat="45.91285" lon="6.17224">
        <ele>928</ele>
        <time>2010-07-18 12:58:52Z</time>
      </trkpt>
      <trkpt lat="45.91295" lon="6.17228">
        <ele>928</ele>
        <time>2010-07-18 12:58:56Z</time>
      </trkpt>
      <trkpt lat="45.91304" lon="6.17233">
        <ele>926</ele>
        <time>2010-07-18 12:59:00Z</time>
      </trkpt>
      <trkpt lat="45.91315" lon="6.1724">
        <ele>926</ele>
        <time>2010-07-18 12:59:04Z</time>
      </trkpt>
      <trkpt lat="45.91321" lon="6.17244">
        <ele>926</ele>
        <time>2010-07-18 12:59:08Z</time>
      </trkpt>
      <trkpt lat="45.91327" lon="6.17249">
        <ele>926</ele>
        <time>2010-07-18 12:59:12Z</time>
      </trkpt>
      <trkpt lat="45.91334" lon="6.17255">
        <ele>924</ele>
        <time>2010-07-18 12:59:16Z</time>
      </trkpt>
      <trkpt lat="45.91338" lon="6.17258">
        <ele>924</ele>
        <time>2010-07-18 12:59:20Z</time>
      </trkpt>
      <trkpt lat="45.91339" lon="6.17258">
        <ele>924</ele>
        <time>2010-07-18 12:59:24Z</time>
      </trkpt>
      <trkpt lat="45.91345" lon="6.17262">
        <ele>923</ele>
        <time>2010-07-18 12:59:28Z</time>
      </trkpt>
      <trkpt lat="45.91349" lon="6.17266">
        <ele>924</ele>
        <time>2010-07-18 12:59:32Z</time>
      </trkpt>
      <trkpt lat="45.91355" lon="6.1727">
        <ele>925</ele>
        <time>2010-07-18 12:59:36Z</time>
      </trkpt>
      <trkpt lat="45.9136" lon="6.17273">
        <ele>926</ele>
        <time>2010-07-18 12:59:40Z</time>
      </trkpt>
      <trkpt lat="45.91361" lon="6.17274">
        <ele>926</ele>
        <time>2010-07-18 12:59:44Z</time>
      </trkpt>
      <trkpt lat="45.91372" lon="6.17282">
        <ele>927</ele>
        <time>2010-07-18 12:59:48Z</time>
      </trkpt>
      <trkpt lat="45.91382" lon="6.1729">
        <ele>927</ele>
        <time>2010-07-18 12:59:52Z</time>
      </trkpt>
      <trkpt lat="45.91388" lon="6.17296">
        <ele>926</ele>
        <time>2010-07-18 12:59:56Z</time>
      </trkpt>
      <trkpt lat="45.91394" lon="6.17306">
        <ele>925</ele>
        <time>2010-07-18 13:00:00Z</time>
      </trkpt>
      <trkpt lat="45.91404" lon="6.17322">
        <ele>923</ele>
        <time>2010-07-18 13:00:04Z</time>
      </trkpt>
      <trkpt lat="45.91411" lon="6.17334">
        <ele>921</ele>
        <time>2010-07-18 13:00:08Z</time>
      </trkpt>
      <trkpt lat="45.91418" lon="6.17346">
        <ele>919</ele>
        <time>2010-07-18 13:00:12Z</time>
      </trkpt>
      <trkpt lat="45.91423" lon="6.17354">
        <ele>918</ele>
        <time>2010-07-18 13:00:16Z</time>
      </trkpt>
      <trkpt lat="45.91428" lon="6.17361">
        <ele>916</ele>
        <time>2010-07-18 13:00:20Z</time>
      </trkpt>
      <trkpt lat="45.91431" lon="6.17369">
        <ele>915</ele>
        <time>2010-07-18 13:00:24Z</time>
      </trkpt>
      <trkpt lat="45.91436" lon="6.17379">
        <ele>914</ele>
        <time>2010-07-18 13:00:28Z</time>
      </trkpt>
      <trkpt lat="45.9144" lon="6.17388">
        <ele>913</ele>
        <time>2010-07-18 13:00:32Z</time>
      </trkpt>
      <trkpt lat="45.91446" lon="6.17399">
        <ele>911</ele>
        <time>2010-07-18 13:00:36Z</time>
      </trkpt>
      <trkpt lat="45.91453" lon="6.1741">
        <ele>909</ele>
        <time>2010-07-18 13:00:40Z</time>
      </trkpt>
      <trkpt lat="45.9146" lon="6.17418">
        <ele>908</ele>
        <time>2010-07-18 13:00:44Z</time>
      </trkpt>
      <trkpt lat="45.91468" lon="6.17427">
        <ele>907</ele>
        <time>2010-07-18 13:00:48Z</time>
      </trkpt>
      <trkpt lat="45.91474" lon="6.17433">
        <ele>906</ele>
        <time>2010-07-18 13:00:52Z</time>
      </trkpt>
      <trkpt lat="45.9148" lon="6.17438">
        <ele>905</ele>
        <time>2010-07-18 13:00:56Z</time>
      </trkpt>
      <trkpt lat="45.91487" lon="6.17445">
        <ele>904</ele>
        <time>2010-07-18 13:01:00Z</time>
      </trkpt>
      <trkpt lat="45.91493" lon="6.17452">
        <ele>904</ele>
        <time>2010-07-18 13:01:04Z</time>
      </trkpt>
      <trkpt lat="45.915" lon="6.17458">
        <ele>904</ele>
        <time>2010-07-18 13:01:08Z</time>
      </trkpt>
      <trkpt lat="45.91509" lon="6.17465">
        <ele>902</ele>
        <time>2010-07-18 13:01:12Z</time>
      </trkpt>
      <trkpt lat="45.91515" lon="6.1747">
        <ele>900</ele>
        <time>2010-07-18 13:01:16Z</time>
      </trkpt>
      <trkpt lat="45.91522" lon="6.17478">
        <ele>897</ele>
        <time>2010-07-18 13:01:20Z</time>
      </trkpt>
      <trkpt lat="45.91526" lon="6.17488">
        <ele>895</ele>
        <time>2010-07-18 13:01:24Z</time>
      </trkpt>
      <trkpt lat="45.91531" lon="6.17499">
        <ele>892</ele>
        <time>2010-07-18 13:01:28Z</time>
      </trkpt>
      <trkpt lat="45.91534" lon="6.17508">
        <ele>889</ele>
        <time>2010-07-18 13:01:32Z</time>
      </trkpt>
      <trkpt lat="45.91538" lon="6.17521">
        <ele>885</ele>
        <time>2010-07-18 13:01:36Z</time>
      </trkpt>
      <trkpt lat="45.9154" lon="6.1753">
        <ele>883</ele>
        <time>2010-07-18 13:01:40Z</time>
      </trkpt>
      <trkpt lat="45.91542" lon="6.17541">
        <ele>879</ele>
        <time>2010-07-18 13:01:44Z</time>
      </trkpt>
      <trkpt lat="45.91542" lon="6.17541">
        <ele>879</ele>
        <time>2010-07-18 13:01:48Z</time>
      </trkpt>
      <trkpt lat="45.91545" lon="6.17555">
        <ele>873</ele>
        <time>2010-07-18 13:01:52Z</time>
      </trkpt>
      <trkpt lat="45.91546" lon="6.17563">
        <ele>870</ele>
        <time>2010-07-18 13:01:56Z</time>
      </trkpt>
      <trkpt lat="45.91549" lon="6.17578">
        <ele>868</ele>
        <time>2010-07-18 13:02:00Z</time>
      </trkpt>
      <trkpt lat="45.9155" lon="6.17591">
        <ele>867</ele>
        <time>2010-07-18 13:02:04Z</time>
      </trkpt>
      <trkpt lat="45.91551" lon="6.17599">
        <ele>866</ele>
        <time>2010-07-18 13:02:08Z</time>
      </trkpt>
      <trkpt lat="45.91551" lon="6.17607">
        <ele>866</ele>
        <time>2010-07-18 13:02:12Z</time>
      </trkpt>
      <trkpt lat="45.9155" lon="6.17615">
        <ele>865</ele>
        <time>2010-07-18 13:02:16Z</time>
      </trkpt>
      <trkpt lat="45.9155" lon="6.1762">
        <ele>865</ele>
        <time>2010-07-18 13:02:20Z</time>
      </trkpt>
      <trkpt lat="45.91549" lon="6.17632">
        <ele>866</ele>
        <time>2010-07-18 13:02:24Z</time>
      </trkpt>
      <trkpt lat="45.91547" lon="6.17642">
        <ele>865</ele>
        <time>2010-07-18 13:02:28Z</time>
      </trkpt>
      <trkpt lat="45.91546" lon="6.1765">
        <ele>865</ele>
        <time>2010-07-18 13:02:32Z</time>
      </trkpt>
      <trkpt lat="45.91545" lon="6.1766">
        <ele>862</ele>
        <time>2010-07-18 13:02:36Z</time>
      </trkpt>
      <trkpt lat="45.91544" lon="6.17668">
        <ele>859</ele>
        <time>2010-07-18 13:02:40Z</time>
      </trkpt>
      <trkpt lat="45.91543" lon="6.17678">
        <ele>858</ele>
        <time>2010-07-18 13:02:44Z</time>
      </trkpt>
      <trkpt lat="45.91541" lon="6.17682">
        <ele>859</ele>
        <time>2010-07-18 13:02:48Z</time>
      </trkpt>
      <trkpt lat="45.91547" lon="6.17683">
        <ele>860</ele>
        <time>2010-07-18 13:02:52Z</time>
      </trkpt>
      <trkpt lat="45.9155" lon="6.17683">
        <ele>861</ele>
        <time>2010-07-18 13:02:56Z</time>
      </trkpt>
      <trkpt lat="45.9156" lon="6.17679">
        <ele>866</ele>
        <time>2010-07-18 13:03:00Z</time>
      </trkpt>
      <trkpt lat="45.91565" lon="6.17675">
        <ele>868</ele>
        <time>2010-07-18 13:03:04Z</time>
      </trkpt>
      <trkpt lat="45.91569" lon="6.1767">
        <ele>870</ele>
        <time>2010-07-18 13:03:08Z</time>
      </trkpt>
      <trkpt lat="45.9157" lon="6.17668">
        <ele>870</ele>
        <time>2010-07-18 13:03:12Z</time>
      </trkpt>
      <trkpt lat="45.91571" lon="6.1766">
        <ele>869</ele>
        <time>2010-07-18 13:03:16Z</time>
      </trkpt>
      <trkpt lat="45.91581" lon="6.17627">
        <ele>865</ele>
        <time>2010-07-18 13:03:20Z</time>
      </trkpt>
      <trkpt lat="45.91587" lon="6.17618">
        <ele>866</ele>
        <time>2010-07-18 13:03:24Z</time>
      </trkpt>
      <trkpt lat="45.91591" lon="6.17611">
        <ele>866</ele>
        <time>2010-07-18 13:03:28Z</time>
      </trkpt>
      <trkpt lat="45.91591" lon="6.17611">
        <ele>866</ele>
        <time>2010-07-18 13:03:32Z</time>
      </trkpt>
      <trkpt lat="45.91597" lon="6.17595">
        <ele>866</ele>
        <time>2010-07-18 13:03:36Z</time>
      </trkpt>
      <trkpt lat="45.916" lon="6.17587">
        <ele>862</ele>
        <time>2010-07-18 13:03:40Z</time>
      </trkpt>
      <trkpt lat="45.91608" lon="6.17568">
        <ele>853</ele>
        <time>2010-07-18 13:03:44Z</time>
      </trkpt>
      <trkpt lat="45.91614" lon="6.17553">
        <ele>847</ele>
        <time>2010-07-18 13:03:48Z</time>
      </trkpt>
      <trkpt lat="45.91619" lon="6.17545">
        <ele>843</ele>
        <time>2010-07-18 13:03:52Z</time>
      </trkpt>
      <trkpt lat="45.91622" lon="6.17538">
        <ele>841</ele>
        <time>2010-07-18 13:03:56Z</time>
      </trkpt>
      <trkpt lat="45.91626" lon="6.17528">
        <ele>841</ele>
        <time>2010-07-18 13:04:00Z</time>
      </trkpt>
      <trkpt lat="45.91627" lon="6.17519">
        <ele>839</ele>
        <time>2010-07-18 13:04:04Z</time>
      </trkpt>
      <trkpt lat="45.91627" lon="6.17519">
        <ele>839</ele>
        <time>2010-07-18 13:04:08Z</time>
      </trkpt>
      <trkpt lat="45.91628" lon="6.17503">
        <ele>839</ele>
        <time>2010-07-18 13:04:12Z</time>
      </trkpt>
      <trkpt lat="45.91628" lon="6.17502">
        <ele>839</ele>
        <time>2010-07-18 13:04:16Z</time>
      </trkpt>
      <trkpt lat="45.91628" lon="6.17502">
        <ele>839</ele>
        <time>2010-07-18 13:04:20Z</time>
      </trkpt>
      <trkpt lat="45.91628" lon="6.17488">
        <ele>837</ele>
        <time>2010-07-18 13:04:24Z</time>
      </trkpt>
      <trkpt lat="45.91628" lon="6.17488">
        <ele>837</ele>
        <time>2010-07-18 13:04:28Z</time>
      </trkpt>
      <trkpt lat="45.91627" lon="6.17472">
        <ele>838</ele>
        <time>2010-07-18 13:04:32Z</time>
      </trkpt>
      <trkpt lat="45.91625" lon="6.1746">
        <ele>836</ele>
        <time>2010-07-18 13:04:36Z</time>
      </trkpt>
      <trkpt lat="45.91623" lon="6.17447">
        <ele>832</ele>
        <time>2010-07-18 13:04:40Z</time>
      </trkpt>
      <trkpt lat="45.9162" lon="6.17435">
        <ele>831</ele>
        <time>2010-07-18 13:04:44Z</time>
      </trkpt>
      <trkpt lat="45.91612" lon="6.17418">
        <ele>829</ele>
        <time>2010-07-18 13:04:48Z</time>
      </trkpt>
      <trkpt lat="45.91606" lon="6.17405">
        <ele>827</ele>
        <time>2010-07-18 13:04:52Z</time>
      </trkpt>
      <trkpt lat="45.91604" lon="6.17401">
        <ele>827</ele>
        <time>2010-07-18 13:04:56Z</time>
      </trkpt>
      <trkpt lat="45.91592" lon="6.17383">
        <ele>823</ele>
        <time>2010-07-18 13:05:00Z</time>
      </trkpt>
      <trkpt lat="45.91585" lon="6.17372">
        <ele>820</ele>
        <time>2010-07-18 13:05:04Z</time>
      </trkpt>
      <trkpt lat="45.9158" lon="6.17363">
        <ele>819</ele>
        <time>2010-07-18 13:05:08Z</time>
      </trkpt>
      <trkpt lat="45.91576" lon="6.17357">
        <ele>819</ele>
        <time>2010-07-18 13:05:12Z</time>
      </trkpt>
      <trkpt lat="45.91572" lon="6.17354">
        <ele>818</ele>
        <time>2010-07-18 13:05:16Z</time>
      </trkpt>
      <trkpt lat="45.91563" lon="6.17346">
        <ele>817</ele>
        <time>2010-07-18 13:05:20Z</time>
      </trkpt>
      <trkpt lat="45.91563" lon="6.17345">
        <ele>817</ele>
        <time>2010-07-18 13:05:24Z</time>
      </trkpt>
      <trkpt lat="45.91559" lon="6.17343">
        <ele>816</ele>
        <time>2010-07-18 13:05:28Z</time>
      </trkpt>
      <trkpt lat="45.91553" lon="6.1734">
        <ele>818</ele>
        <time>2010-07-18 13:05:32Z</time>
      </trkpt>
      <trkpt lat="45.91547" lon="6.17336">
        <ele>818</ele>
        <time>2010-07-18 13:05:36Z</time>
      </trkpt>
      <trkpt lat="45.91544" lon="6.17335">
        <ele>818</ele>
        <time>2010-07-18 13:05:40Z</time>
      </trkpt>
      <trkpt lat="45.91537" lon="6.17331">
        <ele>818</ele>
        <time>2010-07-18 13:05:44Z</time>
      </trkpt>
      <trkpt lat="45.91535" lon="6.1733">
        <ele>818</ele>
        <time>2010-07-18 13:05:48Z</time>
      </trkpt>
      <trkpt lat="45.91535" lon="6.1733">
        <ele>818</ele>
        <time>2010-07-18 13:05:52Z</time>
      </trkpt>
      <trkpt lat="45.91535" lon="6.1733">
        <ele>818</ele>
        <time>2010-07-18 13:05:56Z</time>
      </trkpt>
      <trkpt lat="45.91535" lon="6.1733">
        <ele>818</ele>
        <time>2010-07-18 13:06:00Z</time>
      </trkpt>
      <trkpt lat="45.91535" lon="6.1733">
        <ele>818</ele>
        <time>2010-07-18 13:06:04Z</time>
      </trkpt>
      <trkpt lat="45.91535" lon="6.1733">
        <ele>818</ele>
        <time>2010-07-18 13:06:08Z</time>
      </trkpt>
      <trkpt lat="45.91535" lon="6.1733">
        <ele>818</ele>
        <time>2010-07-18 13:06:12Z</time>
      </trkpt>
      <trkpt lat="45.91535" lon="6.1733">
        <ele>818</ele>
        <time>2010-07-18 13:06:16Z</time>
      </trkpt>
      <trkpt lat="45.91526" lon="6.17323">
        <ele>824</ele>
        <time>2010-07-18 13:06:20Z</time>
      </trkpt>
      <trkpt lat="45.91524" lon="6.1732">
        <ele>824</ele>
        <time>2010-07-18 13:06:24Z</time>
      </trkpt>
      <trkpt lat="45.91521" lon="6.17315">
        <ele>825</ele>
        <time>2010-07-18 13:06:28Z</time>
      </trkpt>
      <trkpt lat="45.9152" lon="6.17312">
        <ele>826</ele>
        <time>2010-07-18 13:06:32Z</time>
      </trkpt>
      <trkpt lat="45.91518" lon="6.17306">
        <ele>826</ele>
        <time>2010-07-18 13:06:36Z</time>
      </trkpt>
      <trkpt lat="45.91518" lon="6.17302">
        <ele>826</ele>
        <time>2010-07-18 13:06:40Z</time>
      </trkpt>
      <trkpt lat="45.91518" lon="6.17293">
        <ele>826</ele>
        <time>2010-07-18 13:06:44Z</time>
      </trkpt>
      <trkpt lat="45.91518" lon="6.17289">
        <ele>825</ele>
        <time>2010-07-18 13:06:48Z</time>
      </trkpt>
      <trkpt lat="45.91514" lon="6.17276">
        <ele>826</ele>
        <time>2010-07-18 13:06:52Z</time>
      </trkpt>
      <trkpt lat="45.91513" lon="6.17272">
        <ele>827</ele>
        <time>2010-07-18 13:06:56Z</time>
      </trkpt>
      <trkpt lat="45.91503" lon="6.17263">
        <ele>830</ele>
        <time>2010-07-18 13:07:00Z</time>
      </trkpt>
      <trkpt lat="45.91503" lon="6.17263">
        <ele>830</ele>
        <time>2010-07-18 13:07:04Z</time>
      </trkpt>
      <trkpt lat="45.91503" lon="6.17263">
        <ele>830</ele>
        <time>2010-07-18 13:07:08Z</time>
      </trkpt>
      <trkpt lat="45.91503" lon="6.17263">
        <ele>830</ele>
        <time>2010-07-18 13:07:12Z</time>
      </trkpt>
      <trkpt lat="45.91503" lon="6.17263">
        <ele>830</ele>
        <time>2010-07-18 13:07:16Z</time>
      </trkpt>
      <trkpt lat="45.91502" lon="6.17224">
        <ele>835</ele>
        <time>2010-07-18 13:07:20Z</time>
      </trkpt>
      <trkpt lat="45.91505" lon="6.17214">
        <ele>834</ele>
        <time>2010-07-18 13:07:24Z</time>
      </trkpt>
      <trkpt lat="45.91509" lon="6.17206">
        <ele>833</ele>
        <time>2010-07-18 13:07:28Z</time>
      </trkpt>
      <trkpt lat="45.91511" lon="6.17201">
        <ele>831</ele>
        <time>2010-07-18 13:07:32Z</time>
      </trkpt>
      <trkpt lat="45.9151" lon="6.17197">
        <ele>830</ele>
        <time>2010-07-18 13:07:36Z</time>
      </trkpt>
      <trkpt lat="45.91509" lon="6.17194">
        <ele>830</ele>
        <time>2010-07-18 13:07:40Z</time>
      </trkpt>
      <trkpt lat="45.91507" lon="6.1719">
        <ele>830</ele>
        <time>2010-07-18 13:07:44Z</time>
      </trkpt>
      <trkpt lat="45.91506" lon="6.17181">
        <ele>831</ele>
        <time>2010-07-18 13:07:48Z</time>
      </trkpt>
      <trkpt lat="45.91503" lon="6.17176">
        <ele>831</ele>
        <time>2010-07-18 13:07:52Z</time>
      </trkpt>
      <trkpt lat="45.91503" lon="6.17176">
        <ele>831</ele>
        <time>2010-07-18 13:07:56Z</time>
      </trkpt>
      <trkpt lat="45.91497" lon="6.17158">
        <ele>828</ele>
        <time>2010-07-18 13:08:00Z</time>
      </trkpt>
      <trkpt lat="45.91497" lon="6.17155">
        <ele>827</ele>
        <time>2010-07-18 13:08:04Z</time>
      </trkpt>
      <trkpt lat="45.91497" lon="6.17151">
        <ele>826</ele>
        <time>2010-07-18 13:08:08Z</time>
      </trkpt>
      <trkpt lat="45.91497" lon="6.1715">
        <ele>826</ele>
        <time>2010-07-18 13:08:12Z</time>
      </trkpt>
      <trkpt lat="45.91497" lon="6.1715">
        <ele>826</ele>
        <time>2010-07-18 13:08:16Z</time>
      </trkpt>
      <trkpt lat="45.91497" lon="6.1715">
        <ele>826</ele>
        <time>2010-07-18 13:08:20Z</time>
      </trkpt>
      <trkpt lat="45.91497" lon="6.1715">
        <ele>826</ele>
        <time>2010-07-18 13:08:24Z</time>
      </trkpt>
      <trkpt lat="45.91508" lon="6.17149">
        <ele>814</ele>
        <time>2010-07-18 13:08:28Z</time>
      </trkpt>
      <trkpt lat="45.91508" lon="6.17149">
        <ele>814</ele>
        <time>2010-07-18 13:08:32Z</time>
      </trkpt>
      <trkpt lat="45.91508" lon="6.17149">
        <ele>814</ele>
        <time>2010-07-18 13:08:36Z</time>
      </trkpt>
      <trkpt lat="45.91527" lon="6.17167">
        <ele>811</ele>
        <time>2010-07-18 13:08:40Z</time>
      </trkpt>
      <trkpt lat="45.91532" lon="6.17171">
        <ele>812</ele>
        <time>2010-07-18 13:08:44Z</time>
      </trkpt>
      <trkpt lat="45.91534" lon="6.17173">
        <ele>812</ele>
        <time>2010-07-18 13:08:48Z</time>
      </trkpt>
      <trkpt lat="45.9154" lon="6.17174">
        <ele>814</ele>
        <time>2010-07-18 13:08:52Z</time>
      </trkpt>
      <trkpt lat="45.91542" lon="6.17172">
        <ele>814</ele>
        <time>2010-07-18 13:08:56Z</time>
      </trkpt>
      <trkpt lat="45.91543" lon="6.1717">
        <ele>814</ele>
        <time>2010-07-18 13:09:00Z</time>
      </trkpt>
      <trkpt lat="45.91546" lon="6.1716">
        <ele>817</ele>
        <time>2010-07-18 13:09:04Z</time>
      </trkpt>
      <trkpt lat="45.91548" lon="6.17149">
        <ele>820</ele>
        <time>2010-07-18 13:09:08Z</time>
      </trkpt>
      <trkpt lat="45.91548" lon="6.17149">
        <ele>820</ele>
        <time>2010-07-18 13:09:12Z</time>
      </trkpt>
      <trkpt lat="45.91546" lon="6.17127">
        <ele>821</ele>
        <time>2010-07-18 13:09:16Z</time>
      </trkpt>
      <trkpt lat="45.91544" lon="6.17123">
        <ele>821</ele>
        <time>2010-07-18 13:09:20Z</time>
      </trkpt>
      <trkpt lat="45.9154" lon="6.17107">
        <ele>820</ele>
        <time>2010-07-18 13:09:24Z</time>
      </trkpt>
      <trkpt lat="45.9154" lon="6.17107">
        <ele>820</ele>
        <time>2010-07-18 13:09:28Z</time>
      </trkpt>
      <trkpt lat="45.9154" lon="6.17107">
        <ele>820</ele>
        <time>2010-07-18 13:09:32Z</time>
      </trkpt>
      <trkpt lat="45.91529" lon="6.17071">
        <ele>816</ele>
        <time>2010-07-18 13:09:36Z</time>
      </trkpt>
      <trkpt lat="45.91522" lon="6.17061">
        <ele>813</ele>
        <time>2010-07-18 13:09:40Z</time>
      </trkpt>
      <trkpt lat="45.91507" lon="6.1705">
        <ele>802</ele>
        <time>2010-07-18 13:09:44Z</time>
      </trkpt>
      <trkpt lat="45.91496" lon="6.17044">
        <ele>794</ele>
        <time>2010-07-18 13:09:48Z</time>
      </trkpt>
      <trkpt lat="45.91483" lon="6.17038">
        <ele>788</ele>
        <time>2010-07-18 13:09:52Z</time>
      </trkpt>
      <trkpt lat="45.91469" lon="6.17033">
        <ele>783</ele>
        <time>2010-07-18 13:09:56Z</time>
      </trkpt>
      <trkpt lat="45.91461" lon="6.1703">
        <ele>780</ele>
        <time>2010-07-18 13:10:00Z</time>
      </trkpt>
      <trkpt lat="45.91461" lon="6.1703">
        <ele>780</ele>
        <time>2010-07-18 13:10:04Z</time>
      </trkpt>
      <trkpt lat="45.91447" lon="6.17023">
        <ele>780</ele>
        <time>2010-07-18 13:10:08Z</time>
      </trkpt>
      <trkpt lat="45.91442" lon="6.17021">
        <ele>780</ele>
        <time>2010-07-18 13:10:12Z</time>
      </trkpt>
      <trkpt lat="45.91442" lon="6.17021">
        <ele>780</ele>
        <time>2010-07-18 13:10:16Z</time>
      </trkpt>
      <trkpt lat="45.91432" lon="6.17014">
        <ele>775</ele>
        <time>2010-07-18 13:10:20Z</time>
      </trkpt>
      <trkpt lat="45.91429" lon="6.17013">
        <ele>775</ele>
        <time>2010-07-18 13:10:24Z</time>
      </trkpt>
      <trkpt lat="45.91424" lon="6.1701">
        <ele>774</ele>
        <time>2010-07-18 13:10:28Z</time>
      </trkpt>
      <trkpt lat="45.91424" lon="6.1701">
        <ele>774</ele>
        <time>2010-07-18 13:10:32Z</time>
      </trkpt>
      <trkpt lat="45.91413" lon="6.17005">
        <ele>777</ele>
        <time>2010-07-18 13:10:36Z</time>
      </trkpt>
      <trkpt lat="45.91404" lon="6.17">
        <ele>777</ele>
        <time>2010-07-18 13:10:40Z</time>
      </trkpt>
      <trkpt lat="45.91404" lon="6.17">
        <ele>777</ele>
        <time>2010-07-18 13:10:44Z</time>
      </trkpt>
      <trkpt lat="45.91395" lon="6.16995">
        <ele>777</ele>
        <time>2010-07-18 13:10:48Z</time>
      </trkpt>
      <trkpt lat="45.91393" lon="6.16994">
        <ele>778</ele>
        <time>2010-07-18 13:10:52Z</time>
      </trkpt>
      <trkpt lat="45.91389" lon="6.16993">
        <ele>778</ele>
        <time>2010-07-18 13:10:56Z</time>
      </trkpt>
      <trkpt lat="45.91389" lon="6.16993">
        <ele>778</ele>
        <time>2010-07-18 13:11:00Z</time>
      </trkpt>
      <trkpt lat="45.91378" lon="6.16981">
        <ele>784</ele>
        <time>2010-07-18 13:11:04Z</time>
      </trkpt>
      <trkpt lat="45.91373" lon="6.16972">
        <ele>786</ele>
        <time>2010-07-18 13:11:08Z</time>
      </trkpt>
      <trkpt lat="45.91368" lon="6.16964">
        <ele>787</ele>
        <time>2010-07-18 13:11:12Z</time>
      </trkpt>
      <trkpt lat="45.91364" lon="6.16958">
        <ele>788</ele>
        <time>2010-07-18 13:11:16Z</time>
      </trkpt>
      <trkpt lat="45.91358" lon="6.16951">
        <ele>789</ele>
        <time>2010-07-18 13:11:20Z</time>
      </trkpt>
      <trkpt lat="45.91352" lon="6.16945">
        <ele>790</ele>
        <time>2010-07-18 13:11:24Z</time>
      </trkpt>
      <trkpt lat="45.91346" lon="6.1694">
        <ele>789</ele>
        <time>2010-07-18 13:11:28Z</time>
      </trkpt>
      <trkpt lat="45.9134" lon="6.16935">
        <ele>786</ele>
        <time>2010-07-18 13:11:32Z</time>
      </trkpt>
      <trkpt lat="45.91335" lon="6.16933">
        <ele>785</ele>
        <time>2010-07-18 13:11:36Z</time>
      </trkpt>
      <trkpt lat="45.9133" lon="6.16931">
        <ele>784</ele>
        <time>2010-07-18 13:11:40Z</time>
      </trkpt>
      <trkpt lat="45.91328" lon="6.16931">
        <ele>784</ele>
        <time>2010-07-18 13:11:44Z</time>
      </trkpt>
      <trkpt lat="45.91322" lon="6.16929">
        <ele>783</ele>
        <time>2010-07-18 13:11:48Z</time>
      </trkpt>
      <trkpt lat="45.91317" lon="6.16929">
        <ele>781</ele>
        <time>2010-07-18 13:11:52Z</time>
      </trkpt>
      <trkpt lat="45.91313" lon="6.16928">
        <ele>781</ele>
        <time>2010-07-18 13:11:56Z</time>
      </trkpt>
      <trkpt lat="45.91313" lon="6.16928">
        <ele>781</ele>
        <time>2010-07-18 13:12:00Z</time>
      </trkpt>
      <trkpt lat="45.91313" lon="6.16928">
        <ele>781</ele>
        <time>2010-07-18 13:12:04Z</time>
      </trkpt>
      <trkpt lat="45.91307" lon="6.16926">
        <ele>781</ele>
        <time>2010-07-18 13:12:08Z</time>
      </trkpt>
      <trkpt lat="45.91306" lon="6.16925">
        <ele>782</ele>
        <time>2010-07-18 13:12:12Z</time>
      </trkpt>
      <trkpt lat="45.91306" lon="6.16925">
        <ele>782</ele>
        <time>2010-07-18 13:12:16Z</time>
      </trkpt>
      <trkpt lat="45.91306" lon="6.16925">
        <ele>782</ele>
        <time>2010-07-18 13:12:20Z</time>
      </trkpt>
      <trkpt lat="45.91306" lon="6.16925">
        <ele>782</ele>
        <time>2010-07-18 13:12:24Z</time>
      </trkpt>
      <trkpt lat="45.91306" lon="6.16925">
        <ele>782</ele>
        <time>2010-07-18 13:12:28Z</time>
      </trkpt>
      <trkpt lat="45.91306" lon="6.16925">
        <ele>782</ele>
        <time>2010-07-18 13:12:32Z</time>
      </trkpt>
      <trkpt lat="45.91306" lon="6.16925">
        <ele>782</ele>
        <time>2010-07-18 13:12:36Z</time>
      </trkpt>
      <trkpt lat="45.91306" lon="6.16925">
        <ele>782</ele>
        <time>2010-07-18 13:12:40Z</time>
      </trkpt>
      <trkpt lat="45.91309" lon="6.16886">
        <ele>783</ele>
        <time>2010-07-18 13:12:44Z</time>
      </trkpt>
      <trkpt lat="45.91308" lon="6.16877">
        <ele>785</ele>
        <time>2010-07-18 13:12:48Z</time>
      </trkpt>
      <trkpt lat="45.91308" lon="6.16877">
        <ele>785</ele>
        <time>2010-07-18 13:12:52Z</time>
      </trkpt>
      <trkpt lat="45.91306" lon="6.16862">
        <ele>785</ele>
        <time>2010-07-18 13:12:56Z</time>
      </trkpt>
      <trkpt lat="45.91306" lon="6.16862">
        <ele>785</ele>
        <time>2010-07-18 13:13:00Z</time>
      </trkpt>
      <trkpt lat="45.91295" lon="6.16829">
        <ele>787</ele>
        <time>2010-07-18 13:13:04Z</time>
      </trkpt>
      <trkpt lat="45.91286" lon="6.16818">
        <ele>787</ele>
        <time>2010-07-18 13:13:08Z</time>
      </trkpt>
      <trkpt lat="45.91269" lon="6.16802">
        <ele>787</ele>
        <time>2010-07-18 13:13:12Z</time>
      </trkpt>
      <trkpt lat="45.91259" lon="6.16786">
        <ele>787</ele>
        <time>2010-07-18 13:13:16Z</time>
      </trkpt>
      <trkpt lat="45.91257" lon="6.16782">
        <ele>786</ele>
        <time>2010-07-18 13:13:20Z</time>
      </trkpt>
      <trkpt lat="45.91246" lon="6.16772">
        <ele>785</ele>
        <time>2010-07-18 13:13:24Z</time>
      </trkpt>
      <trkpt lat="45.91246" lon="6.16772">
        <ele>785</ele>
        <time>2010-07-18 13:13:28Z</time>
      </trkpt>
      <trkpt lat="45.91233" lon="6.16759">
        <ele>784</ele>
        <time>2010-07-18 13:13:32Z</time>
      </trkpt>
      <trkpt lat="45.91233" lon="6.16759">
        <ele>784</ele>
        <time>2010-07-18 13:13:36Z</time>
      </trkpt>
      <trkpt lat="45.91217" lon="6.16745">
        <ele>781</ele>
        <time>2010-07-18 13:13:40Z</time>
      </trkpt>
      <trkpt lat="45.91213" lon="6.16742">
        <ele>781</ele>
        <time>2010-07-18 13:13:44Z</time>
      </trkpt>
      <trkpt lat="45.91213" lon="6.16742">
        <ele>781</ele>
        <time>2010-07-18 13:13:48Z</time>
      </trkpt>
      <trkpt lat="45.91177" lon="6.16709">
        <ele>781</ele>
        <time>2010-07-18 13:13:52Z</time>
      </trkpt>
      <trkpt lat="45.91161" lon="6.16694">
        <ele>781</ele>
        <time>2010-07-18 13:13:56Z</time>
      </trkpt>
      <trkpt lat="45.91148" lon="6.16682">
        <ele>781</ele>
        <time>2010-07-18 13:14:00Z</time>
      </trkpt>
      <trkpt lat="45.91142" lon="6.16675">
        <ele>781</ele>
        <time>2010-07-18 13:14:04Z</time>
      </trkpt>
      <trkpt lat="45.91141" lon="6.16678">
        <ele>781</ele>
        <time>2010-07-18 13:14:08Z</time>
      </trkpt>
      <trkpt lat="45.91141" lon="6.16678">
        <ele>781</ele>
        <time>2010-07-18 13:14:12Z</time>
      </trkpt>
      <trkpt lat="45.91116" lon="6.16669">
        <ele>778</ele>
        <time>2010-07-18 13:14:16Z</time>
      </trkpt>
      <trkpt lat="45.91108" lon="6.16666">
        <ele>776</ele>
        <time>2010-07-18 13:14:20Z</time>
      </trkpt>
      <trkpt lat="45.91105" lon="6.16662">
        <ele>775</ele>
        <time>2010-07-18 13:14:24Z</time>
      </trkpt>
      <trkpt lat="45.91105" lon="6.16662">
        <ele>775</ele>
        <time>2010-07-18 13:14:28Z</time>
      </trkpt>
      <trkpt lat="45.91105" lon="6.16662">
        <ele>775</ele>
        <time>2010-07-18 13:14:32Z</time>
      </trkpt>
      <trkpt lat="45.91091" lon="6.16637">
        <ele>778</ele>
        <time>2010-07-18 13:14:36Z</time>
      </trkpt>
      <trkpt lat="45.91091" lon="6.16637">
        <ele>778</ele>
        <time>2010-07-18 13:14:40Z</time>
      </trkpt>
      <trkpt lat="45.91091" lon="6.16637">
        <ele>778</ele>
        <time>2010-07-18 13:14:44Z</time>
      </trkpt>
      <trkpt lat="45.91091" lon="6.16637">
        <ele>778</ele>
        <time>2010-07-18 13:14:48Z</time>
      </trkpt>
      <trkpt lat="45.91118" lon="6.16626">
        <ele>778</ele>
        <time>2010-07-18 13:14:52Z</time>
      </trkpt>
      <trkpt lat="45.91118" lon="6.16626">
        <ele>778</ele>
        <time>2010-07-18 13:14:56Z</time>
      </trkpt>
      <trkpt lat="45.91118" lon="6.16626">
        <ele>778</ele>
        <time>2010-07-18 13:15:00Z</time>
      </trkpt>
      <trkpt lat="45.91144" lon="6.16613">
        <ele>778</ele>
        <time>2010-07-18 13:15:04Z</time>
      </trkpt>
      <trkpt lat="45.91144" lon="6.16613">
        <ele>778</ele>
        <time>2010-07-18 13:15:08Z</time>
      </trkpt>
      <trkpt lat="45.91144" lon="6.16613">
        <ele>778</ele>
        <time>2010-07-18 13:15:12Z</time>
      </trkpt>
      <trkpt lat="45.91172" lon="6.16615">
        <ele>774</ele>
        <time>2010-07-18 13:15:16Z</time>
      </trkpt>
      <trkpt lat="45.91183" lon="6.16617">
        <ele>773</ele>
        <time>2010-07-18 13:15:20Z</time>
      </trkpt>
      <trkpt lat="45.91183" lon="6.16617">
        <ele>773</ele>
        <time>2010-07-18 13:15:24Z</time>
      </trkpt>
      <trkpt lat="45.91183" lon="6.16617">
        <ele>773</ele>
        <time>2010-07-18 13:15:28Z</time>
      </trkpt>
      <trkpt lat="45.91183" lon="6.16617">
        <ele>773</ele>
        <time>2010-07-18 13:15:32Z</time>
      </trkpt>
      <trkpt lat="45.91183" lon="6.16617">
        <ele>773</ele>
        <time>2010-07-18 13:15:36Z</time>
      </trkpt>
      <trkpt lat="45.9121" lon="6.1661">
        <ele>770</ele>
        <time>2010-07-18 13:15:40Z</time>
      </trkpt>
      <trkpt lat="45.9121" lon="6.1661">
        <ele>770</ele>
        <time>2010-07-18 13:15:44Z</time>
      </trkpt>
      <trkpt lat="45.91225" lon="6.16608">
        <ele>769</ele>
        <time>2010-07-18 13:15:48Z</time>
      </trkpt>
      <trkpt lat="45.91226" lon="6.16607">
        <ele>769</ele>
        <time>2010-07-18 13:15:52Z</time>
      </trkpt>
      <trkpt lat="45.9124" lon="6.16601">
        <ele>770</ele>
        <time>2010-07-18 13:15:56Z</time>
      </trkpt>
      <trkpt lat="45.91241" lon="6.16601">
        <ele>771</ele>
        <time>2010-07-18 13:16:00Z</time>
      </trkpt>
      <trkpt lat="45.91249" lon="6.16594">
        <ele>773</ele>
        <time>2010-07-18 13:16:04Z</time>
      </trkpt>
      <trkpt lat="45.91251" lon="6.16593">
        <ele>773</ele>
        <time>2010-07-18 13:16:08Z</time>
      </trkpt>
      <trkpt lat="45.91251" lon="6.16593">
        <ele>773</ele>
        <time>2010-07-18 13:16:12Z</time>
      </trkpt>
      <trkpt lat="45.91284" lon="6.16574">
        <ele>772</ele>
        <time>2010-07-18 13:16:16Z</time>
      </trkpt>
      <trkpt lat="45.91293" lon="6.16562">
        <ele>767</ele>
        <time>2010-07-18 13:16:20Z</time>
      </trkpt>
      <trkpt lat="45.91293" lon="6.16562">
        <ele>767</ele>
        <time>2010-07-18 13:16:24Z</time>
      </trkpt>
      <trkpt lat="45.91312" lon="6.16532">
        <ele>749</ele>
        <time>2010-07-18 13:16:28Z</time>
      </trkpt>
      <trkpt lat="45.91312" lon="6.16532">
        <ele>749</ele>
        <time>2010-07-18 13:16:32Z</time>
      </trkpt>
      <trkpt lat="45.91312" lon="6.16532">
        <ele>749</ele>
        <time>2010-07-18 13:16:36Z</time>
      </trkpt>
      <trkpt lat="45.91321" lon="6.16513">
        <ele>741</ele>
        <time>2010-07-18 13:16:40Z</time>
      </trkpt>
      <trkpt lat="45.91321" lon="6.16513">
        <ele>741</ele>
        <time>2010-07-18 13:16:44Z</time>
      </trkpt>
      <trkpt lat="45.91321" lon="6.16513">
        <ele>741</ele>
        <time>2010-07-18 13:16:48Z</time>
      </trkpt>
      <trkpt lat="45.91325" lon="6.16494">
        <ele>736</ele>
        <time>2010-07-18 13:16:52Z</time>
      </trkpt>
      <trkpt lat="45.91325" lon="6.16494">
        <ele>736</ele>
        <time>2010-07-18 13:16:56Z</time>
      </trkpt>
      <trkpt lat="45.91325" lon="6.16494">
        <ele>736</ele>
        <time>2010-07-18 13:17:00Z</time>
      </trkpt>
      <trkpt lat="45.91325" lon="6.16494">
        <ele>736</ele>
        <time>2010-07-18 13:17:04Z</time>
      </trkpt>
      <trkpt lat="45.91331" lon="6.16479">
        <ele>730</ele>
        <time>2010-07-18 13:17:08Z</time>
      </trkpt>
      <trkpt lat="45.91333" lon="6.16467">
        <ele>726</ele>
        <time>2010-07-18 13:17:12Z</time>
      </trkpt>
      <trkpt lat="45.91334" lon="6.16454">
        <ele>723</ele>
        <time>2010-07-18 13:17:16Z</time>
      </trkpt>
      <trkpt lat="45.91335" lon="6.16442">
        <ele>720</ele>
        <time>2010-07-18 13:17:20Z</time>
      </trkpt>
      <trkpt lat="45.91335" lon="6.16442">
        <ele>720</ele>
        <time>2010-07-18 13:17:24Z</time>
      </trkpt>
      <trkpt lat="45.91342" lon="6.16415">
        <ele>711</ele>
        <time>2010-07-18 13:17:28Z</time>
      </trkpt>
      <trkpt lat="45.91342" lon="6.16415">
        <ele>711</ele>
        <time>2010-07-18 13:17:32Z</time>
      </trkpt>
      <trkpt lat="45.91349" lon="6.16394">
        <ele>703</ele>
        <time>2010-07-18 13:17:36Z</time>
      </trkpt>
      <trkpt lat="45.91352" lon="6.16384">
        <ele>696</ele>
        <time>2010-07-18 13:17:40Z</time>
      </trkpt>
      <trkpt lat="45.91358" lon="6.16362">
        <ele>681</ele>
        <time>2010-07-18 13:17:44Z</time>
      </trkpt>
      <trkpt lat="45.91365" lon="6.16342">
        <ele>667</ele>
        <time>2010-07-18 13:17:48Z</time>
      </trkpt>
      <trkpt lat="45.91375" lon="6.16327">
        <ele>656</ele>
        <time>2010-07-18 13:17:52Z</time>
      </trkpt>
      <trkpt lat="45.91385" lon="6.16319">
        <ele>649</ele>
        <time>2010-07-18 13:17:56Z</time>
      </trkpt>
      <trkpt lat="45.91395" lon="6.16313">
        <ele>640</ele>
        <time>2010-07-18 13:18:00Z</time>
      </trkpt>
      <trkpt lat="45.91403" lon="6.16309">
        <ele>634</ele>
        <time>2010-07-18 13:18:04Z</time>
      </trkpt>
      <trkpt lat="45.91412" lon="6.16308">
        <ele>628</ele>
        <time>2010-07-18 13:18:08Z</time>
      </trkpt>
      <trkpt lat="45.91419" lon="6.16305">
        <ele>613</ele>
        <time>2010-07-18 13:18:12Z</time>
      </trkpt>
      <trkpt lat="45.91426" lon="6.16304">
        <ele>603</ele>
        <time>2010-07-18 13:18:16Z</time>
      </trkpt>
      <trkpt lat="45.91434" lon="6.16303">
        <ele>596</ele>
        <time>2010-07-18 13:18:20Z</time>
      </trkpt>
      <trkpt lat="45.91443" lon="6.16301">
        <ele>591</ele>
        <time>2010-07-18 13:18:24Z</time>
      </trkpt>
      <trkpt lat="45.91452" lon="6.163">
        <ele>588</ele>
        <time>2010-07-18 13:18:28Z</time>
      </trkpt>
      <trkpt lat="45.91462" lon="6.16298">
        <ele>585</ele>
        <time>2010-07-18 13:18:32Z</time>
      </trkpt>
      <trkpt lat="45.91471" lon="6.16296">
        <ele>584</ele>
        <time>2010-07-18 13:18:36Z</time>
      </trkpt>
      <trkpt lat="45.91481" lon="6.16294">
        <ele>583</ele>
        <time>2010-07-18 13:18:40Z</time>
      </trkpt>
      <trkpt lat="45.91493" lon="6.16293">
        <ele>583</ele>
        <time>2010-07-18 13:18:44Z</time>
      </trkpt>
      <trkpt lat="45.91502" lon="6.16292">
        <ele>582</ele>
        <time>2010-07-18 13:18:48Z</time>
      </trkpt>
      <trkpt lat="45.91511" lon="6.16291">
        <ele>582</ele>
        <time>2010-07-18 13:18:52Z</time>
      </trkpt>
      <trkpt lat="45.91522" lon="6.16291">
        <ele>581</ele>
        <time>2010-07-18 13:18:56Z</time>
      </trkpt>
      <trkpt lat="45.91528" lon="6.16291">
        <ele>582</ele>
        <time>2010-07-18 13:19:00Z</time>
      </trkpt>
      <trkpt lat="45.91534" lon="6.16291">
        <ele>583</ele>
        <time>2010-07-18 13:19:04Z</time>
      </trkpt>
      <trkpt lat="45.9154" lon="6.16292">
        <ele>585</ele>
        <time>2010-07-18 13:19:08Z</time>
      </trkpt>
      <trkpt lat="45.91546" lon="6.16295">
        <ele>586</ele>
        <time>2010-07-18 13:19:12Z</time>
      </trkpt>
      <trkpt lat="45.9155" lon="6.16298">
        <ele>587</ele>
        <time>2010-07-18 13:19:16Z</time>
      </trkpt>
      <trkpt lat="45.91556" lon="6.16301">
        <ele>588</ele>
        <time>2010-07-18 13:19:20Z</time>
      </trkpt>
      <trkpt lat="45.91562" lon="6.16305">
        <ele>588</ele>
        <time>2010-07-18 13:19:24Z</time>
      </trkpt>
      <trkpt lat="45.91567" lon="6.1631">
        <ele>589</ele>
        <time>2010-07-18 13:19:28Z</time>
      </trkpt>
      <trkpt lat="45.91573" lon="6.16315">
        <ele>590</ele>
        <time>2010-07-18 13:19:32Z</time>
      </trkpt>
      <trkpt lat="45.91578" lon="6.16318">
        <ele>590</ele>
        <time>2010-07-18 13:19:36Z</time>
      </trkpt>
      <trkpt lat="45.91584" lon="6.16323">
        <ele>589</ele>
        <time>2010-07-18 13:19:40Z</time>
      </trkpt>
      <trkpt lat="45.9159" lon="6.16327">
        <ele>589</ele>
        <time>2010-07-18 13:19:44Z</time>
      </trkpt>
      <trkpt lat="45.91595" lon="6.16333">
        <ele>590</ele>
        <time>2010-07-18 13:19:48Z</time>
      </trkpt>
      <trkpt lat="45.91599" lon="6.16336">
        <ele>590</ele>
        <time>2010-07-18 13:19:52Z</time>
      </trkpt>
      <trkpt lat="45.91605" lon="6.1634">
        <ele>590</ele>
        <time>2010-07-18 13:19:56Z</time>
      </trkpt>
      <trkpt lat="45.91611" lon="6.16343">
        <ele>590</ele>
        <time>2010-07-18 13:20:00Z</time>
      </trkpt>
      <trkpt lat="45.91615" lon="6.16345">
        <ele>590</ele>
        <time>2010-07-18 13:20:04Z</time>
      </trkpt>
      <trkpt lat="45.91623" lon="6.16348">
        <ele>589</ele>
        <time>2010-07-18 13:20:08Z</time>
      </trkpt>
      <trkpt lat="45.91628" lon="6.1635">
        <ele>589</ele>
        <time>2010-07-18 13:20:12Z</time>
      </trkpt>
      <trkpt lat="45.91633" lon="6.16352">
        <ele>589</ele>
        <time>2010-07-18 13:20:16Z</time>
      </trkpt>
      <trkpt lat="45.91639" lon="6.16353">
        <ele>590</ele>
        <time>2010-07-18 13:20:20Z</time>
      </trkpt>
      <trkpt lat="45.91644" lon="6.16356">
        <ele>591</ele>
        <time>2010-07-18 13:20:24Z</time>
      </trkpt>
      <trkpt lat="45.9165" lon="6.16359">
        <ele>592</ele>
        <time>2010-07-18 13:20:28Z</time>
      </trkpt>
      <trkpt lat="45.91657" lon="6.16362">
        <ele>593</ele>
        <time>2010-07-18 13:20:32Z</time>
      </trkpt>
      <trkpt lat="45.91662" lon="6.16363">
        <ele>593</ele>
        <time>2010-07-18 13:20:36Z</time>
      </trkpt>
      <trkpt lat="45.91669" lon="6.16365">
        <ele>592</ele>
        <time>2010-07-18 13:20:40Z</time>
      </trkpt>
      <trkpt lat="45.91674" lon="6.16367">
        <ele>593</ele>
        <time>2010-07-18 13:20:44Z</time>
      </trkpt>
      <trkpt lat="45.9168" lon="6.16368">
        <ele>593</ele>
        <time>2010-07-18 13:20:48Z</time>
      </trkpt>
      <trkpt lat="45.91686" lon="6.16368">
        <ele>593</ele>
        <time>2010-07-18 13:20:52Z</time>
      </trkpt>
      <trkpt lat="45.91692" lon="6.1637">
        <ele>593</ele>
        <time>2010-07-18 13:20:56Z</time>
      </trkpt>
      <trkpt lat="45.91698" lon="6.16372">
        <ele>594</ele>
        <time>2010-07-18 13:21:00Z</time>
      </trkpt>
      <trkpt lat="45.91703" lon="6.16373">
        <ele>596</ele>
        <time>2010-07-18 13:21:04Z</time>
      </trkpt>
      <trkpt lat="45.91708" lon="6.16376">
        <ele>597</ele>
        <time>2010-07-18 13:21:08Z</time>
      </trkpt>
      <trkpt lat="45.91713" lon="6.1638">
        <ele>597</ele>
        <time>2010-07-18 13:21:12Z</time>
      </trkpt>
      <trkpt lat="45.91718" lon="6.16382">
        <ele>597</ele>
        <time>2010-07-18 13:21:16Z</time>
      </trkpt>
      <trkpt lat="45.91722" lon="6.16384">
        <ele>598</ele>
        <time>2010-07-18 13:21:20Z</time>
      </trkpt>
      <trkpt lat="45.91727" lon="6.16387">
        <ele>600</ele>
        <time>2010-07-18 13:21:24Z</time>
      </trkpt>
      <trkpt lat="45.91732" lon="6.16389">
        <ele>602</ele>
        <time>2010-07-18 13:21:28Z</time>
      </trkpt>
      <trkpt lat="45.91736" lon="6.16391">
        <ele>603</ele>
        <time>2010-07-18 13:21:32Z</time>
      </trkpt>
      <trkpt lat="45.91742" lon="6.16393">
        <ele>604</ele>
        <time>2010-07-18 13:21:36Z</time>
      </trkpt>
      <trkpt lat="45.91747" lon="6.16396">
        <ele>604</ele>
        <time>2010-07-18 13:21:40Z</time>
      </trkpt>
      <trkpt lat="45.91751" lon="6.16399">
        <ele>604</ele>
        <time>2010-07-18 13:21:44Z</time>
      </trkpt>
      <trkpt lat="45.91755" lon="6.16402">
        <ele>605</ele>
        <time>2010-07-18 13:21:48Z</time>
      </trkpt>
      <trkpt lat="45.91759" lon="6.16404">
        <ele>606</ele>
        <time>2010-07-18 13:21:52Z</time>
      </trkpt>
      <trkpt lat="45.91764" lon="6.16406">
        <ele>608</ele>
        <time>2010-07-18 13:21:56Z</time>
      </trkpt>
      <trkpt lat="45.91768" lon="6.16407">
        <ele>608</ele>
        <time>2010-07-18 13:22:00Z</time>
      </trkpt>
      <trkpt lat="45.91774" lon="6.1641">
        <ele>609</ele>
        <time>2010-07-18 13:22:04Z</time>
      </trkpt>
      <trkpt lat="45.9178" lon="6.16413">
        <ele>609</ele>
        <time>2010-07-18 13:22:08Z</time>
      </trkpt>
      <trkpt lat="45.91785" lon="6.16415">
        <ele>611</ele>
        <time>2010-07-18 13:22:12Z</time>
      </trkpt>
      <trkpt lat="45.9179" lon="6.16417">
        <ele>611</ele>
        <time>2010-07-18 13:22:16Z</time>
      </trkpt>
      <trkpt lat="45.91797" lon="6.1642">
        <ele>611</ele>
        <time>2010-07-18 13:22:20Z</time>
      </trkpt>
      <trkpt lat="45.91802" lon="6.16422">
        <ele>611</ele>
        <time>2010-07-18 13:22:24Z</time>
      </trkpt>
      <trkpt lat="45.91807" lon="6.16424">
        <ele>612</ele>
        <time>2010-07-18 13:22:28Z</time>
      </trkpt>
      <trkpt lat="45.91813" lon="6.16427">
        <ele>613</ele>
        <time>2010-07-18 13:22:32Z</time>
      </trkpt>
      <trkpt lat="45.91818" lon="6.1643">
        <ele>613</ele>
        <time>2010-07-18 13:22:36Z</time>
      </trkpt>
      <trkpt lat="45.91823" lon="6.16431">
        <ele>615</ele>
        <time>2010-07-18 13:22:40Z</time>
      </trkpt>
      <trkpt lat="45.91828" lon="6.16432">
        <ele>616</ele>
        <time>2010-07-18 13:22:44Z</time>
      </trkpt>
      <trkpt lat="45.91832" lon="6.16433">
        <ele>618</ele>
        <time>2010-07-18 13:22:48Z</time>
      </trkpt>
      <trkpt lat="45.91838" lon="6.16435">
        <ele>621</ele>
        <time>2010-07-18 13:22:52Z</time>
      </trkpt>
      <trkpt lat="45.91843" lon="6.16437">
        <ele>621</ele>
        <time>2010-07-18 13:22:56Z</time>
      </trkpt>
      <trkpt lat="45.91848" lon="6.1644">
        <ele>622</ele>
        <time>2010-07-18 13:23:00Z</time>
      </trkpt>
      <trkpt lat="45.91855" lon="6.16444">
        <ele>622</ele>
        <time>2010-07-18 13:23:04Z</time>
      </trkpt>
      <trkpt lat="45.91861" lon="6.16448">
        <ele>623</ele>
        <time>2010-07-18 13:23:08Z</time>
      </trkpt>
      <trkpt lat="45.91866" lon="6.16452">
        <ele>623</ele>
        <time>2010-07-18 13:23:12Z</time>
      </trkpt>
      <trkpt lat="45.91872" lon="6.16455">
        <ele>623</ele>
        <time>2010-07-18 13:23:16Z</time>
      </trkpt>
      <trkpt lat="45.91879" lon="6.16458">
        <ele>623</ele>
        <time>2010-07-18 13:23:20Z</time>
      </trkpt>
      <trkpt lat="45.91884" lon="6.16461">
        <ele>624</ele>
        <time>2010-07-18 13:23:24Z</time>
      </trkpt>
      <trkpt lat="45.9189" lon="6.16463">
        <ele>624</ele>
        <time>2010-07-18 13:23:28Z</time>
      </trkpt>
      <trkpt lat="45.91896" lon="6.16467">
        <ele>624</ele>
        <time>2010-07-18 13:23:32Z</time>
      </trkpt>
      <trkpt lat="45.91902" lon="6.16471">
        <ele>624</ele>
        <time>2010-07-18 13:23:36Z</time>
      </trkpt>
      <trkpt lat="45.91909" lon="6.16479">
        <ele>625</ele>
        <time>2010-07-18 13:23:40Z</time>
      </trkpt>
      <trkpt lat="45.91916" lon="6.16486">
        <ele>625</ele>
        <time>2010-07-18 13:23:44Z</time>
      </trkpt>
      <trkpt lat="45.91922" lon="6.16494">
        <ele>626</ele>
        <time>2010-07-18 13:23:48Z</time>
      </trkpt>
      <trkpt lat="45.9193" lon="6.16504">
        <ele>628</ele>
        <time>2010-07-18 13:23:52Z</time>
      </trkpt>
      <trkpt lat="45.91937" lon="6.16513">
        <ele>629</ele>
        <time>2010-07-18 13:23:56Z</time>
      </trkpt>
      <trkpt lat="45.91943" lon="6.16521">
        <ele>630</ele>
        <time>2010-07-18 13:24:00Z</time>
      </trkpt>
      <trkpt lat="45.91951" lon="6.16531">
        <ele>630</ele>
        <time>2010-07-18 13:24:04Z</time>
      </trkpt>
      <trkpt lat="45.91956" lon="6.1654">
        <ele>631</ele>
        <time>2010-07-18 13:24:08Z</time>
      </trkpt>
      <trkpt lat="45.91964" lon="6.16551">
        <ele>631</ele>
        <time>2010-07-18 13:24:12Z</time>
      </trkpt>
      <trkpt lat="45.9197" lon="6.16559">
        <ele>631</ele>
        <time>2010-07-18 13:24:16Z</time>
      </trkpt>
      <trkpt lat="45.91977" lon="6.16568">
        <ele>631</ele>
        <time>2010-07-18 13:24:20Z</time>
      </trkpt>
      <trkpt lat="45.91985" lon="6.16578">
        <ele>630</ele>
        <time>2010-07-18 13:24:24Z</time>
      </trkpt>
      <trkpt lat="45.91991" lon="6.16587">
        <ele>629</ele>
        <time>2010-07-18 13:24:28Z</time>
      </trkpt>
      <trkpt lat="45.91998" lon="6.16595">
        <ele>629</ele>
        <time>2010-07-18 13:24:32Z</time>
      </trkpt>
      <trkpt lat="45.92005" lon="6.16604">
        <ele>629</ele>
        <time>2010-07-18 13:24:36Z</time>
      </trkpt>
      <trkpt lat="45.9201" lon="6.16609">
        <ele>630</ele>
        <time>2010-07-18 13:24:40Z</time>
      </trkpt>
      <trkpt lat="45.92014" lon="6.16615">
        <ele>630</ele>
        <time>2010-07-18 13:24:44Z</time>
      </trkpt>
      <trkpt lat="45.92019" lon="6.16621">
        <ele>631</ele>
        <time>2010-07-18 13:24:48Z</time>
      </trkpt>
      <trkpt lat="45.92024" lon="6.16628">
        <ele>631</ele>
        <time>2010-07-18 13:24:52Z</time>
      </trkpt>
      <trkpt lat="45.92028" lon="6.16635">
        <ele>631</ele>
        <time>2010-07-18 13:24:56Z</time>
      </trkpt>
      <trkpt lat="45.92033" lon="6.16641">
        <ele>631</ele>
        <time>2010-07-18 13:25:00Z</time>
      </trkpt>
      <trkpt lat="45.92037" lon="6.16647">
        <ele>630</ele>
        <time>2010-07-18 13:25:04Z</time>
      </trkpt>
      <trkpt lat="45.92042" lon="6.16654">
        <ele>631</ele>
        <time>2010-07-18 13:25:08Z</time>
      </trkpt>
      <trkpt lat="45.92047" lon="6.16661">
        <ele>631</ele>
        <time>2010-07-18 13:25:12Z</time>
      </trkpt>
      <trkpt lat="45.92052" lon="6.16667">
        <ele>632</ele>
        <time>2010-07-18 13:25:16Z</time>
      </trkpt>
      <trkpt lat="45.92059" lon="6.16667">
        <ele>631</ele>
        <time>2010-07-18 13:25:20Z</time>
      </trkpt>
      <trkpt lat="45.92066" lon="6.16665">
        <ele>630</ele>
        <time>2010-07-18 13:25:24Z</time>
      </trkpt>
      <trkpt lat="45.92074" lon="6.16659">
        <ele>630</ele>
        <time>2010-07-18 13:25:28Z</time>
      </trkpt>
      <trkpt lat="45.9208" lon="6.16653">
        <ele>629</ele>
        <time>2010-07-18 13:25:32Z</time>
      </trkpt>
      <trkpt lat="45.92087" lon="6.16646">
        <ele>629</ele>
        <time>2010-07-18 13:25:36Z</time>
      </trkpt>
      <trkpt lat="45.92094" lon="6.16637">
        <ele>629</ele>
        <time>2010-07-18 13:25:40Z</time>
      </trkpt>
      <trkpt lat="45.92101" lon="6.16629">
        <ele>629</ele>
        <time>2010-07-18 13:25:44Z</time>
      </trkpt>
      <trkpt lat="45.92107" lon="6.1662">
        <ele>629</ele>
        <time>2010-07-18 13:25:48Z</time>
      </trkpt>
      <trkpt lat="45.92115" lon="6.16608">
        <ele>629</ele>
        <time>2010-07-18 13:25:52Z</time>
      </trkpt>
      <trkpt lat="45.92118" lon="6.16598">
        <ele>630</ele>
        <time>2010-07-18 13:25:56Z</time>
      </trkpt>
      <trkpt lat="45.92118" lon="6.16589">
        <ele>630</ele>
        <time>2010-07-18 13:26:00Z</time>
      </trkpt>
      <trkpt lat="45.92115" lon="6.16577">
        <ele>632</ele>
        <time>2010-07-18 13:26:04Z</time>
      </trkpt>
      <trkpt lat="45.92111" lon="6.16568">
        <ele>633</ele>
        <time>2010-07-18 13:26:08Z</time>
      </trkpt>
      <trkpt lat="45.92107" lon="6.16553">
        <ele>634</ele>
        <time>2010-07-18 13:26:12Z</time>
      </trkpt>
      <trkpt lat="45.92104" lon="6.16541">
        <ele>634</ele>
        <time>2010-07-18 13:26:16Z</time>
      </trkpt>
      <trkpt lat="45.921" lon="6.16528">
        <ele>636</ele>
        <time>2010-07-18 13:26:20Z</time>
      </trkpt>
      <trkpt lat="45.92097" lon="6.16516">
        <ele>637</ele>
        <time>2010-07-18 13:26:24Z</time>
      </trkpt>
      <trkpt lat="45.92093" lon="6.165">
        <ele>639</ele>
        <time>2010-07-18 13:26:28Z</time>
      </trkpt>
      <trkpt lat="45.92091" lon="6.16487">
        <ele>639</ele>
        <time>2010-07-18 13:26:32Z</time>
      </trkpt>
      <trkpt lat="45.92088" lon="6.1647">
        <ele>640</ele>
        <time>2010-07-18 13:26:36Z</time>
      </trkpt>
      <trkpt lat="45.92086" lon="6.16457">
        <ele>641</ele>
        <time>2010-07-18 13:26:40Z</time>
      </trkpt>
      <trkpt lat="45.92084" lon="6.16442">
        <ele>642</ele>
        <time>2010-07-18 13:26:44Z</time>
      </trkpt>
      <trkpt lat="45.92081" lon="6.16426">
        <ele>641</ele>
        <time>2010-07-18 13:26:48Z</time>
      </trkpt>
      <trkpt lat="45.92078" lon="6.16411">
        <ele>640</ele>
        <time>2010-07-18 13:26:52Z</time>
      </trkpt>
      <trkpt lat="45.92075" lon="6.16397">
        <ele>638</ele>
        <time>2010-07-18 13:26:56Z</time>
      </trkpt>
      <trkpt lat="45.92071" lon="6.16381">
        <ele>637</ele>
        <time>2010-07-18 13:27:00Z</time>
      </trkpt>
      <trkpt lat="45.92068" lon="6.16368">
        <ele>638</ele>
        <time>2010-07-18 13:27:04Z</time>
      </trkpt>
      <trkpt lat="45.92063" lon="6.16355">
        <ele>638</ele>
        <time>2010-07-18 13:27:08Z</time>
      </trkpt>
      <trkpt lat="45.92059" lon="6.16343">
        <ele>637</ele>
        <time>2010-07-18 13:27:12Z</time>
      </trkpt>
      <trkpt lat="45.92054" lon="6.16329">
        <ele>637</ele>
        <time>2010-07-18 13:27:16Z</time>
      </trkpt>
      <trkpt lat="45.92051" lon="6.16317">
        <ele>638</ele>
        <time>2010-07-18 13:27:20Z</time>
      </trkpt>
      <trkpt lat="45.92046" lon="6.16303">
        <ele>639</ele>
        <time>2010-07-18 13:27:24Z</time>
      </trkpt>
      <trkpt lat="45.92043" lon="6.1629">
        <ele>639</ele>
        <time>2010-07-18 13:27:28Z</time>
      </trkpt>
      <trkpt lat="45.92039" lon="6.16275">
        <ele>640</ele>
        <time>2010-07-18 13:27:32Z</time>
      </trkpt>
      <trkpt lat="45.92035" lon="6.16262">
        <ele>640</ele>
        <time>2010-07-18 13:27:36Z</time>
      </trkpt>
      <trkpt lat="45.92031" lon="6.16247">
        <ele>639</ele>
        <time>2010-07-18 13:27:40Z</time>
      </trkpt>
      <trkpt lat="45.92027" lon="6.16234">
        <ele>638</ele>
        <time>2010-07-18 13:27:44Z</time>
      </trkpt>
      <trkpt lat="45.92024" lon="6.16219">
        <ele>637</ele>
        <time>2010-07-18 13:27:48Z</time>
      </trkpt>
      <trkpt lat="45.92023" lon="6.16203">
        <ele>635</ele>
        <time>2010-07-18 13:27:52Z</time>
      </trkpt>
      <trkpt lat="45.9202" lon="6.16191">
        <ele>635</ele>
        <time>2010-07-18 13:27:56Z</time>
      </trkpt>
      <trkpt lat="45.92016" lon="6.16179">
        <ele>635</ele>
        <time>2010-07-18 13:28:00Z</time>
      </trkpt>
      <trkpt lat="45.92011" lon="6.16168">
        <ele>635</ele>
        <time>2010-07-18 13:28:04Z</time>
      </trkpt>
      <trkpt lat="45.92003" lon="6.16157">
        <ele>635</ele>
        <time>2010-07-18 13:28:08Z</time>
      </trkpt>
      <trkpt lat="45.91999" lon="6.16144">
        <ele>636</ele>
        <time>2010-07-18 13:28:12Z</time>
      </trkpt>
      <trkpt lat="45.91994" lon="6.16129">
        <ele>637</ele>
        <time>2010-07-18 13:28:16Z</time>
      </trkpt>
      <trkpt lat="45.9199" lon="6.16116">
        <ele>638</ele>
        <time>2010-07-18 13:28:20Z</time>
      </trkpt>
      <trkpt lat="45.91987" lon="6.16099">
        <ele>640</ele>
        <time>2010-07-18 13:28:24Z</time>
      </trkpt>
      <trkpt lat="45.91984" lon="6.16084">
        <ele>641</ele>
        <time>2010-07-18 13:28:28Z</time>
      </trkpt>
      <trkpt lat="45.91981" lon="6.16065">
        <ele>640</ele>
        <time>2010-07-18 13:28:32Z</time>
      </trkpt>
      <trkpt lat="45.91979" lon="6.1605">
        <ele>640</ele>
        <time>2010-07-18 13:28:36Z</time>
      </trkpt>
      <trkpt lat="45.91976" lon="6.16033">
        <ele>639</ele>
        <time>2010-07-18 13:28:40Z</time>
      </trkpt>
      <trkpt lat="45.91974" lon="6.16017">
        <ele>636</ele>
        <time>2010-07-18 13:28:44Z</time>
      </trkpt>
      <trkpt lat="45.91974" lon="6.15997">
        <ele>634</ele>
        <time>2010-07-18 13:28:48Z</time>
      </trkpt>
      <trkpt lat="45.91977" lon="6.15979">
        <ele>631</ele>
        <time>2010-07-18 13:28:52Z</time>
      </trkpt>
      <trkpt lat="45.91979" lon="6.1596">
        <ele>627</ele>
        <time>2010-07-18 13:28:56Z</time>
      </trkpt>
      <trkpt lat="45.91974" lon="6.15942">
        <ele>623</ele>
        <time>2010-07-18 13:29:00Z</time>
      </trkpt>
      <trkpt lat="45.91966" lon="6.15931">
        <ele>618</ele>
        <time>2010-07-18 13:29:04Z</time>
      </trkpt>
      <trkpt lat="45.91956" lon="6.15918">
        <ele>613</ele>
        <time>2010-07-18 13:29:08Z</time>
      </trkpt>
      <trkpt lat="45.91951" lon="6.15905">
        <ele>611</ele>
        <time>2010-07-18 13:29:12Z</time>
      </trkpt>
      <trkpt lat="45.91946" lon="6.15893">
        <ele>610</ele>
        <time>2010-07-18 13:29:16Z</time>
      </trkpt>
      <trkpt lat="45.91941" lon="6.15879">
        <ele>609</ele>
        <time>2010-07-18 13:29:20Z</time>
      </trkpt>
      <trkpt lat="45.91936" lon="6.15867">
        <ele>608</ele>
        <time>2010-07-18 13:29:24Z</time>
      </trkpt>
      <trkpt lat="45.91931" lon="6.15852">
        <ele>607</ele>
        <time>2010-07-18 13:29:28Z</time>
      </trkpt>
      <trkpt lat="45.91925" lon="6.15841">
        <ele>606</ele>
        <time>2010-07-18 13:29:32Z</time>
      </trkpt>
      <trkpt lat="45.91919" lon="6.15827">
        <ele>607</ele>
        <time>2010-07-18 13:29:36Z</time>
      </trkpt>
      <trkpt lat="45.91914" lon="6.15816">
        <ele>607</ele>
        <time>2010-07-18 13:29:40Z</time>
      </trkpt>
      <trkpt lat="45.91911" lon="6.15802">
        <ele>609</ele>
        <time>2010-07-18 13:29:44Z</time>
      </trkpt>
      <trkpt lat="45.91907" lon="6.15791">
        <ele>609</ele>
        <time>2010-07-18 13:29:48Z</time>
      </trkpt>
      <trkpt lat="45.91903" lon="6.15777">
        <ele>610</ele>
        <time>2010-07-18 13:29:52Z</time>
      </trkpt>
      <trkpt lat="45.919" lon="6.15763">
        <ele>610</ele>
        <time>2010-07-18 13:29:56Z</time>
      </trkpt>
      <trkpt lat="45.91897" lon="6.15746">
        <ele>610</ele>
        <time>2010-07-18 13:30:00Z</time>
      </trkpt>
      <trkpt lat="45.91895" lon="6.15732">
        <ele>609</ele>
        <time>2010-07-18 13:30:04Z</time>
      </trkpt>
      <trkpt lat="45.91895" lon="6.1572">
        <ele>608</ele>
        <time>2010-07-18 13:30:08Z</time>
      </trkpt>
      <trkpt lat="45.91895" lon="6.15709">
        <ele>608</ele>
        <time>2010-07-18 13:30:12Z</time>
      </trkpt>
      <trkpt lat="45.91895" lon="6.157">
        <ele>608</ele>
        <time>2010-07-18 13:30:16Z</time>
      </trkpt>
      <trkpt lat="45.91896" lon="6.1569">
        <ele>608</ele>
        <time>2010-07-18 13:30:20Z</time>
      </trkpt>
      <trkpt lat="45.91898" lon="6.15681">
        <ele>607</ele>
        <time>2010-07-18 13:30:24Z</time>
      </trkpt>
      <trkpt lat="45.919" lon="6.15671">
        <ele>607</ele>
        <time>2010-07-18 13:30:28Z</time>
      </trkpt>
      <trkpt lat="45.91902" lon="6.15662">
        <ele>606</ele>
        <time>2010-07-18 13:30:32Z</time>
      </trkpt>
      <trkpt lat="45.91904" lon="6.15653">
        <ele>605</ele>
        <time>2010-07-18 13:30:36Z</time>
      </trkpt>
      <trkpt lat="45.91906" lon="6.15642">
        <ele>605</ele>
        <time>2010-07-18 13:30:40Z</time>
      </trkpt>
      <trkpt lat="45.91908" lon="6.15632">
        <ele>605</ele>
        <time>2010-07-18 13:30:44Z</time>
      </trkpt>
      <trkpt lat="45.91909" lon="6.1562">
        <ele>606</ele>
        <time>2010-07-18 13:30:48Z</time>
      </trkpt>
      <trkpt lat="45.91911" lon="6.15611">
        <ele>606</ele>
        <time>2010-07-18 13:30:52Z</time>
      </trkpt>
      <trkpt lat="45.91913" lon="6.15603">
        <ele>606</ele>
        <time>2010-07-18 13:30:56Z</time>
      </trkpt>
      <trkpt lat="45.91919" lon="6.15595">
        <ele>608</ele>
        <time>2010-07-18 13:31:00Z</time>
      </trkpt>
      <trkpt lat="45.91923" lon="6.15589">
        <ele>608</ele>
        <time>2010-07-18 13:31:04Z</time>
      </trkpt>
      <trkpt lat="45.91926" lon="6.15582">
        <ele>607</ele>
        <time>2010-07-18 13:31:08Z</time>
      </trkpt>
      <trkpt lat="45.91928" lon="6.15574">
        <ele>608</ele>
        <time>2010-07-18 13:31:12Z</time>
      </trkpt>
      <trkpt lat="45.91927" lon="6.15565">
        <ele>607</ele>
        <time>2010-07-18 13:31:16Z</time>
      </trkpt>
      <trkpt lat="45.91927" lon="6.15559">
        <ele>608</ele>
        <time>2010-07-18 13:31:20Z</time>
      </trkpt>
      <trkpt lat="45.91929" lon="6.1555">
        <ele>609</ele>
        <time>2010-07-18 13:31:24Z</time>
      </trkpt>
      <trkpt lat="45.91932" lon="6.15541">
        <ele>608</ele>
        <time>2010-07-18 13:31:28Z</time>
      </trkpt>
      <trkpt lat="45.91935" lon="6.15535">
        <ele>607</ele>
        <time>2010-07-18 13:31:32Z</time>
      </trkpt>
      <trkpt lat="45.9194" lon="6.15526">
        <ele>607</ele>
        <time>2010-07-18 13:31:36Z</time>
      </trkpt>
      <trkpt lat="45.91944" lon="6.15519">
        <ele>607</ele>
        <time>2010-07-18 13:31:40Z</time>
      </trkpt>
      <trkpt lat="45.91948" lon="6.15509">
        <ele>603</ele>
        <time>2010-07-18 13:31:44Z</time>
      </trkpt>
      <trkpt lat="45.91953" lon="6.15497">
        <ele>597</ele>
        <time>2010-07-18 13:31:48Z</time>
      </trkpt>
      <trkpt lat="45.91957" lon="6.15487">
        <ele>593</ele>
        <time>2010-07-18 13:31:52Z</time>
      </trkpt>
      <trkpt lat="45.91963" lon="6.15478">
        <ele>590</ele>
        <time>2010-07-18 13:31:56Z</time>
      </trkpt>
      <trkpt lat="45.91968" lon="6.15471">
        <ele>587</ele>
        <time>2010-07-18 13:32:00Z</time>
      </trkpt>
      <trkpt lat="45.91973" lon="6.15464">
        <ele>583</ele>
        <time>2010-07-18 13:32:04Z</time>
      </trkpt>
      <trkpt lat="45.91978" lon="6.15457">
        <ele>582</ele>
        <time>2010-07-18 13:32:08Z</time>
      </trkpt>
      <trkpt lat="45.91984" lon="6.1545">
        <ele>580</ele>
        <time>2010-07-18 13:32:12Z</time>
      </trkpt>
      <trkpt lat="45.9199" lon="6.15447">
        <ele>579</ele>
        <time>2010-07-18 13:32:16Z</time>
      </trkpt>
      <trkpt lat="45.91996" lon="6.15444">
        <ele>578</ele>
        <time>2010-07-18 13:32:20Z</time>
      </trkpt>
      <trkpt lat="45.92001" lon="6.15441">
        <ele>578</ele>
        <time>2010-07-18 13:32:24Z</time>
      </trkpt>
      <trkpt lat="45.92006" lon="6.15437">
        <ele>578</ele>
        <time>2010-07-18 13:32:28Z</time>
      </trkpt>
      <trkpt lat="45.92011" lon="6.15433">
        <ele>574</ele>
        <time>2010-07-18 13:32:32Z</time>
      </trkpt>
      <trkpt lat="45.92017" lon="6.1543">
        <ele>573</ele>
        <time>2010-07-18 13:32:36Z</time>
      </trkpt>
      <trkpt lat="45.92023" lon="6.15426">
        <ele>574</ele>
        <time>2010-07-18 13:32:40Z</time>
      </trkpt>
      <trkpt lat="45.9203" lon="6.15421">
        <ele>575</ele>
        <time>2010-07-18 13:32:44Z</time>
      </trkpt>
      <trkpt lat="45.92036" lon="6.15419">
        <ele>575</ele>
        <time>2010-07-18 13:32:48Z</time>
      </trkpt>
      <trkpt lat="45.92041" lon="6.15417">
        <ele>576</ele>
        <time>2010-07-18 13:32:52Z</time>
      </trkpt>
      <trkpt lat="45.92048" lon="6.15415">
        <ele>576</ele>
        <time>2010-07-18 13:32:56Z</time>
      </trkpt>
      <trkpt lat="45.92054" lon="6.15412">
        <ele>576</ele>
        <time>2010-07-18 13:33:00Z</time>
      </trkpt>
      <trkpt lat="45.92059" lon="6.15409">
        <ele>577</ele>
        <time>2010-07-18 13:33:04Z</time>
      </trkpt>
      <trkpt lat="45.92066" lon="6.15407">
        <ele>577</ele>
        <time>2010-07-18 13:33:08Z</time>
      </trkpt>
      <trkpt lat="45.92071" lon="6.15405">
        <ele>577</ele>
        <time>2010-07-18 13:33:12Z</time>
      </trkpt>
      <trkpt lat="45.92076" lon="6.15403">
        <ele>577</ele>
        <time>2010-07-18 13:33:16Z</time>
      </trkpt>
      <trkpt lat="45.92082" lon="6.15401">
        <ele>579</ele>
        <time>2010-07-18 13:33:20Z</time>
      </trkpt>
      <trkpt lat="45.92087" lon="6.15398">
        <ele>579</ele>
        <time>2010-07-18 13:33:24Z</time>
      </trkpt>
      <trkpt lat="45.92093" lon="6.15394">
        <ele>578</ele>
        <time>2010-07-18 13:33:28Z</time>
      </trkpt>
      <trkpt lat="45.92099" lon="6.1539">
        <ele>578</ele>
        <time>2010-07-18 13:33:32Z</time>
      </trkpt>
      <trkpt lat="45.92104" lon="6.15385">
        <ele>579</ele>
        <time>2010-07-18 13:33:36Z</time>
      </trkpt>
      <trkpt lat="45.92109" lon="6.1538">
        <ele>580</ele>
        <time>2010-07-18 13:33:40Z</time>
      </trkpt>
      <trkpt lat="45.92116" lon="6.15372">
        <ele>581</ele>
        <time>2010-07-18 13:33:44Z</time>
      </trkpt>
      <trkpt lat="45.92122" lon="6.15364">
        <ele>581</ele>
        <time>2010-07-18 13:33:48Z</time>
      </trkpt>
      <trkpt lat="45.9213" lon="6.15351">
        <ele>581</ele>
        <time>2010-07-18 13:33:52Z</time>
      </trkpt>
      <trkpt lat="45.92138" lon="6.15341">
        <ele>582</ele>
        <time>2010-07-18 13:33:56Z</time>
      </trkpt>
      <trkpt lat="45.92144" lon="6.15332">
        <ele>582</ele>
        <time>2010-07-18 13:34:00Z</time>
      </trkpt>
      <trkpt lat="45.92148" lon="6.15322">
        <ele>583</ele>
        <time>2010-07-18 13:34:04Z</time>
      </trkpt>
      <trkpt lat="45.92152" lon="6.15307">
        <ele>584</ele>
        <time>2010-07-18 13:34:08Z</time>
      </trkpt>
      <trkpt lat="45.92154" lon="6.15295">
        <ele>585</ele>
        <time>2010-07-18 13:34:12Z</time>
      </trkpt>
      <trkpt lat="45.92153" lon="6.15283">
        <ele>586</ele>
        <time>2010-07-18 13:34:16Z</time>
      </trkpt>
      <trkpt lat="45.92152" lon="6.15273">
        <ele>587</ele>
        <time>2010-07-18 13:34:20Z</time>
      </trkpt>
      <trkpt lat="45.9215" lon="6.15262">
        <ele>589</ele>
        <time>2010-07-18 13:34:24Z</time>
      </trkpt>
      <trkpt lat="45.92147" lon="6.15251">
        <ele>591</ele>
        <time>2010-07-18 13:34:28Z</time>
      </trkpt>
      <trkpt lat="45.92144" lon="6.15241">
        <ele>593</ele>
        <time>2010-07-18 13:34:32Z</time>
      </trkpt>
      <trkpt lat="45.92142" lon="6.15228">
        <ele>595</ele>
        <time>2010-07-18 13:34:36Z</time>
      </trkpt>
      <trkpt lat="45.9214" lon="6.15217">
        <ele>597</ele>
        <time>2010-07-18 13:34:40Z</time>
      </trkpt>
      <trkpt lat="45.92142" lon="6.15203">
        <ele>598</ele>
        <time>2010-07-18 13:34:44Z</time>
      </trkpt>
      <trkpt lat="45.92147" lon="6.15188">
        <ele>598</ele>
        <time>2010-07-18 13:34:48Z</time>
      </trkpt>
      <trkpt lat="45.92151" lon="6.15174">
        <ele>598</ele>
        <time>2010-07-18 13:34:52Z</time>
      </trkpt>
      <trkpt lat="45.92152" lon="6.15159">
        <ele>597</ele>
        <time>2010-07-18 13:34:56Z</time>
      </trkpt>
      <trkpt lat="45.92154" lon="6.15144">
        <ele>598</ele>
        <time>2010-07-18 13:35:00Z</time>
      </trkpt>
      <trkpt lat="45.92157" lon="6.15127">
        <ele>599</ele>
        <time>2010-07-18 13:35:04Z</time>
      </trkpt>
      <trkpt lat="45.9216" lon="6.15113">
        <ele>601</ele>
        <time>2010-07-18 13:35:08Z</time>
      </trkpt>
      <trkpt lat="45.92163" lon="6.15097">
        <ele>602</ele>
        <time>2010-07-18 13:35:12Z</time>
      </trkpt>
      <trkpt lat="45.92163" lon="6.15081">
        <ele>601</ele>
        <time>2010-07-18 13:35:16Z</time>
      </trkpt>
      <trkpt lat="45.92162" lon="6.15065">
        <ele>601</ele>
        <time>2010-07-18 13:35:20Z</time>
      </trkpt>
      <trkpt lat="45.92159" lon="6.15054">
        <ele>600</ele>
        <time>2010-07-18 13:35:24Z</time>
      </trkpt>
      <trkpt lat="45.92159" lon="6.1504">
        <ele>600</ele>
        <time>2010-07-18 13:35:28Z</time>
      </trkpt>
      <trkpt lat="45.92159" lon="6.15027">
        <ele>599</ele>
        <time>2010-07-18 13:35:32Z</time>
      </trkpt>
      <trkpt lat="45.92159" lon="6.15011">
        <ele>599</ele>
        <time>2010-07-18 13:35:36Z</time>
      </trkpt>
      <trkpt lat="45.92156" lon="6.14998">
        <ele>599</ele>
        <time>2010-07-18 13:35:40Z</time>
      </trkpt>
      <trkpt lat="45.9215" lon="6.14991">
        <ele>600</ele>
        <time>2010-07-18 13:35:44Z</time>
      </trkpt>
      <trkpt lat="45.92141" lon="6.14986">
        <ele>602</ele>
        <time>2010-07-18 13:35:48Z</time>
      </trkpt>
      <trkpt lat="45.92135" lon="6.14979">
        <ele>602</ele>
        <time>2010-07-18 13:35:52Z</time>
      </trkpt>
      <trkpt lat="45.9213" lon="6.14966">
        <ele>602</ele>
        <time>2010-07-18 13:35:56Z</time>
      </trkpt>
      <trkpt lat="45.92125" lon="6.1495">
        <ele>602</ele>
        <time>2010-07-18 13:36:00Z</time>
      </trkpt>
      <trkpt lat="45.92121" lon="6.14937">
        <ele>602</ele>
        <time>2010-07-18 13:36:04Z</time>
      </trkpt>
      <trkpt lat="45.92116" lon="6.14924">
        <ele>600</ele>
        <time>2010-07-18 13:36:08Z</time>
      </trkpt>
      <trkpt lat="45.92109" lon="6.14911">
        <ele>599</ele>
        <time>2010-07-18 13:36:12Z</time>
      </trkpt>
      <trkpt lat="45.92103" lon="6.14898">
        <ele>598</ele>
        <time>2010-07-18 13:36:16Z</time>
      </trkpt>
      <trkpt lat="45.92096" lon="6.14887">
        <ele>595</ele>
        <time>2010-07-18 13:36:20Z</time>
      </trkpt>
      <trkpt lat="45.92088" lon="6.14872">
        <ele>594</ele>
        <time>2010-07-18 13:36:24Z</time>
      </trkpt>
      <trkpt lat="45.92082" lon="6.14859">
        <ele>593</ele>
        <time>2010-07-18 13:36:28Z</time>
      </trkpt>
      <trkpt lat="45.92077" lon="6.14846">
        <ele>592</ele>
        <time>2010-07-18 13:36:32Z</time>
      </trkpt>
      <trkpt lat="45.92071" lon="6.14832">
        <ele>590</ele>
        <time>2010-07-18 13:36:36Z</time>
      </trkpt>
      <trkpt lat="45.92065" lon="6.1482">
        <ele>589</ele>
        <time>2010-07-18 13:36:40Z</time>
      </trkpt>
      <trkpt lat="45.92059" lon="6.14809">
        <ele>587</ele>
        <time>2010-07-18 13:36:44Z</time>
      </trkpt>
      <trkpt lat="45.92051" lon="6.14797">
        <ele>586</ele>
        <time>2010-07-18 13:36:48Z</time>
      </trkpt>
      <trkpt lat="45.92044" lon="6.14786">
        <ele>585</ele>
        <time>2010-07-18 13:36:52Z</time>
      </trkpt>
      <trkpt lat="45.92036" lon="6.14776">
        <ele>585</ele>
        <time>2010-07-18 13:36:56Z</time>
      </trkpt>
      <trkpt lat="45.92028" lon="6.14768">
        <ele>585</ele>
        <time>2010-07-18 13:37:00Z</time>
      </trkpt>
      <trkpt lat="45.92019" lon="6.14758">
        <ele>585</ele>
        <time>2010-07-18 13:37:04Z</time>
      </trkpt>
      <trkpt lat="45.92013" lon="6.14753">
        <ele>586</ele>
        <time>2010-07-18 13:37:08Z</time>
      </trkpt>
      <trkpt lat="45.92008" lon="6.1475">
        <ele>585</ele>
        <time>2010-07-18 13:37:12Z</time>
      </trkpt>
      <trkpt lat="45.92" lon="6.14742">
        <ele>583</ele>
        <time>2010-07-18 13:37:16Z</time>
      </trkpt>
      <trkpt lat="45.91995" lon="6.14735">
        <ele>581</ele>
        <time>2010-07-18 13:37:20Z</time>
      </trkpt>
      <trkpt lat="45.9199" lon="6.14729">
        <ele>580</ele>
        <time>2010-07-18 13:37:24Z</time>
      </trkpt>
      <trkpt lat="45.91986" lon="6.14722">
        <ele>580</ele>
        <time>2010-07-18 13:37:28Z</time>
      </trkpt>
      <trkpt lat="45.91981" lon="6.14714">
        <ele>581</ele>
        <time>2010-07-18 13:37:32Z</time>
      </trkpt>
      <trkpt lat="45.91977" lon="6.14707">
        <ele>580</ele>
        <time>2010-07-18 13:37:36Z</time>
      </trkpt>
      <trkpt lat="45.91974" lon="6.14698">
        <ele>581</ele>
        <time>2010-07-18 13:37:40Z</time>
      </trkpt>
      <trkpt lat="45.9197" lon="6.14691">
        <ele>580</ele>
        <time>2010-07-18 13:37:44Z</time>
      </trkpt>
      <trkpt lat="45.91966" lon="6.14682">
        <ele>579</ele>
        <time>2010-07-18 13:37:48Z</time>
      </trkpt>
      <trkpt lat="45.91961" lon="6.14674">
        <ele>577</ele>
        <time>2010-07-18 13:37:52Z</time>
      </trkpt>
      <trkpt lat="45.91958" lon="6.14666">
        <ele>576</ele>
        <time>2010-07-18 13:37:56Z</time>
      </trkpt>
      <trkpt lat="45.91954" lon="6.14657">
        <ele>575</ele>
        <time>2010-07-18 13:38:00Z</time>
      </trkpt>
      <trkpt lat="45.91951" lon="6.1465">
        <ele>575</ele>
        <time>2010-07-18 13:38:04Z</time>
      </trkpt>
      <trkpt lat="45.91948" lon="6.14644">
        <ele>574</ele>
        <time>2010-07-18 13:38:08Z</time>
      </trkpt>
      <trkpt lat="45.91946" lon="6.14638">
        <ele>574</ele>
        <time>2010-07-18 13:38:12Z</time>
      </trkpt>
      <trkpt lat="45.91944" lon="6.14631">
        <ele>574</ele>
        <time>2010-07-18 13:38:16Z</time>
      </trkpt>
      <trkpt lat="45.91943" lon="6.14623">
        <ele>575</ele>
        <time>2010-07-18 13:38:20Z</time>
      </trkpt>
      <trkpt lat="45.91943" lon="6.14615">
        <ele>577</ele>
        <time>2010-07-18 13:38:24Z</time>
      </trkpt>
      <trkpt lat="45.91943" lon="6.14606">
        <ele>577</ele>
        <time>2010-07-18 13:38:28Z</time>
      </trkpt>
      <trkpt lat="45.91943" lon="6.14597">
        <ele>577</ele>
        <time>2010-07-18 13:38:32Z</time>
      </trkpt>
      <trkpt lat="45.91943" lon="6.14587">
        <ele>577</ele>
        <time>2010-07-18 13:38:36Z</time>
      </trkpt>
      <trkpt lat="45.91942" lon="6.1458">
        <ele>577</ele>
        <time>2010-07-18 13:38:40Z</time>
      </trkpt>
      <trkpt lat="45.91942" lon="6.14572">
        <ele>577</ele>
        <time>2010-07-18 13:38:44Z</time>
      </trkpt>
      <trkpt lat="45.91941" lon="6.14564">
        <ele>579</ele>
        <time>2010-07-18 13:38:48Z</time>
      </trkpt>
      <trkpt lat="45.91938" lon="6.14551">
        <ele>581</ele>
        <time>2010-07-18 13:38:52Z</time>
      </trkpt>
      <trkpt lat="45.91935" lon="6.14539">
        <ele>583</ele>
        <time>2010-07-18 13:38:56Z</time>
      </trkpt>
      <trkpt lat="45.91933" lon="6.14527">
        <ele>584</ele>
        <time>2010-07-18 13:39:00Z</time>
      </trkpt>
      <trkpt lat="45.91929" lon="6.14515">
        <ele>585</ele>
        <time>2010-07-18 13:39:04Z</time>
      </trkpt>
      <trkpt lat="45.91926" lon="6.14502">
        <ele>587</ele>
        <time>2010-07-18 13:39:08Z</time>
      </trkpt>
      <trkpt lat="45.91925" lon="6.14486">
        <ele>588</ele>
        <time>2010-07-18 13:39:12Z</time>
      </trkpt>
      <trkpt lat="45.91925" lon="6.14473">
        <ele>590</ele>
        <time>2010-07-18 13:39:16Z</time>
      </trkpt>
      <trkpt lat="45.91925" lon="6.14458">
        <ele>590</ele>
        <time>2010-07-18 13:39:20Z</time>
      </trkpt>
      <trkpt lat="45.91926" lon="6.14441">
        <ele>588</ele>
        <time>2010-07-18 13:39:24Z</time>
      </trkpt>
      <trkpt lat="45.91927" lon="6.14423">
        <ele>588</ele>
        <time>2010-07-18 13:39:28Z</time>
      </trkpt>
      <trkpt lat="45.91927" lon="6.14403">
        <ele>587</ele>
        <time>2010-07-18 13:39:32Z</time>
      </trkpt>
      <trkpt lat="45.91926" lon="6.14389">
        <ele>586</ele>
        <time>2010-07-18 13:39:36Z</time>
      </trkpt>
      <trkpt lat="45.91925" lon="6.14375">
        <ele>586</ele>
        <time>2010-07-18 13:39:40Z</time>
      </trkpt>
      <trkpt lat="45.91925" lon="6.14361">
        <ele>586</ele>
        <time>2010-07-18 13:39:44Z</time>
      </trkpt>
      <trkpt lat="45.91923" lon="6.14347">
        <ele>585</ele>
        <time>2010-07-18 13:39:48Z</time>
      </trkpt>
      <trkpt lat="45.91915" lon="6.14333">
        <ele>584</ele>
        <time>2010-07-18 13:39:52Z</time>
      </trkpt>
      <trkpt lat="45.91909" lon="6.14323">
        <ele>581</ele>
        <time>2010-07-18 13:39:56Z</time>
      </trkpt>
      <trkpt lat="45.91907" lon="6.14307">
        <ele>580</ele>
        <time>2010-07-18 13:40:00Z</time>
      </trkpt>
      <trkpt lat="45.91909" lon="6.14293">
        <ele>582</ele>
        <time>2010-07-18 13:40:04Z</time>
      </trkpt>
      <trkpt lat="45.91913" lon="6.14279">
        <ele>583</ele>
        <time>2010-07-18 13:40:08Z</time>
      </trkpt>
      <trkpt lat="45.9192" lon="6.14264">
        <ele>583</ele>
        <time>2010-07-18 13:40:12Z</time>
      </trkpt>
      <trkpt lat="45.91927" lon="6.1425">
        <ele>582</ele>
        <time>2010-07-18 13:40:16Z</time>
      </trkpt>
      <trkpt lat="45.91933" lon="6.14237">
        <ele>581</ele>
        <time>2010-07-18 13:40:20Z</time>
      </trkpt>
      <trkpt lat="45.91938" lon="6.14226">
        <ele>579</ele>
        <time>2010-07-18 13:40:24Z</time>
      </trkpt>
      <trkpt lat="45.91937" lon="6.14212">
        <ele>579</ele>
        <time>2010-07-18 13:40:28Z</time>
      </trkpt>
      <trkpt lat="45.91932" lon="6.14202">
        <ele>579</ele>
        <time>2010-07-18 13:40:32Z</time>
      </trkpt>
      <trkpt lat="45.91926" lon="6.14191">
        <ele>579</ele>
        <time>2010-07-18 13:40:36Z</time>
      </trkpt>
      <trkpt lat="45.91919" lon="6.14178">
        <ele>577</ele>
        <time>2010-07-18 13:40:40Z</time>
      </trkpt>
      <trkpt lat="45.91913" lon="6.14168">
        <ele>576</ele>
        <time>2010-07-18 13:40:44Z</time>
      </trkpt>
      <trkpt lat="45.91909" lon="6.14156">
        <ele>577</ele>
        <time>2010-07-18 13:40:48Z</time>
      </trkpt>
      <trkpt lat="45.91906" lon="6.14142">
        <ele>579</ele>
        <time>2010-07-18 13:40:52Z</time>
      </trkpt>
      <trkpt lat="45.91903" lon="6.14125">
        <ele>579</ele>
        <time>2010-07-18 13:40:56Z</time>
      </trkpt>
      <trkpt lat="45.91902" lon="6.1411">
        <ele>580</ele>
        <time>2010-07-18 13:41:00Z</time>
      </trkpt>
      <trkpt lat="45.91903" lon="6.14095">
        <ele>580</ele>
        <time>2010-07-18 13:41:04Z</time>
      </trkpt>
      <trkpt lat="45.91906" lon="6.1408">
        <ele>581</ele>
        <time>2010-07-18 13:41:08Z</time>
      </trkpt>
      <trkpt lat="45.91908" lon="6.14062">
        <ele>581</ele>
        <time>2010-07-18 13:41:12Z</time>
      </trkpt>
      <trkpt lat="45.91912" lon="6.14046">
        <ele>581</ele>
        <time>2010-07-18 13:41:16Z</time>
      </trkpt>
      <trkpt lat="45.91914" lon="6.14028">
        <ele>580</ele>
        <time>2010-07-18 13:41:20Z</time>
      </trkpt>
      <trkpt lat="45.91917" lon="6.14008">
        <ele>577</ele>
        <time>2010-07-18 13:41:24Z</time>
      </trkpt>
      <trkpt lat="45.91919" lon="6.13993">
        <ele>575</ele>
        <time>2010-07-18 13:41:28Z</time>
      </trkpt>
      <trkpt lat="45.91921" lon="6.13974">
        <ele>572</ele>
        <time>2010-07-18 13:41:32Z</time>
      </trkpt>
      <trkpt lat="45.91924" lon="6.13961">
        <ele>570</ele>
        <time>2010-07-18 13:41:36Z</time>
      </trkpt>
      <trkpt lat="45.91924" lon="6.13949">
        <ele>568</ele>
        <time>2010-07-18 13:41:40Z</time>
      </trkpt>
      <trkpt lat="45.91924" lon="6.13935">
        <ele>568</ele>
        <time>2010-07-18 13:41:44Z</time>
      </trkpt>
      <trkpt lat="45.91925" lon="6.13923">
        <ele>569</ele>
        <time>2010-07-18 13:41:48Z</time>
      </trkpt>
      <trkpt lat="45.91923" lon="6.13908">
        <ele>566</ele>
        <time>2010-07-18 13:41:52Z</time>
      </trkpt>
      <trkpt lat="45.91921" lon="6.13895">
        <ele>564</ele>
        <time>2010-07-18 13:41:56Z</time>
      </trkpt>
      <trkpt lat="45.91921" lon="6.13878">
        <ele>563</ele>
        <time>2010-07-18 13:42:00Z</time>
      </trkpt>
      <trkpt lat="45.91922" lon="6.13864">
        <ele>562</ele>
        <time>2010-07-18 13:42:04Z</time>
      </trkpt>
      <trkpt lat="45.91922" lon="6.13851">
        <ele>562</ele>
        <time>2010-07-18 13:42:08Z</time>
      </trkpt>
      <trkpt lat="45.91924" lon="6.13837">
        <ele>561</ele>
        <time>2010-07-18 13:42:12Z</time>
      </trkpt>
      <trkpt lat="45.91927" lon="6.13818">
        <ele>561</ele>
        <time>2010-07-18 13:42:16Z</time>
      </trkpt>
      <trkpt lat="45.91929" lon="6.138">
        <ele>561</ele>
        <time>2010-07-18 13:42:20Z</time>
      </trkpt>
      <trkpt lat="45.91928" lon="6.13785">
        <ele>560</ele>
        <time>2010-07-18 13:42:24Z</time>
      </trkpt>
      <trkpt lat="45.9193" lon="6.13767">
        <ele>558</ele>
        <time>2010-07-18 13:42:28Z</time>
      </trkpt>
      <trkpt lat="45.91938" lon="6.13753">
        <ele>553</ele>
        <time>2010-07-18 13:42:32Z</time>
      </trkpt>
      <trkpt lat="45.9195" lon="6.1375">
        <ele>545</ele>
        <time>2010-07-18 13:42:36Z</time>
      </trkpt>
      <trkpt lat="45.9196" lon="6.13752">
        <ele>539</ele>
        <time>2010-07-18 13:42:40Z</time>
      </trkpt>
      <trkpt lat="45.91964" lon="6.1376">
        <ele>535</ele>
        <time>2010-07-18 13:42:44Z</time>
      </trkpt>
      <trkpt lat="45.91964" lon="6.13762">
        <ele>533</ele>
        <time>2010-07-18 13:42:48Z</time>
      </trkpt>
      <trkpt lat="45.91963" lon="6.13761">
        <ele>532</ele>
        <time>2010-07-18 13:42:52Z</time>
      </trkpt>
      <trkpt lat="45.91963" lon="6.1376">
        <ele>529</ele>
        <time>2010-07-18 13:42:56Z</time>
      </trkpt>
      <trkpt lat="45.91963" lon="6.1376">
        <ele>529</ele>
        <time>2010-07-18 13:43:00Z</time>
      </trkpt>
      <trkpt lat="45.91963" lon="6.1376">
        <ele>529</ele>
        <time>2010-07-18 13:43:04Z</time>
      </trkpt>
      <trkpt lat="45.91963" lon="6.13761">
        <ele>529</ele>
        <time>2010-07-18 13:43:08Z</time>
      </trkpt>
      <trkpt lat="45.91963" lon="6.13761">
        <ele>530</ele>
        <time>2010-07-18 13:43:12Z</time>
      </trkpt>
      <trkpt lat="45.91962" lon="6.13761">
        <ele>530</ele>
        <time>2010-07-18 13:43:16Z</time>
      </trkpt>
      <trkpt lat="45.91962" lon="6.13762">
        <ele>530</ele>
        <time>2010-07-18 13:43:20Z</time>
      </trkpt>
      <trkpt lat="45.91962" lon="6.13762">
        <ele>530</ele>
        <time>2010-07-18 13:43:24Z</time>
      </trkpt>
      <trkpt lat="45.91962" lon="6.13762">
        <ele>530</ele>
        <time>2010-07-18 13:43:28Z</time>
      </trkpt>
      <trkpt lat="45.91962" lon="6.13762">
        <ele>530</ele>
        <time>2010-07-18 13:43:32Z</time>
      </trkpt>
      <trkpt lat="45.91962" lon="6.13761">
        <ele>531</ele>
        <time>2010-07-18 13:43:36Z</time>
      </trkpt>
      <trkpt lat="45.91962" lon="6.1376">
        <ele>531</ele>
        <time>2010-07-18 13:43:40Z</time>
      </trkpt>
      <trkpt lat="45.91962" lon="6.1376">
        <ele>531</ele>
        <time>2010-07-18 13:43:44Z</time>
      </trkpt>
      <trkpt lat="45.91962" lon="6.1376">
        <ele>531</ele>
        <time>2010-07-18 13:43:48Z</time>
      </trkpt>
      <trkpt lat="45.91962" lon="6.1376">
        <ele>531</ele>
        <time>2010-07-18 13:43:52Z</time>
      </trkpt>
      <trkpt lat="45.91962" lon="6.1376">
        <ele>531</ele>
        <time>2010-07-18 13:43:56Z</time>
      </trkpt>
      <trkpt lat="45.91962" lon="6.1376">
        <ele>531</ele>
        <time>2010-07-18 13:44:00Z</time>
      </trkpt>
      <trkpt lat="45.9196" lon="6.1376">
        <ele>534</ele>
        <time>2010-07-18 13:44:04Z</time>
      </trkpt>
      <trkpt lat="45.9196" lon="6.13759">
        <ele>536</ele>
        <time>2010-07-18 13:44:08Z</time>
      </trkpt>
    </trkseg>
  </trk>
</gpx>